<?xml version="1.0" encoding="UTF-8" standalone="no" ?>
<gpx xmlns="http://www.topografix.com/GPX/1/1" xmlns:xsi="http://www.w3.org/2001/XMLSchema-instance" xsi:schemaLocation="http://www.topografix.com/GPX/1/1 http://www.topografix.com/GPX/1/1/gpx.xsd" version="1.1" creator="VisuGPX - https://www.visugpx.com">
  <metadata>
    <name>noisette 2018 moto</name>
    <desc><![CDATA[111111111111111111111111111111111111111111111111111111111111111111111111111111111111111111111]]></desc>
  </metadata>
  <trk>
    <name><![CDATA[Strava-1750873315 by Strava to GPX]]></name>
    <trkseg>
      <trkpt lat="44.53621" lon="0.62491">
        <ele>171.8</ele>
        <time>2018-08-25T16:47:28Z</time>
      </trkpt>
      <trkpt lat="44.53632" lon="0.62497">
        <ele>170.7</ele>
        <time>2018-08-25T16:48:35Z</time>
      </trkpt>
      <trkpt lat="44.53633" lon="0.62493">
        <ele>170.8</ele>
        <time>2018-08-25T16:48:36Z</time>
      </trkpt>
      <trkpt lat="44.53632" lon="0.62489">
        <ele>170.8</ele>
        <time>2018-08-25T16:48:37Z</time>
      </trkpt>
      <trkpt lat="44.53629" lon="0.62483">
        <ele>170.9</ele>
        <time>2018-08-25T16:48:38Z</time>
      </trkpt>
      <trkpt lat="44.53623" lon="0.62477">
        <ele>171</ele>
        <time>2018-08-25T16:48:39Z</time>
      </trkpt>
      <trkpt lat="44.53618" lon="0.62475">
        <ele>171</ele>
        <time>2018-08-25T16:48:40Z</time>
      </trkpt>
      <trkpt lat="44.53611" lon="0.62473">
        <ele>171</ele>
        <time>2018-08-25T16:48:41Z</time>
      </trkpt>
      <trkpt lat="44.53609" lon="0.62468">
        <ele>171</ele>
        <time>2018-08-25T16:48:42Z</time>
      </trkpt>
      <trkpt lat="44.53611" lon="0.62461">
        <ele>171.4</ele>
        <time>2018-08-25T16:48:43Z</time>
      </trkpt>
      <trkpt lat="44.5361" lon="0.62453">
        <ele>171.8</ele>
        <time>2018-08-25T16:48:44Z</time>
      </trkpt>
      <trkpt lat="44.53613" lon="0.62442">
        <ele>172.5</ele>
        <time>2018-08-25T16:48:45Z</time>
      </trkpt>
      <trkpt lat="44.53612" lon="0.62431">
        <ele>173.1</ele>
        <time>2018-08-25T16:48:46Z</time>
      </trkpt>
      <trkpt lat="44.53613" lon="0.6242">
        <ele>174.4</ele>
        <time>2018-08-25T16:48:47Z</time>
      </trkpt>
      <trkpt lat="44.53612" lon="0.62413">
        <ele>174.9</ele>
        <time>2018-08-25T16:48:48Z</time>
      </trkpt>
      <trkpt lat="44.53612" lon="0.62405">
        <ele>175.4</ele>
        <time>2018-08-25T16:48:49Z</time>
      </trkpt>
      <trkpt lat="44.53613" lon="0.624">
        <ele>175.8</ele>
        <time>2018-08-25T16:48:50Z</time>
      </trkpt>
      <trkpt lat="44.53611" lon="0.62394">
        <ele>176.3</ele>
        <time>2018-08-25T16:48:52Z</time>
      </trkpt>
      <trkpt lat="44.53612" lon="0.62389">
        <ele>177</ele>
        <time>2018-08-25T16:48:53Z</time>
      </trkpt>
      <trkpt lat="44.53609" lon="0.62383">
        <ele>177</ele>
        <time>2018-08-25T16:48:55Z</time>
      </trkpt>
      <trkpt lat="44.53609" lon="0.62378">
        <ele>177</ele>
        <time>2018-08-25T16:48:58Z</time>
      </trkpt>
      <trkpt lat="44.53608" lon="0.62374">
        <ele>176.9</ele>
        <time>2018-08-25T16:49:03Z</time>
      </trkpt>
      <trkpt lat="44.53607" lon="0.6237">
        <ele>176.7</ele>
        <time>2018-08-25T16:49:04Z</time>
      </trkpt>
      <trkpt lat="44.53606" lon="0.62362">
        <ele>176.4</ele>
        <time>2018-08-25T16:49:05Z</time>
      </trkpt>
      <trkpt lat="44.53606" lon="0.62352">
        <ele>175.9</ele>
        <time>2018-08-25T16:49:06Z</time>
      </trkpt>
      <trkpt lat="44.53603" lon="0.62342">
        <ele>175.4</ele>
        <time>2018-08-25T16:49:07Z</time>
      </trkpt>
      <trkpt lat="44.536" lon="0.62332">
        <ele>175</ele>
        <time>2018-08-25T16:49:08Z</time>
      </trkpt>
      <trkpt lat="44.53597" lon="0.62322">
        <ele>174.5</ele>
        <time>2018-08-25T16:49:09Z</time>
      </trkpt>
      <trkpt lat="44.53595" lon="0.62311">
        <ele>174</ele>
        <time>2018-08-25T16:49:10Z</time>
      </trkpt>
      <trkpt lat="44.53596" lon="0.62298">
        <ele>173.2</ele>
        <time>2018-08-25T16:49:11Z</time>
      </trkpt>
      <trkpt lat="44.53595" lon="0.62285">
        <ele>172.3</ele>
        <time>2018-08-25T16:49:12Z</time>
      </trkpt>
      <trkpt lat="44.53592" lon="0.62275">
        <ele>171.6</ele>
        <time>2018-08-25T16:49:13Z</time>
      </trkpt>
      <trkpt lat="44.5359" lon="0.62263">
        <ele>170.4</ele>
        <time>2018-08-25T16:49:14Z</time>
      </trkpt>
      <trkpt lat="44.53588" lon="0.62252">
        <ele>169.2</ele>
        <time>2018-08-25T16:49:15Z</time>
      </trkpt>
      <trkpt lat="44.53587" lon="0.6224">
        <ele>167.8</ele>
        <time>2018-08-25T16:49:16Z</time>
      </trkpt>
      <trkpt lat="44.53584" lon="0.6223">
        <ele>166.3</ele>
        <time>2018-08-25T16:49:17Z</time>
      </trkpt>
      <trkpt lat="44.53582" lon="0.6222">
        <ele>164.8</ele>
        <time>2018-08-25T16:49:18Z</time>
      </trkpt>
      <trkpt lat="44.53579" lon="0.62209">
        <ele>163.6</ele>
        <time>2018-08-25T16:49:19Z</time>
      </trkpt>
      <trkpt lat="44.53579" lon="0.62198">
        <ele>162.3</ele>
        <time>2018-08-25T16:49:20Z</time>
      </trkpt>
      <trkpt lat="44.53579" lon="0.62186">
        <ele>161</ele>
        <time>2018-08-25T16:49:21Z</time>
      </trkpt>
      <trkpt lat="44.53579" lon="0.62172">
        <ele>159.6</ele>
        <time>2018-08-25T16:49:22Z</time>
      </trkpt>
      <trkpt lat="44.5358" lon="0.62161">
        <ele>157.8</ele>
        <time>2018-08-25T16:49:23Z</time>
      </trkpt>
      <trkpt lat="44.53579" lon="0.62151">
        <ele>155.5</ele>
        <time>2018-08-25T16:49:24Z</time>
      </trkpt>
      <trkpt lat="44.53581" lon="0.62142">
        <ele>153.7</ele>
        <time>2018-08-25T16:49:25Z</time>
      </trkpt>
      <trkpt lat="44.53579" lon="0.62138">
        <ele>152.7</ele>
        <time>2018-08-25T16:49:26Z</time>
      </trkpt>
      <trkpt lat="44.53579" lon="0.62132">
        <ele>151.6</ele>
        <time>2018-08-25T16:49:27Z</time>
      </trkpt>
      <trkpt lat="44.53576" lon="0.62127">
        <ele>150.3</ele>
        <time>2018-08-25T16:49:28Z</time>
      </trkpt>
      <trkpt lat="44.53571" lon="0.62123">
        <ele>148.1</ele>
        <time>2018-08-25T16:49:29Z</time>
      </trkpt>
      <trkpt lat="44.53565" lon="0.62122">
        <ele>148.2</ele>
        <time>2018-08-25T16:49:30Z</time>
      </trkpt>
      <trkpt lat="44.53558" lon="0.62123">
        <ele>148.3</ele>
        <time>2018-08-25T16:49:31Z</time>
      </trkpt>
      <trkpt lat="44.53552" lon="0.62126">
        <ele>148.4</ele>
        <time>2018-08-25T16:49:32Z</time>
      </trkpt>
      <trkpt lat="44.53547" lon="0.62129">
        <ele>148.4</ele>
        <time>2018-08-25T16:49:33Z</time>
      </trkpt>
      <trkpt lat="44.53543" lon="0.62131">
        <ele>148.5</ele>
        <time>2018-08-25T16:49:34Z</time>
      </trkpt>
      <trkpt lat="44.53539" lon="0.6213">
        <ele>148.5</ele>
        <time>2018-08-25T16:49:35Z</time>
      </trkpt>
      <trkpt lat="44.53536" lon="0.62129">
        <ele>148.5</ele>
        <time>2018-08-25T16:49:36Z</time>
      </trkpt>
      <trkpt lat="44.53533" lon="0.62128">
        <ele>148.6</ele>
        <time>2018-08-25T16:49:37Z</time>
      </trkpt>
      <trkpt lat="44.53529" lon="0.62125">
        <ele>148.6</ele>
        <time>2018-08-25T16:49:38Z</time>
      </trkpt>
      <trkpt lat="44.53527" lon="0.62121">
        <ele>148.7</ele>
        <time>2018-08-25T16:49:39Z</time>
      </trkpt>
      <trkpt lat="44.53528" lon="0.62115">
        <ele>147.7</ele>
        <time>2018-08-25T16:49:40Z</time>
      </trkpt>
      <trkpt lat="44.53531" lon="0.6211">
        <ele>147.3</ele>
        <time>2018-08-25T16:49:41Z</time>
      </trkpt>
      <trkpt lat="44.53534" lon="0.62105">
        <ele>147</ele>
        <time>2018-08-25T16:49:42Z</time>
      </trkpt>
      <trkpt lat="44.53538" lon="0.62097">
        <ele>145.9</ele>
        <time>2018-08-25T16:49:43Z</time>
      </trkpt>
      <trkpt lat="44.53544" lon="0.6209">
        <ele>144.9</ele>
        <time>2018-08-25T16:49:44Z</time>
      </trkpt>
      <trkpt lat="44.53549" lon="0.62083">
        <ele>144.6</ele>
        <time>2018-08-25T16:49:45Z</time>
      </trkpt>
      <trkpt lat="44.53551" lon="0.62075">
        <ele>143.9</ele>
        <time>2018-08-25T16:49:46Z</time>
      </trkpt>
      <trkpt lat="44.53553" lon="0.62069">
        <ele>143.7</ele>
        <time>2018-08-25T16:49:47Z</time>
      </trkpt>
      <trkpt lat="44.53556" lon="0.62063">
        <ele>143</ele>
        <time>2018-08-25T16:49:48Z</time>
      </trkpt>
      <trkpt lat="44.53551" lon="0.6206">
        <ele>142.8</ele>
        <time>2018-08-25T16:49:49Z</time>
      </trkpt>
      <trkpt lat="44.53548" lon="0.62054">
        <ele>142.3</ele>
        <time>2018-08-25T16:49:50Z</time>
      </trkpt>
      <trkpt lat="44.53545" lon="0.62046">
        <ele>141.9</ele>
        <time>2018-08-25T16:49:51Z</time>
      </trkpt>
      <trkpt lat="44.5354" lon="0.62039">
        <ele>141.1</ele>
        <time>2018-08-25T16:49:52Z</time>
      </trkpt>
      <trkpt lat="44.53534" lon="0.62031">
        <ele>140.2</ele>
        <time>2018-08-25T16:49:53Z</time>
      </trkpt>
      <trkpt lat="44.53528" lon="0.6202">
        <ele>139.3</ele>
        <time>2018-08-25T16:49:54Z</time>
      </trkpt>
      <trkpt lat="44.53522" lon="0.62012">
        <ele>138.5</ele>
        <time>2018-08-25T16:49:55Z</time>
      </trkpt>
      <trkpt lat="44.53516" lon="0.62003">
        <ele>137.6</ele>
        <time>2018-08-25T16:49:56Z</time>
      </trkpt>
      <trkpt lat="44.53514" lon="0.61995">
        <ele>137.2</ele>
        <time>2018-08-25T16:49:57Z</time>
      </trkpt>
      <trkpt lat="44.5351" lon="0.61985">
        <ele>136.8</ele>
        <time>2018-08-25T16:49:58Z</time>
      </trkpt>
      <trkpt lat="44.53507" lon="0.61977">
        <ele>136.4</ele>
        <time>2018-08-25T16:49:59Z</time>
      </trkpt>
      <trkpt lat="44.53502" lon="0.61969">
        <ele>135.8</ele>
        <time>2018-08-25T16:50:00Z</time>
      </trkpt>
      <trkpt lat="44.53498" lon="0.61961">
        <ele>135.3</ele>
        <time>2018-08-25T16:50:01Z</time>
      </trkpt>
      <trkpt lat="44.53491" lon="0.61952">
        <ele>134.9</ele>
        <time>2018-08-25T16:50:02Z</time>
      </trkpt>
      <trkpt lat="44.53487" lon="0.61943">
        <ele>134.4</ele>
        <time>2018-08-25T16:50:03Z</time>
      </trkpt>
      <trkpt lat="44.53482" lon="0.61935">
        <ele>133.7</ele>
        <time>2018-08-25T16:50:04Z</time>
      </trkpt>
      <trkpt lat="44.53478" lon="0.61926">
        <ele>133.2</ele>
        <time>2018-08-25T16:50:05Z</time>
      </trkpt>
      <trkpt lat="44.53474" lon="0.61919">
        <ele>132.8</ele>
        <time>2018-08-25T16:50:06Z</time>
      </trkpt>
      <trkpt lat="44.5347" lon="0.61911">
        <ele>132.3</ele>
        <time>2018-08-25T16:50:07Z</time>
      </trkpt>
      <trkpt lat="44.53467" lon="0.61904">
        <ele>131.8</ele>
        <time>2018-08-25T16:50:08Z</time>
      </trkpt>
      <trkpt lat="44.53465" lon="0.61896">
        <ele>131.3</ele>
        <time>2018-08-25T16:50:09Z</time>
      </trkpt>
      <trkpt lat="44.53459" lon="0.61886">
        <ele>130.6</ele>
        <time>2018-08-25T16:50:10Z</time>
      </trkpt>
      <trkpt lat="44.53454" lon="0.61879">
        <ele>130</ele>
        <time>2018-08-25T16:50:11Z</time>
      </trkpt>
      <trkpt lat="44.5345" lon="0.61872">
        <ele>129.3</ele>
        <time>2018-08-25T16:50:12Z</time>
      </trkpt>
      <trkpt lat="44.53447" lon="0.61866">
        <ele>129</ele>
        <time>2018-08-25T16:50:13Z</time>
      </trkpt>
      <trkpt lat="44.53444" lon="0.6186">
        <ele>128.7</ele>
        <time>2018-08-25T16:50:14Z</time>
      </trkpt>
      <trkpt lat="44.53443" lon="0.61854">
        <ele>128.4</ele>
        <time>2018-08-25T16:50:15Z</time>
      </trkpt>
      <trkpt lat="44.5344" lon="0.61848">
        <ele>128.1</ele>
        <time>2018-08-25T16:50:16Z</time>
      </trkpt>
      <trkpt lat="44.53441" lon="0.61844">
        <ele>127.9</ele>
        <time>2018-08-25T16:50:17Z</time>
      </trkpt>
      <trkpt lat="44.5344" lon="0.6184">
        <ele>127.7</ele>
        <time>2018-08-25T16:50:18Z</time>
      </trkpt>
      <trkpt lat="44.53439" lon="0.61835">
        <ele>127.5</ele>
        <time>2018-08-25T16:50:19Z</time>
      </trkpt>
      <trkpt lat="44.5344" lon="0.61831">
        <ele>127.3</ele>
        <time>2018-08-25T16:50:20Z</time>
      </trkpt>
      <trkpt lat="44.53443" lon="0.61825">
        <ele>127</ele>
        <time>2018-08-25T16:50:21Z</time>
      </trkpt>
      <trkpt lat="44.53444" lon="0.61817">
        <ele>126.8</ele>
        <time>2018-08-25T16:50:22Z</time>
      </trkpt>
      <trkpt lat="44.53446" lon="0.61807">
        <ele>126.4</ele>
        <time>2018-08-25T16:50:23Z</time>
      </trkpt>
      <trkpt lat="44.53447" lon="0.61794">
        <ele>126</ele>
        <time>2018-08-25T16:50:24Z</time>
      </trkpt>
      <trkpt lat="44.53447" lon="0.6178">
        <ele>125.5</ele>
        <time>2018-08-25T16:50:25Z</time>
      </trkpt>
      <trkpt lat="44.53447" lon="0.61765">
        <ele>125.2</ele>
        <time>2018-08-25T16:50:26Z</time>
      </trkpt>
      <trkpt lat="44.53445" lon="0.61746">
        <ele>124.9</ele>
        <time>2018-08-25T16:50:27Z</time>
      </trkpt>
      <trkpt lat="44.53442" lon="0.61727">
        <ele>124.6</ele>
        <time>2018-08-25T16:50:28Z</time>
      </trkpt>
      <trkpt lat="44.5344" lon="0.61707">
        <ele>124.6</ele>
        <time>2018-08-25T16:50:29Z</time>
      </trkpt>
      <trkpt lat="44.53437" lon="0.61689">
        <ele>124.5</ele>
        <time>2018-08-25T16:50:30Z</time>
      </trkpt>
      <trkpt lat="44.53434" lon="0.61671">
        <ele>124.6</ele>
        <time>2018-08-25T16:50:31Z</time>
      </trkpt>
      <trkpt lat="44.53433" lon="0.61656">
        <ele>124.9</ele>
        <time>2018-08-25T16:50:32Z</time>
      </trkpt>
      <trkpt lat="44.5343" lon="0.61641">
        <ele>125</ele>
        <time>2018-08-25T16:50:33Z</time>
      </trkpt>
      <trkpt lat="44.5343" lon="0.61625">
        <ele>124.9</ele>
        <time>2018-08-25T16:50:34Z</time>
      </trkpt>
      <trkpt lat="44.53431" lon="0.6161">
        <ele>124.6</ele>
        <time>2018-08-25T16:50:35Z</time>
      </trkpt>
      <trkpt lat="44.53434" lon="0.61595">
        <ele>124.2</ele>
        <time>2018-08-25T16:50:36Z</time>
      </trkpt>
      <trkpt lat="44.53436" lon="0.6158">
        <ele>123.9</ele>
        <time>2018-08-25T16:50:37Z</time>
      </trkpt>
      <trkpt lat="44.53441" lon="0.61566">
        <ele>123.5</ele>
        <time>2018-08-25T16:50:38Z</time>
      </trkpt>
      <trkpt lat="44.53444" lon="0.61551">
        <ele>123</ele>
        <time>2018-08-25T16:50:39Z</time>
      </trkpt>
      <trkpt lat="44.53447" lon="0.61537">
        <ele>122.7</ele>
        <time>2018-08-25T16:50:40Z</time>
      </trkpt>
      <trkpt lat="44.53449" lon="0.61522">
        <ele>122</ele>
        <time>2018-08-25T16:50:41Z</time>
      </trkpt>
      <trkpt lat="44.53449" lon="0.61506">
        <ele>121.6</ele>
        <time>2018-08-25T16:50:42Z</time>
      </trkpt>
      <trkpt lat="44.53452" lon="0.61491">
        <ele>121.2</ele>
        <time>2018-08-25T16:50:43Z</time>
      </trkpt>
      <trkpt lat="44.53456" lon="0.61474">
        <ele>120.8</ele>
        <time>2018-08-25T16:50:44Z</time>
      </trkpt>
      <trkpt lat="44.53457" lon="0.6146">
        <ele>120.2</ele>
        <time>2018-08-25T16:50:45Z</time>
      </trkpt>
      <trkpt lat="44.5346" lon="0.61442">
        <ele>119.5</ele>
        <time>2018-08-25T16:50:46Z</time>
      </trkpt>
      <trkpt lat="44.53463" lon="0.61422">
        <ele>118.9</ele>
        <time>2018-08-25T16:50:47Z</time>
      </trkpt>
      <trkpt lat="44.53467" lon="0.61401">
        <ele>118.4</ele>
        <time>2018-08-25T16:50:48Z</time>
      </trkpt>
      <trkpt lat="44.53471" lon="0.61381">
        <ele>117.8</ele>
        <time>2018-08-25T16:50:49Z</time>
      </trkpt>
      <trkpt lat="44.53475" lon="0.61362">
        <ele>117.2</ele>
        <time>2018-08-25T16:50:50Z</time>
      </trkpt>
      <trkpt lat="44.53478" lon="0.61344">
        <ele>116.9</ele>
        <time>2018-08-25T16:50:51Z</time>
      </trkpt>
      <trkpt lat="44.53481" lon="0.61328">
        <ele>116.7</ele>
        <time>2018-08-25T16:50:52Z</time>
      </trkpt>
      <trkpt lat="44.53484" lon="0.61312">
        <ele>116.7</ele>
        <time>2018-08-25T16:50:53Z</time>
      </trkpt>
      <trkpt lat="44.53485" lon="0.61298">
        <ele>116.8</ele>
        <time>2018-08-25T16:50:54Z</time>
      </trkpt>
      <trkpt lat="44.53485" lon="0.61286">
        <ele>116.9</ele>
        <time>2018-08-25T16:50:55Z</time>
      </trkpt>
      <trkpt lat="44.53485" lon="0.61275">
        <ele>117</ele>
        <time>2018-08-25T16:50:56Z</time>
      </trkpt>
      <trkpt lat="44.53486" lon="0.61266">
        <ele>116.7</ele>
        <time>2018-08-25T16:50:57Z</time>
      </trkpt>
      <trkpt lat="44.53489" lon="0.61258">
        <ele>116.4</ele>
        <time>2018-08-25T16:50:58Z</time>
      </trkpt>
      <trkpt lat="44.53493" lon="0.61247">
        <ele>116</ele>
        <time>2018-08-25T16:50:59Z</time>
      </trkpt>
      <trkpt lat="44.53498" lon="0.61236">
        <ele>115.6</ele>
        <time>2018-08-25T16:51:00Z</time>
      </trkpt>
      <trkpt lat="44.53502" lon="0.61225">
        <ele>115.2</ele>
        <time>2018-08-25T16:51:01Z</time>
      </trkpt>
      <trkpt lat="44.53505" lon="0.61213">
        <ele>114.7</ele>
        <time>2018-08-25T16:51:02Z</time>
      </trkpt>
      <trkpt lat="44.5351" lon="0.61201">
        <ele>114.3</ele>
        <time>2018-08-25T16:51:03Z</time>
      </trkpt>
      <trkpt lat="44.53514" lon="0.6119">
        <ele>113.9</ele>
        <time>2018-08-25T16:51:04Z</time>
      </trkpt>
      <trkpt lat="44.53518" lon="0.61178">
        <ele>113.5</ele>
        <time>2018-08-25T16:51:05Z</time>
      </trkpt>
      <trkpt lat="44.5352" lon="0.61167">
        <ele>113.2</ele>
        <time>2018-08-25T16:51:06Z</time>
      </trkpt>
      <trkpt lat="44.53522" lon="0.61161">
        <ele>113</ele>
        <time>2018-08-25T16:51:07Z</time>
      </trkpt>
      <trkpt lat="44.53525" lon="0.61157">
        <ele>113</ele>
        <time>2018-08-25T16:51:08Z</time>
      </trkpt>
      <trkpt lat="44.53528" lon="0.61156">
        <ele>113</ele>
        <time>2018-08-25T16:51:09Z</time>
      </trkpt>
      <trkpt lat="44.5353" lon="0.61159">
        <ele>113</ele>
        <time>2018-08-25T16:51:10Z</time>
      </trkpt>
      <trkpt lat="44.53537" lon="0.6116">
        <ele>113</ele>
        <time>2018-08-25T16:51:11Z</time>
      </trkpt>
      <trkpt lat="44.53542" lon="0.61164">
        <ele>113</ele>
        <time>2018-08-25T16:51:12Z</time>
      </trkpt>
      <trkpt lat="44.53548" lon="0.61163">
        <ele>112.9</ele>
        <time>2018-08-25T16:51:13Z</time>
      </trkpt>
      <trkpt lat="44.53551" lon="0.61163">
        <ele>112.9</ele>
        <time>2018-08-25T16:51:14Z</time>
      </trkpt>
      <trkpt lat="44.53555" lon="0.61159">
        <ele>112.9</ele>
        <time>2018-08-25T16:51:15Z</time>
      </trkpt>
      <trkpt lat="44.53558" lon="0.61154">
        <ele>112.9</ele>
        <time>2018-08-25T16:51:16Z</time>
      </trkpt>
      <trkpt lat="44.53578" lon="0.61131">
        <ele>113.3</ele>
        <time>2018-08-25T16:51:18Z</time>
      </trkpt>
      <trkpt lat="44.53588" lon="0.61117">
        <ele>111.5</ele>
        <time>2018-08-25T16:51:19Z</time>
      </trkpt>
      <trkpt lat="44.53599" lon="0.61104">
        <ele>109.4</ele>
        <time>2018-08-25T16:51:20Z</time>
      </trkpt>
      <trkpt lat="44.53612" lon="0.6109">
        <ele>110.5</ele>
        <time>2018-08-25T16:51:21Z</time>
      </trkpt>
      <trkpt lat="44.53621" lon="0.61077">
        <ele>112</ele>
        <time>2018-08-25T16:51:22Z</time>
      </trkpt>
      <trkpt lat="44.5363" lon="0.61065">
        <ele>111.8</ele>
        <time>2018-08-25T16:51:23Z</time>
      </trkpt>
      <trkpt lat="44.53639" lon="0.61048">
        <ele>110.3</ele>
        <time>2018-08-25T16:51:24Z</time>
      </trkpt>
      <trkpt lat="44.53647" lon="0.6103">
        <ele>111</ele>
        <time>2018-08-25T16:51:25Z</time>
      </trkpt>
      <trkpt lat="44.53654" lon="0.6101">
        <ele>111.4</ele>
        <time>2018-08-25T16:51:26Z</time>
      </trkpt>
      <trkpt lat="44.53657" lon="0.60989">
        <ele>108.5</ele>
        <time>2018-08-25T16:51:27Z</time>
      </trkpt>
      <trkpt lat="44.53665" lon="0.60967">
        <ele>109.3</ele>
        <time>2018-08-25T16:51:28Z</time>
      </trkpt>
      <trkpt lat="44.53669" lon="0.60949">
        <ele>109.5</ele>
        <time>2018-08-25T16:51:29Z</time>
      </trkpt>
      <trkpt lat="44.53673" lon="0.60933">
        <ele>107</ele>
        <time>2018-08-25T16:51:30Z</time>
      </trkpt>
      <trkpt lat="44.53679" lon="0.6092">
        <ele>106.5</ele>
        <time>2018-08-25T16:51:31Z</time>
      </trkpt>
      <trkpt lat="44.53685" lon="0.60907">
        <ele>107.5</ele>
        <time>2018-08-25T16:51:32Z</time>
      </trkpt>
      <trkpt lat="44.53691" lon="0.60898">
        <ele>108.8</ele>
        <time>2018-08-25T16:51:33Z</time>
      </trkpt>
      <trkpt lat="44.53697" lon="0.6089">
        <ele>109.8</ele>
        <time>2018-08-25T16:51:34Z</time>
      </trkpt>
      <trkpt lat="44.53705" lon="0.60882">
        <ele>111</ele>
        <time>2018-08-25T16:51:35Z</time>
      </trkpt>
      <trkpt lat="44.5371" lon="0.60877">
        <ele>111.3</ele>
        <time>2018-08-25T16:51:36Z</time>
      </trkpt>
      <trkpt lat="44.53712" lon="0.60874">
        <ele>111.6</ele>
        <time>2018-08-25T16:51:37Z</time>
      </trkpt>
      <trkpt lat="44.53713" lon="0.6087">
        <ele>111.4</ele>
        <time>2018-08-25T16:51:38Z</time>
      </trkpt>
      <trkpt lat="44.5371" lon="0.60866">
        <ele>111.2</ele>
        <time>2018-08-25T16:51:39Z</time>
      </trkpt>
      <trkpt lat="44.53707" lon="0.60863">
        <ele>110.9</ele>
        <time>2018-08-25T16:51:40Z</time>
      </trkpt>
      <trkpt lat="44.53702" lon="0.60859">
        <ele>110.4</ele>
        <time>2018-08-25T16:51:41Z</time>
      </trkpt>
      <trkpt lat="44.53696" lon="0.60855">
        <ele>109.1</ele>
        <time>2018-08-25T16:51:42Z</time>
      </trkpt>
      <trkpt lat="44.53689" lon="0.6085">
        <ele>108</ele>
        <time>2018-08-25T16:51:43Z</time>
      </trkpt>
      <trkpt lat="44.5368" lon="0.60844">
        <ele>107</ele>
        <time>2018-08-25T16:51:44Z</time>
      </trkpt>
      <trkpt lat="44.53671" lon="0.60838">
        <ele>106.5</ele>
        <time>2018-08-25T16:51:45Z</time>
      </trkpt>
      <trkpt lat="44.53662" lon="0.60831">
        <ele>106.7</ele>
        <time>2018-08-25T16:51:46Z</time>
      </trkpt>
      <trkpt lat="44.53652" lon="0.60822">
        <ele>106.9</ele>
        <time>2018-08-25T16:51:47Z</time>
      </trkpt>
      <trkpt lat="44.53642" lon="0.60814">
        <ele>106.9</ele>
        <time>2018-08-25T16:51:48Z</time>
      </trkpt>
      <trkpt lat="44.53632" lon="0.60805">
        <ele>107</ele>
        <time>2018-08-25T16:51:49Z</time>
      </trkpt>
      <trkpt lat="44.53626" lon="0.60799">
        <ele>107</ele>
        <time>2018-08-25T16:51:50Z</time>
      </trkpt>
      <trkpt lat="44.53619" lon="0.60793">
        <ele>106.9</ele>
        <time>2018-08-25T16:51:51Z</time>
      </trkpt>
      <trkpt lat="44.53613" lon="0.60787">
        <ele>106.8</ele>
        <time>2018-08-25T16:51:52Z</time>
      </trkpt>
      <trkpt lat="44.53607" lon="0.60782">
        <ele>106.8</ele>
        <time>2018-08-25T16:51:53Z</time>
      </trkpt>
      <trkpt lat="44.53603" lon="0.60779">
        <ele>106.8</ele>
        <time>2018-08-25T16:51:54Z</time>
      </trkpt>
      <trkpt lat="44.53599" lon="0.60775">
        <ele>107.1</ele>
        <time>2018-08-25T16:51:55Z</time>
      </trkpt>
      <trkpt lat="44.53597" lon="0.60771">
        <ele>107.3</ele>
        <time>2018-08-25T16:51:56Z</time>
      </trkpt>
      <trkpt lat="44.53597" lon="0.60766">
        <ele>107.9</ele>
        <time>2018-08-25T16:51:57Z</time>
      </trkpt>
      <trkpt lat="44.53596" lon="0.60757">
        <ele>109</ele>
        <time>2018-08-25T16:51:58Z</time>
      </trkpt>
      <trkpt lat="44.536" lon="0.60749">
        <ele>109.7</ele>
        <time>2018-08-25T16:51:59Z</time>
      </trkpt>
      <trkpt lat="44.53603" lon="0.60741">
        <ele>109.2</ele>
        <time>2018-08-25T16:52:00Z</time>
      </trkpt>
      <trkpt lat="44.53606" lon="0.60731">
        <ele>108.7</ele>
        <time>2018-08-25T16:52:01Z</time>
      </trkpt>
      <trkpt lat="44.5361" lon="0.60719">
        <ele>108.2</ele>
        <time>2018-08-25T16:52:02Z</time>
      </trkpt>
      <trkpt lat="44.53614" lon="0.60706">
        <ele>107.6</ele>
        <time>2018-08-25T16:52:03Z</time>
      </trkpt>
      <trkpt lat="44.53618" lon="0.60693">
        <ele>108.2</ele>
        <time>2018-08-25T16:52:04Z</time>
      </trkpt>
      <trkpt lat="44.53622" lon="0.6068">
        <ele>108.8</ele>
        <time>2018-08-25T16:52:05Z</time>
      </trkpt>
      <trkpt lat="44.53627" lon="0.60666">
        <ele>108.6</ele>
        <time>2018-08-25T16:52:06Z</time>
      </trkpt>
      <trkpt lat="44.53631" lon="0.60655">
        <ele>108</ele>
        <time>2018-08-25T16:52:07Z</time>
      </trkpt>
      <trkpt lat="44.5363" lon="0.60645">
        <ele>107.9</ele>
        <time>2018-08-25T16:52:08Z</time>
      </trkpt>
      <trkpt lat="44.53633" lon="0.60636">
        <ele>107.8</ele>
        <time>2018-08-25T16:52:09Z</time>
      </trkpt>
      <trkpt lat="44.53633" lon="0.60631">
        <ele>107.8</ele>
        <time>2018-08-25T16:52:10Z</time>
      </trkpt>
      <trkpt lat="44.53634" lon="0.60621">
        <ele>107.9</ele>
        <time>2018-08-25T16:52:11Z</time>
      </trkpt>
      <trkpt lat="44.53634" lon="0.60612">
        <ele>107.8</ele>
        <time>2018-08-25T16:52:12Z</time>
      </trkpt>
      <trkpt lat="44.53631" lon="0.60603">
        <ele>107.9</ele>
        <time>2018-08-25T16:52:13Z</time>
      </trkpt>
      <trkpt lat="44.53629" lon="0.60593">
        <ele>107.9</ele>
        <time>2018-08-25T16:52:14Z</time>
      </trkpt>
      <trkpt lat="44.53627" lon="0.60582">
        <ele>108</ele>
        <time>2018-08-25T16:52:15Z</time>
      </trkpt>
      <trkpt lat="44.53627" lon="0.60572">
        <ele>108</ele>
        <time>2018-08-25T16:52:16Z</time>
      </trkpt>
      <trkpt lat="44.53625" lon="0.6056">
        <ele>108.1</ele>
        <time>2018-08-25T16:52:17Z</time>
      </trkpt>
      <trkpt lat="44.53624" lon="0.60548">
        <ele>108</ele>
        <time>2018-08-25T16:52:18Z</time>
      </trkpt>
      <trkpt lat="44.53622" lon="0.60537">
        <ele>108.1</ele>
        <time>2018-08-25T16:52:19Z</time>
      </trkpt>
      <trkpt lat="44.53616" lon="0.60526">
        <ele>108</ele>
        <time>2018-08-25T16:52:20Z</time>
      </trkpt>
      <trkpt lat="44.53613" lon="0.60513">
        <ele>107.9</ele>
        <time>2018-08-25T16:52:21Z</time>
      </trkpt>
      <trkpt lat="44.5361" lon="0.60499">
        <ele>107.8</ele>
        <time>2018-08-25T16:52:22Z</time>
      </trkpt>
      <trkpt lat="44.53606" lon="0.60486">
        <ele>107.7</ele>
        <time>2018-08-25T16:52:23Z</time>
      </trkpt>
      <trkpt lat="44.53603" lon="0.60473">
        <ele>107.5</ele>
        <time>2018-08-25T16:52:24Z</time>
      </trkpt>
      <trkpt lat="44.536" lon="0.6046">
        <ele>107.3</ele>
        <time>2018-08-25T16:52:25Z</time>
      </trkpt>
      <trkpt lat="44.53597" lon="0.6045">
        <ele>107.2</ele>
        <time>2018-08-25T16:52:26Z</time>
      </trkpt>
      <trkpt lat="44.53594" lon="0.6044">
        <ele>107.1</ele>
        <time>2018-08-25T16:52:27Z</time>
      </trkpt>
      <trkpt lat="44.5359" lon="0.6043">
        <ele>107.1</ele>
        <time>2018-08-25T16:52:28Z</time>
      </trkpt>
      <trkpt lat="44.53586" lon="0.6042">
        <ele>107.1</ele>
        <time>2018-08-25T16:52:29Z</time>
      </trkpt>
      <trkpt lat="44.53582" lon="0.60409">
        <ele>107.2</ele>
        <time>2018-08-25T16:52:30Z</time>
      </trkpt>
      <trkpt lat="44.53577" lon="0.60399">
        <ele>107.3</ele>
        <time>2018-08-25T16:52:31Z</time>
      </trkpt>
      <trkpt lat="44.5357" lon="0.60388">
        <ele>107.6</ele>
        <time>2018-08-25T16:52:32Z</time>
      </trkpt>
      <trkpt lat="44.53564" lon="0.60377">
        <ele>107.8</ele>
        <time>2018-08-25T16:52:33Z</time>
      </trkpt>
      <trkpt lat="44.53558" lon="0.60367">
        <ele>108</ele>
        <time>2018-08-25T16:52:34Z</time>
      </trkpt>
      <trkpt lat="44.53554" lon="0.6036">
        <ele>108.1</ele>
        <time>2018-08-25T16:52:35Z</time>
      </trkpt>
      <trkpt lat="44.53551" lon="0.60352">
        <ele>108.2</ele>
        <time>2018-08-25T16:52:36Z</time>
      </trkpt>
      <trkpt lat="44.53547" lon="0.60346">
        <ele>108.2</ele>
        <time>2018-08-25T16:52:37Z</time>
      </trkpt>
      <trkpt lat="44.53544" lon="0.60338">
        <ele>108.3</ele>
        <time>2018-08-25T16:52:38Z</time>
      </trkpt>
      <trkpt lat="44.53541" lon="0.60332">
        <ele>108.3</ele>
        <time>2018-08-25T16:52:39Z</time>
      </trkpt>
      <trkpt lat="44.53539" lon="0.60326">
        <ele>108.3</ele>
        <time>2018-08-25T16:52:40Z</time>
      </trkpt>
      <trkpt lat="44.53539" lon="0.6032">
        <ele>108.3</ele>
        <time>2018-08-25T16:52:41Z</time>
      </trkpt>
      <trkpt lat="44.53537" lon="0.60314">
        <ele>108.3</ele>
        <time>2018-08-25T16:52:42Z</time>
      </trkpt>
      <trkpt lat="44.53536" lon="0.60308">
        <ele>108.2</ele>
        <time>2018-08-25T16:52:43Z</time>
      </trkpt>
      <trkpt lat="44.53536" lon="0.60302">
        <ele>108.2</ele>
        <time>2018-08-25T16:52:44Z</time>
      </trkpt>
      <trkpt lat="44.53535" lon="0.60297">
        <ele>108.2</ele>
        <time>2018-08-25T16:52:45Z</time>
      </trkpt>
      <trkpt lat="44.53533" lon="0.60293">
        <ele>108.1</ele>
        <time>2018-08-25T16:52:47Z</time>
      </trkpt>
      <trkpt lat="44.5353" lon="0.60295">
        <ele>108.1</ele>
        <time>2018-08-25T16:53:08Z</time>
      </trkpt>
      <trkpt lat="44.53525" lon="0.60304">
        <ele>108.2</ele>
        <time>2018-08-25T16:53:10Z</time>
      </trkpt>
      <trkpt lat="44.5352" lon="0.60309">
        <ele>108.2</ele>
        <time>2018-08-25T16:53:11Z</time>
      </trkpt>
      <trkpt lat="44.53514" lon="0.60315">
        <ele>108.3</ele>
        <time>2018-08-25T16:53:12Z</time>
      </trkpt>
      <trkpt lat="44.53509" lon="0.60323">
        <ele>108.3</ele>
        <time>2018-08-25T16:53:13Z</time>
      </trkpt>
      <trkpt lat="44.53504" lon="0.60329">
        <ele>108.4</ele>
        <time>2018-08-25T16:53:14Z</time>
      </trkpt>
      <trkpt lat="44.53499" lon="0.60336">
        <ele>108.5</ele>
        <time>2018-08-25T16:53:15Z</time>
      </trkpt>
      <trkpt lat="44.53493" lon="0.60342">
        <ele>108.6</ele>
        <time>2018-08-25T16:53:16Z</time>
      </trkpt>
      <trkpt lat="44.53489" lon="0.60347">
        <ele>108.6</ele>
        <time>2018-08-25T16:53:17Z</time>
      </trkpt>
      <trkpt lat="44.53484" lon="0.60351">
        <ele>108.7</ele>
        <time>2018-08-25T16:53:18Z</time>
      </trkpt>
      <trkpt lat="44.5348" lon="0.60354">
        <ele>108.8</ele>
        <time>2018-08-25T16:53:19Z</time>
      </trkpt>
      <trkpt lat="44.53477" lon="0.60357">
        <ele>108.9</ele>
        <time>2018-08-25T16:53:20Z</time>
      </trkpt>
      <trkpt lat="44.53473" lon="0.60357">
        <ele>109</ele>
        <time>2018-08-25T16:53:21Z</time>
      </trkpt>
      <trkpt lat="44.53468" lon="0.60353">
        <ele>109.1</ele>
        <time>2018-08-25T16:53:23Z</time>
      </trkpt>
      <trkpt lat="44.53465" lon="0.60348">
        <ele>109.1</ele>
        <time>2018-08-25T16:53:24Z</time>
      </trkpt>
      <trkpt lat="44.53461" lon="0.60342">
        <ele>109.1</ele>
        <time>2018-08-25T16:53:25Z</time>
      </trkpt>
      <trkpt lat="44.53458" lon="0.60338">
        <ele>109.1</ele>
        <time>2018-08-25T16:53:26Z</time>
      </trkpt>
      <trkpt lat="44.53456" lon="0.60334">
        <ele>109.1</ele>
        <time>2018-08-25T16:53:28Z</time>
      </trkpt>
      <trkpt lat="44.53453" lon="0.60334">
        <ele>109.2</ele>
        <time>2018-08-25T16:53:29Z</time>
      </trkpt>
      <trkpt lat="44.53452" lon="0.6033">
        <ele>109.1</ele>
        <time>2018-08-25T16:53:36Z</time>
      </trkpt>
      <trkpt lat="44.5345" lon="0.60324">
        <ele>109.1</ele>
        <time>2018-08-25T16:53:39Z</time>
      </trkpt>
      <trkpt lat="44.53446" lon="0.6032">
        <ele>109.2</ele>
        <time>2018-08-25T16:53:41Z</time>
      </trkpt>
      <trkpt lat="44.5344" lon="0.6032">
        <ele>109.3</ele>
        <time>2018-08-25T16:53:42Z</time>
      </trkpt>
      <trkpt lat="44.53435" lon="0.60318">
        <ele>109.3</ele>
        <time>2018-08-25T16:53:43Z</time>
      </trkpt>
      <trkpt lat="44.53431" lon="0.60313">
        <ele>109.3</ele>
        <time>2018-08-25T16:53:44Z</time>
      </trkpt>
      <trkpt lat="44.53425" lon="0.60308">
        <ele>109.4</ele>
        <time>2018-08-25T16:53:45Z</time>
      </trkpt>
      <trkpt lat="44.53418" lon="0.60301">
        <ele>109.5</ele>
        <time>2018-08-25T16:53:46Z</time>
      </trkpt>
      <trkpt lat="44.53412" lon="0.60292">
        <ele>109.8</ele>
        <time>2018-08-25T16:53:47Z</time>
      </trkpt>
      <trkpt lat="44.534" lon="0.60281">
        <ele>110.4</ele>
        <time>2018-08-25T16:53:48Z</time>
      </trkpt>
      <trkpt lat="44.53394" lon="0.60272">
        <ele>110.8</ele>
        <time>2018-08-25T16:53:49Z</time>
      </trkpt>
      <trkpt lat="44.53387" lon="0.60262">
        <ele>111.1</ele>
        <time>2018-08-25T16:53:50Z</time>
      </trkpt>
      <trkpt lat="44.53379" lon="0.60254">
        <ele>111.7</ele>
        <time>2018-08-25T16:53:51Z</time>
      </trkpt>
      <trkpt lat="44.53371" lon="0.60246">
        <ele>112.3</ele>
        <time>2018-08-25T16:53:52Z</time>
      </trkpt>
      <trkpt lat="44.53363" lon="0.60238">
        <ele>112.8</ele>
        <time>2018-08-25T16:53:53Z</time>
      </trkpt>
      <trkpt lat="44.53356" lon="0.60231">
        <ele>113.5</ele>
        <time>2018-08-25T16:53:54Z</time>
      </trkpt>
      <trkpt lat="44.53351" lon="0.60225">
        <ele>113.8</ele>
        <time>2018-08-25T16:53:55Z</time>
      </trkpt>
      <trkpt lat="44.53349" lon="0.60219">
        <ele>114</ele>
        <time>2018-08-25T16:53:56Z</time>
      </trkpt>
      <trkpt lat="44.53341" lon="0.60213">
        <ele>114.5</ele>
        <time>2018-08-25T16:53:57Z</time>
      </trkpt>
      <trkpt lat="44.53336" lon="0.60212">
        <ele>114.7</ele>
        <time>2018-08-25T16:53:58Z</time>
      </trkpt>
      <trkpt lat="44.53331" lon="0.6021">
        <ele>115.1</ele>
        <time>2018-08-25T16:53:59Z</time>
      </trkpt>
      <trkpt lat="44.53326" lon="0.60214">
        <ele>115.2</ele>
        <time>2018-08-25T16:54:00Z</time>
      </trkpt>
      <trkpt lat="44.53321" lon="0.60216">
        <ele>115.5</ele>
        <time>2018-08-25T16:54:01Z</time>
      </trkpt>
      <trkpt lat="44.53314" lon="0.6022">
        <ele>115.8</ele>
        <time>2018-08-25T16:54:02Z</time>
      </trkpt>
      <trkpt lat="44.53308" lon="0.60226">
        <ele>116.1</ele>
        <time>2018-08-25T16:54:03Z</time>
      </trkpt>
      <trkpt lat="44.533" lon="0.60232">
        <ele>116.5</ele>
        <time>2018-08-25T16:54:04Z</time>
      </trkpt>
      <trkpt lat="44.5329" lon="0.60239">
        <ele>117</ele>
        <time>2018-08-25T16:54:05Z</time>
      </trkpt>
      <trkpt lat="44.53282" lon="0.60245">
        <ele>117.6</ele>
        <time>2018-08-25T16:54:06Z</time>
      </trkpt>
      <trkpt lat="44.53275" lon="0.60251">
        <ele>118.1</ele>
        <time>2018-08-25T16:54:07Z</time>
      </trkpt>
      <trkpt lat="44.53269" lon="0.60257">
        <ele>118.6</ele>
        <time>2018-08-25T16:54:08Z</time>
      </trkpt>
      <trkpt lat="44.53263" lon="0.60262">
        <ele>119.1</ele>
        <time>2018-08-25T16:54:09Z</time>
      </trkpt>
      <trkpt lat="44.53257" lon="0.60267">
        <ele>119.5</ele>
        <time>2018-08-25T16:54:10Z</time>
      </trkpt>
      <trkpt lat="44.53251" lon="0.60272">
        <ele>119.9</ele>
        <time>2018-08-25T16:54:11Z</time>
      </trkpt>
      <trkpt lat="44.53244" lon="0.60279">
        <ele>120.5</ele>
        <time>2018-08-25T16:54:12Z</time>
      </trkpt>
      <trkpt lat="44.53236" lon="0.60287">
        <ele>121</ele>
        <time>2018-08-25T16:54:13Z</time>
      </trkpt>
      <trkpt lat="44.5323" lon="0.60294">
        <ele>121.6</ele>
        <time>2018-08-25T16:54:14Z</time>
      </trkpt>
      <trkpt lat="44.53226" lon="0.60299">
        <ele>121.9</ele>
        <time>2018-08-25T16:54:15Z</time>
      </trkpt>
      <trkpt lat="44.53222" lon="0.60304">
        <ele>122</ele>
        <time>2018-08-25T16:54:16Z</time>
      </trkpt>
      <trkpt lat="44.53219" lon="0.60308">
        <ele>122.1</ele>
        <time>2018-08-25T16:54:17Z</time>
      </trkpt>
      <trkpt lat="44.53217" lon="0.60315">
        <ele>122.2</ele>
        <time>2018-08-25T16:54:19Z</time>
      </trkpt>
      <trkpt lat="44.53217" lon="0.60318">
        <ele>122.3</ele>
        <time>2018-08-25T16:54:20Z</time>
      </trkpt>
      <trkpt lat="44.53216" lon="0.60323">
        <ele>122.4</ele>
        <time>2018-08-25T16:54:22Z</time>
      </trkpt>
      <trkpt lat="44.5322" lon="0.60324">
        <ele>122.4</ele>
        <time>2018-08-25T16:54:24Z</time>
      </trkpt>
      <trkpt lat="44.5322" lon="0.60319">
        <ele>122.3</ele>
        <time>2018-08-25T16:54:26Z</time>
      </trkpt>
      <trkpt lat="44.53218" lon="0.60312">
        <ele>122.1</ele>
        <time>2018-08-25T16:54:27Z</time>
      </trkpt>
      <trkpt lat="44.53216" lon="0.60304">
        <ele>121.9</ele>
        <time>2018-08-25T16:54:28Z</time>
      </trkpt>
      <trkpt lat="44.53213" lon="0.60294">
        <ele>121.6</ele>
        <time>2018-08-25T16:54:29Z</time>
      </trkpt>
      <trkpt lat="44.53209" lon="0.60281">
        <ele>121.4</ele>
        <time>2018-08-25T16:54:30Z</time>
      </trkpt>
      <trkpt lat="44.53205" lon="0.60268">
        <ele>121.1</ele>
        <time>2018-08-25T16:54:31Z</time>
      </trkpt>
      <trkpt lat="44.53201" lon="0.60253">
        <ele>120.8</ele>
        <time>2018-08-25T16:54:32Z</time>
      </trkpt>
      <trkpt lat="44.53197" lon="0.60239">
        <ele>120.6</ele>
        <time>2018-08-25T16:54:33Z</time>
      </trkpt>
      <trkpt lat="44.53194" lon="0.60226">
        <ele>120.5</ele>
        <time>2018-08-25T16:54:34Z</time>
      </trkpt>
      <trkpt lat="44.53192" lon="0.60216">
        <ele>120.5</ele>
        <time>2018-08-25T16:54:35Z</time>
      </trkpt>
      <trkpt lat="44.53191" lon="0.60207">
        <ele>120.5</ele>
        <time>2018-08-25T16:54:36Z</time>
      </trkpt>
      <trkpt lat="44.5319" lon="0.60202">
        <ele>120.4</ele>
        <time>2018-08-25T16:54:37Z</time>
      </trkpt>
      <trkpt lat="44.5319" lon="0.60196">
        <ele>120.4</ele>
        <time>2018-08-25T16:54:38Z</time>
      </trkpt>
      <trkpt lat="44.53188" lon="0.60193">
        <ele>120.4</ele>
        <time>2018-08-25T16:54:40Z</time>
      </trkpt>
      <trkpt lat="44.53186" lon="0.60197">
        <ele>120.4</ele>
        <time>2018-08-25T16:54:42Z</time>
      </trkpt>
      <trkpt lat="44.53189" lon="0.602">
        <ele>120.4</ele>
        <time>2018-08-25T16:54:43Z</time>
      </trkpt>
      <trkpt lat="44.53191" lon="0.60205">
        <ele>120.5</ele>
        <time>2018-08-25T16:54:44Z</time>
      </trkpt>
      <trkpt lat="44.53192" lon="0.60213">
        <ele>120.5</ele>
        <time>2018-08-25T16:54:45Z</time>
      </trkpt>
      <trkpt lat="44.53194" lon="0.60223">
        <ele>120.5</ele>
        <time>2018-08-25T16:54:46Z</time>
      </trkpt>
      <trkpt lat="44.53196" lon="0.60234">
        <ele>120.6</ele>
        <time>2018-08-25T16:54:47Z</time>
      </trkpt>
      <trkpt lat="44.53199" lon="0.60248">
        <ele>120.6</ele>
        <time>2018-08-25T16:54:48Z</time>
      </trkpt>
      <trkpt lat="44.53202" lon="0.60263">
        <ele>120.8</ele>
        <time>2018-08-25T16:54:49Z</time>
      </trkpt>
      <trkpt lat="44.53205" lon="0.60277">
        <ele>121.1</ele>
        <time>2018-08-25T16:54:50Z</time>
      </trkpt>
      <trkpt lat="44.53209" lon="0.60291">
        <ele>121.3</ele>
        <time>2018-08-25T16:54:51Z</time>
      </trkpt>
      <trkpt lat="44.53211" lon="0.60303">
        <ele>121.4</ele>
        <time>2018-08-25T16:54:52Z</time>
      </trkpt>
      <trkpt lat="44.53213" lon="0.60311">
        <ele>121.6</ele>
        <time>2018-08-25T16:54:53Z</time>
      </trkpt>
      <trkpt lat="44.53215" lon="0.60319">
        <ele>121.8</ele>
        <time>2018-08-25T16:54:54Z</time>
      </trkpt>
      <trkpt lat="44.53214" lon="0.60324">
        <ele>122</ele>
        <time>2018-08-25T16:54:55Z</time>
      </trkpt>
      <trkpt lat="44.53212" lon="0.60327">
        <ele>122.1</ele>
        <time>2018-08-25T16:54:56Z</time>
      </trkpt>
      <trkpt lat="44.53209" lon="0.60331">
        <ele>122.2</ele>
        <time>2018-08-25T16:54:57Z</time>
      </trkpt>
      <trkpt lat="44.53205" lon="0.60336">
        <ele>122.4</ele>
        <time>2018-08-25T16:54:58Z</time>
      </trkpt>
      <trkpt lat="44.53197" lon="0.60341">
        <ele>122.7</ele>
        <time>2018-08-25T16:54:59Z</time>
      </trkpt>
      <trkpt lat="44.5319" lon="0.60348">
        <ele>123.2</ele>
        <time>2018-08-25T16:55:00Z</time>
      </trkpt>
      <trkpt lat="44.53183" lon="0.60355">
        <ele>123.4</ele>
        <time>2018-08-25T16:55:01Z</time>
      </trkpt>
      <trkpt lat="44.53178" lon="0.60361">
        <ele>123.7</ele>
        <time>2018-08-25T16:55:02Z</time>
      </trkpt>
      <trkpt lat="44.53173" lon="0.60368">
        <ele>123.9</ele>
        <time>2018-08-25T16:55:03Z</time>
      </trkpt>
      <trkpt lat="44.53168" lon="0.60373">
        <ele>124.2</ele>
        <time>2018-08-25T16:55:04Z</time>
      </trkpt>
      <trkpt lat="44.53164" lon="0.60379">
        <ele>124.4</ele>
        <time>2018-08-25T16:55:05Z</time>
      </trkpt>
      <trkpt lat="44.53162" lon="0.60385">
        <ele>124.6</ele>
        <time>2018-08-25T16:55:06Z</time>
      </trkpt>
      <trkpt lat="44.53159" lon="0.60391">
        <ele>124.9</ele>
        <time>2018-08-25T16:55:07Z</time>
      </trkpt>
      <trkpt lat="44.53164" lon="0.60403">
        <ele>125</ele>
        <time>2018-08-25T16:55:08Z</time>
      </trkpt>
      <trkpt lat="44.53165" lon="0.60411">
        <ele>125</ele>
        <time>2018-08-25T16:55:09Z</time>
      </trkpt>
      <trkpt lat="44.53166" lon="0.60418">
        <ele>125.1</ele>
        <time>2018-08-25T16:55:10Z</time>
      </trkpt>
      <trkpt lat="44.53164" lon="0.60421">
        <ele>125.1</ele>
        <time>2018-08-25T16:55:11Z</time>
      </trkpt>
      <trkpt lat="44.53161" lon="0.60425">
        <ele>125.3</ele>
        <time>2018-08-25T16:55:12Z</time>
      </trkpt>
      <trkpt lat="44.53156" lon="0.60433">
        <ele>125.6</ele>
        <time>2018-08-25T16:55:13Z</time>
      </trkpt>
      <trkpt lat="44.53145" lon="0.60441">
        <ele>126</ele>
        <time>2018-08-25T16:55:14Z</time>
      </trkpt>
      <trkpt lat="44.53138" lon="0.60451">
        <ele>126.5</ele>
        <time>2018-08-25T16:55:15Z</time>
      </trkpt>
      <trkpt lat="44.53133" lon="0.6046">
        <ele>126.9</ele>
        <time>2018-08-25T16:55:16Z</time>
      </trkpt>
      <trkpt lat="44.53123" lon="0.6047">
        <ele>127.4</ele>
        <time>2018-08-25T16:55:17Z</time>
      </trkpt>
      <trkpt lat="44.53114" lon="0.6048">
        <ele>128.1</ele>
        <time>2018-08-25T16:55:18Z</time>
      </trkpt>
      <trkpt lat="44.53104" lon="0.60489">
        <ele>128.6</ele>
        <time>2018-08-25T16:55:19Z</time>
      </trkpt>
      <trkpt lat="44.53094" lon="0.60502">
        <ele>129.3</ele>
        <time>2018-08-25T16:55:20Z</time>
      </trkpt>
      <trkpt lat="44.53083" lon="0.60514">
        <ele>130.2</ele>
        <time>2018-08-25T16:55:21Z</time>
      </trkpt>
      <trkpt lat="44.53075" lon="0.60526">
        <ele>130.9</ele>
        <time>2018-08-25T16:55:22Z</time>
      </trkpt>
      <trkpt lat="44.53066" lon="0.60537">
        <ele>131.3</ele>
        <time>2018-08-25T16:55:23Z</time>
      </trkpt>
      <trkpt lat="44.53059" lon="0.60547">
        <ele>131.7</ele>
        <time>2018-08-25T16:55:24Z</time>
      </trkpt>
      <trkpt lat="44.53052" lon="0.60556">
        <ele>132</ele>
        <time>2018-08-25T16:55:25Z</time>
      </trkpt>
      <trkpt lat="44.53045" lon="0.60565">
        <ele>132.4</ele>
        <time>2018-08-25T16:55:26Z</time>
      </trkpt>
      <trkpt lat="44.53036" lon="0.60576">
        <ele>132.9</ele>
        <time>2018-08-25T16:55:27Z</time>
      </trkpt>
      <trkpt lat="44.53028" lon="0.60586">
        <ele>133.6</ele>
        <time>2018-08-25T16:55:28Z</time>
      </trkpt>
      <trkpt lat="44.53019" lon="0.60595">
        <ele>134.1</ele>
        <time>2018-08-25T16:55:29Z</time>
      </trkpt>
      <trkpt lat="44.53009" lon="0.60606">
        <ele>134.5</ele>
        <time>2018-08-25T16:55:30Z</time>
      </trkpt>
      <trkpt lat="44.52999" lon="0.60618">
        <ele>134.8</ele>
        <time>2018-08-25T16:55:31Z</time>
      </trkpt>
      <trkpt lat="44.5299" lon="0.60627">
        <ele>134.9</ele>
        <time>2018-08-25T16:55:32Z</time>
      </trkpt>
      <trkpt lat="44.52982" lon="0.60637">
        <ele>135</ele>
        <time>2018-08-25T16:55:33Z</time>
      </trkpt>
      <trkpt lat="44.52975" lon="0.60645">
        <ele>135.1</ele>
        <time>2018-08-25T16:55:34Z</time>
      </trkpt>
      <trkpt lat="44.52969" lon="0.60654">
        <ele>135.2</ele>
        <time>2018-08-25T16:55:35Z</time>
      </trkpt>
      <trkpt lat="44.52963" lon="0.60661">
        <ele>135.4</ele>
        <time>2018-08-25T16:55:36Z</time>
      </trkpt>
      <trkpt lat="44.52958" lon="0.6067">
        <ele>135.6</ele>
        <time>2018-08-25T16:55:37Z</time>
      </trkpt>
      <trkpt lat="44.52951" lon="0.60679">
        <ele>135.7</ele>
        <time>2018-08-25T16:55:38Z</time>
      </trkpt>
      <trkpt lat="44.52944" lon="0.60687">
        <ele>135.9</ele>
        <time>2018-08-25T16:55:39Z</time>
      </trkpt>
      <trkpt lat="44.52939" lon="0.60697">
        <ele>136.1</ele>
        <time>2018-08-25T16:55:40Z</time>
      </trkpt>
      <trkpt lat="44.52933" lon="0.60705">
        <ele>136.4</ele>
        <time>2018-08-25T16:55:41Z</time>
      </trkpt>
      <trkpt lat="44.52927" lon="0.60713">
        <ele>136.6</ele>
        <time>2018-08-25T16:55:42Z</time>
      </trkpt>
      <trkpt lat="44.52921" lon="0.6072">
        <ele>136.9</ele>
        <time>2018-08-25T16:55:43Z</time>
      </trkpt>
      <trkpt lat="44.52916" lon="0.60728">
        <ele>137</ele>
        <time>2018-08-25T16:55:44Z</time>
      </trkpt>
      <trkpt lat="44.5291" lon="0.60735">
        <ele>137.1</ele>
        <time>2018-08-25T16:55:45Z</time>
      </trkpt>
      <trkpt lat="44.52902" lon="0.60742">
        <ele>137.3</ele>
        <time>2018-08-25T16:55:46Z</time>
      </trkpt>
      <trkpt lat="44.52897" lon="0.6075">
        <ele>137.4</ele>
        <time>2018-08-25T16:55:47Z</time>
      </trkpt>
      <trkpt lat="44.5289" lon="0.60758">
        <ele>137.5</ele>
        <time>2018-08-25T16:55:48Z</time>
      </trkpt>
      <trkpt lat="44.52884" lon="0.60768">
        <ele>137.5</ele>
        <time>2018-08-25T16:55:49Z</time>
      </trkpt>
      <trkpt lat="44.52879" lon="0.60779">
        <ele>137.6</ele>
        <time>2018-08-25T16:55:50Z</time>
      </trkpt>
      <trkpt lat="44.52873" lon="0.60789">
        <ele>137.8</ele>
        <time>2018-08-25T16:55:51Z</time>
      </trkpt>
      <trkpt lat="44.52866" lon="0.60798">
        <ele>138.1</ele>
        <time>2018-08-25T16:55:52Z</time>
      </trkpt>
      <trkpt lat="44.52859" lon="0.60808">
        <ele>138.4</ele>
        <time>2018-08-25T16:55:53Z</time>
      </trkpt>
      <trkpt lat="44.52853" lon="0.60818">
        <ele>138.7</ele>
        <time>2018-08-25T16:55:54Z</time>
      </trkpt>
      <trkpt lat="44.52847" lon="0.60828">
        <ele>139</ele>
        <time>2018-08-25T16:55:55Z</time>
      </trkpt>
      <trkpt lat="44.52842" lon="0.60838">
        <ele>139.4</ele>
        <time>2018-08-25T16:55:56Z</time>
      </trkpt>
      <trkpt lat="44.52836" lon="0.60847">
        <ele>139.6</ele>
        <time>2018-08-25T16:55:57Z</time>
      </trkpt>
      <trkpt lat="44.52834" lon="0.60856">
        <ele>139.7</ele>
        <time>2018-08-25T16:55:58Z</time>
      </trkpt>
      <trkpt lat="44.52829" lon="0.60866">
        <ele>139.9</ele>
        <time>2018-08-25T16:55:59Z</time>
      </trkpt>
      <trkpt lat="44.52824" lon="0.60875">
        <ele>140</ele>
        <time>2018-08-25T16:56:00Z</time>
      </trkpt>
      <trkpt lat="44.52818" lon="0.60883">
        <ele>140.2</ele>
        <time>2018-08-25T16:56:01Z</time>
      </trkpt>
      <trkpt lat="44.52814" lon="0.6089">
        <ele>140.3</ele>
        <time>2018-08-25T16:56:02Z</time>
      </trkpt>
      <trkpt lat="44.5281" lon="0.60895">
        <ele>140.4</ele>
        <time>2018-08-25T16:56:03Z</time>
      </trkpt>
      <trkpt lat="44.52806" lon="0.60899">
        <ele>140.5</ele>
        <time>2018-08-25T16:56:04Z</time>
      </trkpt>
      <trkpt lat="44.52801" lon="0.60899">
        <ele>140.6</ele>
        <time>2018-08-25T16:56:05Z</time>
      </trkpt>
      <trkpt lat="44.52797" lon="0.60898">
        <ele>140.7</ele>
        <time>2018-08-25T16:56:06Z</time>
      </trkpt>
      <trkpt lat="44.52792" lon="0.60895">
        <ele>140.7</ele>
        <time>2018-08-25T16:56:07Z</time>
      </trkpt>
      <trkpt lat="44.52788" lon="0.60889">
        <ele>140.6</ele>
        <time>2018-08-25T16:56:08Z</time>
      </trkpt>
      <trkpt lat="44.52783" lon="0.60881">
        <ele>140.5</ele>
        <time>2018-08-25T16:56:09Z</time>
      </trkpt>
      <trkpt lat="44.52776" lon="0.60871">
        <ele>140.1</ele>
        <time>2018-08-25T16:56:10Z</time>
      </trkpt>
      <trkpt lat="44.5277" lon="0.6086">
        <ele>139.9</ele>
        <time>2018-08-25T16:56:11Z</time>
      </trkpt>
      <trkpt lat="44.52767" lon="0.60849">
        <ele>139.5</ele>
        <time>2018-08-25T16:56:12Z</time>
      </trkpt>
      <trkpt lat="44.52761" lon="0.60839">
        <ele>139.2</ele>
        <time>2018-08-25T16:56:13Z</time>
      </trkpt>
      <trkpt lat="44.52754" lon="0.60831">
        <ele>138.9</ele>
        <time>2018-08-25T16:56:14Z</time>
      </trkpt>
      <trkpt lat="44.52749" lon="0.60822">
        <ele>138.7</ele>
        <time>2018-08-25T16:56:15Z</time>
      </trkpt>
      <trkpt lat="44.52743" lon="0.60814">
        <ele>138.4</ele>
        <time>2018-08-25T16:56:16Z</time>
      </trkpt>
      <trkpt lat="44.52739" lon="0.60806">
        <ele>138.2</ele>
        <time>2018-08-25T16:56:17Z</time>
      </trkpt>
      <trkpt lat="44.5273" lon="0.60795">
        <ele>138.1</ele>
        <time>2018-08-25T16:56:18Z</time>
      </trkpt>
      <trkpt lat="44.52724" lon="0.60786">
        <ele>138.1</ele>
        <time>2018-08-25T16:56:19Z</time>
      </trkpt>
      <trkpt lat="44.52715" lon="0.60784">
        <ele>138.3</ele>
        <time>2018-08-25T16:56:20Z</time>
      </trkpt>
      <trkpt lat="44.52707" lon="0.60775">
        <ele>138.5</ele>
        <time>2018-08-25T16:56:21Z</time>
      </trkpt>
      <trkpt lat="44.52698" lon="0.60765">
        <ele>138.8</ele>
        <time>2018-08-25T16:56:22Z</time>
      </trkpt>
      <trkpt lat="44.52691" lon="0.60754">
        <ele>139</ele>
        <time>2018-08-25T16:56:23Z</time>
      </trkpt>
      <trkpt lat="44.52688" lon="0.60745">
        <ele>139.1</ele>
        <time>2018-08-25T16:56:24Z</time>
      </trkpt>
      <trkpt lat="44.52682" lon="0.60736">
        <ele>139.3</ele>
        <time>2018-08-25T16:56:25Z</time>
      </trkpt>
      <trkpt lat="44.52675" lon="0.60728">
        <ele>139.6</ele>
        <time>2018-08-25T16:56:26Z</time>
      </trkpt>
      <trkpt lat="44.52671" lon="0.6072">
        <ele>139.8</ele>
        <time>2018-08-25T16:56:27Z</time>
      </trkpt>
      <trkpt lat="44.52674" lon="0.60716">
        <ele>139.6</ele>
        <time>2018-08-25T16:56:28Z</time>
      </trkpt>
      <trkpt lat="44.52664" lon="0.60713">
        <ele>140</ele>
        <time>2018-08-25T16:56:29Z</time>
      </trkpt>
      <trkpt lat="44.52667" lon="0.60705">
        <ele>139.9</ele>
        <time>2018-08-25T16:56:34Z</time>
      </trkpt>
      <trkpt lat="44.52667" lon="0.60701">
        <ele>139.8</ele>
        <time>2018-08-25T16:56:37Z</time>
      </trkpt>
      <trkpt lat="44.52667" lon="0.60697">
        <ele>139.7</ele>
        <time>2018-08-25T16:56:47Z</time>
      </trkpt>
      <trkpt lat="44.52667" lon="0.60692">
        <ele>139.6</ele>
        <time>2018-08-25T16:56:48Z</time>
      </trkpt>
      <trkpt lat="44.52667" lon="0.60681">
        <ele>139.5</ele>
        <time>2018-08-25T16:56:49Z</time>
      </trkpt>
      <trkpt lat="44.52669" lon="0.60669">
        <ele>139.2</ele>
        <time>2018-08-25T16:56:50Z</time>
      </trkpt>
      <trkpt lat="44.52672" lon="0.60655">
        <ele>138.8</ele>
        <time>2018-08-25T16:56:51Z</time>
      </trkpt>
      <trkpt lat="44.52675" lon="0.6064">
        <ele>138.4</ele>
        <time>2018-08-25T16:56:52Z</time>
      </trkpt>
      <trkpt lat="44.52679" lon="0.60623">
        <ele>138.1</ele>
        <time>2018-08-25T16:56:53Z</time>
      </trkpt>
      <trkpt lat="44.52683" lon="0.60604">
        <ele>137.4</ele>
        <time>2018-08-25T16:56:54Z</time>
      </trkpt>
      <trkpt lat="44.52686" lon="0.60586">
        <ele>136.6</ele>
        <time>2018-08-25T16:56:55Z</time>
      </trkpt>
      <trkpt lat="44.5269" lon="0.60567">
        <ele>136</ele>
        <time>2018-08-25T16:56:56Z</time>
      </trkpt>
      <trkpt lat="44.52693" lon="0.6055">
        <ele>135.2</ele>
        <time>2018-08-25T16:56:57Z</time>
      </trkpt>
      <trkpt lat="44.52696" lon="0.60534">
        <ele>134.5</ele>
        <time>2018-08-25T16:56:58Z</time>
      </trkpt>
      <trkpt lat="44.52699" lon="0.60519">
        <ele>134.1</ele>
        <time>2018-08-25T16:56:59Z</time>
      </trkpt>
      <trkpt lat="44.52702" lon="0.60504">
        <ele>133.6</ele>
        <time>2018-08-25T16:57:00Z</time>
      </trkpt>
      <trkpt lat="44.52705" lon="0.60491">
        <ele>133.3</ele>
        <time>2018-08-25T16:57:01Z</time>
      </trkpt>
      <trkpt lat="44.52707" lon="0.60481">
        <ele>133.1</ele>
        <time>2018-08-25T16:57:02Z</time>
      </trkpt>
      <trkpt lat="44.52708" lon="0.60471">
        <ele>132.8</ele>
        <time>2018-08-25T16:57:03Z</time>
      </trkpt>
      <trkpt lat="44.52707" lon="0.60466">
        <ele>132.7</ele>
        <time>2018-08-25T16:57:04Z</time>
      </trkpt>
      <trkpt lat="44.52706" lon="0.6046">
        <ele>132.5</ele>
        <time>2018-08-25T16:57:05Z</time>
      </trkpt>
      <trkpt lat="44.52701" lon="0.60456">
        <ele>132.3</ele>
        <time>2018-08-25T16:57:06Z</time>
      </trkpt>
      <trkpt lat="44.52696" lon="0.60452">
        <ele>132.2</ele>
        <time>2018-08-25T16:57:07Z</time>
      </trkpt>
      <trkpt lat="44.52689" lon="0.60447">
        <ele>132.1</ele>
        <time>2018-08-25T16:57:08Z</time>
      </trkpt>
      <trkpt lat="44.52683" lon="0.60443">
        <ele>132.1</ele>
        <time>2018-08-25T16:57:09Z</time>
      </trkpt>
      <trkpt lat="44.52679" lon="0.60438">
        <ele>132</ele>
        <time>2018-08-25T16:57:10Z</time>
      </trkpt>
      <trkpt lat="44.52674" lon="0.60434">
        <ele>131.9</ele>
        <time>2018-08-25T16:57:11Z</time>
      </trkpt>
      <trkpt lat="44.52669" lon="0.6043">
        <ele>131.8</ele>
        <time>2018-08-25T16:57:12Z</time>
      </trkpt>
      <trkpt lat="44.52663" lon="0.60426">
        <ele>131.6</ele>
        <time>2018-08-25T16:57:13Z</time>
      </trkpt>
      <trkpt lat="44.52656" lon="0.60421">
        <ele>131.2</ele>
        <time>2018-08-25T16:57:14Z</time>
      </trkpt>
      <trkpt lat="44.52651" lon="0.60415">
        <ele>130.9</ele>
        <time>2018-08-25T16:57:15Z</time>
      </trkpt>
      <trkpt lat="44.52646" lon="0.6041">
        <ele>130.5</ele>
        <time>2018-08-25T16:57:16Z</time>
      </trkpt>
      <trkpt lat="44.52643" lon="0.60406">
        <ele>130.3</ele>
        <time>2018-08-25T16:57:17Z</time>
      </trkpt>
      <trkpt lat="44.52638" lon="0.60401">
        <ele>130</ele>
        <time>2018-08-25T16:57:18Z</time>
      </trkpt>
      <trkpt lat="44.52635" lon="0.60395">
        <ele>129.6</ele>
        <time>2018-08-25T16:57:19Z</time>
      </trkpt>
      <trkpt lat="44.52634" lon="0.60389">
        <ele>129.4</ele>
        <time>2018-08-25T16:57:20Z</time>
      </trkpt>
      <trkpt lat="44.52632" lon="0.60384">
        <ele>129.3</ele>
        <time>2018-08-25T16:57:21Z</time>
      </trkpt>
      <trkpt lat="44.52629" lon="0.60379">
        <ele>129.1</ele>
        <time>2018-08-25T16:57:22Z</time>
      </trkpt>
      <trkpt lat="44.52625" lon="0.60374">
        <ele>128.7</ele>
        <time>2018-08-25T16:57:23Z</time>
      </trkpt>
      <trkpt lat="44.52618" lon="0.6037">
        <ele>128.3</ele>
        <time>2018-08-25T16:57:24Z</time>
      </trkpt>
      <trkpt lat="44.52615" lon="0.60365">
        <ele>128</ele>
        <time>2018-08-25T16:57:25Z</time>
      </trkpt>
      <trkpt lat="44.52611" lon="0.60361">
        <ele>127.8</ele>
        <time>2018-08-25T16:57:26Z</time>
      </trkpt>
      <trkpt lat="44.52607" lon="0.60354">
        <ele>127.4</ele>
        <time>2018-08-25T16:57:27Z</time>
      </trkpt>
      <trkpt lat="44.526" lon="0.60347">
        <ele>126.5</ele>
        <time>2018-08-25T16:57:28Z</time>
      </trkpt>
      <trkpt lat="44.52594" lon="0.6034">
        <ele>125.8</ele>
        <time>2018-08-25T16:57:29Z</time>
      </trkpt>
      <trkpt lat="44.52589" lon="0.60336">
        <ele>125.3</ele>
        <time>2018-08-25T16:57:30Z</time>
      </trkpt>
      <trkpt lat="44.52584" lon="0.60333">
        <ele>124.5</ele>
        <time>2018-08-25T16:57:31Z</time>
      </trkpt>
      <trkpt lat="44.52577" lon="0.6033">
        <ele>123.7</ele>
        <time>2018-08-25T16:57:32Z</time>
      </trkpt>
      <trkpt lat="44.52567" lon="0.60324">
        <ele>122.6</ele>
        <time>2018-08-25T16:57:33Z</time>
      </trkpt>
      <trkpt lat="44.5256" lon="0.60318">
        <ele>122.1</ele>
        <time>2018-08-25T16:57:34Z</time>
      </trkpt>
      <trkpt lat="44.52552" lon="0.6031">
        <ele>121.5</ele>
        <time>2018-08-25T16:57:35Z</time>
      </trkpt>
      <trkpt lat="44.52542" lon="0.60304">
        <ele>120.6</ele>
        <time>2018-08-25T16:57:36Z</time>
      </trkpt>
      <trkpt lat="44.52535" lon="0.60299">
        <ele>120.1</ele>
        <time>2018-08-25T16:57:37Z</time>
      </trkpt>
      <trkpt lat="44.5253" lon="0.60296">
        <ele>119.8</ele>
        <time>2018-08-25T16:57:38Z</time>
      </trkpt>
      <trkpt lat="44.52524" lon="0.60294">
        <ele>119.5</ele>
        <time>2018-08-25T16:57:39Z</time>
      </trkpt>
      <trkpt lat="44.5252" lon="0.6029">
        <ele>119.1</ele>
        <time>2018-08-25T16:57:40Z</time>
      </trkpt>
      <trkpt lat="44.52515" lon="0.60284">
        <ele>118.8</ele>
        <time>2018-08-25T16:57:41Z</time>
      </trkpt>
      <trkpt lat="44.5251" lon="0.60277">
        <ele>118.4</ele>
        <time>2018-08-25T16:57:42Z</time>
      </trkpt>
      <trkpt lat="44.52506" lon="0.6027">
        <ele>117.9</ele>
        <time>2018-08-25T16:57:43Z</time>
      </trkpt>
      <trkpt lat="44.52504" lon="0.60264">
        <ele>117.8</ele>
        <time>2018-08-25T16:57:44Z</time>
      </trkpt>
      <trkpt lat="44.52502" lon="0.60258">
        <ele>117.6</ele>
        <time>2018-08-25T16:57:45Z</time>
      </trkpt>
      <trkpt lat="44.52501" lon="0.60254">
        <ele>117.6</ele>
        <time>2018-08-25T16:57:46Z</time>
      </trkpt>
      <trkpt lat="44.52502" lon="0.60249">
        <ele>117.4</ele>
        <time>2018-08-25T16:57:47Z</time>
      </trkpt>
      <trkpt lat="44.52504" lon="0.60246">
        <ele>117.6</ele>
        <time>2018-08-25T16:57:48Z</time>
      </trkpt>
      <trkpt lat="44.52508" lon="0.60244">
        <ele>117.7</ele>
        <time>2018-08-25T16:57:49Z</time>
      </trkpt>
      <trkpt lat="44.52517" lon="0.60245">
        <ele>118.2</ele>
        <time>2018-08-25T16:57:51Z</time>
      </trkpt>
      <trkpt lat="44.52524" lon="0.60245">
        <ele>118.6</ele>
        <time>2018-08-25T16:57:52Z</time>
      </trkpt>
      <trkpt lat="44.52531" lon="0.60245">
        <ele>119.2</ele>
        <time>2018-08-25T16:57:53Z</time>
      </trkpt>
      <trkpt lat="44.52538" lon="0.60241">
        <ele>119.5</ele>
        <time>2018-08-25T16:57:54Z</time>
      </trkpt>
      <trkpt lat="44.52542" lon="0.60235">
        <ele>119.5</ele>
        <time>2018-08-25T16:57:55Z</time>
      </trkpt>
      <trkpt lat="44.52544" lon="0.60225">
        <ele>119.5</ele>
        <time>2018-08-25T16:57:56Z</time>
      </trkpt>
      <trkpt lat="44.52544" lon="0.60214">
        <ele>119.3</ele>
        <time>2018-08-25T16:57:57Z</time>
      </trkpt>
      <trkpt lat="44.52543" lon="0.60203">
        <ele>119.2</ele>
        <time>2018-08-25T16:57:58Z</time>
      </trkpt>
      <trkpt lat="44.52545" lon="0.60192">
        <ele>119</ele>
        <time>2018-08-25T16:57:59Z</time>
      </trkpt>
      <trkpt lat="44.52548" lon="0.60183">
        <ele>119.1</ele>
        <time>2018-08-25T16:58:00Z</time>
      </trkpt>
      <trkpt lat="44.52551" lon="0.60173">
        <ele>119</ele>
        <time>2018-08-25T16:58:01Z</time>
      </trkpt>
      <trkpt lat="44.52554" lon="0.60161">
        <ele>118.7</ele>
        <time>2018-08-25T16:58:02Z</time>
      </trkpt>
      <trkpt lat="44.52555" lon="0.6015">
        <ele>118.5</ele>
        <time>2018-08-25T16:58:03Z</time>
      </trkpt>
      <trkpt lat="44.52557" lon="0.60141">
        <ele>118.2</ele>
        <time>2018-08-25T16:58:04Z</time>
      </trkpt>
      <trkpt lat="44.52562" lon="0.60133">
        <ele>118.5</ele>
        <time>2018-08-25T16:58:05Z</time>
      </trkpt>
      <trkpt lat="44.52566" lon="0.60126">
        <ele>118.5</ele>
        <time>2018-08-25T16:58:06Z</time>
      </trkpt>
      <trkpt lat="44.52574" lon="0.60118">
        <ele>118.8</ele>
        <time>2018-08-25T16:58:07Z</time>
      </trkpt>
      <trkpt lat="44.52582" lon="0.60109">
        <ele>118.9</ele>
        <time>2018-08-25T16:58:08Z</time>
      </trkpt>
      <trkpt lat="44.5259" lon="0.60099">
        <ele>119.3</ele>
        <time>2018-08-25T16:58:09Z</time>
      </trkpt>
      <trkpt lat="44.52596" lon="0.60092">
        <ele>119.3</ele>
        <time>2018-08-25T16:58:10Z</time>
      </trkpt>
      <trkpt lat="44.52605" lon="0.60086">
        <ele>120</ele>
        <time>2018-08-25T16:58:11Z</time>
      </trkpt>
      <trkpt lat="44.52615" lon="0.60081">
        <ele>120.4</ele>
        <time>2018-08-25T16:58:12Z</time>
      </trkpt>
      <trkpt lat="44.52624" lon="0.60074">
        <ele>121.3</ele>
        <time>2018-08-25T16:58:13Z</time>
      </trkpt>
      <trkpt lat="44.52632" lon="0.60067">
        <ele>121.6</ele>
        <time>2018-08-25T16:58:14Z</time>
      </trkpt>
      <trkpt lat="44.52642" lon="0.60059">
        <ele>121.8</ele>
        <time>2018-08-25T16:58:15Z</time>
      </trkpt>
      <trkpt lat="44.5265" lon="0.60053">
        <ele>122.4</ele>
        <time>2018-08-25T16:58:16Z</time>
      </trkpt>
      <trkpt lat="44.52657" lon="0.60048">
        <ele>122.7</ele>
        <time>2018-08-25T16:58:17Z</time>
      </trkpt>
      <trkpt lat="44.52662" lon="0.60044">
        <ele>122.9</ele>
        <time>2018-08-25T16:58:18Z</time>
      </trkpt>
      <trkpt lat="44.52665" lon="0.6004">
        <ele>122.4</ele>
        <time>2018-08-25T16:58:19Z</time>
      </trkpt>
      <trkpt lat="44.52666" lon="0.60035">
        <ele>122.2</ele>
        <time>2018-08-25T16:58:20Z</time>
      </trkpt>
      <trkpt lat="44.52667" lon="0.60028">
        <ele>121.2</ele>
        <time>2018-08-25T16:58:21Z</time>
      </trkpt>
      <trkpt lat="44.52668" lon="0.6002">
        <ele>120.4</ele>
        <time>2018-08-25T16:58:22Z</time>
      </trkpt>
      <trkpt lat="44.52668" lon="0.60012">
        <ele>119.5</ele>
        <time>2018-08-25T16:58:23Z</time>
      </trkpt>
      <trkpt lat="44.52667" lon="0.60002">
        <ele>118.4</ele>
        <time>2018-08-25T16:58:24Z</time>
      </trkpt>
      <trkpt lat="44.52666" lon="0.59991">
        <ele>117.1</ele>
        <time>2018-08-25T16:58:25Z</time>
      </trkpt>
      <trkpt lat="44.52664" lon="0.59982">
        <ele>116.1</ele>
        <time>2018-08-25T16:58:26Z</time>
      </trkpt>
      <trkpt lat="44.52663" lon="0.59973">
        <ele>115.3</ele>
        <time>2018-08-25T16:58:27Z</time>
      </trkpt>
      <trkpt lat="44.5266" lon="0.59962">
        <ele>114.5</ele>
        <time>2018-08-25T16:58:28Z</time>
      </trkpt>
      <trkpt lat="44.52658" lon="0.59953">
        <ele>113.8</ele>
        <time>2018-08-25T16:58:29Z</time>
      </trkpt>
      <trkpt lat="44.52655" lon="0.59944">
        <ele>112.9</ele>
        <time>2018-08-25T16:58:30Z</time>
      </trkpt>
      <trkpt lat="44.52652" lon="0.59935">
        <ele>112.6</ele>
        <time>2018-08-25T16:58:31Z</time>
      </trkpt>
      <trkpt lat="44.52649" lon="0.59929">
        <ele>112.6</ele>
        <time>2018-08-25T16:58:32Z</time>
      </trkpt>
      <trkpt lat="44.52646" lon="0.59923">
        <ele>112.6</ele>
        <time>2018-08-25T16:58:33Z</time>
      </trkpt>
      <trkpt lat="44.52642" lon="0.59918">
        <ele>112.6</ele>
        <time>2018-08-25T16:58:34Z</time>
      </trkpt>
      <trkpt lat="44.52639" lon="0.5991">
        <ele>112.7</ele>
        <time>2018-08-25T16:58:35Z</time>
      </trkpt>
      <trkpt lat="44.52638" lon="0.59907">
        <ele>112.8</ele>
        <time>2018-08-25T16:58:36Z</time>
      </trkpt>
      <trkpt lat="44.52635" lon="0.59902">
        <ele>113</ele>
        <time>2018-08-25T16:58:37Z</time>
      </trkpt>
      <trkpt lat="44.52631" lon="0.59896">
        <ele>113.2</ele>
        <time>2018-08-25T16:58:38Z</time>
      </trkpt>
      <trkpt lat="44.52627" lon="0.59889">
        <ele>113.7</ele>
        <time>2018-08-25T16:58:39Z</time>
      </trkpt>
      <trkpt lat="44.52625" lon="0.59882">
        <ele>114</ele>
        <time>2018-08-25T16:58:40Z</time>
      </trkpt>
      <trkpt lat="44.5262" lon="0.59876">
        <ele>114.4</ele>
        <time>2018-08-25T16:58:41Z</time>
      </trkpt>
      <trkpt lat="44.52613" lon="0.5987">
        <ele>115.1</ele>
        <time>2018-08-25T16:58:42Z</time>
      </trkpt>
      <trkpt lat="44.52608" lon="0.59865">
        <ele>115.7</ele>
        <time>2018-08-25T16:58:43Z</time>
      </trkpt>
      <trkpt lat="44.52604" lon="0.59857">
        <ele>116.2</ele>
        <time>2018-08-25T16:58:44Z</time>
      </trkpt>
      <trkpt lat="44.526" lon="0.59848">
        <ele>116.4</ele>
        <time>2018-08-25T16:58:45Z</time>
      </trkpt>
      <trkpt lat="44.52596" lon="0.59839">
        <ele>116.6</ele>
        <time>2018-08-25T16:58:46Z</time>
      </trkpt>
      <trkpt lat="44.52594" lon="0.59831">
        <ele>116.7</ele>
        <time>2018-08-25T16:58:47Z</time>
      </trkpt>
      <trkpt lat="44.52592" lon="0.59826">
        <ele>116.7</ele>
        <time>2018-08-25T16:58:48Z</time>
      </trkpt>
      <trkpt lat="44.5259" lon="0.59821">
        <ele>116.9</ele>
        <time>2018-08-25T16:58:50Z</time>
      </trkpt>
      <trkpt lat="44.52584" lon="0.5982">
        <ele>116.8</ele>
        <time>2018-08-25T16:58:52Z</time>
      </trkpt>
      <trkpt lat="44.52581" lon="0.59818">
        <ele>117</ele>
        <time>2018-08-25T16:58:53Z</time>
      </trkpt>
      <trkpt lat="44.52578" lon="0.59816">
        <ele>116.9</ele>
        <time>2018-08-25T16:58:54Z</time>
      </trkpt>
      <trkpt lat="44.52575" lon="0.59814">
        <ele>117.2</ele>
        <time>2018-08-25T16:58:55Z</time>
      </trkpt>
      <trkpt lat="44.52574" lon="0.59807">
        <ele>117.6</ele>
        <time>2018-08-25T16:58:57Z</time>
      </trkpt>
      <trkpt lat="44.52573" lon="0.59802">
        <ele>118.4</ele>
        <time>2018-08-25T16:58:58Z</time>
      </trkpt>
      <trkpt lat="44.5257" lon="0.59797">
        <ele>118.8</ele>
        <time>2018-08-25T16:58:59Z</time>
      </trkpt>
      <trkpt lat="44.52568" lon="0.59792">
        <ele>119</ele>
        <time>2018-08-25T16:59:00Z</time>
      </trkpt>
      <trkpt lat="44.52566" lon="0.59788">
        <ele>119.2</ele>
        <time>2018-08-25T16:59:01Z</time>
      </trkpt>
      <trkpt lat="44.52565" lon="0.59782">
        <ele>119.4</ele>
        <time>2018-08-25T16:59:02Z</time>
      </trkpt>
      <trkpt lat="44.52561" lon="0.59778">
        <ele>119.4</ele>
        <time>2018-08-25T16:59:03Z</time>
      </trkpt>
      <trkpt lat="44.52557" lon="0.59772">
        <ele>119.9</ele>
        <time>2018-08-25T16:59:04Z</time>
      </trkpt>
      <trkpt lat="44.52553" lon="0.59766">
        <ele>120.3</ele>
        <time>2018-08-25T16:59:05Z</time>
      </trkpt>
      <trkpt lat="44.5255" lon="0.59765">
        <ele>120.4</ele>
        <time>2018-08-25T16:59:06Z</time>
      </trkpt>
      <trkpt lat="44.52547" lon="0.59766">
        <ele>120.5</ele>
        <time>2018-08-25T16:59:07Z</time>
      </trkpt>
      <trkpt lat="44.52545" lon="0.5977">
        <ele>120</ele>
        <time>2018-08-25T16:59:08Z</time>
      </trkpt>
      <trkpt lat="44.52546" lon="0.59777">
        <ele>119.6</ele>
        <time>2018-08-25T16:59:09Z</time>
      </trkpt>
      <trkpt lat="44.52548" lon="0.59785">
        <ele>118.5</ele>
        <time>2018-08-25T16:59:10Z</time>
      </trkpt>
      <trkpt lat="44.52551" lon="0.59795">
        <ele>117.7</ele>
        <time>2018-08-25T16:59:11Z</time>
      </trkpt>
      <trkpt lat="44.52555" lon="0.59803">
        <ele>118.1</ele>
        <time>2018-08-25T16:59:12Z</time>
      </trkpt>
      <trkpt lat="44.52558" lon="0.59811">
        <ele>117.6</ele>
        <time>2018-08-25T16:59:13Z</time>
      </trkpt>
      <trkpt lat="44.52562" lon="0.59819">
        <ele>117.5</ele>
        <time>2018-08-25T16:59:14Z</time>
      </trkpt>
      <trkpt lat="44.52564" lon="0.59826">
        <ele>117.3</ele>
        <time>2018-08-25T16:59:15Z</time>
      </trkpt>
      <trkpt lat="44.52567" lon="0.59835">
        <ele>117.4</ele>
        <time>2018-08-25T16:59:16Z</time>
      </trkpt>
      <trkpt lat="44.52569" lon="0.59842">
        <ele>117.6</ele>
        <time>2018-08-25T16:59:17Z</time>
      </trkpt>
      <trkpt lat="44.5257" lon="0.5985">
        <ele>117.7</ele>
        <time>2018-08-25T16:59:18Z</time>
      </trkpt>
      <trkpt lat="44.5257" lon="0.59855">
        <ele>117.7</ele>
        <time>2018-08-25T16:59:19Z</time>
      </trkpt>
      <trkpt lat="44.52571" lon="0.59861">
        <ele>117.7</ele>
        <time>2018-08-25T16:59:20Z</time>
      </trkpt>
      <trkpt lat="44.5257" lon="0.59867">
        <ele>117.7</ele>
        <time>2018-08-25T16:59:21Z</time>
      </trkpt>
      <trkpt lat="44.52564" lon="0.59876">
        <ele>117.9</ele>
        <time>2018-08-25T16:59:22Z</time>
      </trkpt>
      <trkpt lat="44.52559" lon="0.59885">
        <ele>118.1</ele>
        <time>2018-08-25T16:59:23Z</time>
      </trkpt>
      <trkpt lat="44.52555" lon="0.59895">
        <ele>118.3</ele>
        <time>2018-08-25T16:59:24Z</time>
      </trkpt>
      <trkpt lat="44.52551" lon="0.59901">
        <ele>118.2</ele>
        <time>2018-08-25T16:59:25Z</time>
      </trkpt>
      <trkpt lat="44.52547" lon="0.59906">
        <ele>118.4</ele>
        <time>2018-08-25T16:59:26Z</time>
      </trkpt>
      <trkpt lat="44.52542" lon="0.59909">
        <ele>118.3</ele>
        <time>2018-08-25T16:59:27Z</time>
      </trkpt>
      <trkpt lat="44.52538" lon="0.59912">
        <ele>118.5</ele>
        <time>2018-08-25T16:59:28Z</time>
      </trkpt>
      <trkpt lat="44.52531" lon="0.59913">
        <ele>118.6</ele>
        <time>2018-08-25T16:59:29Z</time>
      </trkpt>
      <trkpt lat="44.52526" lon="0.59912">
        <ele>118.7</ele>
        <time>2018-08-25T16:59:30Z</time>
      </trkpt>
      <trkpt lat="44.52517" lon="0.59911">
        <ele>118.8</ele>
        <time>2018-08-25T16:59:31Z</time>
      </trkpt>
      <trkpt lat="44.5251" lon="0.59909">
        <ele>118.6</ele>
        <time>2018-08-25T16:59:32Z</time>
      </trkpt>
      <trkpt lat="44.52503" lon="0.59911">
        <ele>119.1</ele>
        <time>2018-08-25T16:59:33Z</time>
      </trkpt>
      <trkpt lat="44.52498" lon="0.59912">
        <ele>119.3</ele>
        <time>2018-08-25T16:59:34Z</time>
      </trkpt>
      <trkpt lat="44.52487" lon="0.5991">
        <ele>118.8</ele>
        <time>2018-08-25T16:59:35Z</time>
      </trkpt>
      <trkpt lat="44.52483" lon="0.59907">
        <ele>118.8</ele>
        <time>2018-08-25T16:59:36Z</time>
      </trkpt>
      <trkpt lat="44.52476" lon="0.59906">
        <ele>118.2</ele>
        <time>2018-08-25T16:59:37Z</time>
      </trkpt>
      <trkpt lat="44.52468" lon="0.59904">
        <ele>118.1</ele>
        <time>2018-08-25T16:59:38Z</time>
      </trkpt>
      <trkpt lat="44.52459" lon="0.59902">
        <ele>118.7</ele>
        <time>2018-08-25T16:59:39Z</time>
      </trkpt>
      <trkpt lat="44.52451" lon="0.59898">
        <ele>119.1</ele>
        <time>2018-08-25T16:59:40Z</time>
      </trkpt>
      <trkpt lat="44.52441" lon="0.59892">
        <ele>120.1</ele>
        <time>2018-08-25T16:59:41Z</time>
      </trkpt>
      <trkpt lat="44.52431" lon="0.59883">
        <ele>119.7</ele>
        <time>2018-08-25T16:59:42Z</time>
      </trkpt>
      <trkpt lat="44.52422" lon="0.59874">
        <ele>120.1</ele>
        <time>2018-08-25T16:59:43Z</time>
      </trkpt>
      <trkpt lat="44.52413" lon="0.59866">
        <ele>122</ele>
        <time>2018-08-25T16:59:44Z</time>
      </trkpt>
      <trkpt lat="44.52404" lon="0.59859">
        <ele>123.8</ele>
        <time>2018-08-25T16:59:45Z</time>
      </trkpt>
      <trkpt lat="44.524" lon="0.59855">
        <ele>124.2</ele>
        <time>2018-08-25T16:59:46Z</time>
      </trkpt>
      <trkpt lat="44.52393" lon="0.59853">
        <ele>124.7</ele>
        <time>2018-08-25T16:59:47Z</time>
      </trkpt>
      <trkpt lat="44.52385" lon="0.5985">
        <ele>125</ele>
        <time>2018-08-25T16:59:48Z</time>
      </trkpt>
      <trkpt lat="44.52375" lon="0.59851">
        <ele>125</ele>
        <time>2018-08-25T16:59:49Z</time>
      </trkpt>
      <trkpt lat="44.52371" lon="0.59854">
        <ele>125.1</ele>
        <time>2018-08-25T16:59:50Z</time>
      </trkpt>
      <trkpt lat="44.52364" lon="0.59857">
        <ele>125.4</ele>
        <time>2018-08-25T16:59:51Z</time>
      </trkpt>
      <trkpt lat="44.5236" lon="0.59864">
        <ele>125.6</ele>
        <time>2018-08-25T16:59:52Z</time>
      </trkpt>
      <trkpt lat="44.52358" lon="0.59873">
        <ele>125.9</ele>
        <time>2018-08-25T16:59:53Z</time>
      </trkpt>
      <trkpt lat="44.52356" lon="0.59883">
        <ele>126.3</ele>
        <time>2018-08-25T16:59:54Z</time>
      </trkpt>
      <trkpt lat="44.52351" lon="0.59893">
        <ele>126.9</ele>
        <time>2018-08-25T16:59:55Z</time>
      </trkpt>
      <trkpt lat="44.52348" lon="0.59901">
        <ele>127.3</ele>
        <time>2018-08-25T16:59:56Z</time>
      </trkpt>
      <trkpt lat="44.52342" lon="0.59909">
        <ele>127.7</ele>
        <time>2018-08-25T16:59:57Z</time>
      </trkpt>
      <trkpt lat="44.52342" lon="0.59916">
        <ele>128</ele>
        <time>2018-08-25T16:59:58Z</time>
      </trkpt>
      <trkpt lat="44.52338" lon="0.5992">
        <ele>128.3</ele>
        <time>2018-08-25T16:59:59Z</time>
      </trkpt>
      <trkpt lat="44.52335" lon="0.59925">
        <ele>128.6</ele>
        <time>2018-08-25T17:00:00Z</time>
      </trkpt>
      <trkpt lat="44.5233" lon="0.59928">
        <ele>129.1</ele>
        <time>2018-08-25T17:00:01Z</time>
      </trkpt>
      <trkpt lat="44.52325" lon="0.59931">
        <ele>129.5</ele>
        <time>2018-08-25T17:00:02Z</time>
      </trkpt>
      <trkpt lat="44.52319" lon="0.59928">
        <ele>129.8</ele>
        <time>2018-08-25T17:00:03Z</time>
      </trkpt>
      <trkpt lat="44.5231" lon="0.59925">
        <ele>130.3</ele>
        <time>2018-08-25T17:00:04Z</time>
      </trkpt>
      <trkpt lat="44.523" lon="0.59921">
        <ele>130.8</ele>
        <time>2018-08-25T17:00:05Z</time>
      </trkpt>
      <trkpt lat="44.52291" lon="0.59918">
        <ele>131.2</ele>
        <time>2018-08-25T17:00:06Z</time>
      </trkpt>
      <trkpt lat="44.52283" lon="0.59915">
        <ele>131.7</ele>
        <time>2018-08-25T17:00:07Z</time>
      </trkpt>
      <trkpt lat="44.52274" lon="0.59912">
        <ele>132</ele>
        <time>2018-08-25T17:00:08Z</time>
      </trkpt>
      <trkpt lat="44.52265" lon="0.5991">
        <ele>132.5</ele>
        <time>2018-08-25T17:00:09Z</time>
      </trkpt>
      <trkpt lat="44.52256" lon="0.59908">
        <ele>132.9</ele>
        <time>2018-08-25T17:00:10Z</time>
      </trkpt>
      <trkpt lat="44.52249" lon="0.59904">
        <ele>133.1</ele>
        <time>2018-08-25T17:00:11Z</time>
      </trkpt>
      <trkpt lat="44.52241" lon="0.59902">
        <ele>133.7</ele>
        <time>2018-08-25T17:00:12Z</time>
      </trkpt>
      <trkpt lat="44.52235" lon="0.59901">
        <ele>133.9</ele>
        <time>2018-08-25T17:00:13Z</time>
      </trkpt>
      <trkpt lat="44.52225" lon="0.59898">
        <ele>134.4</ele>
        <time>2018-08-25T17:00:14Z</time>
      </trkpt>
      <trkpt lat="44.52219" lon="0.59896">
        <ele>134.8</ele>
        <time>2018-08-25T17:00:15Z</time>
      </trkpt>
      <trkpt lat="44.52214" lon="0.59897">
        <ele>135.3</ele>
        <time>2018-08-25T17:00:16Z</time>
      </trkpt>
      <trkpt lat="44.52209" lon="0.59901">
        <ele>135.6</ele>
        <time>2018-08-25T17:00:17Z</time>
      </trkpt>
      <trkpt lat="44.52204" lon="0.59907">
        <ele>135.9</ele>
        <time>2018-08-25T17:00:18Z</time>
      </trkpt>
      <trkpt lat="44.522" lon="0.59916">
        <ele>136.4</ele>
        <time>2018-08-25T17:00:19Z</time>
      </trkpt>
      <trkpt lat="44.52196" lon="0.59927">
        <ele>136.8</ele>
        <time>2018-08-25T17:00:20Z</time>
      </trkpt>
      <trkpt lat="44.52193" lon="0.59936">
        <ele>137.2</ele>
        <time>2018-08-25T17:00:21Z</time>
      </trkpt>
      <trkpt lat="44.52191" lon="0.59943">
        <ele>137.3</ele>
        <time>2018-08-25T17:00:22Z</time>
      </trkpt>
      <trkpt lat="44.52188" lon="0.59949">
        <ele>137.7</ele>
        <time>2018-08-25T17:00:23Z</time>
      </trkpt>
      <trkpt lat="44.52186" lon="0.59953">
        <ele>138.1</ele>
        <time>2018-08-25T17:00:24Z</time>
      </trkpt>
      <trkpt lat="44.5219" lon="0.59948">
        <ele>137.7</ele>
        <time>2018-08-25T17:00:25Z</time>
      </trkpt>
      <trkpt lat="44.5218" lon="0.59957">
        <ele>138.5</ele>
        <time>2018-08-25T17:00:46Z</time>
      </trkpt>
      <trkpt lat="44.52176" lon="0.59957">
        <ele>138.8</ele>
        <time>2018-08-25T17:00:47Z</time>
      </trkpt>
      <trkpt lat="44.5217" lon="0.59955">
        <ele>139.3</ele>
        <time>2018-08-25T17:00:48Z</time>
      </trkpt>
      <trkpt lat="44.52163" lon="0.59952">
        <ele>140</ele>
        <time>2018-08-25T17:00:49Z</time>
      </trkpt>
      <trkpt lat="44.52155" lon="0.5995">
        <ele>140.6</ele>
        <time>2018-08-25T17:00:50Z</time>
      </trkpt>
      <trkpt lat="44.52145" lon="0.59949">
        <ele>141.4</ele>
        <time>2018-08-25T17:00:51Z</time>
      </trkpt>
      <trkpt lat="44.52136" lon="0.59947">
        <ele>142.2</ele>
        <time>2018-08-25T17:00:52Z</time>
      </trkpt>
      <trkpt lat="44.52126" lon="0.59945">
        <ele>143.4</ele>
        <time>2018-08-25T17:00:53Z</time>
      </trkpt>
      <trkpt lat="44.52117" lon="0.59942">
        <ele>143.8</ele>
        <time>2018-08-25T17:00:54Z</time>
      </trkpt>
      <trkpt lat="44.52103" lon="0.59938">
        <ele>145.2</ele>
        <time>2018-08-25T17:00:55Z</time>
      </trkpt>
      <trkpt lat="44.52088" lon="0.59933">
        <ele>146.4</ele>
        <time>2018-08-25T17:00:56Z</time>
      </trkpt>
      <trkpt lat="44.52069" lon="0.59928">
        <ele>147.7</ele>
        <time>2018-08-25T17:00:57Z</time>
      </trkpt>
      <trkpt lat="44.52056" lon="0.59922">
        <ele>147.8</ele>
        <time>2018-08-25T17:00:58Z</time>
      </trkpt>
      <trkpt lat="44.52045" lon="0.59917">
        <ele>147.9</ele>
        <time>2018-08-25T17:00:59Z</time>
      </trkpt>
      <trkpt lat="44.52033" lon="0.59912">
        <ele>148</ele>
        <time>2018-08-25T17:01:00Z</time>
      </trkpt>
      <trkpt lat="44.52024" lon="0.59908">
        <ele>148</ele>
        <time>2018-08-25T17:01:01Z</time>
      </trkpt>
      <trkpt lat="44.52015" lon="0.59904">
        <ele>148.1</ele>
        <time>2018-08-25T17:01:02Z</time>
      </trkpt>
      <trkpt lat="44.5201" lon="0.59905">
        <ele>148.2</ele>
        <time>2018-08-25T17:01:04Z</time>
      </trkpt>
      <trkpt lat="44.52005" lon="0.59906">
        <ele>148.3</ele>
        <time>2018-08-25T17:01:05Z</time>
      </trkpt>
      <trkpt lat="44.52003" lon="0.59913">
        <ele>148.4</ele>
        <time>2018-08-25T17:01:06Z</time>
      </trkpt>
      <trkpt lat="44.51996" lon="0.59921">
        <ele>148.6</ele>
        <time>2018-08-25T17:01:07Z</time>
      </trkpt>
      <trkpt lat="44.51989" lon="0.59932">
        <ele>148.8</ele>
        <time>2018-08-25T17:01:08Z</time>
      </trkpt>
      <trkpt lat="44.51981" lon="0.59942">
        <ele>149</ele>
        <time>2018-08-25T17:01:09Z</time>
      </trkpt>
      <trkpt lat="44.51973" lon="0.59952">
        <ele>149.6</ele>
        <time>2018-08-25T17:01:10Z</time>
      </trkpt>
      <trkpt lat="44.51967" lon="0.5996">
        <ele>150</ele>
        <time>2018-08-25T17:01:11Z</time>
      </trkpt>
      <trkpt lat="44.5196" lon="0.5997">
        <ele>150.2</ele>
        <time>2018-08-25T17:01:12Z</time>
      </trkpt>
      <trkpt lat="44.51953" lon="0.59978">
        <ele>150.3</ele>
        <time>2018-08-25T17:01:13Z</time>
      </trkpt>
      <trkpt lat="44.51946" lon="0.59987">
        <ele>150.4</ele>
        <time>2018-08-25T17:01:14Z</time>
      </trkpt>
      <trkpt lat="44.5194" lon="0.59994">
        <ele>150.4</ele>
        <time>2018-08-25T17:01:15Z</time>
      </trkpt>
      <trkpt lat="44.51935" lon="0.6">
        <ele>150.5</ele>
        <time>2018-08-25T17:01:16Z</time>
      </trkpt>
      <trkpt lat="44.51933" lon="0.60007">
        <ele>150.5</ele>
        <time>2018-08-25T17:01:17Z</time>
      </trkpt>
      <trkpt lat="44.51931" lon="0.60014">
        <ele>150.5</ele>
        <time>2018-08-25T17:01:18Z</time>
      </trkpt>
      <trkpt lat="44.51927" lon="0.60022">
        <ele>150.5</ele>
        <time>2018-08-25T17:01:19Z</time>
      </trkpt>
      <trkpt lat="44.5192" lon="0.60031">
        <ele>150.1</ele>
        <time>2018-08-25T17:01:20Z</time>
      </trkpt>
      <trkpt lat="44.51916" lon="0.60042">
        <ele>149.5</ele>
        <time>2018-08-25T17:01:21Z</time>
      </trkpt>
      <trkpt lat="44.51907" lon="0.60053">
        <ele>149.3</ele>
        <time>2018-08-25T17:01:22Z</time>
      </trkpt>
      <trkpt lat="44.51899" lon="0.60064">
        <ele>149.1</ele>
        <time>2018-08-25T17:01:23Z</time>
      </trkpt>
      <trkpt lat="44.5189" lon="0.60075">
        <ele>149</ele>
        <time>2018-08-25T17:01:24Z</time>
      </trkpt>
      <trkpt lat="44.51882" lon="0.60087">
        <ele>148.9</ele>
        <time>2018-08-25T17:01:25Z</time>
      </trkpt>
      <trkpt lat="44.51875" lon="0.60097">
        <ele>148.8</ele>
        <time>2018-08-25T17:01:26Z</time>
      </trkpt>
      <trkpt lat="44.51867" lon="0.60106">
        <ele>148.7</ele>
        <time>2018-08-25T17:01:27Z</time>
      </trkpt>
      <trkpt lat="44.51861" lon="0.60116">
        <ele>148.6</ele>
        <time>2018-08-25T17:01:28Z</time>
      </trkpt>
      <trkpt lat="44.51855" lon="0.60125">
        <ele>148.5</ele>
        <time>2018-08-25T17:01:29Z</time>
      </trkpt>
      <trkpt lat="44.5185" lon="0.60133">
        <ele>148.4</ele>
        <time>2018-08-25T17:01:30Z</time>
      </trkpt>
      <trkpt lat="44.51844" lon="0.60139">
        <ele>148.1</ele>
        <time>2018-08-25T17:01:31Z</time>
      </trkpt>
      <trkpt lat="44.51841" lon="0.60145">
        <ele>147.8</ele>
        <time>2018-08-25T17:01:32Z</time>
      </trkpt>
      <trkpt lat="44.51838" lon="0.60151">
        <ele>147.6</ele>
        <time>2018-08-25T17:01:33Z</time>
      </trkpt>
      <trkpt lat="44.51835" lon="0.60159">
        <ele>147.4</ele>
        <time>2018-08-25T17:01:34Z</time>
      </trkpt>
      <trkpt lat="44.51834" lon="0.60166">
        <ele>147.3</ele>
        <time>2018-08-25T17:01:35Z</time>
      </trkpt>
      <trkpt lat="44.5183" lon="0.60174">
        <ele>147.3</ele>
        <time>2018-08-25T17:01:36Z</time>
      </trkpt>
      <trkpt lat="44.51828" lon="0.60179">
        <ele>147.2</ele>
        <time>2018-08-25T17:01:37Z</time>
      </trkpt>
      <trkpt lat="44.51825" lon="0.60186">
        <ele>147.2</ele>
        <time>2018-08-25T17:01:38Z</time>
      </trkpt>
      <trkpt lat="44.51823" lon="0.60192">
        <ele>147.2</ele>
        <time>2018-08-25T17:01:39Z</time>
      </trkpt>
      <trkpt lat="44.51819" lon="0.60197">
        <ele>147.1</ele>
        <time>2018-08-25T17:01:40Z</time>
      </trkpt>
      <trkpt lat="44.51814" lon="0.60202">
        <ele>147.1</ele>
        <time>2018-08-25T17:01:41Z</time>
      </trkpt>
      <trkpt lat="44.51809" lon="0.60209">
        <ele>147.1</ele>
        <time>2018-08-25T17:01:42Z</time>
      </trkpt>
      <trkpt lat="44.51804" lon="0.60219">
        <ele>147</ele>
        <time>2018-08-25T17:01:43Z</time>
      </trkpt>
      <trkpt lat="44.51797" lon="0.60231">
        <ele>147.1</ele>
        <time>2018-08-25T17:01:44Z</time>
      </trkpt>
      <trkpt lat="44.5179" lon="0.60245">
        <ele>147.2</ele>
        <time>2018-08-25T17:01:45Z</time>
      </trkpt>
      <trkpt lat="44.51783" lon="0.60258">
        <ele>147.3</ele>
        <time>2018-08-25T17:01:46Z</time>
      </trkpt>
      <trkpt lat="44.51775" lon="0.60272">
        <ele>147.4</ele>
        <time>2018-08-25T17:01:47Z</time>
      </trkpt>
      <trkpt lat="44.51766" lon="0.60288">
        <ele>147.4</ele>
        <time>2018-08-25T17:01:48Z</time>
      </trkpt>
      <trkpt lat="44.51757" lon="0.60306">
        <ele>147.4</ele>
        <time>2018-08-25T17:01:49Z</time>
      </trkpt>
      <trkpt lat="44.51747" lon="0.60324">
        <ele>147.3</ele>
        <time>2018-08-25T17:01:50Z</time>
      </trkpt>
      <trkpt lat="44.51737" lon="0.6034">
        <ele>147.3</ele>
        <time>2018-08-25T17:01:51Z</time>
      </trkpt>
      <trkpt lat="44.51728" lon="0.60355">
        <ele>147.2</ele>
        <time>2018-08-25T17:01:52Z</time>
      </trkpt>
      <trkpt lat="44.51723" lon="0.60369">
        <ele>147.1</ele>
        <time>2018-08-25T17:01:53Z</time>
      </trkpt>
      <trkpt lat="44.51718" lon="0.60382">
        <ele>146.9</ele>
        <time>2018-08-25T17:01:54Z</time>
      </trkpt>
      <trkpt lat="44.51714" lon="0.60397">
        <ele>146.7</ele>
        <time>2018-08-25T17:01:55Z</time>
      </trkpt>
      <trkpt lat="44.51712" lon="0.60412">
        <ele>146.5</ele>
        <time>2018-08-25T17:01:56Z</time>
      </trkpt>
      <trkpt lat="44.51712" lon="0.60429">
        <ele>146.2</ele>
        <time>2018-08-25T17:01:57Z</time>
      </trkpt>
      <trkpt lat="44.51712" lon="0.60447">
        <ele>146</ele>
        <time>2018-08-25T17:01:58Z</time>
      </trkpt>
      <trkpt lat="44.5172" lon="0.60464">
        <ele>145.7</ele>
        <time>2018-08-25T17:01:59Z</time>
      </trkpt>
      <trkpt lat="44.51724" lon="0.6048">
        <ele>145.5</ele>
        <time>2018-08-25T17:02:00Z</time>
      </trkpt>
      <trkpt lat="44.51726" lon="0.60491">
        <ele>145.3</ele>
        <time>2018-08-25T17:02:01Z</time>
      </trkpt>
      <trkpt lat="44.51727" lon="0.60501">
        <ele>145.2</ele>
        <time>2018-08-25T17:02:02Z</time>
      </trkpt>
      <trkpt lat="44.51728" lon="0.60509">
        <ele>145.1</ele>
        <time>2018-08-25T17:02:03Z</time>
      </trkpt>
      <trkpt lat="44.51728" lon="0.60517">
        <ele>145</ele>
        <time>2018-08-25T17:02:04Z</time>
      </trkpt>
      <trkpt lat="44.51728" lon="0.60525">
        <ele>144.9</ele>
        <time>2018-08-25T17:02:05Z</time>
      </trkpt>
      <trkpt lat="44.51727" lon="0.60534">
        <ele>144.7</ele>
        <time>2018-08-25T17:02:06Z</time>
      </trkpt>
      <trkpt lat="44.51726" lon="0.60543">
        <ele>144.6</ele>
        <time>2018-08-25T17:02:07Z</time>
      </trkpt>
      <trkpt lat="44.51726" lon="0.60555">
        <ele>144.5</ele>
        <time>2018-08-25T17:02:08Z</time>
      </trkpt>
      <trkpt lat="44.51724" lon="0.60567">
        <ele>144.3</ele>
        <time>2018-08-25T17:02:09Z</time>
      </trkpt>
      <trkpt lat="44.51722" lon="0.6058">
        <ele>144.2</ele>
        <time>2018-08-25T17:02:10Z</time>
      </trkpt>
      <trkpt lat="44.51721" lon="0.60593">
        <ele>144</ele>
        <time>2018-08-25T17:02:11Z</time>
      </trkpt>
      <trkpt lat="44.5172" lon="0.60608">
        <ele>143.8</ele>
        <time>2018-08-25T17:02:12Z</time>
      </trkpt>
      <trkpt lat="44.51719" lon="0.60624">
        <ele>143.6</ele>
        <time>2018-08-25T17:02:13Z</time>
      </trkpt>
      <trkpt lat="44.51717" lon="0.60641">
        <ele>143.4</ele>
        <time>2018-08-25T17:02:14Z</time>
      </trkpt>
      <trkpt lat="44.51715" lon="0.6066">
        <ele>143.2</ele>
        <time>2018-08-25T17:02:15Z</time>
      </trkpt>
      <trkpt lat="44.51714" lon="0.60681">
        <ele>143</ele>
        <time>2018-08-25T17:02:16Z</time>
      </trkpt>
      <trkpt lat="44.51712" lon="0.607">
        <ele>142.7</ele>
        <time>2018-08-25T17:02:17Z</time>
      </trkpt>
      <trkpt lat="44.5171" lon="0.60718">
        <ele>142.5</ele>
        <time>2018-08-25T17:02:18Z</time>
      </trkpt>
      <trkpt lat="44.51708" lon="0.60733">
        <ele>142.3</ele>
        <time>2018-08-25T17:02:19Z</time>
      </trkpt>
      <trkpt lat="44.51707" lon="0.60747">
        <ele>142.2</ele>
        <time>2018-08-25T17:02:20Z</time>
      </trkpt>
      <trkpt lat="44.51705" lon="0.60757">
        <ele>142.1</ele>
        <time>2018-08-25T17:02:21Z</time>
      </trkpt>
      <trkpt lat="44.51704" lon="0.60766">
        <ele>142.1</ele>
        <time>2018-08-25T17:02:22Z</time>
      </trkpt>
      <trkpt lat="44.51702" lon="0.60772">
        <ele>142.1</ele>
        <time>2018-08-25T17:02:23Z</time>
      </trkpt>
      <trkpt lat="44.51699" lon="0.60776">
        <ele>142</ele>
        <time>2018-08-25T17:02:24Z</time>
      </trkpt>
      <trkpt lat="44.51698" lon="0.60772">
        <ele>142.1</ele>
        <time>2018-08-25T17:02:48Z</time>
      </trkpt>
      <trkpt lat="44.51697" lon="0.60768">
        <ele>142.1</ele>
        <time>2018-08-25T17:02:49Z</time>
      </trkpt>
      <trkpt lat="44.51703" lon="0.60757">
        <ele>142.1</ele>
        <time>2018-08-25T17:02:50Z</time>
      </trkpt>
      <trkpt lat="44.51706" lon="0.60748">
        <ele>142.2</ele>
        <time>2018-08-25T17:02:51Z</time>
      </trkpt>
      <trkpt lat="44.51709" lon="0.60736">
        <ele>142.3</ele>
        <time>2018-08-25T17:02:52Z</time>
      </trkpt>
      <trkpt lat="44.51712" lon="0.6072">
        <ele>142.5</ele>
        <time>2018-08-25T17:02:53Z</time>
      </trkpt>
      <trkpt lat="44.51715" lon="0.60704">
        <ele>142.7</ele>
        <time>2018-08-25T17:02:54Z</time>
      </trkpt>
      <trkpt lat="44.51718" lon="0.6069">
        <ele>142.8</ele>
        <time>2018-08-25T17:02:55Z</time>
      </trkpt>
      <trkpt lat="44.51722" lon="0.60676">
        <ele>143</ele>
        <time>2018-08-25T17:02:56Z</time>
      </trkpt>
      <trkpt lat="44.51721" lon="0.60663">
        <ele>143.2</ele>
        <time>2018-08-25T17:02:57Z</time>
      </trkpt>
      <trkpt lat="44.51721" lon="0.60651">
        <ele>143.3</ele>
        <time>2018-08-25T17:02:58Z</time>
      </trkpt>
      <trkpt lat="44.51721" lon="0.60639">
        <ele>143.4</ele>
        <time>2018-08-25T17:02:59Z</time>
      </trkpt>
      <trkpt lat="44.51722" lon="0.60627">
        <ele>143.5</ele>
        <time>2018-08-25T17:03:00Z</time>
      </trkpt>
      <trkpt lat="44.51722" lon="0.60614">
        <ele>143.7</ele>
        <time>2018-08-25T17:03:01Z</time>
      </trkpt>
      <trkpt lat="44.51723" lon="0.60599">
        <ele>143.8</ele>
        <time>2018-08-25T17:03:02Z</time>
      </trkpt>
      <trkpt lat="44.51724" lon="0.60584">
        <ele>144</ele>
        <time>2018-08-25T17:03:03Z</time>
      </trkpt>
      <trkpt lat="44.51725" lon="0.60567">
        <ele>144.2</ele>
        <time>2018-08-25T17:03:04Z</time>
      </trkpt>
      <trkpt lat="44.51726" lon="0.60551">
        <ele>144.4</ele>
        <time>2018-08-25T17:03:05Z</time>
      </trkpt>
      <trkpt lat="44.51726" lon="0.60535">
        <ele>144.6</ele>
        <time>2018-08-25T17:03:06Z</time>
      </trkpt>
      <trkpt lat="44.51725" lon="0.60522">
        <ele>144.7</ele>
        <time>2018-08-25T17:03:07Z</time>
      </trkpt>
      <trkpt lat="44.51725" lon="0.60511">
        <ele>144.8</ele>
        <time>2018-08-25T17:03:08Z</time>
      </trkpt>
      <trkpt lat="44.51723" lon="0.60502">
        <ele>145</ele>
        <time>2018-08-25T17:03:09Z</time>
      </trkpt>
      <trkpt lat="44.51717" lon="0.60496">
        <ele>145.1</ele>
        <time>2018-08-25T17:03:10Z</time>
      </trkpt>
      <trkpt lat="44.51712" lon="0.60491">
        <ele>145.2</ele>
        <time>2018-08-25T17:03:11Z</time>
      </trkpt>
      <trkpt lat="44.51705" lon="0.60488">
        <ele>145.3</ele>
        <time>2018-08-25T17:03:12Z</time>
      </trkpt>
      <trkpt lat="44.51696" lon="0.60489">
        <ele>145.6</ele>
        <time>2018-08-25T17:03:13Z</time>
      </trkpt>
      <trkpt lat="44.51688" lon="0.6049">
        <ele>145.7</ele>
        <time>2018-08-25T17:03:14Z</time>
      </trkpt>
      <trkpt lat="44.51679" lon="0.60494">
        <ele>145.8</ele>
        <time>2018-08-25T17:03:15Z</time>
      </trkpt>
      <trkpt lat="44.5167" lon="0.60497">
        <ele>146</ele>
        <time>2018-08-25T17:03:16Z</time>
      </trkpt>
      <trkpt lat="44.51659" lon="0.60502">
        <ele>146.1</ele>
        <time>2018-08-25T17:03:17Z</time>
      </trkpt>
      <trkpt lat="44.51647" lon="0.60505">
        <ele>146.1</ele>
        <time>2018-08-25T17:03:18Z</time>
      </trkpt>
      <trkpt lat="44.51635" lon="0.60508">
        <ele>146.1</ele>
        <time>2018-08-25T17:03:19Z</time>
      </trkpt>
      <trkpt lat="44.51622" lon="0.60512">
        <ele>146.3</ele>
        <time>2018-08-25T17:03:20Z</time>
      </trkpt>
      <trkpt lat="44.5161" lon="0.60514">
        <ele>146.7</ele>
        <time>2018-08-25T17:03:21Z</time>
      </trkpt>
      <trkpt lat="44.51598" lon="0.60517">
        <ele>146.9</ele>
        <time>2018-08-25T17:03:22Z</time>
      </trkpt>
      <trkpt lat="44.51587" lon="0.60519">
        <ele>147.1</ele>
        <time>2018-08-25T17:03:23Z</time>
      </trkpt>
      <trkpt lat="44.51578" lon="0.6052">
        <ele>146.7</ele>
        <time>2018-08-25T17:03:24Z</time>
      </trkpt>
      <trkpt lat="44.51568" lon="0.60522">
        <ele>146.5</ele>
        <time>2018-08-25T17:03:25Z</time>
      </trkpt>
      <trkpt lat="44.51561" lon="0.60523">
        <ele>146.3</ele>
        <time>2018-08-25T17:03:26Z</time>
      </trkpt>
      <trkpt lat="44.51558" lon="0.60525">
        <ele>145.7</ele>
        <time>2018-08-25T17:03:27Z</time>
      </trkpt>
      <trkpt lat="44.51555" lon="0.60525">
        <ele>145.6</ele>
        <time>2018-08-25T17:03:28Z</time>
      </trkpt>
      <trkpt lat="44.51552" lon="0.60524">
        <ele>145.9</ele>
        <time>2018-08-25T17:03:29Z</time>
      </trkpt>
      <trkpt lat="44.51548" lon="0.60521">
        <ele>145.8</ele>
        <time>2018-08-25T17:03:30Z</time>
      </trkpt>
      <trkpt lat="44.51545" lon="0.60517">
        <ele>146.2</ele>
        <time>2018-08-25T17:03:31Z</time>
      </trkpt>
      <trkpt lat="44.51543" lon="0.60513">
        <ele>146.5</ele>
        <time>2018-08-25T17:03:32Z</time>
      </trkpt>
      <trkpt lat="44.51541" lon="0.60506">
        <ele>147.3</ele>
        <time>2018-08-25T17:03:33Z</time>
      </trkpt>
      <trkpt lat="44.5154" lon="0.60496">
        <ele>148.3</ele>
        <time>2018-08-25T17:03:34Z</time>
      </trkpt>
      <trkpt lat="44.51538" lon="0.60485">
        <ele>149.8</ele>
        <time>2018-08-25T17:03:35Z</time>
      </trkpt>
      <trkpt lat="44.51534" lon="0.60471">
        <ele>151.4</ele>
        <time>2018-08-25T17:03:36Z</time>
      </trkpt>
      <trkpt lat="44.51532" lon="0.60456">
        <ele>152.8</ele>
        <time>2018-08-25T17:03:37Z</time>
      </trkpt>
      <trkpt lat="44.5153" lon="0.6044">
        <ele>154.6</ele>
        <time>2018-08-25T17:03:38Z</time>
      </trkpt>
      <trkpt lat="44.51527" lon="0.60424">
        <ele>156.3</ele>
        <time>2018-08-25T17:03:39Z</time>
      </trkpt>
      <trkpt lat="44.51526" lon="0.60411">
        <ele>157.1</ele>
        <time>2018-08-25T17:03:40Z</time>
      </trkpt>
      <trkpt lat="44.51524" lon="0.60398">
        <ele>158.3</ele>
        <time>2018-08-25T17:03:41Z</time>
      </trkpt>
      <trkpt lat="44.51522" lon="0.60386">
        <ele>159</ele>
        <time>2018-08-25T17:03:42Z</time>
      </trkpt>
      <trkpt lat="44.51521" lon="0.60375">
        <ele>159.5</ele>
        <time>2018-08-25T17:03:43Z</time>
      </trkpt>
      <trkpt lat="44.5152" lon="0.60369">
        <ele>159.4</ele>
        <time>2018-08-25T17:03:44Z</time>
      </trkpt>
      <trkpt lat="44.51519" lon="0.60364">
        <ele>159.5</ele>
        <time>2018-08-25T17:03:45Z</time>
      </trkpt>
      <trkpt lat="44.51517" lon="0.60361">
        <ele>159</ele>
        <time>2018-08-25T17:03:46Z</time>
      </trkpt>
      <trkpt lat="44.51514" lon="0.60359">
        <ele>158.7</ele>
        <time>2018-08-25T17:03:47Z</time>
      </trkpt>
      <trkpt lat="44.51511" lon="0.60359">
        <ele>158.2</ele>
        <time>2018-08-25T17:03:48Z</time>
      </trkpt>
      <trkpt lat="44.51507" lon="0.60362">
        <ele>157.5</ele>
        <time>2018-08-25T17:03:50Z</time>
      </trkpt>
      <trkpt lat="44.51504" lon="0.60363">
        <ele>156.9</ele>
        <time>2018-08-25T17:03:51Z</time>
      </trkpt>
      <trkpt lat="44.51499" lon="0.60364">
        <ele>155.5</ele>
        <time>2018-08-25T17:03:52Z</time>
      </trkpt>
      <trkpt lat="44.51492" lon="0.60365">
        <ele>154.2</ele>
        <time>2018-08-25T17:03:53Z</time>
      </trkpt>
      <trkpt lat="44.51488" lon="0.60365">
        <ele>153.8</ele>
        <time>2018-08-25T17:03:54Z</time>
      </trkpt>
      <trkpt lat="44.51484" lon="0.60366">
        <ele>153.1</ele>
        <time>2018-08-25T17:03:55Z</time>
      </trkpt>
      <trkpt lat="44.51479" lon="0.60367">
        <ele>152.7</ele>
        <time>2018-08-25T17:03:56Z</time>
      </trkpt>
      <trkpt lat="44.51475" lon="0.60368">
        <ele>152.4</ele>
        <time>2018-08-25T17:03:57Z</time>
      </trkpt>
      <trkpt lat="44.51472" lon="0.60369">
        <ele>151.4</ele>
        <time>2018-08-25T17:03:58Z</time>
      </trkpt>
      <trkpt lat="44.51466" lon="0.60369">
        <ele>150.6</ele>
        <time>2018-08-25T17:03:59Z</time>
      </trkpt>
      <trkpt lat="44.51462" lon="0.60371">
        <ele>148.7</ele>
        <time>2018-08-25T17:04:00Z</time>
      </trkpt>
      <trkpt lat="44.51456" lon="0.60373">
        <ele>145.8</ele>
        <time>2018-08-25T17:04:02Z</time>
      </trkpt>
      <trkpt lat="44.51452" lon="0.60375">
        <ele>143.9</ele>
        <time>2018-08-25T17:04:03Z</time>
      </trkpt>
      <trkpt lat="44.51447" lon="0.60376">
        <ele>139.9</ele>
        <time>2018-08-25T17:04:04Z</time>
      </trkpt>
      <trkpt lat="44.51444" lon="0.60378">
        <ele>139.7</ele>
        <time>2018-08-25T17:04:05Z</time>
      </trkpt>
      <trkpt lat="44.51439" lon="0.60377">
        <ele>135.9</ele>
        <time>2018-08-25T17:04:06Z</time>
      </trkpt>
      <trkpt lat="44.51436" lon="0.60378">
        <ele>134.1</ele>
        <time>2018-08-25T17:04:07Z</time>
      </trkpt>
      <trkpt lat="44.51433" lon="0.60379">
        <ele>132.7</ele>
        <time>2018-08-25T17:04:08Z</time>
      </trkpt>
      <trkpt lat="44.5143" lon="0.60379">
        <ele>131.5</ele>
        <time>2018-08-25T17:04:09Z</time>
      </trkpt>
      <trkpt lat="44.51427" lon="0.60379">
        <ele>130.6</ele>
        <time>2018-08-25T17:04:10Z</time>
      </trkpt>
      <trkpt lat="44.51422" lon="0.6038">
        <ele>129.8</ele>
        <time>2018-08-25T17:04:12Z</time>
      </trkpt>
      <trkpt lat="44.51419" lon="0.60381">
        <ele>129.8</ele>
        <time>2018-08-25T17:04:13Z</time>
      </trkpt>
      <trkpt lat="44.51415" lon="0.60381">
        <ele>129.9</ele>
        <time>2018-08-25T17:04:14Z</time>
      </trkpt>
      <trkpt lat="44.51412" lon="0.6038">
        <ele>130.2</ele>
        <time>2018-08-25T17:04:15Z</time>
      </trkpt>
      <trkpt lat="44.51409" lon="0.60378">
        <ele>130.5</ele>
        <time>2018-08-25T17:04:16Z</time>
      </trkpt>
      <trkpt lat="44.51406" lon="0.60374">
        <ele>130.9</ele>
        <time>2018-08-25T17:04:17Z</time>
      </trkpt>
      <trkpt lat="44.51404" lon="0.60369">
        <ele>131.3</ele>
        <time>2018-08-25T17:04:18Z</time>
      </trkpt>
      <trkpt lat="44.51403" lon="0.60364">
        <ele>131.2</ele>
        <time>2018-08-25T17:04:19Z</time>
      </trkpt>
      <trkpt lat="44.51406" lon="0.60353">
        <ele>130.9</ele>
        <time>2018-08-25T17:04:20Z</time>
      </trkpt>
      <trkpt lat="44.51407" lon="0.60345">
        <ele>130.9</ele>
        <time>2018-08-25T17:04:21Z</time>
      </trkpt>
      <trkpt lat="44.51407" lon="0.60334">
        <ele>130.9</ele>
        <time>2018-08-25T17:04:22Z</time>
      </trkpt>
      <trkpt lat="44.51407" lon="0.60323">
        <ele>130.8</ele>
        <time>2018-08-25T17:04:23Z</time>
      </trkpt>
      <trkpt lat="44.51408" lon="0.60309">
        <ele>130.9</ele>
        <time>2018-08-25T17:04:24Z</time>
      </trkpt>
      <trkpt lat="44.51407" lon="0.60298">
        <ele>131.4</ele>
        <time>2018-08-25T17:04:25Z</time>
      </trkpt>
      <trkpt lat="44.51404" lon="0.60288">
        <ele>131.9</ele>
        <time>2018-08-25T17:04:26Z</time>
      </trkpt>
      <trkpt lat="44.51402" lon="0.60281">
        <ele>133.7</ele>
        <time>2018-08-25T17:04:27Z</time>
      </trkpt>
      <trkpt lat="44.51397" lon="0.60277">
        <ele>133.7</ele>
        <time>2018-08-25T17:04:28Z</time>
      </trkpt>
      <trkpt lat="44.5139" lon="0.60274">
        <ele>134.2</ele>
        <time>2018-08-25T17:04:29Z</time>
      </trkpt>
      <trkpt lat="44.51383" lon="0.60274">
        <ele>133.8</ele>
        <time>2018-08-25T17:04:30Z</time>
      </trkpt>
      <trkpt lat="44.51374" lon="0.60277">
        <ele>133</ele>
        <time>2018-08-25T17:04:31Z</time>
      </trkpt>
      <trkpt lat="44.51367" lon="0.6028">
        <ele>132.4</ele>
        <time>2018-08-25T17:04:32Z</time>
      </trkpt>
      <trkpt lat="44.51355" lon="0.60284">
        <ele>131.7</ele>
        <time>2018-08-25T17:04:33Z</time>
      </trkpt>
      <trkpt lat="44.51346" lon="0.60286">
        <ele>131.5</ele>
        <time>2018-08-25T17:04:34Z</time>
      </trkpt>
      <trkpt lat="44.51338" lon="0.60288">
        <ele>131.3</ele>
        <time>2018-08-25T17:04:35Z</time>
      </trkpt>
      <trkpt lat="44.51333" lon="0.6029">
        <ele>131.4</ele>
        <time>2018-08-25T17:04:36Z</time>
      </trkpt>
      <trkpt lat="44.5133" lon="0.60294">
        <ele>131.3</ele>
        <time>2018-08-25T17:04:37Z</time>
      </trkpt>
      <trkpt lat="44.51327" lon="0.60301">
        <ele>131.2</ele>
        <time>2018-08-25T17:04:38Z</time>
      </trkpt>
      <trkpt lat="44.51324" lon="0.60311">
        <ele>131.2</ele>
        <time>2018-08-25T17:04:39Z</time>
      </trkpt>
      <trkpt lat="44.51324" lon="0.60324">
        <ele>131.2</ele>
        <time>2018-08-25T17:04:40Z</time>
      </trkpt>
      <trkpt lat="44.51326" lon="0.60336">
        <ele>131.2</ele>
        <time>2018-08-25T17:04:41Z</time>
      </trkpt>
      <trkpt lat="44.51324" lon="0.60348">
        <ele>131.4</ele>
        <time>2018-08-25T17:04:42Z</time>
      </trkpt>
      <trkpt lat="44.51323" lon="0.60356">
        <ele>131.8</ele>
        <time>2018-08-25T17:04:43Z</time>
      </trkpt>
      <trkpt lat="44.51322" lon="0.60361">
        <ele>132.2</ele>
        <time>2018-08-25T17:04:44Z</time>
      </trkpt>
      <trkpt lat="44.5132" lon="0.60365">
        <ele>132.3</ele>
        <time>2018-08-25T17:04:45Z</time>
      </trkpt>
      <trkpt lat="44.51317" lon="0.60365">
        <ele>132.4</ele>
        <time>2018-08-25T17:04:46Z</time>
      </trkpt>
      <trkpt lat="44.51314" lon="0.60363">
        <ele>132.4</ele>
        <time>2018-08-25T17:04:47Z</time>
      </trkpt>
      <trkpt lat="44.51309" lon="0.60365">
        <ele>132.5</ele>
        <time>2018-08-25T17:04:49Z</time>
      </trkpt>
      <trkpt lat="44.51307" lon="0.60372">
        <ele>132.5</ele>
        <time>2018-08-25T17:04:51Z</time>
      </trkpt>
      <trkpt lat="44.51305" lon="0.60377">
        <ele>132.6</ele>
        <time>2018-08-25T17:04:52Z</time>
      </trkpt>
      <trkpt lat="44.51305" lon="0.60385">
        <ele>132.6</ele>
        <time>2018-08-25T17:04:53Z</time>
      </trkpt>
      <trkpt lat="44.51305" lon="0.60391">
        <ele>132.7</ele>
        <time>2018-08-25T17:04:54Z</time>
      </trkpt>
      <trkpt lat="44.51305" lon="0.60398">
        <ele>132.8</ele>
        <time>2018-08-25T17:04:55Z</time>
      </trkpt>
      <trkpt lat="44.51304" lon="0.60405">
        <ele>132.8</ele>
        <time>2018-08-25T17:04:56Z</time>
      </trkpt>
      <trkpt lat="44.513" lon="0.60412">
        <ele>132.9</ele>
        <time>2018-08-25T17:04:57Z</time>
      </trkpt>
      <trkpt lat="44.51295" lon="0.60421">
        <ele>133</ele>
        <time>2018-08-25T17:04:58Z</time>
      </trkpt>
      <trkpt lat="44.51289" lon="0.60433">
        <ele>133.1</ele>
        <time>2018-08-25T17:04:59Z</time>
      </trkpt>
      <trkpt lat="44.51283" lon="0.60445">
        <ele>133.5</ele>
        <time>2018-08-25T17:05:00Z</time>
      </trkpt>
      <trkpt lat="44.51279" lon="0.60455">
        <ele>133.7</ele>
        <time>2018-08-25T17:05:01Z</time>
      </trkpt>
      <trkpt lat="44.51276" lon="0.60463">
        <ele>133.8</ele>
        <time>2018-08-25T17:05:02Z</time>
      </trkpt>
      <trkpt lat="44.51271" lon="0.60473">
        <ele>134.2</ele>
        <time>2018-08-25T17:05:03Z</time>
      </trkpt>
      <trkpt lat="44.51266" lon="0.60478">
        <ele>134.2</ele>
        <time>2018-08-25T17:05:04Z</time>
      </trkpt>
      <trkpt lat="44.51261" lon="0.60479">
        <ele>134.1</ele>
        <time>2018-08-25T17:05:05Z</time>
      </trkpt>
      <trkpt lat="44.51255" lon="0.60478">
        <ele>134</ele>
        <time>2018-08-25T17:05:06Z</time>
      </trkpt>
      <trkpt lat="44.51249" lon="0.60475">
        <ele>133.7</ele>
        <time>2018-08-25T17:05:07Z</time>
      </trkpt>
      <trkpt lat="44.51244" lon="0.6047">
        <ele>133.4</ele>
        <time>2018-08-25T17:05:08Z</time>
      </trkpt>
      <trkpt lat="44.51242" lon="0.60466">
        <ele>133.2</ele>
        <time>2018-08-25T17:05:09Z</time>
      </trkpt>
      <trkpt lat="44.5124" lon="0.60459">
        <ele>132.9</ele>
        <time>2018-08-25T17:05:10Z</time>
      </trkpt>
      <trkpt lat="44.51238" lon="0.60451">
        <ele>132.7</ele>
        <time>2018-08-25T17:05:11Z</time>
      </trkpt>
      <trkpt lat="44.51237" lon="0.6044">
        <ele>132.3</ele>
        <time>2018-08-25T17:05:12Z</time>
      </trkpt>
      <trkpt lat="44.51237" lon="0.60429">
        <ele>132</ele>
        <time>2018-08-25T17:05:13Z</time>
      </trkpt>
      <trkpt lat="44.51238" lon="0.60416">
        <ele>131.7</ele>
        <time>2018-08-25T17:05:14Z</time>
      </trkpt>
      <trkpt lat="44.51238" lon="0.60401">
        <ele>131.4</ele>
        <time>2018-08-25T17:05:15Z</time>
      </trkpt>
      <trkpt lat="44.51237" lon="0.60389">
        <ele>131.1</ele>
        <time>2018-08-25T17:05:16Z</time>
      </trkpt>
      <trkpt lat="44.51236" lon="0.6038">
        <ele>131</ele>
        <time>2018-08-25T17:05:17Z</time>
      </trkpt>
      <trkpt lat="44.51233" lon="0.60372">
        <ele>130.8</ele>
        <time>2018-08-25T17:05:18Z</time>
      </trkpt>
      <trkpt lat="44.51229" lon="0.60364">
        <ele>130.7</ele>
        <time>2018-08-25T17:05:19Z</time>
      </trkpt>
      <trkpt lat="44.51222" lon="0.60357">
        <ele>130.7</ele>
        <time>2018-08-25T17:05:20Z</time>
      </trkpt>
      <trkpt lat="44.51214" lon="0.6035">
        <ele>130.8</ele>
        <time>2018-08-25T17:05:21Z</time>
      </trkpt>
      <trkpt lat="44.51205" lon="0.60342">
        <ele>131</ele>
        <time>2018-08-25T17:05:22Z</time>
      </trkpt>
      <trkpt lat="44.51196" lon="0.60335">
        <ele>131.1</ele>
        <time>2018-08-25T17:05:23Z</time>
      </trkpt>
      <trkpt lat="44.51188" lon="0.60329">
        <ele>131.3</ele>
        <time>2018-08-25T17:05:24Z</time>
      </trkpt>
      <trkpt lat="44.51179" lon="0.60327">
        <ele>131.7</ele>
        <time>2018-08-25T17:05:25Z</time>
      </trkpt>
      <trkpt lat="44.51174" lon="0.60324">
        <ele>131.9</ele>
        <time>2018-08-25T17:05:26Z</time>
      </trkpt>
      <trkpt lat="44.5117" lon="0.60328">
        <ele>132.1</ele>
        <time>2018-08-25T17:05:27Z</time>
      </trkpt>
      <trkpt lat="44.51171" lon="0.60336">
        <ele>134.2</ele>
        <time>2018-08-25T17:05:28Z</time>
      </trkpt>
      <trkpt lat="44.51168" lon="0.60346">
        <ele>134.7</ele>
        <time>2018-08-25T17:05:29Z</time>
      </trkpt>
      <trkpt lat="44.51164" lon="0.60356">
        <ele>135.4</ele>
        <time>2018-08-25T17:05:30Z</time>
      </trkpt>
      <trkpt lat="44.51159" lon="0.60368">
        <ele>136</ele>
        <time>2018-08-25T17:05:31Z</time>
      </trkpt>
      <trkpt lat="44.51154" lon="0.60383">
        <ele>136.6</ele>
        <time>2018-08-25T17:05:32Z</time>
      </trkpt>
      <trkpt lat="44.51147" lon="0.604">
        <ele>137.5</ele>
        <time>2018-08-25T17:05:33Z</time>
      </trkpt>
      <trkpt lat="44.51142" lon="0.60414">
        <ele>137.9</ele>
        <time>2018-08-25T17:05:34Z</time>
      </trkpt>
      <trkpt lat="44.51138" lon="0.60425">
        <ele>138.4</ele>
        <time>2018-08-25T17:05:35Z</time>
      </trkpt>
      <trkpt lat="44.51133" lon="0.60436">
        <ele>139.2</ele>
        <time>2018-08-25T17:05:36Z</time>
      </trkpt>
      <trkpt lat="44.51128" lon="0.60447">
        <ele>139.8</ele>
        <time>2018-08-25T17:05:37Z</time>
      </trkpt>
      <trkpt lat="44.51124" lon="0.60457">
        <ele>140.5</ele>
        <time>2018-08-25T17:05:38Z</time>
      </trkpt>
      <trkpt lat="44.51119" lon="0.60465">
        <ele>141.2</ele>
        <time>2018-08-25T17:05:39Z</time>
      </trkpt>
      <trkpt lat="44.51115" lon="0.60471">
        <ele>141.4</ele>
        <time>2018-08-25T17:05:40Z</time>
      </trkpt>
      <trkpt lat="44.51112" lon="0.60471">
        <ele>141.6</ele>
        <time>2018-08-25T17:05:41Z</time>
      </trkpt>
      <trkpt lat="44.51107" lon="0.60475">
        <ele>142</ele>
        <time>2018-08-25T17:05:42Z</time>
      </trkpt>
      <trkpt lat="44.51102" lon="0.60478">
        <ele>142.3</ele>
        <time>2018-08-25T17:05:43Z</time>
      </trkpt>
      <trkpt lat="44.51097" lon="0.60484">
        <ele>142.6</ele>
        <time>2018-08-25T17:05:44Z</time>
      </trkpt>
      <trkpt lat="44.51091" lon="0.6049">
        <ele>142.9</ele>
        <time>2018-08-25T17:05:45Z</time>
      </trkpt>
      <trkpt lat="44.51085" lon="0.60498">
        <ele>143.3</ele>
        <time>2018-08-25T17:05:46Z</time>
      </trkpt>
      <trkpt lat="44.51076" lon="0.60511">
        <ele>143.8</ele>
        <time>2018-08-25T17:05:47Z</time>
      </trkpt>
      <trkpt lat="44.51069" lon="0.60522">
        <ele>144.3</ele>
        <time>2018-08-25T17:05:48Z</time>
      </trkpt>
      <trkpt lat="44.51061" lon="0.60532">
        <ele>144.7</ele>
        <time>2018-08-25T17:05:49Z</time>
      </trkpt>
      <trkpt lat="44.51053" lon="0.60542">
        <ele>145.2</ele>
        <time>2018-08-25T17:05:50Z</time>
      </trkpt>
      <trkpt lat="44.51045" lon="0.60553">
        <ele>145.7</ele>
        <time>2018-08-25T17:05:51Z</time>
      </trkpt>
      <trkpt lat="44.51038" lon="0.60565">
        <ele>146.1</ele>
        <time>2018-08-25T17:05:52Z</time>
      </trkpt>
      <trkpt lat="44.51032" lon="0.60577">
        <ele>146.8</ele>
        <time>2018-08-25T17:05:53Z</time>
      </trkpt>
      <trkpt lat="44.51027" lon="0.60588">
        <ele>147.2</ele>
        <time>2018-08-25T17:05:54Z</time>
      </trkpt>
      <trkpt lat="44.51022" lon="0.60598">
        <ele>147.7</ele>
        <time>2018-08-25T17:05:55Z</time>
      </trkpt>
      <trkpt lat="44.51016" lon="0.60609">
        <ele>148.2</ele>
        <time>2018-08-25T17:05:56Z</time>
      </trkpt>
      <trkpt lat="44.51013" lon="0.60619">
        <ele>148.4</ele>
        <time>2018-08-25T17:05:57Z</time>
      </trkpt>
      <trkpt lat="44.51009" lon="0.60628">
        <ele>148.8</ele>
        <time>2018-08-25T17:05:58Z</time>
      </trkpt>
      <trkpt lat="44.51005" lon="0.60635">
        <ele>149.1</ele>
        <time>2018-08-25T17:05:59Z</time>
      </trkpt>
      <trkpt lat="44.51003" lon="0.60642">
        <ele>149.4</ele>
        <time>2018-08-25T17:06:00Z</time>
      </trkpt>
      <trkpt lat="44.51001" lon="0.60648">
        <ele>149.6</ele>
        <time>2018-08-25T17:06:01Z</time>
      </trkpt>
      <trkpt lat="44.50997" lon="0.60653">
        <ele>149.9</ele>
        <time>2018-08-25T17:06:02Z</time>
      </trkpt>
      <trkpt lat="44.50995" lon="0.60657">
        <ele>150</ele>
        <time>2018-08-25T17:06:03Z</time>
      </trkpt>
      <trkpt lat="44.50995" lon="0.60662">
        <ele>149.9</ele>
        <time>2018-08-25T17:06:05Z</time>
      </trkpt>
      <trkpt lat="44.50997" lon="0.60665">
        <ele>149.8</ele>
        <time>2018-08-25T17:06:06Z</time>
      </trkpt>
      <trkpt lat="44.51" lon="0.60669">
        <ele>149.6</ele>
        <time>2018-08-25T17:06:07Z</time>
      </trkpt>
      <trkpt lat="44.51003" lon="0.60673">
        <ele>149.4</ele>
        <time>2018-08-25T17:06:08Z</time>
      </trkpt>
      <trkpt lat="44.51007" lon="0.60678">
        <ele>149.2</ele>
        <time>2018-08-25T17:06:09Z</time>
      </trkpt>
      <trkpt lat="44.51012" lon="0.60683">
        <ele>149</ele>
        <time>2018-08-25T17:06:10Z</time>
      </trkpt>
      <trkpt lat="44.51017" lon="0.60688">
        <ele>148.8</ele>
        <time>2018-08-25T17:06:11Z</time>
      </trkpt>
      <trkpt lat="44.5102" lon="0.60692">
        <ele>148.6</ele>
        <time>2018-08-25T17:06:12Z</time>
      </trkpt>
      <trkpt lat="44.51023" lon="0.60695">
        <ele>148.4</ele>
        <time>2018-08-25T17:06:13Z</time>
      </trkpt>
      <trkpt lat="44.51025" lon="0.60702">
        <ele>148.2</ele>
        <time>2018-08-25T17:06:15Z</time>
      </trkpt>
      <trkpt lat="44.51026" lon="0.60706">
        <ele>148.1</ele>
        <time>2018-08-25T17:06:16Z</time>
      </trkpt>
      <trkpt lat="44.51028" lon="0.60709">
        <ele>148</ele>
        <time>2018-08-25T17:06:17Z</time>
      </trkpt>
      <trkpt lat="44.5103" lon="0.60712">
        <ele>147.9</ele>
        <time>2018-08-25T17:06:18Z</time>
      </trkpt>
      <trkpt lat="44.51032" lon="0.60715">
        <ele>147.7</ele>
        <time>2018-08-25T17:06:19Z</time>
      </trkpt>
      <trkpt lat="44.51038" lon="0.60719">
        <ele>147.6</ele>
        <time>2018-08-25T17:06:20Z</time>
      </trkpt>
      <trkpt lat="44.51045" lon="0.60725">
        <ele>147.3</ele>
        <time>2018-08-25T17:06:21Z</time>
      </trkpt>
      <trkpt lat="44.5105" lon="0.6073">
        <ele>147.1</ele>
        <time>2018-08-25T17:06:22Z</time>
      </trkpt>
      <trkpt lat="44.51055" lon="0.60734">
        <ele>146.9</ele>
        <time>2018-08-25T17:06:23Z</time>
      </trkpt>
      <trkpt lat="44.51061" lon="0.60736">
        <ele>146.7</ele>
        <time>2018-08-25T17:06:24Z</time>
      </trkpt>
      <trkpt lat="44.51063" lon="0.60739">
        <ele>146.6</ele>
        <time>2018-08-25T17:06:25Z</time>
      </trkpt>
      <trkpt lat="44.51063" lon="0.60747">
        <ele>146.5</ele>
        <time>2018-08-25T17:06:27Z</time>
      </trkpt>
      <trkpt lat="44.51064" lon="0.60751">
        <ele>146.4</ele>
        <time>2018-08-25T17:06:28Z</time>
      </trkpt>
      <trkpt lat="44.51064" lon="0.60757">
        <ele>146.2</ele>
        <time>2018-08-25T17:06:30Z</time>
      </trkpt>
      <trkpt lat="44.51066" lon="0.6076">
        <ele>146.1</ele>
        <time>2018-08-25T17:06:31Z</time>
      </trkpt>
      <trkpt lat="44.51071" lon="0.60762">
        <ele>146</ele>
        <time>2018-08-25T17:06:33Z</time>
      </trkpt>
      <trkpt lat="44.51075" lon="0.60759">
        <ele>145.9</ele>
        <time>2018-08-25T17:06:34Z</time>
      </trkpt>
      <trkpt lat="44.51077" lon="0.60755">
        <ele>145.8</ele>
        <time>2018-08-25T17:06:35Z</time>
      </trkpt>
      <trkpt lat="44.5108" lon="0.60752">
        <ele>145.7</ele>
        <time>2018-08-25T17:06:36Z</time>
      </trkpt>
      <trkpt lat="44.51083" lon="0.60751">
        <ele>145.6</ele>
        <time>2018-08-25T17:06:37Z</time>
      </trkpt>
      <trkpt lat="44.51085" lon="0.60753">
        <ele>145.5</ele>
        <time>2018-08-25T17:06:38Z</time>
      </trkpt>
      <trkpt lat="44.51093" lon="0.60758">
        <ele>145.3</ele>
        <time>2018-08-25T17:06:39Z</time>
      </trkpt>
      <trkpt lat="44.51101" lon="0.60761">
        <ele>145.1</ele>
        <time>2018-08-25T17:06:40Z</time>
      </trkpt>
      <trkpt lat="44.5111" lon="0.60764">
        <ele>144.9</ele>
        <time>2018-08-25T17:06:41Z</time>
      </trkpt>
      <trkpt lat="44.5112" lon="0.60768">
        <ele>144.6</ele>
        <time>2018-08-25T17:06:42Z</time>
      </trkpt>
      <trkpt lat="44.5113" lon="0.60772">
        <ele>144.4</ele>
        <time>2018-08-25T17:06:43Z</time>
      </trkpt>
      <trkpt lat="44.51139" lon="0.60775">
        <ele>144.1</ele>
        <time>2018-08-25T17:06:44Z</time>
      </trkpt>
      <trkpt lat="44.51147" lon="0.60777">
        <ele>143.9</ele>
        <time>2018-08-25T17:06:45Z</time>
      </trkpt>
      <trkpt lat="44.51152" lon="0.60779">
        <ele>143.8</ele>
        <time>2018-08-25T17:06:46Z</time>
      </trkpt>
      <trkpt lat="44.51158" lon="0.60781">
        <ele>143.7</ele>
        <time>2018-08-25T17:06:47Z</time>
      </trkpt>
      <trkpt lat="44.51163" lon="0.60784">
        <ele>143.5</ele>
        <time>2018-08-25T17:06:48Z</time>
      </trkpt>
      <trkpt lat="44.51167" lon="0.60789">
        <ele>143.4</ele>
        <time>2018-08-25T17:06:49Z</time>
      </trkpt>
      <trkpt lat="44.5117" lon="0.60796">
        <ele>143.2</ele>
        <time>2018-08-25T17:06:50Z</time>
      </trkpt>
      <trkpt lat="44.51174" lon="0.60808">
        <ele>144.4</ele>
        <time>2018-08-25T17:06:51Z</time>
      </trkpt>
      <trkpt lat="44.51179" lon="0.6082">
        <ele>145.4</ele>
        <time>2018-08-25T17:06:52Z</time>
      </trkpt>
      <trkpt lat="44.51183" lon="0.60835">
        <ele>146.7</ele>
        <time>2018-08-25T17:06:53Z</time>
      </trkpt>
      <trkpt lat="44.51188" lon="0.60849">
        <ele>148.2</ele>
        <time>2018-08-25T17:06:54Z</time>
      </trkpt>
      <trkpt lat="44.51194" lon="0.60863">
        <ele>150.2</ele>
        <time>2018-08-25T17:06:55Z</time>
      </trkpt>
      <trkpt lat="44.512" lon="0.60878">
        <ele>151.5</ele>
        <time>2018-08-25T17:06:56Z</time>
      </trkpt>
      <trkpt lat="44.51205" lon="0.60893">
        <ele>153.1</ele>
        <time>2018-08-25T17:06:57Z</time>
      </trkpt>
      <trkpt lat="44.51209" lon="0.60905">
        <ele>153.7</ele>
        <time>2018-08-25T17:06:58Z</time>
      </trkpt>
      <trkpt lat="44.51212" lon="0.60915">
        <ele>154.7</ele>
        <time>2018-08-25T17:06:59Z</time>
      </trkpt>
      <trkpt lat="44.51214" lon="0.60923">
        <ele>155.5</ele>
        <time>2018-08-25T17:07:00Z</time>
      </trkpt>
      <trkpt lat="44.51217" lon="0.60931">
        <ele>155.8</ele>
        <time>2018-08-25T17:07:01Z</time>
      </trkpt>
      <trkpt lat="44.51218" lon="0.60938">
        <ele>156.3</ele>
        <time>2018-08-25T17:07:02Z</time>
      </trkpt>
      <trkpt lat="44.51218" lon="0.60944">
        <ele>156.6</ele>
        <time>2018-08-25T17:07:03Z</time>
      </trkpt>
      <trkpt lat="44.51214" lon="0.60948">
        <ele>157</ele>
        <time>2018-08-25T17:07:04Z</time>
      </trkpt>
      <trkpt lat="44.51211" lon="0.60951">
        <ele>157.4</ele>
        <time>2018-08-25T17:07:05Z</time>
      </trkpt>
      <trkpt lat="44.51205" lon="0.60955">
        <ele>157.8</ele>
        <time>2018-08-25T17:07:06Z</time>
      </trkpt>
      <trkpt lat="44.51199" lon="0.60958">
        <ele>158.2</ele>
        <time>2018-08-25T17:07:07Z</time>
      </trkpt>
      <trkpt lat="44.51192" lon="0.60962">
        <ele>158.7</ele>
        <time>2018-08-25T17:07:08Z</time>
      </trkpt>
      <trkpt lat="44.51186" lon="0.60966">
        <ele>159.2</ele>
        <time>2018-08-25T17:07:09Z</time>
      </trkpt>
      <trkpt lat="44.51179" lon="0.6097">
        <ele>159.9</ele>
        <time>2018-08-25T17:07:10Z</time>
      </trkpt>
      <trkpt lat="44.51173" lon="0.60975">
        <ele>160.6</ele>
        <time>2018-08-25T17:07:11Z</time>
      </trkpt>
      <trkpt lat="44.51167" lon="0.60981">
        <ele>161.5</ele>
        <time>2018-08-25T17:07:12Z</time>
      </trkpt>
      <trkpt lat="44.51161" lon="0.6099">
        <ele>162.6</ele>
        <time>2018-08-25T17:07:13Z</time>
      </trkpt>
      <trkpt lat="44.51155" lon="0.60998">
        <ele>163.5</ele>
        <time>2018-08-25T17:07:14Z</time>
      </trkpt>
      <trkpt lat="44.51146" lon="0.61009">
        <ele>164.8</ele>
        <time>2018-08-25T17:07:15Z</time>
      </trkpt>
      <trkpt lat="44.51139" lon="0.61019">
        <ele>165.9</ele>
        <time>2018-08-25T17:07:16Z</time>
      </trkpt>
      <trkpt lat="44.51133" lon="0.61029">
        <ele>167.3</ele>
        <time>2018-08-25T17:07:17Z</time>
      </trkpt>
      <trkpt lat="44.51125" lon="0.61038">
        <ele>169</ele>
        <time>2018-08-25T17:07:18Z</time>
      </trkpt>
      <trkpt lat="44.51116" lon="0.61048">
        <ele>171.1</ele>
        <time>2018-08-25T17:07:19Z</time>
      </trkpt>
      <trkpt lat="44.51109" lon="0.61053">
        <ele>172.3</ele>
        <time>2018-08-25T17:07:20Z</time>
      </trkpt>
      <trkpt lat="44.51104" lon="0.61055">
        <ele>173.2</ele>
        <time>2018-08-25T17:07:21Z</time>
      </trkpt>
      <trkpt lat="44.51099" lon="0.61054">
        <ele>173.6</ele>
        <time>2018-08-25T17:07:22Z</time>
      </trkpt>
      <trkpt lat="44.51094" lon="0.61053">
        <ele>174.4</ele>
        <time>2018-08-25T17:07:23Z</time>
      </trkpt>
      <trkpt lat="44.5109" lon="0.61051">
        <ele>174.2</ele>
        <time>2018-08-25T17:07:24Z</time>
      </trkpt>
      <trkpt lat="44.51088" lon="0.61047">
        <ele>174</ele>
        <time>2018-08-25T17:07:25Z</time>
      </trkpt>
      <trkpt lat="44.51088" lon="0.61042">
        <ele>173.5</ele>
        <time>2018-08-25T17:07:26Z</time>
      </trkpt>
      <trkpt lat="44.51085" lon="0.61039">
        <ele>173.9</ele>
        <time>2018-08-25T17:07:27Z</time>
      </trkpt>
      <trkpt lat="44.51083" lon="0.61035">
        <ele>173.3</ele>
        <time>2018-08-25T17:07:29Z</time>
      </trkpt>
      <trkpt lat="44.51079" lon="0.61033">
        <ele>173.5</ele>
        <time>2018-08-25T17:07:30Z</time>
      </trkpt>
      <trkpt lat="44.51073" lon="0.61033">
        <ele>174.2</ele>
        <time>2018-08-25T17:07:31Z</time>
      </trkpt>
      <trkpt lat="44.51069" lon="0.61034">
        <ele>174.5</ele>
        <time>2018-08-25T17:07:32Z</time>
      </trkpt>
      <trkpt lat="44.51065" lon="0.61036">
        <ele>175.4</ele>
        <time>2018-08-25T17:07:33Z</time>
      </trkpt>
      <trkpt lat="44.51058" lon="0.61037">
        <ele>176.1</ele>
        <time>2018-08-25T17:07:34Z</time>
      </trkpt>
      <trkpt lat="44.51053" lon="0.61038">
        <ele>176.3</ele>
        <time>2018-08-25T17:07:35Z</time>
      </trkpt>
      <trkpt lat="44.51049" lon="0.61039">
        <ele>177.3</ele>
        <time>2018-08-25T17:07:36Z</time>
      </trkpt>
      <trkpt lat="44.51044" lon="0.61041">
        <ele>177.4</ele>
        <time>2018-08-25T17:07:37Z</time>
      </trkpt>
      <trkpt lat="44.5104" lon="0.61043">
        <ele>177.6</ele>
        <time>2018-08-25T17:07:38Z</time>
      </trkpt>
      <trkpt lat="44.51037" lon="0.61043">
        <ele>178.3</ele>
        <time>2018-08-25T17:07:39Z</time>
      </trkpt>
      <trkpt lat="44.51033" lon="0.61046">
        <ele>178.6</ele>
        <time>2018-08-25T17:07:43Z</time>
      </trkpt>
      <trkpt lat="44.51032" lon="0.61046">
        <ele>178.7</ele>
        <time>2018-08-25T17:10:15Z</time>
      </trkpt>
      <trkpt lat="44.51034" lon="0.61044">
        <ele>178.5</ele>
        <time>2018-08-25T17:10:25Z</time>
      </trkpt>
      <trkpt lat="44.51031" lon="0.6105">
        <ele>179.5</ele>
        <time>2018-08-25T17:10:29Z</time>
      </trkpt>
      <trkpt lat="44.51027" lon="0.61054">
        <ele>180.4</ele>
        <time>2018-08-25T17:10:31Z</time>
      </trkpt>
      <trkpt lat="44.51026" lon="0.6105">
        <ele>179.6</ele>
        <time>2018-08-25T17:10:46Z</time>
      </trkpt>
      <trkpt lat="44.51024" lon="0.61054">
        <ele>180.5</ele>
        <time>2018-08-25T17:12:13Z</time>
      </trkpt>
      <trkpt lat="44.51023" lon="0.61058">
        <ele>181.3</ele>
        <time>2018-08-25T17:12:14Z</time>
      </trkpt>
      <trkpt lat="44.51022" lon="0.61064">
        <ele>183</ele>
        <time>2018-08-25T17:12:16Z</time>
      </trkpt>
      <trkpt lat="44.51021" lon="0.61069">
        <ele>183.8</ele>
        <time>2018-08-25T17:12:17Z</time>
      </trkpt>
      <trkpt lat="44.51021" lon="0.61074">
        <ele>184.6</ele>
        <time>2018-08-25T17:12:18Z</time>
      </trkpt>
      <trkpt lat="44.5102" lon="0.6108">
        <ele>185.4</ele>
        <time>2018-08-25T17:12:19Z</time>
      </trkpt>
      <trkpt lat="44.5102" lon="0.61085">
        <ele>186.2</ele>
        <time>2018-08-25T17:12:20Z</time>
      </trkpt>
      <trkpt lat="44.5102" lon="0.61092">
        <ele>187.7</ele>
        <time>2018-08-25T17:12:22Z</time>
      </trkpt>
      <trkpt lat="44.51023" lon="0.61094">
        <ele>187.7</ele>
        <time>2018-08-25T17:12:24Z</time>
      </trkpt>
      <trkpt lat="44.51022" lon="0.6109">
        <ele>187.7</ele>
        <time>2018-08-25T17:12:33Z</time>
      </trkpt>
      <trkpt lat="44.51018" lon="0.61084">
        <ele>186.2</ele>
        <time>2018-08-25T17:15:36Z</time>
      </trkpt>
      <trkpt lat="44.51022" lon="0.61082">
        <ele>186.2</ele>
        <time>2018-08-25T17:15:47Z</time>
      </trkpt>
      <trkpt lat="44.51025" lon="0.61081">
        <ele>185.4</ele>
        <time>2018-08-25T17:15:49Z</time>
      </trkpt>
      <trkpt lat="44.51027" lon="0.61084">
        <ele>186.1</ele>
        <time>2018-08-25T17:15:56Z</time>
      </trkpt>
      <trkpt lat="44.51029" lon="0.61082">
        <ele>186</ele>
        <time>2018-08-25T17:16:04Z</time>
      </trkpt>
      <trkpt lat="44.51027" lon="0.61086">
        <ele>186.9</ele>
        <time>2018-08-25T17:16:06Z</time>
      </trkpt>
      <trkpt lat="44.51024" lon="0.6109">
        <ele>187.8</ele>
        <time>2018-08-25T17:16:07Z</time>
      </trkpt>
      <trkpt lat="44.51021" lon="0.61094">
        <ele>187.8</ele>
        <time>2018-08-25T17:16:08Z</time>
      </trkpt>
      <trkpt lat="44.51017" lon="0.61098">
        <ele>188.5</ele>
        <time>2018-08-25T17:16:09Z</time>
      </trkpt>
      <trkpt lat="44.51012" lon="0.61101">
        <ele>189.2</ele>
        <time>2018-08-25T17:16:10Z</time>
      </trkpt>
      <trkpt lat="44.51008" lon="0.61105">
        <ele>190</ele>
        <time>2018-08-25T17:16:11Z</time>
      </trkpt>
      <trkpt lat="44.51004" lon="0.61107">
        <ele>190.8</ele>
        <time>2018-08-25T17:16:12Z</time>
      </trkpt>
      <trkpt lat="44.51001" lon="0.61109">
        <ele>190.7</ele>
        <time>2018-08-25T17:16:13Z</time>
      </trkpt>
      <trkpt lat="44.50997" lon="0.61111">
        <ele>190.6</ele>
        <time>2018-08-25T17:16:14Z</time>
      </trkpt>
      <trkpt lat="44.50993" lon="0.61113">
        <ele>191.1</ele>
        <time>2018-08-25T17:16:15Z</time>
      </trkpt>
      <trkpt lat="44.50988" lon="0.61117">
        <ele>191.6</ele>
        <time>2018-08-25T17:16:16Z</time>
      </trkpt>
      <trkpt lat="44.50981" lon="0.61123">
        <ele>192</ele>
        <time>2018-08-25T17:16:17Z</time>
      </trkpt>
      <trkpt lat="44.50974" lon="0.61129">
        <ele>192.3</ele>
        <time>2018-08-25T17:16:18Z</time>
      </trkpt>
      <trkpt lat="44.50969" lon="0.61133">
        <ele>193.6</ele>
        <time>2018-08-25T17:16:19Z</time>
      </trkpt>
      <trkpt lat="44.50964" lon="0.61135">
        <ele>193.3</ele>
        <time>2018-08-25T17:16:20Z</time>
      </trkpt>
      <trkpt lat="44.50957" lon="0.61138">
        <ele>193.5</ele>
        <time>2018-08-25T17:16:21Z</time>
      </trkpt>
      <trkpt lat="44.5095" lon="0.61141">
        <ele>193</ele>
        <time>2018-08-25T17:16:22Z</time>
      </trkpt>
      <trkpt lat="44.50946" lon="0.61144">
        <ele>193.8</ele>
        <time>2018-08-25T17:16:23Z</time>
      </trkpt>
      <trkpt lat="44.5094" lon="0.61144">
        <ele>193.3</ele>
        <time>2018-08-25T17:16:24Z</time>
      </trkpt>
      <trkpt lat="44.50935" lon="0.61146">
        <ele>192.9</ele>
        <time>2018-08-25T17:16:25Z</time>
      </trkpt>
      <trkpt lat="44.50929" lon="0.61146">
        <ele>193.5</ele>
        <time>2018-08-25T17:16:26Z</time>
      </trkpt>
      <trkpt lat="44.50924" lon="0.61145">
        <ele>192.4</ele>
        <time>2018-08-25T17:16:29Z</time>
      </trkpt>
      <trkpt lat="44.50922" lon="0.61146">
        <ele>192.3</ele>
        <time>2018-08-25T17:16:31Z</time>
      </trkpt>
      <trkpt lat="44.50918" lon="0.61144">
        <ele>192.2</ele>
        <time>2018-08-25T17:16:36Z</time>
      </trkpt>
      <trkpt lat="44.50914" lon="0.61142">
        <ele>192.2</ele>
        <time>2018-08-25T17:16:38Z</time>
      </trkpt>
      <trkpt lat="44.5091" lon="0.61138">
        <ele>191.3</ele>
        <time>2018-08-25T17:16:40Z</time>
      </trkpt>
      <trkpt lat="44.50906" lon="0.61136">
        <ele>190.5</ele>
        <time>2018-08-25T17:16:41Z</time>
      </trkpt>
      <trkpt lat="44.50902" lon="0.61134">
        <ele>190.8</ele>
        <time>2018-08-25T17:16:42Z</time>
      </trkpt>
      <trkpt lat="44.50893" lon="0.61134">
        <ele>191.3</ele>
        <time>2018-08-25T17:16:43Z</time>
      </trkpt>
      <trkpt lat="44.50887" lon="0.61136">
        <ele>191.9</ele>
        <time>2018-08-25T17:16:44Z</time>
      </trkpt>
      <trkpt lat="44.50881" lon="0.61136">
        <ele>192.5</ele>
        <time>2018-08-25T17:16:45Z</time>
      </trkpt>
      <trkpt lat="44.50875" lon="0.61136">
        <ele>192.8</ele>
        <time>2018-08-25T17:16:46Z</time>
      </trkpt>
      <trkpt lat="44.5087" lon="0.61138">
        <ele>194.1</ele>
        <time>2018-08-25T17:16:47Z</time>
      </trkpt>
      <trkpt lat="44.50865" lon="0.61139">
        <ele>194.8</ele>
        <time>2018-08-25T17:16:48Z</time>
      </trkpt>
      <trkpt lat="44.50861" lon="0.6114">
        <ele>195.2</ele>
        <time>2018-08-25T17:16:49Z</time>
      </trkpt>
      <trkpt lat="44.50856" lon="0.61141">
        <ele>195.9</ele>
        <time>2018-08-25T17:16:50Z</time>
      </trkpt>
      <trkpt lat="44.50851" lon="0.61142">
        <ele>197</ele>
        <time>2018-08-25T17:16:52Z</time>
      </trkpt>
      <trkpt lat="44.50846" lon="0.61144">
        <ele>197.7</ele>
        <time>2018-08-25T17:16:53Z</time>
      </trkpt>
      <trkpt lat="44.50842" lon="0.61144">
        <ele>198.1</ele>
        <time>2018-08-25T17:16:54Z</time>
      </trkpt>
      <trkpt lat="44.50838" lon="0.61147">
        <ele>199.7</ele>
        <time>2018-08-25T17:16:55Z</time>
      </trkpt>
      <trkpt lat="44.50833" lon="0.61146">
        <ele>200.1</ele>
        <time>2018-08-25T17:16:56Z</time>
      </trkpt>
      <trkpt lat="44.50829" lon="0.61145">
        <ele>200.2</ele>
        <time>2018-08-25T17:16:57Z</time>
      </trkpt>
      <trkpt lat="44.50824" lon="0.61141">
        <ele>200</ele>
        <time>2018-08-25T17:16:58Z</time>
      </trkpt>
      <trkpt lat="44.5082" lon="0.61137">
        <ele>200.4</ele>
        <time>2018-08-25T17:16:59Z</time>
      </trkpt>
      <trkpt lat="44.50815" lon="0.61134">
        <ele>200.8</ele>
        <time>2018-08-25T17:17:00Z</time>
      </trkpt>
      <trkpt lat="44.50809" lon="0.61129">
        <ele>201.3</ele>
        <time>2018-08-25T17:17:01Z</time>
      </trkpt>
      <trkpt lat="44.50805" lon="0.61124">
        <ele>201</ele>
        <time>2018-08-25T17:17:02Z</time>
      </trkpt>
      <trkpt lat="44.50802" lon="0.61118">
        <ele>201.1</ele>
        <time>2018-08-25T17:17:03Z</time>
      </trkpt>
      <trkpt lat="44.50798" lon="0.61111">
        <ele>201.2</ele>
        <time>2018-08-25T17:17:04Z</time>
      </trkpt>
      <trkpt lat="44.50794" lon="0.61108">
        <ele>201.6</ele>
        <time>2018-08-25T17:17:05Z</time>
      </trkpt>
      <trkpt lat="44.50795" lon="0.61103">
        <ele>201.2</ele>
        <time>2018-08-25T17:17:06Z</time>
      </trkpt>
      <trkpt lat="44.50794" lon="0.61099">
        <ele>200.8</ele>
        <time>2018-08-25T17:17:08Z</time>
      </trkpt>
      <trkpt lat="44.50791" lon="0.61092">
        <ele>200.3</ele>
        <time>2018-08-25T17:17:10Z</time>
      </trkpt>
      <trkpt lat="44.5079" lon="0.61088">
        <ele>199.9</ele>
        <time>2018-08-25T17:17:11Z</time>
      </trkpt>
      <trkpt lat="44.50788" lon="0.61084">
        <ele>199.8</ele>
        <time>2018-08-25T17:17:12Z</time>
      </trkpt>
      <trkpt lat="44.50785" lon="0.61079">
        <ele>199.8</ele>
        <time>2018-08-25T17:17:13Z</time>
      </trkpt>
      <trkpt lat="44.50783" lon="0.61074">
        <ele>199.3</ele>
        <time>2018-08-25T17:17:14Z</time>
      </trkpt>
      <trkpt lat="44.50782" lon="0.61069">
        <ele>198.9</ele>
        <time>2018-08-25T17:17:15Z</time>
      </trkpt>
      <trkpt lat="44.5078" lon="0.61063">
        <ele>198.5</ele>
        <time>2018-08-25T17:17:16Z</time>
      </trkpt>
      <trkpt lat="44.50779" lon="0.61058">
        <ele>198.5</ele>
        <time>2018-08-25T17:17:17Z</time>
      </trkpt>
      <trkpt lat="44.50777" lon="0.61052">
        <ele>198.6</ele>
        <time>2018-08-25T17:17:18Z</time>
      </trkpt>
      <trkpt lat="44.50775" lon="0.61045">
        <ele>197.8</ele>
        <time>2018-08-25T17:17:19Z</time>
      </trkpt>
      <trkpt lat="44.50775" lon="0.61038">
        <ele>197.1</ele>
        <time>2018-08-25T17:17:20Z</time>
      </trkpt>
      <trkpt lat="44.50773" lon="0.61033">
        <ele>197</ele>
        <time>2018-08-25T17:17:21Z</time>
      </trkpt>
      <trkpt lat="44.50771" lon="0.61028">
        <ele>196.5</ele>
        <time>2018-08-25T17:17:22Z</time>
      </trkpt>
      <trkpt lat="44.50768" lon="0.61023">
        <ele>196.3</ele>
        <time>2018-08-25T17:17:23Z</time>
      </trkpt>
      <trkpt lat="44.50765" lon="0.61016">
        <ele>195.7</ele>
        <time>2018-08-25T17:17:24Z</time>
      </trkpt>
      <trkpt lat="44.50761" lon="0.61009">
        <ele>195.4</ele>
        <time>2018-08-25T17:17:25Z</time>
      </trkpt>
      <trkpt lat="44.50759" lon="0.61004">
        <ele>194.5</ele>
        <time>2018-08-25T17:17:26Z</time>
      </trkpt>
      <trkpt lat="44.50756" lon="0.60999">
        <ele>194.3</ele>
        <time>2018-08-25T17:17:27Z</time>
      </trkpt>
      <trkpt lat="44.50754" lon="0.60995">
        <ele>194.1</ele>
        <time>2018-08-25T17:17:28Z</time>
      </trkpt>
      <trkpt lat="44.50753" lon="0.6099">
        <ele>193.7</ele>
        <time>2018-08-25T17:17:29Z</time>
      </trkpt>
      <trkpt lat="44.50751" lon="0.60985">
        <ele>193.5</ele>
        <time>2018-08-25T17:17:30Z</time>
      </trkpt>
      <trkpt lat="44.50748" lon="0.60981">
        <ele>193.3</ele>
        <time>2018-08-25T17:17:31Z</time>
      </trkpt>
      <trkpt lat="44.50747" lon="0.60978">
        <ele>192.9</ele>
        <time>2018-08-25T17:17:32Z</time>
      </trkpt>
      <trkpt lat="44.50743" lon="0.60974">
        <ele>192.8</ele>
        <time>2018-08-25T17:17:34Z</time>
      </trkpt>
      <trkpt lat="44.5074" lon="0.60968">
        <ele>192.5</ele>
        <time>2018-08-25T17:17:36Z</time>
      </trkpt>
      <trkpt lat="44.50737" lon="0.60964">
        <ele>192.1</ele>
        <time>2018-08-25T17:17:38Z</time>
      </trkpt>
      <trkpt lat="44.50737" lon="0.60965">
        <ele>192.2</ele>
        <time>2018-08-25T17:17:55Z</time>
      </trkpt>
      <trkpt lat="44.50736" lon="0.60966">
        <ele>192.6</ele>
        <time>2018-08-25T17:18:34Z</time>
      </trkpt>
      <trkpt lat="44.50735" lon="0.60966">
        <ele>192.6</ele>
        <time>2018-08-25T17:19:28Z</time>
      </trkpt>
      <trkpt lat="44.50734" lon="0.60967">
        <ele>192.7</ele>
        <time>2018-08-25T17:19:49Z</time>
      </trkpt>
      <trkpt lat="44.50733" lon="0.60968">
        <ele>192.7</ele>
        <time>2018-08-25T17:20:12Z</time>
      </trkpt>
      <trkpt lat="44.50732" lon="0.60968">
        <ele>192.8</ele>
        <time>2018-08-25T17:21:05Z</time>
      </trkpt>
      <trkpt lat="44.50731" lon="0.60969">
        <ele>192.8</ele>
        <time>2018-08-25T17:21:06Z</time>
      </trkpt>
      <trkpt lat="44.50732" lon="0.60977">
        <ele>193.5</ele>
        <time>2018-08-25T17:21:07Z</time>
      </trkpt>
      <trkpt lat="44.50733" lon="0.60987">
        <ele>194.2</ele>
        <time>2018-08-25T17:21:08Z</time>
      </trkpt>
      <trkpt lat="44.50734" lon="0.60998">
        <ele>195.2</ele>
        <time>2018-08-25T17:21:09Z</time>
      </trkpt>
      <trkpt lat="44.50736" lon="0.6101">
        <ele>196.1</ele>
        <time>2018-08-25T17:21:10Z</time>
      </trkpt>
      <trkpt lat="44.50739" lon="0.6102">
        <ele>196.8</ele>
        <time>2018-08-25T17:21:11Z</time>
      </trkpt>
      <trkpt lat="44.50742" lon="0.61029">
        <ele>197.6</ele>
        <time>2018-08-25T17:21:12Z</time>
      </trkpt>
      <trkpt lat="44.50744" lon="0.61039">
        <ele>198.9</ele>
        <time>2018-08-25T17:21:13Z</time>
      </trkpt>
      <trkpt lat="44.50747" lon="0.6105">
        <ele>199.7</ele>
        <time>2018-08-25T17:21:14Z</time>
      </trkpt>
      <trkpt lat="44.50752" lon="0.61063">
        <ele>200.9</ele>
        <time>2018-08-25T17:21:15Z</time>
      </trkpt>
      <trkpt lat="44.50757" lon="0.61078">
        <ele>202.2</ele>
        <time>2018-08-25T17:21:16Z</time>
      </trkpt>
      <trkpt lat="44.50762" lon="0.61094">
        <ele>202.8</ele>
        <time>2018-08-25T17:21:17Z</time>
      </trkpt>
      <trkpt lat="44.50767" lon="0.61112">
        <ele>204.1</ele>
        <time>2018-08-25T17:21:18Z</time>
      </trkpt>
      <trkpt lat="44.50774" lon="0.6113">
        <ele>205.1</ele>
        <time>2018-08-25T17:21:19Z</time>
      </trkpt>
      <trkpt lat="44.5078" lon="0.61145">
        <ele>205.9</ele>
        <time>2018-08-25T17:21:20Z</time>
      </trkpt>
      <trkpt lat="44.50785" lon="0.6116">
        <ele>206.8</ele>
        <time>2018-08-25T17:21:21Z</time>
      </trkpt>
      <trkpt lat="44.50791" lon="0.61172">
        <ele>207.5</ele>
        <time>2018-08-25T17:21:22Z</time>
      </trkpt>
      <trkpt lat="44.50798" lon="0.61182">
        <ele>207.9</ele>
        <time>2018-08-25T17:21:23Z</time>
      </trkpt>
      <trkpt lat="44.50805" lon="0.61189">
        <ele>208.2</ele>
        <time>2018-08-25T17:21:24Z</time>
      </trkpt>
      <trkpt lat="44.50815" lon="0.61191">
        <ele>208.5</ele>
        <time>2018-08-25T17:21:25Z</time>
      </trkpt>
      <trkpt lat="44.50826" lon="0.61192">
        <ele>208.2</ele>
        <time>2018-08-25T17:21:26Z</time>
      </trkpt>
      <trkpt lat="44.50838" lon="0.61192">
        <ele>207.7</ele>
        <time>2018-08-25T17:21:27Z</time>
      </trkpt>
      <trkpt lat="44.50849" lon="0.61191">
        <ele>206.8</ele>
        <time>2018-08-25T17:21:28Z</time>
      </trkpt>
      <trkpt lat="44.5086" lon="0.61192">
        <ele>205.8</ele>
        <time>2018-08-25T17:21:29Z</time>
      </trkpt>
      <trkpt lat="44.50872" lon="0.61193">
        <ele>205.9</ele>
        <time>2018-08-25T17:21:30Z</time>
      </trkpt>
      <trkpt lat="44.50884" lon="0.61194">
        <ele>204.9</ele>
        <time>2018-08-25T17:21:31Z</time>
      </trkpt>
      <trkpt lat="44.50896" lon="0.61195">
        <ele>204.2</ele>
        <time>2018-08-25T17:21:32Z</time>
      </trkpt>
      <trkpt lat="44.50905" lon="0.61196">
        <ele>204</ele>
        <time>2018-08-25T17:21:33Z</time>
      </trkpt>
      <trkpt lat="44.50915" lon="0.61197">
        <ele>204.1</ele>
        <time>2018-08-25T17:21:34Z</time>
      </trkpt>
      <trkpt lat="44.50924" lon="0.61199">
        <ele>205.3</ele>
        <time>2018-08-25T17:21:35Z</time>
      </trkpt>
      <trkpt lat="44.50929" lon="0.61201">
        <ele>205.6</ele>
        <time>2018-08-25T17:21:36Z</time>
      </trkpt>
      <trkpt lat="44.50932" lon="0.61202">
        <ele>206.6</ele>
        <time>2018-08-25T17:21:37Z</time>
      </trkpt>
      <trkpt lat="44.50937" lon="0.61205">
        <ele>206.9</ele>
        <time>2018-08-25T17:21:38Z</time>
      </trkpt>
      <trkpt lat="44.50941" lon="0.61218">
        <ele>209.4</ele>
        <time>2018-08-25T17:21:39Z</time>
      </trkpt>
      <trkpt lat="44.50939" lon="0.61228">
        <ele>211.4</ele>
        <time>2018-08-25T17:21:40Z</time>
      </trkpt>
      <trkpt lat="44.5094" lon="0.61236">
        <ele>212.1</ele>
        <time>2018-08-25T17:21:41Z</time>
      </trkpt>
      <trkpt lat="44.50942" lon="0.6124">
        <ele>213.3</ele>
        <time>2018-08-25T17:21:43Z</time>
      </trkpt>
      <trkpt lat="44.50944" lon="0.61239">
        <ele>212.8</ele>
        <time>2018-08-25T17:21:44Z</time>
      </trkpt>
      <trkpt lat="44.50948" lon="0.61234">
        <ele>212.2</ele>
        <time>2018-08-25T17:21:46Z</time>
      </trkpt>
      <trkpt lat="44.5095" lon="0.61232">
        <ele>212.2</ele>
        <time>2018-08-25T17:21:47Z</time>
      </trkpt>
      <trkpt lat="44.50953" lon="0.61231">
        <ele>211.7</ele>
        <time>2018-08-25T17:21:48Z</time>
      </trkpt>
      <trkpt lat="44.50957" lon="0.61229">
        <ele>211.7</ele>
        <time>2018-08-25T17:21:49Z</time>
      </trkpt>
      <trkpt lat="44.5096" lon="0.61225">
        <ele>211.1</ele>
        <time>2018-08-25T17:21:50Z</time>
      </trkpt>
      <trkpt lat="44.50965" lon="0.61222">
        <ele>210.5</ele>
        <time>2018-08-25T17:21:51Z</time>
      </trkpt>
      <trkpt lat="44.50968" lon="0.61218">
        <ele>209.9</ele>
        <time>2018-08-25T17:21:52Z</time>
      </trkpt>
      <trkpt lat="44.50971" lon="0.61215">
        <ele>209.8</ele>
        <time>2018-08-25T17:21:53Z</time>
      </trkpt>
      <trkpt lat="44.50974" lon="0.61214">
        <ele>209.2</ele>
        <time>2018-08-25T17:21:54Z</time>
      </trkpt>
      <trkpt lat="44.50979" lon="0.61218">
        <ele>209.6</ele>
        <time>2018-08-25T17:21:55Z</time>
      </trkpt>
      <trkpt lat="44.50982" lon="0.61216">
        <ele>209.6</ele>
        <time>2018-08-25T17:21:56Z</time>
      </trkpt>
      <trkpt lat="44.50985" lon="0.61216">
        <ele>209.6</ele>
        <time>2018-08-25T17:21:57Z</time>
      </trkpt>
      <trkpt lat="44.5099" lon="0.61214">
        <ele>208.9</ele>
        <time>2018-08-25T17:21:58Z</time>
      </trkpt>
      <trkpt lat="44.50995" lon="0.61214">
        <ele>208.8</ele>
        <time>2018-08-25T17:21:59Z</time>
      </trkpt>
      <trkpt lat="44.51002" lon="0.61211">
        <ele>208.6</ele>
        <time>2018-08-25T17:22:01Z</time>
      </trkpt>
      <trkpt lat="44.51007" lon="0.61209">
        <ele>207.8</ele>
        <time>2018-08-25T17:22:02Z</time>
      </trkpt>
      <trkpt lat="44.51013" lon="0.61209">
        <ele>207.5</ele>
        <time>2018-08-25T17:22:04Z</time>
      </trkpt>
      <trkpt lat="44.51018" lon="0.61206">
        <ele>207.2</ele>
        <time>2018-08-25T17:22:06Z</time>
      </trkpt>
      <trkpt lat="44.51023" lon="0.6121">
        <ele>207</ele>
        <time>2018-08-25T17:22:08Z</time>
      </trkpt>
      <trkpt lat="44.51027" lon="0.61213">
        <ele>206.6</ele>
        <time>2018-08-25T17:22:10Z</time>
      </trkpt>
      <trkpt lat="44.5103" lon="0.61215">
        <ele>206.5</ele>
        <time>2018-08-25T17:22:13Z</time>
      </trkpt>
      <trkpt lat="44.51032" lon="0.61217">
        <ele>206</ele>
        <time>2018-08-25T17:22:15Z</time>
      </trkpt>
      <trkpt lat="44.51036" lon="0.61219">
        <ele>205.7</ele>
        <time>2018-08-25T17:22:17Z</time>
      </trkpt>
      <trkpt lat="44.51038" lon="0.61223">
        <ele>205.1</ele>
        <time>2018-08-25T17:22:19Z</time>
      </trkpt>
      <trkpt lat="44.5104" lon="0.61227">
        <ele>205.3</ele>
        <time>2018-08-25T17:22:22Z</time>
      </trkpt>
      <trkpt lat="44.5104" lon="0.61231">
        <ele>204.9</ele>
        <time>2018-08-25T17:22:24Z</time>
      </trkpt>
      <trkpt lat="44.51039" lon="0.61235">
        <ele>205.6</ele>
        <time>2018-08-25T17:22:26Z</time>
      </trkpt>
      <trkpt lat="44.51036" lon="0.6124">
        <ele>206.5</ele>
        <time>2018-08-25T17:22:28Z</time>
      </trkpt>
      <trkpt lat="44.51033" lon="0.61243">
        <ele>207.4</ele>
        <time>2018-08-25T17:22:30Z</time>
      </trkpt>
      <trkpt lat="44.51032" lon="0.61248">
        <ele>207.5</ele>
        <time>2018-08-25T17:22:32Z</time>
      </trkpt>
      <trkpt lat="44.5103" lon="0.61252">
        <ele>208.4</ele>
        <time>2018-08-25T17:22:34Z</time>
      </trkpt>
      <trkpt lat="44.51028" lon="0.61259">
        <ele>208.7</ele>
        <time>2018-08-25T17:22:36Z</time>
      </trkpt>
      <trkpt lat="44.51028" lon="0.61263">
        <ele>208.8</ele>
        <time>2018-08-25T17:22:38Z</time>
      </trkpt>
      <trkpt lat="44.5103" lon="0.61267">
        <ele>208.9</ele>
        <time>2018-08-25T17:22:42Z</time>
      </trkpt>
      <trkpt lat="44.5103" lon="0.61272">
        <ele>209</ele>
        <time>2018-08-25T17:22:46Z</time>
      </trkpt>
      <trkpt lat="44.51032" lon="0.61276">
        <ele>208.4</ele>
        <time>2018-08-25T17:22:51Z</time>
      </trkpt>
      <trkpt lat="44.51032" lon="0.61282">
        <ele>208.4</ele>
        <time>2018-08-25T17:22:53Z</time>
      </trkpt>
      <trkpt lat="44.5103" lon="0.61288">
        <ele>209.1</ele>
        <time>2018-08-25T17:22:55Z</time>
      </trkpt>
      <trkpt lat="44.51028" lon="0.61292">
        <ele>209.1</ele>
        <time>2018-08-25T17:22:57Z</time>
      </trkpt>
      <trkpt lat="44.51027" lon="0.61297">
        <ele>209.6</ele>
        <time>2018-08-25T17:22:59Z</time>
      </trkpt>
      <trkpt lat="44.51025" lon="0.613">
        <ele>209.6</ele>
        <time>2018-08-25T17:23:00Z</time>
      </trkpt>
      <trkpt lat="44.51024" lon="0.61304">
        <ele>210.1</ele>
        <time>2018-08-25T17:23:01Z</time>
      </trkpt>
      <trkpt lat="44.51022" lon="0.61309">
        <ele>209.8</ele>
        <time>2018-08-25T17:23:02Z</time>
      </trkpt>
      <trkpt lat="44.5102" lon="0.61314">
        <ele>210.2</ele>
        <time>2018-08-25T17:23:03Z</time>
      </trkpt>
      <trkpt lat="44.5102" lon="0.61319">
        <ele>210</ele>
        <time>2018-08-25T17:23:04Z</time>
      </trkpt>
      <trkpt lat="44.5102" lon="0.61324">
        <ele>209.9</ele>
        <time>2018-08-25T17:23:05Z</time>
      </trkpt>
      <trkpt lat="44.5102" lon="0.61328">
        <ele>209.7</ele>
        <time>2018-08-25T17:23:06Z</time>
      </trkpt>
      <trkpt lat="44.51014" lon="0.61333">
        <ele>210.6</ele>
        <time>2018-08-25T17:23:12Z</time>
      </trkpt>
      <trkpt lat="44.51012" lon="0.61337">
        <ele>210.8</ele>
        <time>2018-08-25T17:23:17Z</time>
      </trkpt>
      <trkpt lat="44.5101" lon="0.61342">
        <ele>210.6</ele>
        <time>2018-08-25T17:23:18Z</time>
      </trkpt>
      <trkpt lat="44.51009" lon="0.61348">
        <ele>210.7</ele>
        <time>2018-08-25T17:23:19Z</time>
      </trkpt>
      <trkpt lat="44.50987" lon="0.61379">
        <ele>210.7</ele>
        <time>2018-08-25T17:23:21Z</time>
      </trkpt>
      <trkpt lat="44.50982" lon="0.61387">
        <ele>210.1</ele>
        <time>2018-08-25T17:23:22Z</time>
      </trkpt>
      <trkpt lat="44.50978" lon="0.61395">
        <ele>209.6</ele>
        <time>2018-08-25T17:23:23Z</time>
      </trkpt>
      <trkpt lat="44.50979" lon="0.61408">
        <ele>208.4</ele>
        <time>2018-08-25T17:23:24Z</time>
      </trkpt>
      <trkpt lat="44.50976" lon="0.61414">
        <ele>208</ele>
        <time>2018-08-25T17:23:25Z</time>
      </trkpt>
      <trkpt lat="44.50981" lon="0.61417">
        <ele>207.7</ele>
        <time>2018-08-25T17:23:26Z</time>
      </trkpt>
      <trkpt lat="44.50981" lon="0.61421">
        <ele>207.2</ele>
        <time>2018-08-25T17:23:27Z</time>
      </trkpt>
      <trkpt lat="44.50984" lon="0.61425">
        <ele>206.8</ele>
        <time>2018-08-25T17:23:28Z</time>
      </trkpt>
      <trkpt lat="44.5099" lon="0.6143">
        <ele>206.4</ele>
        <time>2018-08-25T17:23:29Z</time>
      </trkpt>
      <trkpt lat="44.50994" lon="0.61436">
        <ele>205.9</ele>
        <time>2018-08-25T17:23:30Z</time>
      </trkpt>
      <trkpt lat="44.50999" lon="0.61439">
        <ele>205.3</ele>
        <time>2018-08-25T17:23:31Z</time>
      </trkpt>
      <trkpt lat="44.51003" lon="0.61441">
        <ele>205.2</ele>
        <time>2018-08-25T17:23:32Z</time>
      </trkpt>
      <trkpt lat="44.51007" lon="0.61442">
        <ele>204.5</ele>
        <time>2018-08-25T17:23:33Z</time>
      </trkpt>
      <trkpt lat="44.51015" lon="0.61442">
        <ele>204</ele>
        <time>2018-08-25T17:23:34Z</time>
      </trkpt>
      <trkpt lat="44.51018" lon="0.61444">
        <ele>203.7</ele>
        <time>2018-08-25T17:23:35Z</time>
      </trkpt>
      <trkpt lat="44.51022" lon="0.61446">
        <ele>203</ele>
        <time>2018-08-25T17:23:36Z</time>
      </trkpt>
      <trkpt lat="44.51025" lon="0.61447">
        <ele>202.2</ele>
        <time>2018-08-25T17:23:37Z</time>
      </trkpt>
      <trkpt lat="44.51029" lon="0.6145">
        <ele>201.8</ele>
        <time>2018-08-25T17:23:38Z</time>
      </trkpt>
      <trkpt lat="44.51033" lon="0.61452">
        <ele>201.1</ele>
        <time>2018-08-25T17:23:39Z</time>
      </trkpt>
      <trkpt lat="44.51037" lon="0.61454">
        <ele>200.6</ele>
        <time>2018-08-25T17:23:40Z</time>
      </trkpt>
      <trkpt lat="44.5104" lon="0.61457">
        <ele>199.8</ele>
        <time>2018-08-25T17:23:41Z</time>
      </trkpt>
      <trkpt lat="44.51043" lon="0.6146">
        <ele>199</ele>
        <time>2018-08-25T17:23:42Z</time>
      </trkpt>
      <trkpt lat="44.51046" lon="0.61463">
        <ele>198.2</ele>
        <time>2018-08-25T17:23:43Z</time>
      </trkpt>
      <trkpt lat="44.5105" lon="0.61467">
        <ele>197.4</ele>
        <time>2018-08-25T17:23:44Z</time>
      </trkpt>
      <trkpt lat="44.51055" lon="0.6147">
        <ele>196.5</ele>
        <time>2018-08-25T17:23:45Z</time>
      </trkpt>
      <trkpt lat="44.51059" lon="0.61474">
        <ele>195.2</ele>
        <time>2018-08-25T17:23:46Z</time>
      </trkpt>
      <trkpt lat="44.51067" lon="0.61479">
        <ele>193.9</ele>
        <time>2018-08-25T17:23:47Z</time>
      </trkpt>
      <trkpt lat="44.51073" lon="0.61483">
        <ele>192.7</ele>
        <time>2018-08-25T17:23:48Z</time>
      </trkpt>
      <trkpt lat="44.5108" lon="0.61486">
        <ele>191.4</ele>
        <time>2018-08-25T17:23:49Z</time>
      </trkpt>
      <trkpt lat="44.51087" lon="0.61489">
        <ele>190</ele>
        <time>2018-08-25T17:23:50Z</time>
      </trkpt>
      <trkpt lat="44.51093" lon="0.6149">
        <ele>188.7</ele>
        <time>2018-08-25T17:23:51Z</time>
      </trkpt>
      <trkpt lat="44.51101" lon="0.61491">
        <ele>187.8</ele>
        <time>2018-08-25T17:23:52Z</time>
      </trkpt>
      <trkpt lat="44.51107" lon="0.61494">
        <ele>186.4</ele>
        <time>2018-08-25T17:23:53Z</time>
      </trkpt>
      <trkpt lat="44.51112" lon="0.61497">
        <ele>185.5</ele>
        <time>2018-08-25T17:23:54Z</time>
      </trkpt>
      <trkpt lat="44.51118" lon="0.615">
        <ele>184.2</ele>
        <time>2018-08-25T17:23:55Z</time>
      </trkpt>
      <trkpt lat="44.51126" lon="0.61507">
        <ele>183.4</ele>
        <time>2018-08-25T17:23:56Z</time>
      </trkpt>
      <trkpt lat="44.51132" lon="0.61511">
        <ele>182.7</ele>
        <time>2018-08-25T17:23:57Z</time>
      </trkpt>
      <trkpt lat="44.51136" lon="0.61519">
        <ele>182</ele>
        <time>2018-08-25T17:23:58Z</time>
      </trkpt>
      <trkpt lat="44.5114" lon="0.61525">
        <ele>181.3</ele>
        <time>2018-08-25T17:23:59Z</time>
      </trkpt>
      <trkpt lat="44.51144" lon="0.6153">
        <ele>181</ele>
        <time>2018-08-25T17:24:00Z</time>
      </trkpt>
      <trkpt lat="44.51146" lon="0.61533">
        <ele>180.7</ele>
        <time>2018-08-25T17:24:01Z</time>
      </trkpt>
      <trkpt lat="44.5115" lon="0.61537">
        <ele>180.4</ele>
        <time>2018-08-25T17:24:03Z</time>
      </trkpt>
      <trkpt lat="44.51148" lon="0.61526">
        <ele>181.1</ele>
        <time>2018-08-25T17:24:08Z</time>
      </trkpt>
      <trkpt lat="44.51147" lon="0.61522">
        <ele>181.3</ele>
        <time>2018-08-25T17:24:09Z</time>
      </trkpt>
      <trkpt lat="44.51143" lon="0.61512">
        <ele>182.3</ele>
        <time>2018-08-25T17:24:10Z</time>
      </trkpt>
      <trkpt lat="44.5114" lon="0.61501">
        <ele>183.4</ele>
        <time>2018-08-25T17:24:11Z</time>
      </trkpt>
      <trkpt lat="44.51137" lon="0.61489">
        <ele>184.3</ele>
        <time>2018-08-25T17:24:12Z</time>
      </trkpt>
      <trkpt lat="44.51133" lon="0.61474">
        <ele>185.7</ele>
        <time>2018-08-25T17:24:13Z</time>
      </trkpt>
      <trkpt lat="44.51128" lon="0.61458">
        <ele>187.1</ele>
        <time>2018-08-25T17:24:14Z</time>
      </trkpt>
      <trkpt lat="44.51125" lon="0.61441">
        <ele>188</ele>
        <time>2018-08-25T17:24:15Z</time>
      </trkpt>
      <trkpt lat="44.5112" lon="0.61423">
        <ele>188.9</ele>
        <time>2018-08-25T17:24:16Z</time>
      </trkpt>
      <trkpt lat="44.51115" lon="0.61405">
        <ele>189.8</ele>
        <time>2018-08-25T17:24:17Z</time>
      </trkpt>
      <trkpt lat="44.5111" lon="0.61389">
        <ele>191</ele>
        <time>2018-08-25T17:24:18Z</time>
      </trkpt>
      <trkpt lat="44.51105" lon="0.61372">
        <ele>191.9</ele>
        <time>2018-08-25T17:24:19Z</time>
      </trkpt>
      <trkpt lat="44.51106" lon="0.61361">
        <ele>192.2</ele>
        <time>2018-08-25T17:24:20Z</time>
      </trkpt>
      <trkpt lat="44.51106" lon="0.61351">
        <ele>192.1</ele>
        <time>2018-08-25T17:24:21Z</time>
      </trkpt>
      <trkpt lat="44.5111" lon="0.61336">
        <ele>191.1</ele>
        <time>2018-08-25T17:24:22Z</time>
      </trkpt>
      <trkpt lat="44.51113" lon="0.6132">
        <ele>190.9</ele>
        <time>2018-08-25T17:24:23Z</time>
      </trkpt>
      <trkpt lat="44.51116" lon="0.61303">
        <ele>190.5</ele>
        <time>2018-08-25T17:24:24Z</time>
      </trkpt>
      <trkpt lat="44.51118" lon="0.61282">
        <ele>190.5</ele>
        <time>2018-08-25T17:24:25Z</time>
      </trkpt>
      <trkpt lat="44.51121" lon="0.61266">
        <ele>190.5</ele>
        <time>2018-08-25T17:24:26Z</time>
      </trkpt>
      <trkpt lat="44.51121" lon="0.61251">
        <ele>190.7</ele>
        <time>2018-08-25T17:24:27Z</time>
      </trkpt>
      <trkpt lat="44.51118" lon="0.61236">
        <ele>190.5</ele>
        <time>2018-08-25T17:24:28Z</time>
      </trkpt>
      <trkpt lat="44.51116" lon="0.61217">
        <ele>190.6</ele>
        <time>2018-08-25T17:24:29Z</time>
      </trkpt>
      <trkpt lat="44.51117" lon="0.61199">
        <ele>189.6</ele>
        <time>2018-08-25T17:24:30Z</time>
      </trkpt>
      <trkpt lat="44.51118" lon="0.61185">
        <ele>188.1</ele>
        <time>2018-08-25T17:24:31Z</time>
      </trkpt>
      <trkpt lat="44.51122" lon="0.61168">
        <ele>186</ele>
        <time>2018-08-25T17:24:32Z</time>
      </trkpt>
      <trkpt lat="44.51126" lon="0.61151">
        <ele>183.9</ele>
        <time>2018-08-25T17:24:33Z</time>
      </trkpt>
      <trkpt lat="44.5113" lon="0.61132">
        <ele>181.9</ele>
        <time>2018-08-25T17:24:34Z</time>
      </trkpt>
      <trkpt lat="44.51135" lon="0.61116">
        <ele>179.5</ele>
        <time>2018-08-25T17:24:35Z</time>
      </trkpt>
      <trkpt lat="44.51139" lon="0.611">
        <ele>177.4</ele>
        <time>2018-08-25T17:24:36Z</time>
      </trkpt>
      <trkpt lat="44.51143" lon="0.61085">
        <ele>175.9</ele>
        <time>2018-08-25T17:24:37Z</time>
      </trkpt>
      <trkpt lat="44.51148" lon="0.61075">
        <ele>174.5</ele>
        <time>2018-08-25T17:24:38Z</time>
      </trkpt>
      <trkpt lat="44.51155" lon="0.61065">
        <ele>172.9</ele>
        <time>2018-08-25T17:24:39Z</time>
      </trkpt>
      <trkpt lat="44.51163" lon="0.61055">
        <ele>171.8</ele>
        <time>2018-08-25T17:24:40Z</time>
      </trkpt>
      <trkpt lat="44.51169" lon="0.61046">
        <ele>170.8</ele>
        <time>2018-08-25T17:24:41Z</time>
      </trkpt>
      <trkpt lat="44.51174" lon="0.61038">
        <ele>169.7</ele>
        <time>2018-08-25T17:24:42Z</time>
      </trkpt>
      <trkpt lat="44.51181" lon="0.61031">
        <ele>168.8</ele>
        <time>2018-08-25T17:24:43Z</time>
      </trkpt>
      <trkpt lat="44.51186" lon="0.61025">
        <ele>168.2</ele>
        <time>2018-08-25T17:24:44Z</time>
      </trkpt>
      <trkpt lat="44.51192" lon="0.61018">
        <ele>167.2</ele>
        <time>2018-08-25T17:24:45Z</time>
      </trkpt>
      <trkpt lat="44.51195" lon="0.6101">
        <ele>166.4</ele>
        <time>2018-08-25T17:24:46Z</time>
      </trkpt>
      <trkpt lat="44.51201" lon="0.61003">
        <ele>165.5</ele>
        <time>2018-08-25T17:24:47Z</time>
      </trkpt>
      <trkpt lat="44.51204" lon="0.60996">
        <ele>165</ele>
        <time>2018-08-25T17:24:48Z</time>
      </trkpt>
      <trkpt lat="44.51207" lon="0.60991">
        <ele>164.6</ele>
        <time>2018-08-25T17:24:49Z</time>
      </trkpt>
      <trkpt lat="44.51209" lon="0.60985">
        <ele>164.2</ele>
        <time>2018-08-25T17:24:50Z</time>
      </trkpt>
      <trkpt lat="44.51212" lon="0.6098">
        <ele>163.8</ele>
        <time>2018-08-25T17:24:51Z</time>
      </trkpt>
      <trkpt lat="44.51216" lon="0.60974">
        <ele>163.4</ele>
        <time>2018-08-25T17:24:52Z</time>
      </trkpt>
      <trkpt lat="44.5122" lon="0.60968">
        <ele>162.7</ele>
        <time>2018-08-25T17:24:53Z</time>
      </trkpt>
      <trkpt lat="44.51227" lon="0.60961">
        <ele>162.2</ele>
        <time>2018-08-25T17:24:54Z</time>
      </trkpt>
      <trkpt lat="44.51234" lon="0.60953">
        <ele>161.7</ele>
        <time>2018-08-25T17:24:55Z</time>
      </trkpt>
      <trkpt lat="44.5124" lon="0.60943">
        <ele>161.3</ele>
        <time>2018-08-25T17:24:56Z</time>
      </trkpt>
      <trkpt lat="44.51246" lon="0.6093">
        <ele>160.8</ele>
        <time>2018-08-25T17:24:57Z</time>
      </trkpt>
      <trkpt lat="44.51253" lon="0.60917">
        <ele>160.1</ele>
        <time>2018-08-25T17:24:58Z</time>
      </trkpt>
      <trkpt lat="44.5126" lon="0.60906">
        <ele>159.5</ele>
        <time>2018-08-25T17:24:59Z</time>
      </trkpt>
      <trkpt lat="44.51266" lon="0.60895">
        <ele>158.5</ele>
        <time>2018-08-25T17:25:00Z</time>
      </trkpt>
      <trkpt lat="44.51273" lon="0.60883">
        <ele>157.5</ele>
        <time>2018-08-25T17:25:01Z</time>
      </trkpt>
      <trkpt lat="44.51279" lon="0.60872">
        <ele>156.5</ele>
        <time>2018-08-25T17:25:02Z</time>
      </trkpt>
      <trkpt lat="44.51284" lon="0.6086">
        <ele>155.3</ele>
        <time>2018-08-25T17:25:03Z</time>
      </trkpt>
      <trkpt lat="44.51288" lon="0.60849">
        <ele>154.6</ele>
        <time>2018-08-25T17:25:04Z</time>
      </trkpt>
      <trkpt lat="44.51294" lon="0.60839">
        <ele>153.9</ele>
        <time>2018-08-25T17:25:05Z</time>
      </trkpt>
      <trkpt lat="44.51299" lon="0.6083">
        <ele>153.1</ele>
        <time>2018-08-25T17:25:06Z</time>
      </trkpt>
      <trkpt lat="44.51305" lon="0.60822">
        <ele>152.3</ele>
        <time>2018-08-25T17:25:07Z</time>
      </trkpt>
      <trkpt lat="44.51311" lon="0.60815">
        <ele>151.6</ele>
        <time>2018-08-25T17:25:08Z</time>
      </trkpt>
      <trkpt lat="44.51316" lon="0.60809">
        <ele>150.9</ele>
        <time>2018-08-25T17:25:09Z</time>
      </trkpt>
      <trkpt lat="44.51322" lon="0.60806">
        <ele>150.1</ele>
        <time>2018-08-25T17:25:10Z</time>
      </trkpt>
      <trkpt lat="44.51326" lon="0.608">
        <ele>149.3</ele>
        <time>2018-08-25T17:25:11Z</time>
      </trkpt>
      <trkpt lat="44.5133" lon="0.60793">
        <ele>148.3</ele>
        <time>2018-08-25T17:25:12Z</time>
      </trkpt>
      <trkpt lat="44.51333" lon="0.60784">
        <ele>147.3</ele>
        <time>2018-08-25T17:25:13Z</time>
      </trkpt>
      <trkpt lat="44.51334" lon="0.60774">
        <ele>145.1</ele>
        <time>2018-08-25T17:25:14Z</time>
      </trkpt>
      <trkpt lat="44.51336" lon="0.60767">
        <ele>142.9</ele>
        <time>2018-08-25T17:25:15Z</time>
      </trkpt>
      <trkpt lat="44.51337" lon="0.60758">
        <ele>140.5</ele>
        <time>2018-08-25T17:25:16Z</time>
      </trkpt>
      <trkpt lat="44.51338" lon="0.60752">
        <ele>138.8</ele>
        <time>2018-08-25T17:25:17Z</time>
      </trkpt>
      <trkpt lat="44.51341" lon="0.60746">
        <ele>137</ele>
        <time>2018-08-25T17:25:18Z</time>
      </trkpt>
      <trkpt lat="44.51343" lon="0.60743">
        <ele>137</ele>
        <time>2018-08-25T17:25:19Z</time>
      </trkpt>
      <trkpt lat="44.51347" lon="0.6074">
        <ele>137.2</ele>
        <time>2018-08-25T17:25:20Z</time>
      </trkpt>
      <trkpt lat="44.51351" lon="0.6074">
        <ele>137.3</ele>
        <time>2018-08-25T17:25:21Z</time>
      </trkpt>
      <trkpt lat="44.51355" lon="0.60742">
        <ele>137.4</ele>
        <time>2018-08-25T17:25:22Z</time>
      </trkpt>
      <trkpt lat="44.51358" lon="0.60744">
        <ele>137.4</ele>
        <time>2018-08-25T17:25:23Z</time>
      </trkpt>
      <trkpt lat="44.51362" lon="0.60746">
        <ele>137</ele>
        <time>2018-08-25T17:25:24Z</time>
      </trkpt>
      <trkpt lat="44.51366" lon="0.60748">
        <ele>137</ele>
        <time>2018-08-25T17:25:25Z</time>
      </trkpt>
      <trkpt lat="44.5137" lon="0.60752">
        <ele>137</ele>
        <time>2018-08-25T17:25:26Z</time>
      </trkpt>
      <trkpt lat="44.51376" lon="0.60755">
        <ele>136.8</ele>
        <time>2018-08-25T17:25:27Z</time>
      </trkpt>
      <trkpt lat="44.51384" lon="0.60757">
        <ele>136.8</ele>
        <time>2018-08-25T17:25:28Z</time>
      </trkpt>
      <trkpt lat="44.51391" lon="0.6076">
        <ele>136.9</ele>
        <time>2018-08-25T17:25:29Z</time>
      </trkpt>
      <trkpt lat="44.51399" lon="0.60764">
        <ele>137</ele>
        <time>2018-08-25T17:25:30Z</time>
      </trkpt>
      <trkpt lat="44.51405" lon="0.60766">
        <ele>137.2</ele>
        <time>2018-08-25T17:25:31Z</time>
      </trkpt>
      <trkpt lat="44.51411" lon="0.60769">
        <ele>137.5</ele>
        <time>2018-08-25T17:25:32Z</time>
      </trkpt>
      <trkpt lat="44.51417" lon="0.60771">
        <ele>137.6</ele>
        <time>2018-08-25T17:25:33Z</time>
      </trkpt>
      <trkpt lat="44.51421" lon="0.60774">
        <ele>137.8</ele>
        <time>2018-08-25T17:25:34Z</time>
      </trkpt>
      <trkpt lat="44.51426" lon="0.60774">
        <ele>137.9</ele>
        <time>2018-08-25T17:25:36Z</time>
      </trkpt>
      <trkpt lat="44.51429" lon="0.60774">
        <ele>138</ele>
        <time>2018-08-25T17:25:37Z</time>
      </trkpt>
      <trkpt lat="44.51433" lon="0.60771">
        <ele>137.9</ele>
        <time>2018-08-25T17:25:39Z</time>
      </trkpt>
      <trkpt lat="44.51435" lon="0.60767">
        <ele>137.9</ele>
        <time>2018-08-25T17:25:40Z</time>
      </trkpt>
      <trkpt lat="44.51436" lon="0.60761">
        <ele>137.8</ele>
        <time>2018-08-25T17:25:41Z</time>
      </trkpt>
      <trkpt lat="44.51438" lon="0.60753">
        <ele>137.5</ele>
        <time>2018-08-25T17:25:42Z</time>
      </trkpt>
      <trkpt lat="44.51437" lon="0.60743">
        <ele>137.2</ele>
        <time>2018-08-25T17:25:43Z</time>
      </trkpt>
      <trkpt lat="44.51436" lon="0.60732">
        <ele>136.7</ele>
        <time>2018-08-25T17:25:44Z</time>
      </trkpt>
      <trkpt lat="44.51435" lon="0.60721">
        <ele>136.4</ele>
        <time>2018-08-25T17:25:45Z</time>
      </trkpt>
      <trkpt lat="44.51433" lon="0.60709">
        <ele>135.9</ele>
        <time>2018-08-25T17:25:46Z</time>
      </trkpt>
      <trkpt lat="44.51431" lon="0.60701">
        <ele>135.6</ele>
        <time>2018-08-25T17:25:47Z</time>
      </trkpt>
      <trkpt lat="44.51429" lon="0.60694">
        <ele>135.2</ele>
        <time>2018-08-25T17:25:48Z</time>
      </trkpt>
      <trkpt lat="44.51428" lon="0.60689">
        <ele>135.2</ele>
        <time>2018-08-25T17:25:49Z</time>
      </trkpt>
      <trkpt lat="44.51428" lon="0.60681">
        <ele>134.8</ele>
        <time>2018-08-25T17:25:50Z</time>
      </trkpt>
      <trkpt lat="44.5143" lon="0.60677">
        <ele>134.8</ele>
        <time>2018-08-25T17:25:51Z</time>
      </trkpt>
      <trkpt lat="44.51433" lon="0.60673">
        <ele>134.9</ele>
        <time>2018-08-25T17:25:52Z</time>
      </trkpt>
      <trkpt lat="44.51438" lon="0.60671">
        <ele>135</ele>
        <time>2018-08-25T17:25:53Z</time>
      </trkpt>
      <trkpt lat="44.51444" lon="0.60671">
        <ele>135.2</ele>
        <time>2018-08-25T17:25:54Z</time>
      </trkpt>
      <trkpt lat="44.51451" lon="0.60674">
        <ele>135.4</ele>
        <time>2018-08-25T17:25:55Z</time>
      </trkpt>
      <trkpt lat="44.51458" lon="0.60678">
        <ele>135.6</ele>
        <time>2018-08-25T17:25:56Z</time>
      </trkpt>
      <trkpt lat="44.51468" lon="0.60684">
        <ele>136</ele>
        <time>2018-08-25T17:25:57Z</time>
      </trkpt>
      <trkpt lat="44.51477" lon="0.60689">
        <ele>136.4</ele>
        <time>2018-08-25T17:25:58Z</time>
      </trkpt>
      <trkpt lat="44.51485" lon="0.60694">
        <ele>136.7</ele>
        <time>2018-08-25T17:25:59Z</time>
      </trkpt>
      <trkpt lat="44.51491" lon="0.60697">
        <ele>136.9</ele>
        <time>2018-08-25T17:26:00Z</time>
      </trkpt>
      <trkpt lat="44.51497" lon="0.607">
        <ele>137.1</ele>
        <time>2018-08-25T17:26:01Z</time>
      </trkpt>
      <trkpt lat="44.51507" lon="0.60706">
        <ele>137.5</ele>
        <time>2018-08-25T17:26:02Z</time>
      </trkpt>
      <trkpt lat="44.51518" lon="0.6071">
        <ele>137.8</ele>
        <time>2018-08-25T17:26:03Z</time>
      </trkpt>
      <trkpt lat="44.51531" lon="0.60716">
        <ele>138.1</ele>
        <time>2018-08-25T17:26:04Z</time>
      </trkpt>
      <trkpt lat="44.51543" lon="0.60722">
        <ele>138.4</ele>
        <time>2018-08-25T17:26:05Z</time>
      </trkpt>
      <trkpt lat="44.51557" lon="0.60727">
        <ele>138.8</ele>
        <time>2018-08-25T17:26:06Z</time>
      </trkpt>
      <trkpt lat="44.51572" lon="0.60733">
        <ele>139.3</ele>
        <time>2018-08-25T17:26:07Z</time>
      </trkpt>
      <trkpt lat="44.51587" lon="0.60739">
        <ele>140</ele>
        <time>2018-08-25T17:26:08Z</time>
      </trkpt>
      <trkpt lat="44.51603" lon="0.60745">
        <ele>140.6</ele>
        <time>2018-08-25T17:26:09Z</time>
      </trkpt>
      <trkpt lat="44.51618" lon="0.60752">
        <ele>141.1</ele>
        <time>2018-08-25T17:26:10Z</time>
      </trkpt>
      <trkpt lat="44.51632" lon="0.60759">
        <ele>141.6</ele>
        <time>2018-08-25T17:26:11Z</time>
      </trkpt>
      <trkpt lat="44.51647" lon="0.60765">
        <ele>141.8</ele>
        <time>2018-08-25T17:26:12Z</time>
      </trkpt>
      <trkpt lat="44.51658" lon="0.60769">
        <ele>141.9</ele>
        <time>2018-08-25T17:26:13Z</time>
      </trkpt>
      <trkpt lat="44.51662" lon="0.60772">
        <ele>141.9</ele>
        <time>2018-08-25T17:26:14Z</time>
      </trkpt>
      <trkpt lat="44.51672" lon="0.60774">
        <ele>142</ele>
        <time>2018-08-25T17:26:15Z</time>
      </trkpt>
      <trkpt lat="44.51679" lon="0.60777">
        <ele>142</ele>
        <time>2018-08-25T17:26:16Z</time>
      </trkpt>
      <trkpt lat="44.51685" lon="0.60779">
        <ele>142</ele>
        <time>2018-08-25T17:26:17Z</time>
      </trkpt>
      <trkpt lat="44.5169" lon="0.60781">
        <ele>142</ele>
        <time>2018-08-25T17:26:18Z</time>
      </trkpt>
      <trkpt lat="44.51696" lon="0.60781">
        <ele>142</ele>
        <time>2018-08-25T17:26:20Z</time>
      </trkpt>
      <trkpt lat="44.517" lon="0.60781">
        <ele>142</ele>
        <time>2018-08-25T17:26:46Z</time>
      </trkpt>
      <trkpt lat="44.51703" lon="0.60782">
        <ele>142</ele>
        <time>2018-08-25T17:26:47Z</time>
      </trkpt>
      <trkpt lat="44.51709" lon="0.60787">
        <ele>142</ele>
        <time>2018-08-25T17:26:48Z</time>
      </trkpt>
      <trkpt lat="44.51718" lon="0.60794">
        <ele>142.2</ele>
        <time>2018-08-25T17:26:49Z</time>
      </trkpt>
      <trkpt lat="44.51725" lon="0.60805">
        <ele>142.4</ele>
        <time>2018-08-25T17:26:50Z</time>
      </trkpt>
      <trkpt lat="44.51734" lon="0.60818">
        <ele>142.6</ele>
        <time>2018-08-25T17:26:51Z</time>
      </trkpt>
      <trkpt lat="44.51743" lon="0.60831">
        <ele>142.7</ele>
        <time>2018-08-25T17:26:52Z</time>
      </trkpt>
      <trkpt lat="44.51752" lon="0.60845">
        <ele>142.8</ele>
        <time>2018-08-25T17:26:53Z</time>
      </trkpt>
      <trkpt lat="44.51761" lon="0.60858">
        <ele>142.7</ele>
        <time>2018-08-25T17:26:54Z</time>
      </trkpt>
      <trkpt lat="44.51768" lon="0.60868">
        <ele>142.7</ele>
        <time>2018-08-25T17:26:55Z</time>
      </trkpt>
      <trkpt lat="44.51773" lon="0.60876">
        <ele>142.6</ele>
        <time>2018-08-25T17:26:56Z</time>
      </trkpt>
      <trkpt lat="44.51776" lon="0.60883">
        <ele>142.6</ele>
        <time>2018-08-25T17:26:57Z</time>
      </trkpt>
      <trkpt lat="44.51778" lon="0.6089">
        <ele>142.5</ele>
        <time>2018-08-25T17:26:58Z</time>
      </trkpt>
      <trkpt lat="44.51783" lon="0.60899">
        <ele>142.4</ele>
        <time>2018-08-25T17:26:59Z</time>
      </trkpt>
      <trkpt lat="44.5179" lon="0.60909">
        <ele>142.3</ele>
        <time>2018-08-25T17:27:00Z</time>
      </trkpt>
      <trkpt lat="44.51798" lon="0.60918">
        <ele>142.1</ele>
        <time>2018-08-25T17:27:01Z</time>
      </trkpt>
      <trkpt lat="44.51808" lon="0.60927">
        <ele>142</ele>
        <time>2018-08-25T17:27:02Z</time>
      </trkpt>
      <trkpt lat="44.51822" lon="0.60938">
        <ele>141.8</ele>
        <time>2018-08-25T17:27:03Z</time>
      </trkpt>
      <trkpt lat="44.51836" lon="0.60949">
        <ele>141.8</ele>
        <time>2018-08-25T17:27:04Z</time>
      </trkpt>
      <trkpt lat="44.5185" lon="0.60959">
        <ele>141.9</ele>
        <time>2018-08-25T17:27:05Z</time>
      </trkpt>
      <trkpt lat="44.51863" lon="0.60967">
        <ele>142.1</ele>
        <time>2018-08-25T17:27:06Z</time>
      </trkpt>
      <trkpt lat="44.51875" lon="0.60975">
        <ele>142.4</ele>
        <time>2018-08-25T17:27:07Z</time>
      </trkpt>
      <trkpt lat="44.51886" lon="0.60982">
        <ele>142.7</ele>
        <time>2018-08-25T17:27:08Z</time>
      </trkpt>
      <trkpt lat="44.51894" lon="0.60987">
        <ele>143</ele>
        <time>2018-08-25T17:27:09Z</time>
      </trkpt>
      <trkpt lat="44.51901" lon="0.60991">
        <ele>143.2</ele>
        <time>2018-08-25T17:27:10Z</time>
      </trkpt>
      <trkpt lat="44.51905" lon="0.60995">
        <ele>143.4</ele>
        <time>2018-08-25T17:27:11Z</time>
      </trkpt>
      <trkpt lat="44.51908" lon="0.61">
        <ele>143.5</ele>
        <time>2018-08-25T17:27:12Z</time>
      </trkpt>
      <trkpt lat="44.51904" lon="0.61011">
        <ele>144.1</ele>
        <time>2018-08-25T17:27:13Z</time>
      </trkpt>
      <trkpt lat="44.51902" lon="0.61023">
        <ele>144.7</ele>
        <time>2018-08-25T17:27:14Z</time>
      </trkpt>
      <trkpt lat="44.519" lon="0.61037">
        <ele>145.1</ele>
        <time>2018-08-25T17:27:15Z</time>
      </trkpt>
      <trkpt lat="44.51902" lon="0.6105">
        <ele>145.3</ele>
        <time>2018-08-25T17:27:16Z</time>
      </trkpt>
      <trkpt lat="44.51906" lon="0.61063">
        <ele>145.5</ele>
        <time>2018-08-25T17:27:17Z</time>
      </trkpt>
      <trkpt lat="44.51911" lon="0.61075">
        <ele>145.5</ele>
        <time>2018-08-25T17:27:18Z</time>
      </trkpt>
      <trkpt lat="44.51916" lon="0.61088">
        <ele>145.5</ele>
        <time>2018-08-25T17:27:19Z</time>
      </trkpt>
      <trkpt lat="44.51921" lon="0.61098">
        <ele>145.6</ele>
        <time>2018-08-25T17:27:20Z</time>
      </trkpt>
      <trkpt lat="44.51926" lon="0.61106">
        <ele>145.6</ele>
        <time>2018-08-25T17:27:21Z</time>
      </trkpt>
      <trkpt lat="44.51931" lon="0.61113">
        <ele>145.9</ele>
        <time>2018-08-25T17:27:22Z</time>
      </trkpt>
      <trkpt lat="44.51936" lon="0.61118">
        <ele>146</ele>
        <time>2018-08-25T17:27:23Z</time>
      </trkpt>
      <trkpt lat="44.51941" lon="0.61122">
        <ele>145.9</ele>
        <time>2018-08-25T17:27:24Z</time>
      </trkpt>
      <trkpt lat="44.51945" lon="0.61127">
        <ele>146</ele>
        <time>2018-08-25T17:27:25Z</time>
      </trkpt>
      <trkpt lat="44.51948" lon="0.61133">
        <ele>146.1</ele>
        <time>2018-08-25T17:27:26Z</time>
      </trkpt>
      <trkpt lat="44.51949" lon="0.61138">
        <ele>146.5</ele>
        <time>2018-08-25T17:27:27Z</time>
      </trkpt>
      <trkpt lat="44.51951" lon="0.61145">
        <ele>146.7</ele>
        <time>2018-08-25T17:27:28Z</time>
      </trkpt>
      <trkpt lat="44.5195" lon="0.61151">
        <ele>147.2</ele>
        <time>2018-08-25T17:27:29Z</time>
      </trkpt>
      <trkpt lat="44.51951" lon="0.61157">
        <ele>147.4</ele>
        <time>2018-08-25T17:27:30Z</time>
      </trkpt>
      <trkpt lat="44.51951" lon="0.61161">
        <ele>147.7</ele>
        <time>2018-08-25T17:27:31Z</time>
      </trkpt>
      <trkpt lat="44.51953" lon="0.61165">
        <ele>147.9</ele>
        <time>2018-08-25T17:27:51Z</time>
      </trkpt>
      <trkpt lat="44.51952" lon="0.61166">
        <ele>147.9</ele>
        <time>2018-08-25T17:27:54Z</time>
      </trkpt>
      <trkpt lat="44.51952" lon="0.61167">
        <ele>147.9</ele>
        <time>2018-08-25T17:29:40Z</time>
      </trkpt>
      <trkpt lat="44.51951" lon="0.61168">
        <ele>148.2</ele>
        <time>2018-08-25T17:29:43Z</time>
      </trkpt>
      <trkpt lat="44.51951" lon="0.61168">
        <ele>148.1</ele>
        <time>2018-08-25T17:29:47Z</time>
      </trkpt>
      <trkpt lat="44.5195" lon="0.61169">
        <ele>148.1</ele>
        <time>2018-08-25T17:30:05Z</time>
      </trkpt>
      <trkpt lat="44.5195" lon="0.6117">
        <ele>148.1</ele>
        <time>2018-08-25T17:30:06Z</time>
      </trkpt>
      <trkpt lat="44.51948" lon="0.61179">
        <ele>148.6</ele>
        <time>2018-08-25T17:30:07Z</time>
      </trkpt>
      <trkpt lat="44.51946" lon="0.61189">
        <ele>149.4</ele>
        <time>2018-08-25T17:30:08Z</time>
      </trkpt>
      <trkpt lat="44.51943" lon="0.612">
        <ele>149.8</ele>
        <time>2018-08-25T17:30:09Z</time>
      </trkpt>
      <trkpt lat="44.51941" lon="0.61212">
        <ele>150.6</ele>
        <time>2018-08-25T17:30:10Z</time>
      </trkpt>
      <trkpt lat="44.51939" lon="0.61224">
        <ele>151.3</ele>
        <time>2018-08-25T17:30:11Z</time>
      </trkpt>
      <trkpt lat="44.51938" lon="0.61242">
        <ele>152.3</ele>
        <time>2018-08-25T17:30:12Z</time>
      </trkpt>
      <trkpt lat="44.51936" lon="0.61253">
        <ele>152.9</ele>
        <time>2018-08-25T17:30:13Z</time>
      </trkpt>
      <trkpt lat="44.51934" lon="0.61263">
        <ele>153.8</ele>
        <time>2018-08-25T17:30:14Z</time>
      </trkpt>
      <trkpt lat="44.51933" lon="0.61272">
        <ele>154.3</ele>
        <time>2018-08-25T17:30:15Z</time>
      </trkpt>
      <trkpt lat="44.51931" lon="0.61281">
        <ele>154.8</ele>
        <time>2018-08-25T17:30:16Z</time>
      </trkpt>
      <trkpt lat="44.51931" lon="0.61288">
        <ele>155.3</ele>
        <time>2018-08-25T17:30:17Z</time>
      </trkpt>
      <trkpt lat="44.51929" lon="0.61296">
        <ele>155.8</ele>
        <time>2018-08-25T17:30:18Z</time>
      </trkpt>
      <trkpt lat="44.51927" lon="0.61306">
        <ele>156.2</ele>
        <time>2018-08-25T17:30:19Z</time>
      </trkpt>
      <trkpt lat="44.51923" lon="0.61317">
        <ele>156.6</ele>
        <time>2018-08-25T17:30:20Z</time>
      </trkpt>
      <trkpt lat="44.51918" lon="0.61328">
        <ele>157.4</ele>
        <time>2018-08-25T17:30:21Z</time>
      </trkpt>
      <trkpt lat="44.51915" lon="0.61339">
        <ele>158.2</ele>
        <time>2018-08-25T17:30:22Z</time>
      </trkpt>
      <trkpt lat="44.51911" lon="0.6135">
        <ele>159.5</ele>
        <time>2018-08-25T17:30:23Z</time>
      </trkpt>
      <trkpt lat="44.51906" lon="0.61361">
        <ele>161</ele>
        <time>2018-08-25T17:30:24Z</time>
      </trkpt>
      <trkpt lat="44.51902" lon="0.61371">
        <ele>162.2</ele>
        <time>2018-08-25T17:30:25Z</time>
      </trkpt>
      <trkpt lat="44.51899" lon="0.61378">
        <ele>163.5</ele>
        <time>2018-08-25T17:30:26Z</time>
      </trkpt>
      <trkpt lat="44.51896" lon="0.61386">
        <ele>164.4</ele>
        <time>2018-08-25T17:30:27Z</time>
      </trkpt>
      <trkpt lat="44.51894" lon="0.61394">
        <ele>165.9</ele>
        <time>2018-08-25T17:30:28Z</time>
      </trkpt>
      <trkpt lat="44.51891" lon="0.61401">
        <ele>166.8</ele>
        <time>2018-08-25T17:30:29Z</time>
      </trkpt>
      <trkpt lat="44.51888" lon="0.61406">
        <ele>167.7</ele>
        <time>2018-08-25T17:30:30Z</time>
      </trkpt>
      <trkpt lat="44.51884" lon="0.61409">
        <ele>169.1</ele>
        <time>2018-08-25T17:30:31Z</time>
      </trkpt>
      <trkpt lat="44.5188" lon="0.61408">
        <ele>169.6</ele>
        <time>2018-08-25T17:30:32Z</time>
      </trkpt>
      <trkpt lat="44.51874" lon="0.61412">
        <ele>170.5</ele>
        <time>2018-08-25T17:30:33Z</time>
      </trkpt>
      <trkpt lat="44.5187" lon="0.61417">
        <ele>171.9</ele>
        <time>2018-08-25T17:30:34Z</time>
      </trkpt>
      <trkpt lat="44.51869" lon="0.6143">
        <ele>174</ele>
        <time>2018-08-25T17:30:35Z</time>
      </trkpt>
      <trkpt lat="44.51865" lon="0.6144">
        <ele>175.6</ele>
        <time>2018-08-25T17:30:36Z</time>
      </trkpt>
      <trkpt lat="44.51862" lon="0.61447">
        <ele>177.2</ele>
        <time>2018-08-25T17:30:37Z</time>
      </trkpt>
      <trkpt lat="44.51861" lon="0.61451">
        <ele>177.7</ele>
        <time>2018-08-25T17:30:38Z</time>
      </trkpt>
      <trkpt lat="44.51858" lon="0.61458">
        <ele>178.8</ele>
        <time>2018-08-25T17:30:39Z</time>
      </trkpt>
      <trkpt lat="44.51855" lon="0.61468">
        <ele>181</ele>
        <time>2018-08-25T17:30:40Z</time>
      </trkpt>
      <trkpt lat="44.51851" lon="0.61483">
        <ele>183.9</ele>
        <time>2018-08-25T17:30:41Z</time>
      </trkpt>
      <trkpt lat="44.5185" lon="0.61495">
        <ele>185.1</ele>
        <time>2018-08-25T17:30:42Z</time>
      </trkpt>
      <trkpt lat="44.51845" lon="0.61508">
        <ele>187.5</ele>
        <time>2018-08-25T17:30:43Z</time>
      </trkpt>
      <trkpt lat="44.51843" lon="0.61519">
        <ele>188.1</ele>
        <time>2018-08-25T17:30:44Z</time>
      </trkpt>
      <trkpt lat="44.51842" lon="0.61528">
        <ele>188.9</ele>
        <time>2018-08-25T17:30:45Z</time>
      </trkpt>
      <trkpt lat="44.5184" lon="0.61537">
        <ele>189.9</ele>
        <time>2018-08-25T17:30:46Z</time>
      </trkpt>
      <trkpt lat="44.51839" lon="0.61547">
        <ele>190.8</ele>
        <time>2018-08-25T17:30:47Z</time>
      </trkpt>
      <trkpt lat="44.51838" lon="0.61554">
        <ele>190.8</ele>
        <time>2018-08-25T17:30:48Z</time>
      </trkpt>
      <trkpt lat="44.51836" lon="0.61562">
        <ele>190.8</ele>
        <time>2018-08-25T17:30:49Z</time>
      </trkpt>
      <trkpt lat="44.51835" lon="0.61573">
        <ele>191.5</ele>
        <time>2018-08-25T17:30:50Z</time>
      </trkpt>
      <trkpt lat="44.51831" lon="0.61586">
        <ele>192.1</ele>
        <time>2018-08-25T17:30:51Z</time>
      </trkpt>
      <trkpt lat="44.5183" lon="0.61595">
        <ele>192</ele>
        <time>2018-08-25T17:30:52Z</time>
      </trkpt>
      <trkpt lat="44.51823" lon="0.61612">
        <ele>194.3</ele>
        <time>2018-08-25T17:30:53Z</time>
      </trkpt>
      <trkpt lat="44.5182" lon="0.61624">
        <ele>195.2</ele>
        <time>2018-08-25T17:30:54Z</time>
      </trkpt>
      <trkpt lat="44.51817" lon="0.61627">
        <ele>195.9</ele>
        <time>2018-08-25T17:30:55Z</time>
      </trkpt>
      <trkpt lat="44.51818" lon="0.61633">
        <ele>195.4</ele>
        <time>2018-08-25T17:30:56Z</time>
      </trkpt>
      <trkpt lat="44.51818" lon="0.61642">
        <ele>195.6</ele>
        <time>2018-08-25T17:30:57Z</time>
      </trkpt>
      <trkpt lat="44.51823" lon="0.61653">
        <ele>195.3</ele>
        <time>2018-08-25T17:30:58Z</time>
      </trkpt>
      <trkpt lat="44.51824" lon="0.61663">
        <ele>194.7</ele>
        <time>2018-08-25T17:30:59Z</time>
      </trkpt>
      <trkpt lat="44.51826" lon="0.61673">
        <ele>194.9</ele>
        <time>2018-08-25T17:31:00Z</time>
      </trkpt>
      <trkpt lat="44.51826" lon="0.61684">
        <ele>195.5</ele>
        <time>2018-08-25T17:31:01Z</time>
      </trkpt>
      <trkpt lat="44.51822" lon="0.61692">
        <ele>196.7</ele>
        <time>2018-08-25T17:31:02Z</time>
      </trkpt>
      <trkpt lat="44.51822" lon="0.61699">
        <ele>197.1</ele>
        <time>2018-08-25T17:31:03Z</time>
      </trkpt>
      <trkpt lat="44.51826" lon="0.61706">
        <ele>197.1</ele>
        <time>2018-08-25T17:31:04Z</time>
      </trkpt>
      <trkpt lat="44.51825" lon="0.61717">
        <ele>198.4</ele>
        <time>2018-08-25T17:31:05Z</time>
      </trkpt>
      <trkpt lat="44.51826" lon="0.61725">
        <ele>199.3</ele>
        <time>2018-08-25T17:31:06Z</time>
      </trkpt>
      <trkpt lat="44.51824" lon="0.61732">
        <ele>199.7</ele>
        <time>2018-08-25T17:31:07Z</time>
      </trkpt>
      <trkpt lat="44.51822" lon="0.61737">
        <ele>200.7</ele>
        <time>2018-08-25T17:31:08Z</time>
      </trkpt>
      <trkpt lat="44.5182" lon="0.61744">
        <ele>202.1</ele>
        <time>2018-08-25T17:31:09Z</time>
      </trkpt>
      <trkpt lat="44.5182" lon="0.61748">
        <ele>202.5</ele>
        <time>2018-08-25T17:31:10Z</time>
      </trkpt>
      <trkpt lat="44.51817" lon="0.61756">
        <ele>203.8</ele>
        <time>2018-08-25T17:31:12Z</time>
      </trkpt>
      <trkpt lat="44.51816" lon="0.6176">
        <ele>203.8</ele>
        <time>2018-08-25T17:31:13Z</time>
      </trkpt>
      <trkpt lat="44.51816" lon="0.61769">
        <ele>203.9</ele>
        <time>2018-08-25T17:31:15Z</time>
      </trkpt>
      <trkpt lat="44.51817" lon="0.61774">
        <ele>203.9</ele>
        <time>2018-08-25T17:31:17Z</time>
      </trkpt>
      <trkpt lat="44.51818" lon="0.61778">
        <ele>203.9</ele>
        <time>2018-08-25T17:31:19Z</time>
      </trkpt>
      <trkpt lat="44.51818" lon="0.61783">
        <ele>204</ele>
        <time>2018-08-25T17:31:20Z</time>
      </trkpt>
      <trkpt lat="44.51817" lon="0.61787">
        <ele>204</ele>
        <time>2018-08-25T17:31:21Z</time>
      </trkpt>
      <trkpt lat="44.51817" lon="0.61795">
        <ele>204.1</ele>
        <time>2018-08-25T17:31:23Z</time>
      </trkpt>
      <trkpt lat="44.51824" lon="0.61807">
        <ele>204.2</ele>
        <time>2018-08-25T17:31:24Z</time>
      </trkpt>
      <trkpt lat="44.51825" lon="0.61814">
        <ele>204.2</ele>
        <time>2018-08-25T17:31:25Z</time>
      </trkpt>
      <trkpt lat="44.51828" lon="0.61819">
        <ele>204.2</ele>
        <time>2018-08-25T17:31:26Z</time>
      </trkpt>
      <trkpt lat="44.51831" lon="0.61822">
        <ele>204.3</ele>
        <time>2018-08-25T17:31:27Z</time>
      </trkpt>
      <trkpt lat="44.51833" lon="0.61826">
        <ele>204.3</ele>
        <time>2018-08-25T17:31:28Z</time>
      </trkpt>
      <trkpt lat="44.51835" lon="0.61832">
        <ele>204.3</ele>
        <time>2018-08-25T17:31:30Z</time>
      </trkpt>
      <trkpt lat="44.51837" lon="0.61835">
        <ele>204.3</ele>
        <time>2018-08-25T17:31:34Z</time>
      </trkpt>
      <trkpt lat="44.51838" lon="0.61838">
        <ele>204.4</ele>
        <time>2018-08-25T17:31:36Z</time>
      </trkpt>
      <trkpt lat="44.51839" lon="0.61845">
        <ele>204.4</ele>
        <time>2018-08-25T17:31:53Z</time>
      </trkpt>
      <trkpt lat="44.51841" lon="0.61848">
        <ele>204.4</ele>
        <time>2018-08-25T17:31:55Z</time>
      </trkpt>
      <trkpt lat="44.51844" lon="0.61852">
        <ele>204.5</ele>
        <time>2018-08-25T17:31:57Z</time>
      </trkpt>
      <trkpt lat="44.51847" lon="0.61853">
        <ele>204.5</ele>
        <time>2018-08-25T17:32:00Z</time>
      </trkpt>
      <trkpt lat="44.5185" lon="0.61853">
        <ele>204.5</ele>
        <time>2018-08-25T17:32:02Z</time>
      </trkpt>
      <trkpt lat="44.51854" lon="0.61853">
        <ele>204.5</ele>
        <time>2018-08-25T17:32:04Z</time>
      </trkpt>
      <trkpt lat="44.51858" lon="0.61853">
        <ele>204.5</ele>
        <time>2018-08-25T17:32:09Z</time>
      </trkpt>
      <trkpt lat="44.51859" lon="0.61859">
        <ele>204.5</ele>
        <time>2018-08-25T17:32:23Z</time>
      </trkpt>
      <trkpt lat="44.51862" lon="0.61863">
        <ele>204.6</ele>
        <time>2018-08-25T17:32:26Z</time>
      </trkpt>
      <trkpt lat="44.51864" lon="0.61865">
        <ele>204.6</ele>
        <time>2018-08-25T17:32:28Z</time>
      </trkpt>
      <trkpt lat="44.51867" lon="0.61869">
        <ele>204.6</ele>
        <time>2018-08-25T17:32:30Z</time>
      </trkpt>
      <trkpt lat="44.5187" lon="0.61871">
        <ele>204.6</ele>
        <time>2018-08-25T17:32:31Z</time>
      </trkpt>
      <trkpt lat="44.51872" lon="0.61874">
        <ele>204.6</ele>
        <time>2018-08-25T17:32:32Z</time>
      </trkpt>
      <trkpt lat="44.51875" lon="0.61876">
        <ele>204.6</ele>
        <time>2018-08-25T17:32:33Z</time>
      </trkpt>
      <trkpt lat="44.51878" lon="0.61878">
        <ele>204.7</ele>
        <time>2018-08-25T17:32:34Z</time>
      </trkpt>
      <trkpt lat="44.51882" lon="0.6188">
        <ele>204.7</ele>
        <time>2018-08-25T17:32:35Z</time>
      </trkpt>
      <trkpt lat="44.51885" lon="0.61882">
        <ele>204.2</ele>
        <time>2018-08-25T17:32:36Z</time>
      </trkpt>
      <trkpt lat="44.51889" lon="0.61883">
        <ele>204</ele>
        <time>2018-08-25T17:32:37Z</time>
      </trkpt>
      <trkpt lat="44.51894" lon="0.61884">
        <ele>204.4</ele>
        <time>2018-08-25T17:32:38Z</time>
      </trkpt>
      <trkpt lat="44.51899" lon="0.61887">
        <ele>204</ele>
        <time>2018-08-25T17:32:39Z</time>
      </trkpt>
      <trkpt lat="44.51903" lon="0.61891">
        <ele>204.4</ele>
        <time>2018-08-25T17:32:40Z</time>
      </trkpt>
      <trkpt lat="44.51906" lon="0.61894">
        <ele>204.7</ele>
        <time>2018-08-25T17:32:41Z</time>
      </trkpt>
      <trkpt lat="44.51909" lon="0.61896">
        <ele>204.5</ele>
        <time>2018-08-25T17:32:42Z</time>
      </trkpt>
      <trkpt lat="44.51911" lon="0.61899">
        <ele>204.8</ele>
        <time>2018-08-25T17:32:43Z</time>
      </trkpt>
      <trkpt lat="44.51914" lon="0.61903">
        <ele>205.1</ele>
        <time>2018-08-25T17:32:44Z</time>
      </trkpt>
      <trkpt lat="44.51917" lon="0.61907">
        <ele>205.3</ele>
        <time>2018-08-25T17:32:45Z</time>
      </trkpt>
      <trkpt lat="44.5192" lon="0.61909">
        <ele>205.1</ele>
        <time>2018-08-25T17:32:46Z</time>
      </trkpt>
      <trkpt lat="44.51923" lon="0.6191">
        <ele>205.3</ele>
        <time>2018-08-25T17:32:47Z</time>
      </trkpt>
      <trkpt lat="44.51926" lon="0.6191">
        <ele>205.2</ele>
        <time>2018-08-25T17:32:48Z</time>
      </trkpt>
      <trkpt lat="44.51929" lon="0.6191">
        <ele>205</ele>
        <time>2018-08-25T17:32:49Z</time>
      </trkpt>
      <trkpt lat="44.51932" lon="0.61909">
        <ele>204.5</ele>
        <time>2018-08-25T17:32:50Z</time>
      </trkpt>
      <trkpt lat="44.51936" lon="0.61909">
        <ele>204.4</ele>
        <time>2018-08-25T17:32:51Z</time>
      </trkpt>
      <trkpt lat="44.51942" lon="0.61909">
        <ele>204</ele>
        <time>2018-08-25T17:32:52Z</time>
      </trkpt>
      <trkpt lat="44.51946" lon="0.6191">
        <ele>204.1</ele>
        <time>2018-08-25T17:32:53Z</time>
      </trkpt>
      <trkpt lat="44.51951" lon="0.61912">
        <ele>203.9</ele>
        <time>2018-08-25T17:32:54Z</time>
      </trkpt>
      <trkpt lat="44.51954" lon="0.61914">
        <ele>203.8</ele>
        <time>2018-08-25T17:32:55Z</time>
      </trkpt>
      <trkpt lat="44.51958" lon="0.61915">
        <ele>203.9</ele>
        <time>2018-08-25T17:32:56Z</time>
      </trkpt>
      <trkpt lat="44.51961" lon="0.61917">
        <ele>203.8</ele>
        <time>2018-08-25T17:32:57Z</time>
      </trkpt>
      <trkpt lat="44.51972" lon="0.61918">
        <ele>203.4</ele>
        <time>2018-08-25T17:32:58Z</time>
      </trkpt>
      <trkpt lat="44.51979" lon="0.61917">
        <ele>203.3</ele>
        <time>2018-08-25T17:32:59Z</time>
      </trkpt>
      <trkpt lat="44.51987" lon="0.61916">
        <ele>203.1</ele>
        <time>2018-08-25T17:33:00Z</time>
      </trkpt>
      <trkpt lat="44.51989" lon="0.61914">
        <ele>202.8</ele>
        <time>2018-08-25T17:33:01Z</time>
      </trkpt>
      <trkpt lat="44.51992" lon="0.61911">
        <ele>202.9</ele>
        <time>2018-08-25T17:33:02Z</time>
      </trkpt>
      <trkpt lat="44.5199" lon="0.61907">
        <ele>202.6</ele>
        <time>2018-08-25T17:33:03Z</time>
      </trkpt>
      <trkpt lat="44.51992" lon="0.61904">
        <ele>202.4</ele>
        <time>2018-08-25T17:33:04Z</time>
      </trkpt>
      <trkpt lat="44.51996" lon="0.61898">
        <ele>202.2</ele>
        <time>2018-08-25T17:33:05Z</time>
      </trkpt>
      <trkpt lat="44.51999" lon="0.61892">
        <ele>201.8</ele>
        <time>2018-08-25T17:33:06Z</time>
      </trkpt>
      <trkpt lat="44.52002" lon="0.61887">
        <ele>201.7</ele>
        <time>2018-08-25T17:33:07Z</time>
      </trkpt>
      <trkpt lat="44.52004" lon="0.6188">
        <ele>201.6</ele>
        <time>2018-08-25T17:33:08Z</time>
      </trkpt>
      <trkpt lat="44.52006" lon="0.61876">
        <ele>201.3</ele>
        <time>2018-08-25T17:33:09Z</time>
      </trkpt>
      <trkpt lat="44.52013" lon="0.61874">
        <ele>201.4</ele>
        <time>2018-08-25T17:33:10Z</time>
      </trkpt>
      <trkpt lat="44.52016" lon="0.61871">
        <ele>201.3</ele>
        <time>2018-08-25T17:33:11Z</time>
      </trkpt>
      <trkpt lat="44.52019" lon="0.61866">
        <ele>201.2</ele>
        <time>2018-08-25T17:33:13Z</time>
      </trkpt>
      <trkpt lat="44.52018" lon="0.6186">
        <ele>200.8</ele>
        <time>2018-08-25T17:33:15Z</time>
      </trkpt>
      <trkpt lat="44.52015" lon="0.61856">
        <ele>200.2</ele>
        <time>2018-08-25T17:33:17Z</time>
      </trkpt>
      <trkpt lat="44.52015" lon="0.6185">
        <ele>199.9</ele>
        <time>2018-08-25T17:33:19Z</time>
      </trkpt>
      <trkpt lat="44.52016" lon="0.61845">
        <ele>199</ele>
        <time>2018-08-25T17:33:20Z</time>
      </trkpt>
      <trkpt lat="44.52019" lon="0.61836">
        <ele>198.6</ele>
        <time>2018-08-25T17:33:21Z</time>
      </trkpt>
      <trkpt lat="44.52022" lon="0.6183">
        <ele>198.1</ele>
        <time>2018-08-25T17:33:22Z</time>
      </trkpt>
      <trkpt lat="44.52023" lon="0.61824">
        <ele>198</ele>
        <time>2018-08-25T17:33:23Z</time>
      </trkpt>
      <trkpt lat="44.52026" lon="0.61819">
        <ele>197.3</ele>
        <time>2018-08-25T17:33:24Z</time>
      </trkpt>
      <trkpt lat="44.52027" lon="0.61811">
        <ele>196.8</ele>
        <time>2018-08-25T17:33:25Z</time>
      </trkpt>
      <trkpt lat="44.5203" lon="0.61806">
        <ele>196.2</ele>
        <time>2018-08-25T17:33:26Z</time>
      </trkpt>
      <trkpt lat="44.52032" lon="0.618">
        <ele>196.1</ele>
        <time>2018-08-25T17:33:27Z</time>
      </trkpt>
      <trkpt lat="44.52035" lon="0.61795">
        <ele>195.9</ele>
        <time>2018-08-25T17:33:28Z</time>
      </trkpt>
      <trkpt lat="44.52039" lon="0.6179">
        <ele>195.8</ele>
        <time>2018-08-25T17:33:29Z</time>
      </trkpt>
      <trkpt lat="44.52044" lon="0.61783">
        <ele>194.9</ele>
        <time>2018-08-25T17:33:30Z</time>
      </trkpt>
      <trkpt lat="44.52047" lon="0.61776">
        <ele>194.6</ele>
        <time>2018-08-25T17:33:31Z</time>
      </trkpt>
      <trkpt lat="44.52052" lon="0.61768">
        <ele>193.8</ele>
        <time>2018-08-25T17:33:32Z</time>
      </trkpt>
      <trkpt lat="44.52054" lon="0.61759">
        <ele>193</ele>
        <time>2018-08-25T17:33:33Z</time>
      </trkpt>
      <trkpt lat="44.52056" lon="0.61755">
        <ele>193</ele>
        <time>2018-08-25T17:33:34Z</time>
      </trkpt>
      <trkpt lat="44.5206" lon="0.6175">
        <ele>192.7</ele>
        <time>2018-08-25T17:33:35Z</time>
      </trkpt>
      <trkpt lat="44.52064" lon="0.61745">
        <ele>192.4</ele>
        <time>2018-08-25T17:33:36Z</time>
      </trkpt>
      <trkpt lat="44.5207" lon="0.61739">
        <ele>192.6</ele>
        <time>2018-08-25T17:33:37Z</time>
      </trkpt>
      <trkpt lat="44.52074" lon="0.61732">
        <ele>191.5</ele>
        <time>2018-08-25T17:33:38Z</time>
      </trkpt>
      <trkpt lat="44.52078" lon="0.61727">
        <ele>191.6</ele>
        <time>2018-08-25T17:33:39Z</time>
      </trkpt>
      <trkpt lat="44.52084" lon="0.61721">
        <ele>191.4</ele>
        <time>2018-08-25T17:33:40Z</time>
      </trkpt>
      <trkpt lat="44.52087" lon="0.61717">
        <ele>191.1</ele>
        <time>2018-08-25T17:33:41Z</time>
      </trkpt>
      <trkpt lat="44.5209" lon="0.61715">
        <ele>190.9</ele>
        <time>2018-08-25T17:33:42Z</time>
      </trkpt>
      <trkpt lat="44.52092" lon="0.61711">
        <ele>190.7</ele>
        <time>2018-08-25T17:33:43Z</time>
      </trkpt>
      <trkpt lat="44.52096" lon="0.61709">
        <ele>191.1</ele>
        <time>2018-08-25T17:33:44Z</time>
      </trkpt>
      <trkpt lat="44.521" lon="0.61707">
        <ele>191.2</ele>
        <time>2018-08-25T17:33:45Z</time>
      </trkpt>
      <trkpt lat="44.52106" lon="0.61705">
        <ele>192</ele>
        <time>2018-08-25T17:33:46Z</time>
      </trkpt>
      <trkpt lat="44.5211" lon="0.61706">
        <ele>192.4</ele>
        <time>2018-08-25T17:33:47Z</time>
      </trkpt>
      <trkpt lat="44.52116" lon="0.61707">
        <ele>193.1</ele>
        <time>2018-08-25T17:33:48Z</time>
      </trkpt>
      <trkpt lat="44.5212" lon="0.61709">
        <ele>194.2</ele>
        <time>2018-08-25T17:33:49Z</time>
      </trkpt>
      <trkpt lat="44.52123" lon="0.61713">
        <ele>195.2</ele>
        <time>2018-08-25T17:33:50Z</time>
      </trkpt>
      <trkpt lat="44.52125" lon="0.61717">
        <ele>196.1</ele>
        <time>2018-08-25T17:33:51Z</time>
      </trkpt>
      <trkpt lat="44.52129" lon="0.61721">
        <ele>197.1</ele>
        <time>2018-08-25T17:33:52Z</time>
      </trkpt>
      <trkpt lat="44.52132" lon="0.61722">
        <ele>197.3</ele>
        <time>2018-08-25T17:33:55Z</time>
      </trkpt>
      <trkpt lat="44.52135" lon="0.61725">
        <ele>197.6</ele>
        <time>2018-08-25T17:34:03Z</time>
      </trkpt>
      <trkpt lat="44.52138" lon="0.61724">
        <ele>197.9</ele>
        <time>2018-08-25T17:34:05Z</time>
      </trkpt>
      <trkpt lat="44.52141" lon="0.61723">
        <ele>198.2</ele>
        <time>2018-08-25T17:34:08Z</time>
      </trkpt>
      <trkpt lat="44.52144" lon="0.61726">
        <ele>199</ele>
        <time>2018-08-25T17:34:10Z</time>
      </trkpt>
      <trkpt lat="44.52149" lon="0.61724">
        <ele>198.7</ele>
        <time>2018-08-25T17:34:12Z</time>
      </trkpt>
      <trkpt lat="44.52151" lon="0.6172">
        <ele>198.3</ele>
        <time>2018-08-25T17:34:13Z</time>
      </trkpt>
      <trkpt lat="44.52154" lon="0.61716">
        <ele>197.8</ele>
        <time>2018-08-25T17:34:14Z</time>
      </trkpt>
      <trkpt lat="44.52158" lon="0.61709">
        <ele>197.4</ele>
        <time>2018-08-25T17:34:15Z</time>
      </trkpt>
      <trkpt lat="44.52164" lon="0.61706">
        <ele>197</ele>
        <time>2018-08-25T17:34:16Z</time>
      </trkpt>
      <trkpt lat="44.52169" lon="0.61702">
        <ele>196.4</ele>
        <time>2018-08-25T17:34:17Z</time>
      </trkpt>
      <trkpt lat="44.52173" lon="0.61698">
        <ele>195.8</ele>
        <time>2018-08-25T17:34:18Z</time>
      </trkpt>
      <trkpt lat="44.52177" lon="0.61695">
        <ele>196</ele>
        <time>2018-08-25T17:34:19Z</time>
      </trkpt>
      <trkpt lat="44.5218" lon="0.61694">
        <ele>195.4</ele>
        <time>2018-08-25T17:34:20Z</time>
      </trkpt>
      <trkpt lat="44.52184" lon="0.61686">
        <ele>194.1</ele>
        <time>2018-08-25T17:34:21Z</time>
      </trkpt>
      <trkpt lat="44.52188" lon="0.61682">
        <ele>193.8</ele>
        <time>2018-08-25T17:34:22Z</time>
      </trkpt>
      <trkpt lat="44.52194" lon="0.61677">
        <ele>193.7</ele>
        <time>2018-08-25T17:34:23Z</time>
      </trkpt>
      <trkpt lat="44.52199" lon="0.61673">
        <ele>193.3</ele>
        <time>2018-08-25T17:34:24Z</time>
      </trkpt>
      <trkpt lat="44.52203" lon="0.61671">
        <ele>193.7</ele>
        <time>2018-08-25T17:34:25Z</time>
      </trkpt>
      <trkpt lat="44.52209" lon="0.61668">
        <ele>193.3</ele>
        <time>2018-08-25T17:34:26Z</time>
      </trkpt>
      <trkpt lat="44.52213" lon="0.61667">
        <ele>193.6</ele>
        <time>2018-08-25T17:34:27Z</time>
      </trkpt>
      <trkpt lat="44.52215" lon="0.61664">
        <ele>192.9</ele>
        <time>2018-08-25T17:34:28Z</time>
      </trkpt>
      <trkpt lat="44.52218" lon="0.61661">
        <ele>193.2</ele>
        <time>2018-08-25T17:34:29Z</time>
      </trkpt>
      <trkpt lat="44.52224" lon="0.61658">
        <ele>192.8</ele>
        <time>2018-08-25T17:34:30Z</time>
      </trkpt>
      <trkpt lat="44.52228" lon="0.61656">
        <ele>192.5</ele>
        <time>2018-08-25T17:34:31Z</time>
      </trkpt>
      <trkpt lat="44.52235" lon="0.61654">
        <ele>192.9</ele>
        <time>2018-08-25T17:34:32Z</time>
      </trkpt>
      <trkpt lat="44.52241" lon="0.61651">
        <ele>192.9</ele>
        <time>2018-08-25T17:34:33Z</time>
      </trkpt>
      <trkpt lat="44.52245" lon="0.61648">
        <ele>193.2</ele>
        <time>2018-08-25T17:34:34Z</time>
      </trkpt>
      <trkpt lat="44.5225" lon="0.61643">
        <ele>192.8</ele>
        <time>2018-08-25T17:34:35Z</time>
      </trkpt>
      <trkpt lat="44.52253" lon="0.6164">
        <ele>193.2</ele>
        <time>2018-08-25T17:34:36Z</time>
      </trkpt>
      <trkpt lat="44.52258" lon="0.61636">
        <ele>193.3</ele>
        <time>2018-08-25T17:34:37Z</time>
      </trkpt>
      <trkpt lat="44.52263" lon="0.61634">
        <ele>193.1</ele>
        <time>2018-08-25T17:34:38Z</time>
      </trkpt>
      <trkpt lat="44.52266" lon="0.61631">
        <ele>193.4</ele>
        <time>2018-08-25T17:34:39Z</time>
      </trkpt>
      <trkpt lat="44.52269" lon="0.61627">
        <ele>193.1</ele>
        <time>2018-08-25T17:34:40Z</time>
      </trkpt>
      <trkpt lat="44.52273" lon="0.61624">
        <ele>192.8</ele>
        <time>2018-08-25T17:34:41Z</time>
      </trkpt>
      <trkpt lat="44.52276" lon="0.61624">
        <ele>193</ele>
        <time>2018-08-25T17:34:42Z</time>
      </trkpt>
      <trkpt lat="44.52278" lon="0.61623">
        <ele>193.1</ele>
        <time>2018-08-25T17:34:43Z</time>
      </trkpt>
      <trkpt lat="44.52282" lon="0.61622">
        <ele>192.7</ele>
        <time>2018-08-25T17:34:44Z</time>
      </trkpt>
      <trkpt lat="44.52285" lon="0.61621">
        <ele>192.8</ele>
        <time>2018-08-25T17:34:45Z</time>
      </trkpt>
      <trkpt lat="44.5229" lon="0.61614">
        <ele>192.4</ele>
        <time>2018-08-25T17:34:46Z</time>
      </trkpt>
      <trkpt lat="44.52291" lon="0.6161">
        <ele>191.8</ele>
        <time>2018-08-25T17:34:47Z</time>
      </trkpt>
      <trkpt lat="44.52295" lon="0.61604">
        <ele>190.6</ele>
        <time>2018-08-25T17:34:49Z</time>
      </trkpt>
      <trkpt lat="44.52296" lon="0.616">
        <ele>190.2</ele>
        <time>2018-08-25T17:34:50Z</time>
      </trkpt>
      <trkpt lat="44.52297" lon="0.61594">
        <ele>189.6</ele>
        <time>2018-08-25T17:34:52Z</time>
      </trkpt>
      <trkpt lat="44.52298" lon="0.6159">
        <ele>189.3</ele>
        <time>2018-08-25T17:34:54Z</time>
      </trkpt>
      <trkpt lat="44.523" lon="0.61586">
        <ele>188.8</ele>
        <time>2018-08-25T17:34:55Z</time>
      </trkpt>
      <trkpt lat="44.52303" lon="0.61582">
        <ele>188.5</ele>
        <time>2018-08-25T17:34:56Z</time>
      </trkpt>
      <trkpt lat="44.52306" lon="0.61578">
        <ele>188.2</ele>
        <time>2018-08-25T17:34:57Z</time>
      </trkpt>
      <trkpt lat="44.5231" lon="0.61575">
        <ele>187.9</ele>
        <time>2018-08-25T17:34:58Z</time>
      </trkpt>
      <trkpt lat="44.52313" lon="0.61572">
        <ele>188.2</ele>
        <time>2018-08-25T17:34:59Z</time>
      </trkpt>
      <trkpt lat="44.52316" lon="0.6157">
        <ele>187.8</ele>
        <time>2018-08-25T17:35:00Z</time>
      </trkpt>
      <trkpt lat="44.52318" lon="0.61569">
        <ele>188.1</ele>
        <time>2018-08-25T17:35:01Z</time>
      </trkpt>
      <trkpt lat="44.52321" lon="0.61566">
        <ele>187.6</ele>
        <time>2018-08-25T17:35:02Z</time>
      </trkpt>
      <trkpt lat="44.52323" lon="0.61561">
        <ele>187.2</ele>
        <time>2018-08-25T17:35:03Z</time>
      </trkpt>
      <trkpt lat="44.52326" lon="0.61555">
        <ele>186.6</ele>
        <time>2018-08-25T17:35:04Z</time>
      </trkpt>
      <trkpt lat="44.52328" lon="0.6155">
        <ele>186.1</ele>
        <time>2018-08-25T17:35:05Z</time>
      </trkpt>
      <trkpt lat="44.52336" lon="0.61543">
        <ele>184.9</ele>
        <time>2018-08-25T17:35:06Z</time>
      </trkpt>
      <trkpt lat="44.52341" lon="0.6154">
        <ele>184.5</ele>
        <time>2018-08-25T17:35:07Z</time>
      </trkpt>
      <trkpt lat="44.52349" lon="0.61534">
        <ele>184</ele>
        <time>2018-08-25T17:35:09Z</time>
      </trkpt>
      <trkpt lat="44.52353" lon="0.61533">
        <ele>184.4</ele>
        <time>2018-08-25T17:35:10Z</time>
      </trkpt>
      <trkpt lat="44.52357" lon="0.61529">
        <ele>183.9</ele>
        <time>2018-08-25T17:35:11Z</time>
      </trkpt>
      <trkpt lat="44.52362" lon="0.61525">
        <ele>183.4</ele>
        <time>2018-08-25T17:35:12Z</time>
      </trkpt>
      <trkpt lat="44.52366" lon="0.61519">
        <ele>181.6</ele>
        <time>2018-08-25T17:35:13Z</time>
      </trkpt>
      <trkpt lat="44.52369" lon="0.61514">
        <ele>181.1</ele>
        <time>2018-08-25T17:35:14Z</time>
      </trkpt>
      <trkpt lat="44.52372" lon="0.6151">
        <ele>180.5</ele>
        <time>2018-08-25T17:35:15Z</time>
      </trkpt>
      <trkpt lat="44.52377" lon="0.61506">
        <ele>180.7</ele>
        <time>2018-08-25T17:35:16Z</time>
      </trkpt>
      <trkpt lat="44.52384" lon="0.61504">
        <ele>180.2</ele>
        <time>2018-08-25T17:35:17Z</time>
      </trkpt>
      <trkpt lat="44.52389" lon="0.61503">
        <ele>180.2</ele>
        <time>2018-08-25T17:35:18Z</time>
      </trkpt>
      <trkpt lat="44.52393" lon="0.61504">
        <ele>180</ele>
        <time>2018-08-25T17:35:19Z</time>
      </trkpt>
      <trkpt lat="44.52396" lon="0.61506">
        <ele>179.9</ele>
        <time>2018-08-25T17:35:20Z</time>
      </trkpt>
      <trkpt lat="44.52402" lon="0.61516">
        <ele>181.4</ele>
        <time>2018-08-25T17:35:45Z</time>
      </trkpt>
      <trkpt lat="44.52408" lon="0.61518">
        <ele>181.2</ele>
        <time>2018-08-25T17:35:47Z</time>
      </trkpt>
      <trkpt lat="44.52411" lon="0.61517">
        <ele>180.6</ele>
        <time>2018-08-25T17:35:48Z</time>
      </trkpt>
      <trkpt lat="44.52415" lon="0.61516">
        <ele>180.2</ele>
        <time>2018-08-25T17:35:49Z</time>
      </trkpt>
      <trkpt lat="44.52417" lon="0.61514">
        <ele>179.4</ele>
        <time>2018-08-25T17:35:50Z</time>
      </trkpt>
      <trkpt lat="44.52421" lon="0.61513">
        <ele>179.1</ele>
        <time>2018-08-25T17:35:52Z</time>
      </trkpt>
      <trkpt lat="44.52423" lon="0.61516">
        <ele>179.5</ele>
        <time>2018-08-25T17:35:54Z</time>
      </trkpt>
      <trkpt lat="44.52422" lon="0.61524">
        <ele>180.5</ele>
        <time>2018-08-25T17:35:56Z</time>
      </trkpt>
      <trkpt lat="44.5242" lon="0.61529">
        <ele>180.8</ele>
        <time>2018-08-25T17:35:57Z</time>
      </trkpt>
      <trkpt lat="44.52418" lon="0.61534">
        <ele>181.6</ele>
        <time>2018-08-25T17:35:58Z</time>
      </trkpt>
      <trkpt lat="44.52416" lon="0.61539">
        <ele>182.4</ele>
        <time>2018-08-25T17:35:59Z</time>
      </trkpt>
      <trkpt lat="44.52415" lon="0.61544">
        <ele>182.6</ele>
        <time>2018-08-25T17:36:00Z</time>
      </trkpt>
      <trkpt lat="44.52415" lon="0.61548">
        <ele>182.8</ele>
        <time>2018-08-25T17:36:01Z</time>
      </trkpt>
      <trkpt lat="44.52415" lon="0.61552">
        <ele>183</ele>
        <time>2018-08-25T17:36:02Z</time>
      </trkpt>
      <trkpt lat="44.52414" lon="0.61558">
        <ele>183.2</ele>
        <time>2018-08-25T17:36:04Z</time>
      </trkpt>
      <trkpt lat="44.52413" lon="0.61564">
        <ele>183.9</ele>
        <time>2018-08-25T17:36:06Z</time>
      </trkpt>
      <trkpt lat="44.52412" lon="0.61569">
        <ele>184</ele>
        <time>2018-08-25T17:36:08Z</time>
      </trkpt>
      <trkpt lat="44.52414" lon="0.61573">
        <ele>183.4</ele>
        <time>2018-08-25T17:36:10Z</time>
      </trkpt>
      <trkpt lat="44.5242" lon="0.61571">
        <ele>182.9</ele>
        <time>2018-08-25T17:36:12Z</time>
      </trkpt>
      <trkpt lat="44.52423" lon="0.61569">
        <ele>182.3</ele>
        <time>2018-08-25T17:36:13Z</time>
      </trkpt>
      <trkpt lat="44.52425" lon="0.61566">
        <ele>181.7</ele>
        <time>2018-08-25T17:36:14Z</time>
      </trkpt>
      <trkpt lat="44.52427" lon="0.61563">
        <ele>181.3</ele>
        <time>2018-08-25T17:36:15Z</time>
      </trkpt>
      <trkpt lat="44.52429" lon="0.61561">
        <ele>181.2</ele>
        <time>2018-08-25T17:36:16Z</time>
      </trkpt>
      <trkpt lat="44.52432" lon="0.61558">
        <ele>180.8</ele>
        <time>2018-08-25T17:36:17Z</time>
      </trkpt>
      <trkpt lat="44.52434" lon="0.61556">
        <ele>180.3</ele>
        <time>2018-08-25T17:36:18Z</time>
      </trkpt>
      <trkpt lat="44.52437" lon="0.61554">
        <ele>179.8</ele>
        <time>2018-08-25T17:36:19Z</time>
      </trkpt>
      <trkpt lat="44.5244" lon="0.61551">
        <ele>179.2</ele>
        <time>2018-08-25T17:36:20Z</time>
      </trkpt>
      <trkpt lat="44.52444" lon="0.61549">
        <ele>178.7</ele>
        <time>2018-08-25T17:36:21Z</time>
      </trkpt>
      <trkpt lat="44.52449" lon="0.61548">
        <ele>177.7</ele>
        <time>2018-08-25T17:36:22Z</time>
      </trkpt>
      <trkpt lat="44.52454" lon="0.61548">
        <ele>176.7</ele>
        <time>2018-08-25T17:36:23Z</time>
      </trkpt>
      <trkpt lat="44.52458" lon="0.61547">
        <ele>176.2</ele>
        <time>2018-08-25T17:36:24Z</time>
      </trkpt>
      <trkpt lat="44.52462" lon="0.61545">
        <ele>175.6</ele>
        <time>2018-08-25T17:36:25Z</time>
      </trkpt>
      <trkpt lat="44.52465" lon="0.61544">
        <ele>175</ele>
        <time>2018-08-25T17:36:26Z</time>
      </trkpt>
      <trkpt lat="44.52469" lon="0.61545">
        <ele>174.4</ele>
        <time>2018-08-25T17:36:28Z</time>
      </trkpt>
      <trkpt lat="44.52472" lon="0.61549">
        <ele>173.7</ele>
        <time>2018-08-25T17:36:30Z</time>
      </trkpt>
      <trkpt lat="44.52473" lon="0.61554">
        <ele>172.9</ele>
        <time>2018-08-25T17:36:32Z</time>
      </trkpt>
      <trkpt lat="44.52471" lon="0.61558">
        <ele>173.6</ele>
        <time>2018-08-25T17:36:33Z</time>
      </trkpt>
      <trkpt lat="44.52467" lon="0.61561">
        <ele>174.2</ele>
        <time>2018-08-25T17:36:34Z</time>
      </trkpt>
      <trkpt lat="44.52457" lon="0.6156">
        <ele>176.1</ele>
        <time>2018-08-25T17:36:35Z</time>
      </trkpt>
      <trkpt lat="44.52453" lon="0.61562">
        <ele>177.2</ele>
        <time>2018-08-25T17:36:36Z</time>
      </trkpt>
      <trkpt lat="44.5245" lon="0.61564">
        <ele>177.8</ele>
        <time>2018-08-25T17:36:37Z</time>
      </trkpt>
      <trkpt lat="44.52446" lon="0.61565">
        <ele>178.4</ele>
        <time>2018-08-25T17:36:38Z</time>
      </trkpt>
      <trkpt lat="44.52444" lon="0.61573">
        <ele>178.9</ele>
        <time>2018-08-25T17:36:41Z</time>
      </trkpt>
      <trkpt lat="44.52443" lon="0.61576">
        <ele>178.8</ele>
        <time>2018-08-25T17:36:42Z</time>
      </trkpt>
      <trkpt lat="44.5244" lon="0.61583">
        <ele>179.4</ele>
        <time>2018-08-25T17:36:43Z</time>
      </trkpt>
      <trkpt lat="44.52435" lon="0.6159">
        <ele>180.5</ele>
        <time>2018-08-25T17:36:44Z</time>
      </trkpt>
      <trkpt lat="44.52428" lon="0.61595">
        <ele>181.5</ele>
        <time>2018-08-25T17:36:45Z</time>
      </trkpt>
      <trkpt lat="44.52421" lon="0.616">
        <ele>182.6</ele>
        <time>2018-08-25T17:36:46Z</time>
      </trkpt>
      <trkpt lat="44.52412" lon="0.61603">
        <ele>184.4</ele>
        <time>2018-08-25T17:36:47Z</time>
      </trkpt>
      <trkpt lat="44.52404" lon="0.61607">
        <ele>185.9</ele>
        <time>2018-08-25T17:36:48Z</time>
      </trkpt>
      <trkpt lat="44.52398" lon="0.61609">
        <ele>186.9</ele>
        <time>2018-08-25T17:36:49Z</time>
      </trkpt>
      <trkpt lat="44.52391" lon="0.61615">
        <ele>188</ele>
        <time>2018-08-25T17:36:50Z</time>
      </trkpt>
      <trkpt lat="44.52384" lon="0.6162">
        <ele>189</ele>
        <time>2018-08-25T17:36:51Z</time>
      </trkpt>
      <trkpt lat="44.52374" lon="0.61625">
        <ele>190.4</ele>
        <time>2018-08-25T17:36:52Z</time>
      </trkpt>
      <trkpt lat="44.52375" lon="0.61631">
        <ele>190.3</ele>
        <time>2018-08-25T17:36:53Z</time>
      </trkpt>
      <trkpt lat="44.52372" lon="0.61635">
        <ele>190.7</ele>
        <time>2018-08-25T17:36:54Z</time>
      </trkpt>
      <trkpt lat="44.5237" lon="0.61638">
        <ele>191.1</ele>
        <time>2018-08-25T17:36:55Z</time>
      </trkpt>
      <trkpt lat="44.52368" lon="0.61641">
        <ele>191.5</ele>
        <time>2018-08-25T17:36:56Z</time>
      </trkpt>
      <trkpt lat="44.52366" lon="0.61653">
        <ele>191.1</ele>
        <time>2018-08-25T17:36:57Z</time>
      </trkpt>
      <trkpt lat="44.52357" lon="0.61665">
        <ele>192.6</ele>
        <time>2018-08-25T17:36:58Z</time>
      </trkpt>
      <trkpt lat="44.52354" lon="0.61677">
        <ele>193</ele>
        <time>2018-08-25T17:36:59Z</time>
      </trkpt>
      <trkpt lat="44.52347" lon="0.61689">
        <ele>193.8</ele>
        <time>2018-08-25T17:37:00Z</time>
      </trkpt>
      <trkpt lat="44.52341" lon="0.617">
        <ele>195.2</ele>
        <time>2018-08-25T17:37:01Z</time>
      </trkpt>
      <trkpt lat="44.52335" lon="0.61709">
        <ele>195.6</ele>
        <time>2018-08-25T17:37:02Z</time>
      </trkpt>
      <trkpt lat="44.52334" lon="0.61722">
        <ele>196</ele>
        <time>2018-08-25T17:37:03Z</time>
      </trkpt>
      <trkpt lat="44.52333" lon="0.61731">
        <ele>195.8</ele>
        <time>2018-08-25T17:37:04Z</time>
      </trkpt>
      <trkpt lat="44.52333" lon="0.61742">
        <ele>195.5</ele>
        <time>2018-08-25T17:37:05Z</time>
      </trkpt>
      <trkpt lat="44.52332" lon="0.61752">
        <ele>194.8</ele>
        <time>2018-08-25T17:37:06Z</time>
      </trkpt>
      <trkpt lat="44.52329" lon="0.61763">
        <ele>195</ele>
        <time>2018-08-25T17:37:07Z</time>
      </trkpt>
      <trkpt lat="44.52328" lon="0.61773">
        <ele>194.8</ele>
        <time>2018-08-25T17:37:08Z</time>
      </trkpt>
      <trkpt lat="44.52327" lon="0.61781">
        <ele>194.1</ele>
        <time>2018-08-25T17:37:09Z</time>
      </trkpt>
      <trkpt lat="44.52327" lon="0.6179">
        <ele>193.3</ele>
        <time>2018-08-25T17:37:10Z</time>
      </trkpt>
      <trkpt lat="44.52325" lon="0.61799">
        <ele>193.3</ele>
        <time>2018-08-25T17:37:11Z</time>
      </trkpt>
      <trkpt lat="44.52323" lon="0.61812">
        <ele>192.4</ele>
        <time>2018-08-25T17:37:12Z</time>
      </trkpt>
      <trkpt lat="44.5232" lon="0.6182">
        <ele>192.4</ele>
        <time>2018-08-25T17:37:13Z</time>
      </trkpt>
      <trkpt lat="44.52315" lon="0.61831">
        <ele>193</ele>
        <time>2018-08-25T17:37:14Z</time>
      </trkpt>
      <trkpt lat="44.52311" lon="0.61841">
        <ele>193</ele>
        <time>2018-08-25T17:37:15Z</time>
      </trkpt>
      <trkpt lat="44.52305" lon="0.6185">
        <ele>193.4</ele>
        <time>2018-08-25T17:37:16Z</time>
      </trkpt>
      <trkpt lat="44.52302" lon="0.61859">
        <ele>193.5</ele>
        <time>2018-08-25T17:37:17Z</time>
      </trkpt>
      <trkpt lat="44.523" lon="0.61869">
        <ele>193.5</ele>
        <time>2018-08-25T17:37:18Z</time>
      </trkpt>
      <trkpt lat="44.52298" lon="0.61877">
        <ele>193.4</ele>
        <time>2018-08-25T17:37:19Z</time>
      </trkpt>
      <trkpt lat="44.52295" lon="0.61887">
        <ele>193.3</ele>
        <time>2018-08-25T17:37:20Z</time>
      </trkpt>
      <trkpt lat="44.52293" lon="0.61896">
        <ele>192.9</ele>
        <time>2018-08-25T17:37:21Z</time>
      </trkpt>
      <trkpt lat="44.5229" lon="0.61902">
        <ele>193.1</ele>
        <time>2018-08-25T17:37:22Z</time>
      </trkpt>
      <trkpt lat="44.5229" lon="0.61908">
        <ele>193</ele>
        <time>2018-08-25T17:37:23Z</time>
      </trkpt>
      <trkpt lat="44.52285" lon="0.61915">
        <ele>194.1</ele>
        <time>2018-08-25T17:37:24Z</time>
      </trkpt>
      <trkpt lat="44.52283" lon="0.61923">
        <ele>194.2</ele>
        <time>2018-08-25T17:37:25Z</time>
      </trkpt>
      <trkpt lat="44.52274" lon="0.61935">
        <ele>196.2</ele>
        <time>2018-08-25T17:37:26Z</time>
      </trkpt>
      <trkpt lat="44.52271" lon="0.61948">
        <ele>197.1</ele>
        <time>2018-08-25T17:37:27Z</time>
      </trkpt>
      <trkpt lat="44.5227" lon="0.61955">
        <ele>197.3</ele>
        <time>2018-08-25T17:37:28Z</time>
      </trkpt>
      <trkpt lat="44.52262" lon="0.61966">
        <ele>199.1</ele>
        <time>2018-08-25T17:37:29Z</time>
      </trkpt>
      <trkpt lat="44.52259" lon="0.61975">
        <ele>199.9</ele>
        <time>2018-08-25T17:37:30Z</time>
      </trkpt>
      <trkpt lat="44.52262" lon="0.61986">
        <ele>199.6</ele>
        <time>2018-08-25T17:37:31Z</time>
      </trkpt>
      <trkpt lat="44.52265" lon="0.61996">
        <ele>199.4</ele>
        <time>2018-08-25T17:37:32Z</time>
      </trkpt>
      <trkpt lat="44.52267" lon="0.62005">
        <ele>199.2</ele>
        <time>2018-08-25T17:37:33Z</time>
      </trkpt>
      <trkpt lat="44.52269" lon="0.6201">
        <ele>199.3</ele>
        <time>2018-08-25T17:37:34Z</time>
      </trkpt>
      <trkpt lat="44.52269" lon="0.62019">
        <ele>199.6</ele>
        <time>2018-08-25T17:37:35Z</time>
      </trkpt>
      <trkpt lat="44.52271" lon="0.62026">
        <ele>199.3</ele>
        <time>2018-08-25T17:37:36Z</time>
      </trkpt>
      <trkpt lat="44.52274" lon="0.62034">
        <ele>198.9</ele>
        <time>2018-08-25T17:37:37Z</time>
      </trkpt>
      <trkpt lat="44.52281" lon="0.62036">
        <ele>197.8</ele>
        <time>2018-08-25T17:37:39Z</time>
      </trkpt>
      <trkpt lat="44.52284" lon="0.62042">
        <ele>197.3</ele>
        <time>2018-08-25T17:37:40Z</time>
      </trkpt>
      <trkpt lat="44.52294" lon="0.62047">
        <ele>195.9</ele>
        <time>2018-08-25T17:37:42Z</time>
      </trkpt>
      <trkpt lat="44.52296" lon="0.62052">
        <ele>195.6</ele>
        <time>2018-08-25T17:37:43Z</time>
      </trkpt>
      <trkpt lat="44.523" lon="0.62055">
        <ele>195</ele>
        <time>2018-08-25T17:37:44Z</time>
      </trkpt>
      <trkpt lat="44.52305" lon="0.62059">
        <ele>194.1</ele>
        <time>2018-08-25T17:37:45Z</time>
      </trkpt>
      <trkpt lat="44.52307" lon="0.62058">
        <ele>193.4</ele>
        <time>2018-08-25T17:37:46Z</time>
      </trkpt>
      <trkpt lat="44.52313" lon="0.62064">
        <ele>192.4</ele>
        <time>2018-08-25T17:37:48Z</time>
      </trkpt>
      <trkpt lat="44.52315" lon="0.62068">
        <ele>192.8</ele>
        <time>2018-08-25T17:37:49Z</time>
      </trkpt>
      <trkpt lat="44.52316" lon="0.62076">
        <ele>193.5</ele>
        <time>2018-08-25T17:37:50Z</time>
      </trkpt>
      <trkpt lat="44.52317" lon="0.62087">
        <ele>194.2</ele>
        <time>2018-08-25T17:37:51Z</time>
      </trkpt>
      <trkpt lat="44.52317" lon="0.62094">
        <ele>194.7</ele>
        <time>2018-08-25T17:37:52Z</time>
      </trkpt>
      <trkpt lat="44.52315" lon="0.62101">
        <ele>196</ele>
        <time>2018-08-25T17:37:53Z</time>
      </trkpt>
      <trkpt lat="44.52317" lon="0.62105">
        <ele>195.8</ele>
        <time>2018-08-25T17:37:54Z</time>
      </trkpt>
      <trkpt lat="44.5232" lon="0.62118">
        <ele>196.3</ele>
        <time>2018-08-25T17:37:55Z</time>
      </trkpt>
      <trkpt lat="44.5232" lon="0.62126">
        <ele>197</ele>
        <time>2018-08-25T17:37:56Z</time>
      </trkpt>
      <trkpt lat="44.52323" lon="0.62135">
        <ele>197.3</ele>
        <time>2018-08-25T17:37:57Z</time>
      </trkpt>
      <trkpt lat="44.52324" lon="0.62145">
        <ele>198.2</ele>
        <time>2018-08-25T17:37:58Z</time>
      </trkpt>
      <trkpt lat="44.52324" lon="0.62157">
        <ele>199.3</ele>
        <time>2018-08-25T17:37:59Z</time>
      </trkpt>
      <trkpt lat="44.52328" lon="0.62168">
        <ele>199.7</ele>
        <time>2018-08-25T17:38:00Z</time>
      </trkpt>
      <trkpt lat="44.52323" lon="0.62174">
        <ele>200</ele>
        <time>2018-08-25T17:38:01Z</time>
      </trkpt>
      <trkpt lat="44.52325" lon="0.6218">
        <ele>200.1</ele>
        <time>2018-08-25T17:38:02Z</time>
      </trkpt>
      <trkpt lat="44.5233" lon="0.6218">
        <ele>199.8</ele>
        <time>2018-08-25T17:38:03Z</time>
      </trkpt>
      <trkpt lat="44.52333" lon="0.62181">
        <ele>199.8</ele>
        <time>2018-08-25T17:38:04Z</time>
      </trkpt>
      <trkpt lat="44.52338" lon="0.62181">
        <ele>199.3</ele>
        <time>2018-08-25T17:38:05Z</time>
      </trkpt>
      <trkpt lat="44.52341" lon="0.62182">
        <ele>199.1</ele>
        <time>2018-08-25T17:38:06Z</time>
      </trkpt>
      <trkpt lat="44.52342" lon="0.62186">
        <ele>199.4</ele>
        <time>2018-08-25T17:38:07Z</time>
      </trkpt>
      <trkpt lat="44.52346" lon="0.62194">
        <ele>199.8</ele>
        <time>2018-08-25T17:38:09Z</time>
      </trkpt>
      <trkpt lat="44.5235" lon="0.62198">
        <ele>200</ele>
        <time>2018-08-25T17:38:10Z</time>
      </trkpt>
      <trkpt lat="44.52358" lon="0.62199">
        <ele>200.2</ele>
        <time>2018-08-25T17:38:11Z</time>
      </trkpt>
      <trkpt lat="44.52364" lon="0.62203">
        <ele>200.3</ele>
        <time>2018-08-25T17:38:12Z</time>
      </trkpt>
      <trkpt lat="44.52368" lon="0.62208">
        <ele>200.4</ele>
        <time>2018-08-25T17:38:13Z</time>
      </trkpt>
      <trkpt lat="44.52372" lon="0.62211">
        <ele>200.4</ele>
        <time>2018-08-25T17:38:14Z</time>
      </trkpt>
      <trkpt lat="44.52377" lon="0.62213">
        <ele>200.4</ele>
        <time>2018-08-25T17:38:15Z</time>
      </trkpt>
      <trkpt lat="44.52383" lon="0.62216">
        <ele>200.5</ele>
        <time>2018-08-25T17:38:16Z</time>
      </trkpt>
      <trkpt lat="44.52387" lon="0.62219">
        <ele>200.5</ele>
        <time>2018-08-25T17:38:17Z</time>
      </trkpt>
      <trkpt lat="44.52393" lon="0.62221">
        <ele>200.5</ele>
        <time>2018-08-25T17:38:18Z</time>
      </trkpt>
      <trkpt lat="44.52397" lon="0.62222">
        <ele>200.6</ele>
        <time>2018-08-25T17:38:19Z</time>
      </trkpt>
      <trkpt lat="44.52402" lon="0.62226">
        <ele>200.6</ele>
        <time>2018-08-25T17:38:20Z</time>
      </trkpt>
      <trkpt lat="44.52407" lon="0.62227">
        <ele>200.6</ele>
        <time>2018-08-25T17:38:21Z</time>
      </trkpt>
      <trkpt lat="44.52412" lon="0.62229">
        <ele>200.7</ele>
        <time>2018-08-25T17:38:22Z</time>
      </trkpt>
      <trkpt lat="44.52418" lon="0.62231">
        <ele>200.7</ele>
        <time>2018-08-25T17:38:23Z</time>
      </trkpt>
      <trkpt lat="44.52423" lon="0.62232">
        <ele>200.7</ele>
        <time>2018-08-25T17:38:24Z</time>
      </trkpt>
      <trkpt lat="44.52429" lon="0.62234">
        <ele>200.8</ele>
        <time>2018-08-25T17:38:25Z</time>
      </trkpt>
      <trkpt lat="44.52435" lon="0.62236">
        <ele>201</ele>
        <time>2018-08-25T17:38:26Z</time>
      </trkpt>
      <trkpt lat="44.52441" lon="0.62237">
        <ele>201.2</ele>
        <time>2018-08-25T17:38:27Z</time>
      </trkpt>
      <trkpt lat="44.52446" lon="0.62239">
        <ele>201.4</ele>
        <time>2018-08-25T17:38:28Z</time>
      </trkpt>
      <trkpt lat="44.52451" lon="0.62242">
        <ele>201.7</ele>
        <time>2018-08-25T17:38:29Z</time>
      </trkpt>
      <trkpt lat="44.52459" lon="0.62245">
        <ele>202.2</ele>
        <time>2018-08-25T17:38:30Z</time>
      </trkpt>
      <trkpt lat="44.52467" lon="0.62247">
        <ele>202.9</ele>
        <time>2018-08-25T17:38:31Z</time>
      </trkpt>
      <trkpt lat="44.5248" lon="0.62252">
        <ele>203.6</ele>
        <time>2018-08-25T17:38:32Z</time>
      </trkpt>
      <trkpt lat="44.52491" lon="0.62259">
        <ele>204</ele>
        <time>2018-08-25T17:38:33Z</time>
      </trkpt>
      <trkpt lat="44.52507" lon="0.62272">
        <ele>204.6</ele>
        <time>2018-08-25T17:38:34Z</time>
      </trkpt>
      <trkpt lat="44.52521" lon="0.62284">
        <ele>205.6</ele>
        <time>2018-08-25T17:38:35Z</time>
      </trkpt>
      <trkpt lat="44.52534" lon="0.62296">
        <ele>206.2</ele>
        <time>2018-08-25T17:38:36Z</time>
      </trkpt>
      <trkpt lat="44.52547" lon="0.62307">
        <ele>206.7</ele>
        <time>2018-08-25T17:38:37Z</time>
      </trkpt>
      <trkpt lat="44.5256" lon="0.62317">
        <ele>206.8</ele>
        <time>2018-08-25T17:38:38Z</time>
      </trkpt>
      <trkpt lat="44.52572" lon="0.62327">
        <ele>206.9</ele>
        <time>2018-08-25T17:38:39Z</time>
      </trkpt>
      <trkpt lat="44.52579" lon="0.62335">
        <ele>206.9</ele>
        <time>2018-08-25T17:38:40Z</time>
      </trkpt>
      <trkpt lat="44.52586" lon="0.62342">
        <ele>207</ele>
        <time>2018-08-25T17:38:41Z</time>
      </trkpt>
      <trkpt lat="44.52593" lon="0.62344">
        <ele>207</ele>
        <time>2018-08-25T17:38:42Z</time>
      </trkpt>
      <trkpt lat="44.52599" lon="0.62342">
        <ele>207</ele>
        <time>2018-08-25T17:38:43Z</time>
      </trkpt>
      <trkpt lat="44.52606" lon="0.62335">
        <ele>207.2</ele>
        <time>2018-08-25T17:38:44Z</time>
      </trkpt>
      <trkpt lat="44.52613" lon="0.62326">
        <ele>207.2</ele>
        <time>2018-08-25T17:38:45Z</time>
      </trkpt>
      <trkpt lat="44.52621" lon="0.62317">
        <ele>207.3</ele>
        <time>2018-08-25T17:38:46Z</time>
      </trkpt>
      <trkpt lat="44.52631" lon="0.62309">
        <ele>207.3</ele>
        <time>2018-08-25T17:38:47Z</time>
      </trkpt>
      <trkpt lat="44.52642" lon="0.62302">
        <ele>207.3</ele>
        <time>2018-08-25T17:38:48Z</time>
      </trkpt>
      <trkpt lat="44.52654" lon="0.62297">
        <ele>207.4</ele>
        <time>2018-08-25T17:38:49Z</time>
      </trkpt>
      <trkpt lat="44.52667" lon="0.62295">
        <ele>207.5</ele>
        <time>2018-08-25T17:38:50Z</time>
      </trkpt>
      <trkpt lat="44.52679" lon="0.62289">
        <ele>207.4</ele>
        <time>2018-08-25T17:38:51Z</time>
      </trkpt>
      <trkpt lat="44.52692" lon="0.62284">
        <ele>207.5</ele>
        <time>2018-08-25T17:38:52Z</time>
      </trkpt>
      <trkpt lat="44.52703" lon="0.62277">
        <ele>207.4</ele>
        <time>2018-08-25T17:38:53Z</time>
      </trkpt>
      <trkpt lat="44.52713" lon="0.62269">
        <ele>207.3</ele>
        <time>2018-08-25T17:38:54Z</time>
      </trkpt>
      <trkpt lat="44.52723" lon="0.62258">
        <ele>207.1</ele>
        <time>2018-08-25T17:38:55Z</time>
      </trkpt>
      <trkpt lat="44.52732" lon="0.62248">
        <ele>207.2</ele>
        <time>2018-08-25T17:38:56Z</time>
      </trkpt>
      <trkpt lat="44.52741" lon="0.62239">
        <ele>207.3</ele>
        <time>2018-08-25T17:38:57Z</time>
      </trkpt>
      <trkpt lat="44.5275" lon="0.6223">
        <ele>207.5</ele>
        <time>2018-08-25T17:38:58Z</time>
      </trkpt>
      <trkpt lat="44.52759" lon="0.62221">
        <ele>207.8</ele>
        <time>2018-08-25T17:38:59Z</time>
      </trkpt>
      <trkpt lat="44.52768" lon="0.62213">
        <ele>208</ele>
        <time>2018-08-25T17:39:00Z</time>
      </trkpt>
      <trkpt lat="44.52778" lon="0.62206">
        <ele>208.2</ele>
        <time>2018-08-25T17:39:01Z</time>
      </trkpt>
      <trkpt lat="44.52789" lon="0.62203">
        <ele>208.3</ele>
        <time>2018-08-25T17:39:02Z</time>
      </trkpt>
      <trkpt lat="44.528" lon="0.62201">
        <ele>208.4</ele>
        <time>2018-08-25T17:39:03Z</time>
      </trkpt>
      <trkpt lat="44.52812" lon="0.62199">
        <ele>208.4</ele>
        <time>2018-08-25T17:39:04Z</time>
      </trkpt>
      <trkpt lat="44.52823" lon="0.62199">
        <ele>208.3</ele>
        <time>2018-08-25T17:39:05Z</time>
      </trkpt>
      <trkpt lat="44.52834" lon="0.62203">
        <ele>208</ele>
        <time>2018-08-25T17:39:06Z</time>
      </trkpt>
      <trkpt lat="44.52844" lon="0.62206">
        <ele>207.6</ele>
        <time>2018-08-25T17:39:07Z</time>
      </trkpt>
      <trkpt lat="44.52853" lon="0.6221">
        <ele>207.2</ele>
        <time>2018-08-25T17:39:08Z</time>
      </trkpt>
      <trkpt lat="44.52859" lon="0.62214">
        <ele>206.6</ele>
        <time>2018-08-25T17:39:09Z</time>
      </trkpt>
      <trkpt lat="44.52867" lon="0.62222">
        <ele>205.9</ele>
        <time>2018-08-25T17:39:10Z</time>
      </trkpt>
      <trkpt lat="44.52871" lon="0.62232">
        <ele>205.4</ele>
        <time>2018-08-25T17:39:11Z</time>
      </trkpt>
      <trkpt lat="44.52873" lon="0.62242">
        <ele>205.1</ele>
        <time>2018-08-25T17:39:12Z</time>
      </trkpt>
      <trkpt lat="44.52873" lon="0.62252">
        <ele>204.8</ele>
        <time>2018-08-25T17:39:13Z</time>
      </trkpt>
      <trkpt lat="44.52872" lon="0.6226">
        <ele>204.8</ele>
        <time>2018-08-25T17:39:14Z</time>
      </trkpt>
      <trkpt lat="44.52871" lon="0.62266">
        <ele>204.6</ele>
        <time>2018-08-25T17:39:15Z</time>
      </trkpt>
      <trkpt lat="44.52872" lon="0.62272">
        <ele>204.6</ele>
        <time>2018-08-25T17:39:16Z</time>
      </trkpt>
      <trkpt lat="44.52877" lon="0.62275">
        <ele>204.7</ele>
        <time>2018-08-25T17:39:17Z</time>
      </trkpt>
      <trkpt lat="44.52881" lon="0.62277">
        <ele>204.3</ele>
        <time>2018-08-25T17:39:18Z</time>
      </trkpt>
      <trkpt lat="44.52883" lon="0.62279">
        <ele>203.6</ele>
        <time>2018-08-25T17:39:19Z</time>
      </trkpt>
      <trkpt lat="44.52887" lon="0.6228">
        <ele>203.1</ele>
        <time>2018-08-25T17:39:20Z</time>
      </trkpt>
      <trkpt lat="44.5289" lon="0.62277">
        <ele>202.7</ele>
        <time>2018-08-25T17:39:21Z</time>
      </trkpt>
      <trkpt lat="44.52894" lon="0.62272">
        <ele>202.1</ele>
        <time>2018-08-25T17:39:22Z</time>
      </trkpt>
      <trkpt lat="44.52897" lon="0.62268">
        <ele>201.6</ele>
        <time>2018-08-25T17:39:23Z</time>
      </trkpt>
      <trkpt lat="44.529" lon="0.62264">
        <ele>201</ele>
        <time>2018-08-25T17:39:24Z</time>
      </trkpt>
      <trkpt lat="44.52903" lon="0.62261">
        <ele>200.5</ele>
        <time>2018-08-25T17:39:25Z</time>
      </trkpt>
      <trkpt lat="44.52907" lon="0.62256">
        <ele>199.4</ele>
        <time>2018-08-25T17:39:26Z</time>
      </trkpt>
      <trkpt lat="44.52909" lon="0.62252">
        <ele>199.5</ele>
        <time>2018-08-25T17:39:27Z</time>
      </trkpt>
      <trkpt lat="44.52911" lon="0.62248">
        <ele>199</ele>
        <time>2018-08-25T17:39:28Z</time>
      </trkpt>
      <trkpt lat="44.52913" lon="0.62244">
        <ele>198.4</ele>
        <time>2018-08-25T17:39:29Z</time>
      </trkpt>
      <trkpt lat="44.52915" lon="0.62239">
        <ele>198.6</ele>
        <time>2018-08-25T17:39:30Z</time>
      </trkpt>
      <trkpt lat="44.52916" lon="0.62233">
        <ele>197.8</ele>
        <time>2018-08-25T17:39:31Z</time>
      </trkpt>
      <trkpt lat="44.52916" lon="0.62228">
        <ele>198.7</ele>
        <time>2018-08-25T17:39:32Z</time>
      </trkpt>
      <trkpt lat="44.52916" lon="0.62222">
        <ele>198.8</ele>
        <time>2018-08-25T17:39:33Z</time>
      </trkpt>
      <trkpt lat="44.52914" lon="0.62217">
        <ele>198.9</ele>
        <time>2018-08-25T17:39:34Z</time>
      </trkpt>
      <trkpt lat="44.52913" lon="0.62211">
        <ele>199.7</ele>
        <time>2018-08-25T17:39:35Z</time>
      </trkpt>
      <trkpt lat="44.52911" lon="0.62206">
        <ele>199.7</ele>
        <time>2018-08-25T17:39:36Z</time>
      </trkpt>
      <trkpt lat="44.52909" lon="0.62203">
        <ele>200.5</ele>
        <time>2018-08-25T17:39:37Z</time>
      </trkpt>
      <trkpt lat="44.52909" lon="0.62199">
        <ele>200.4</ele>
        <time>2018-08-25T17:39:39Z</time>
      </trkpt>
      <trkpt lat="44.52913" lon="0.62195">
        <ele>198.8</ele>
        <time>2018-08-25T17:39:41Z</time>
      </trkpt>
      <trkpt lat="44.52917" lon="0.62194">
        <ele>197.9</ele>
        <time>2018-08-25T17:39:42Z</time>
      </trkpt>
      <trkpt lat="44.52921" lon="0.62194">
        <ele>197</ele>
        <time>2018-08-25T17:39:43Z</time>
      </trkpt>
      <trkpt lat="44.52925" lon="0.62194">
        <ele>196.1</ele>
        <time>2018-08-25T17:39:44Z</time>
      </trkpt>
      <trkpt lat="44.52928" lon="0.62194">
        <ele>194.5</ele>
        <time>2018-08-25T17:39:45Z</time>
      </trkpt>
      <trkpt lat="44.52932" lon="0.62194">
        <ele>193.7</ele>
        <time>2018-08-25T17:39:46Z</time>
      </trkpt>
      <trkpt lat="44.52936" lon="0.62192">
        <ele>192.8</ele>
        <time>2018-08-25T17:39:48Z</time>
      </trkpt>
      <trkpt lat="44.52937" lon="0.62186">
        <ele>192.7</ele>
        <time>2018-08-25T17:39:49Z</time>
      </trkpt>
      <trkpt lat="44.52936" lon="0.62181">
        <ele>192.6</ele>
        <time>2018-08-25T17:39:50Z</time>
      </trkpt>
      <trkpt lat="44.52934" lon="0.62175">
        <ele>192.3</ele>
        <time>2018-08-25T17:39:52Z</time>
      </trkpt>
      <trkpt lat="44.52935" lon="0.62168">
        <ele>192.1</ele>
        <time>2018-08-25T17:39:54Z</time>
      </trkpt>
      <trkpt lat="44.52937" lon="0.62164">
        <ele>191.9</ele>
        <time>2018-08-25T17:39:55Z</time>
      </trkpt>
      <trkpt lat="44.52939" lon="0.62158">
        <ele>190.6</ele>
        <time>2018-08-25T17:39:57Z</time>
      </trkpt>
      <trkpt lat="44.52941" lon="0.62155">
        <ele>189.6</ele>
        <time>2018-08-25T17:39:58Z</time>
      </trkpt>
      <trkpt lat="44.52942" lon="0.62151">
        <ele>189.4</ele>
        <time>2018-08-25T17:39:59Z</time>
      </trkpt>
      <trkpt lat="44.52945" lon="0.62145">
        <ele>187.9</ele>
        <time>2018-08-25T17:40:01Z</time>
      </trkpt>
      <trkpt lat="44.52948" lon="0.62141">
        <ele>186.8</ele>
        <time>2018-08-25T17:40:03Z</time>
      </trkpt>
      <trkpt lat="44.5295" lon="0.62139">
        <ele>186</ele>
        <time>2018-08-25T17:40:05Z</time>
      </trkpt>
      <trkpt lat="44.52952" lon="0.62135">
        <ele>185.7</ele>
        <time>2018-08-25T17:40:10Z</time>
      </trkpt>
      <trkpt lat="44.52953" lon="0.62131">
        <ele>184.8</ele>
        <time>2018-08-25T17:40:17Z</time>
      </trkpt>
      <trkpt lat="44.52957" lon="0.62135">
        <ele>184.3</ele>
        <time>2018-08-25T17:40:35Z</time>
      </trkpt>
      <trkpt lat="44.52961" lon="0.62138">
        <ele>183.8</ele>
        <time>2018-08-25T17:40:37Z</time>
      </trkpt>
      <trkpt lat="44.52964" lon="0.62141">
        <ele>183</ele>
        <time>2018-08-25T17:40:38Z</time>
      </trkpt>
      <trkpt lat="44.52966" lon="0.62143">
        <ele>182.4</ele>
        <time>2018-08-25T17:40:39Z</time>
      </trkpt>
      <trkpt lat="44.52969" lon="0.62147">
        <ele>181.7</ele>
        <time>2018-08-25T17:40:41Z</time>
      </trkpt>
      <trkpt lat="44.52971" lon="0.62151">
        <ele>181</ele>
        <time>2018-08-25T17:40:43Z</time>
      </trkpt>
      <trkpt lat="44.52974" lon="0.62156">
        <ele>180.3</ele>
        <time>2018-08-25T17:40:45Z</time>
      </trkpt>
      <trkpt lat="44.52976" lon="0.62161">
        <ele>180.4</ele>
        <time>2018-08-25T17:40:46Z</time>
      </trkpt>
      <trkpt lat="44.52978" lon="0.62166">
        <ele>179.6</ele>
        <time>2018-08-25T17:40:47Z</time>
      </trkpt>
      <trkpt lat="44.5298" lon="0.6217">
        <ele>179.7</ele>
        <time>2018-08-25T17:40:48Z</time>
      </trkpt>
      <trkpt lat="44.52981" lon="0.62173">
        <ele>179</ele>
        <time>2018-08-25T17:40:49Z</time>
      </trkpt>
      <trkpt lat="44.52983" lon="0.62177">
        <ele>178.3</ele>
        <time>2018-08-25T17:40:50Z</time>
      </trkpt>
      <trkpt lat="44.52986" lon="0.62182">
        <ele>178.4</ele>
        <time>2018-08-25T17:40:51Z</time>
      </trkpt>
      <trkpt lat="44.52988" lon="0.62187">
        <ele>177.7</ele>
        <time>2018-08-25T17:40:52Z</time>
      </trkpt>
      <trkpt lat="44.52991" lon="0.62191">
        <ele>177</ele>
        <time>2018-08-25T17:40:53Z</time>
      </trkpt>
      <trkpt lat="44.52996" lon="0.62197">
        <ele>175.7</ele>
        <time>2018-08-25T17:40:54Z</time>
      </trkpt>
      <trkpt lat="44.53002" lon="0.622">
        <ele>174.3</ele>
        <time>2018-08-25T17:40:55Z</time>
      </trkpt>
      <trkpt lat="44.53009" lon="0.62202">
        <ele>172.9</ele>
        <time>2018-08-25T17:40:56Z</time>
      </trkpt>
      <trkpt lat="44.53015" lon="0.62205">
        <ele>171.6</ele>
        <time>2018-08-25T17:40:57Z</time>
      </trkpt>
      <trkpt lat="44.53023" lon="0.62208">
        <ele>169.6</ele>
        <time>2018-08-25T17:40:58Z</time>
      </trkpt>
      <trkpt lat="44.53032" lon="0.6221">
        <ele>168.1</ele>
        <time>2018-08-25T17:40:59Z</time>
      </trkpt>
      <trkpt lat="44.5304" lon="0.62211">
        <ele>166.2</ele>
        <time>2018-08-25T17:41:00Z</time>
      </trkpt>
      <trkpt lat="44.53048" lon="0.62207">
        <ele>164.7</ele>
        <time>2018-08-25T17:41:01Z</time>
      </trkpt>
      <trkpt lat="44.53055" lon="0.62202">
        <ele>163.7</ele>
        <time>2018-08-25T17:41:02Z</time>
      </trkpt>
      <trkpt lat="44.53061" lon="0.62186">
        <ele>162.8</ele>
        <time>2018-08-25T17:41:03Z</time>
      </trkpt>
      <trkpt lat="44.53065" lon="0.6218">
        <ele>162.4</ele>
        <time>2018-08-25T17:41:04Z</time>
      </trkpt>
      <trkpt lat="44.53067" lon="0.62173">
        <ele>161.9</ele>
        <time>2018-08-25T17:41:05Z</time>
      </trkpt>
      <trkpt lat="44.53069" lon="0.62168">
        <ele>161.5</ele>
        <time>2018-08-25T17:41:06Z</time>
      </trkpt>
      <trkpt lat="44.53072" lon="0.62166">
        <ele>161</ele>
        <time>2018-08-25T17:41:07Z</time>
      </trkpt>
      <trkpt lat="44.53075" lon="0.62166">
        <ele>160.5</ele>
        <time>2018-08-25T17:41:08Z</time>
      </trkpt>
      <trkpt lat="44.53079" lon="0.62166">
        <ele>160</ele>
        <time>2018-08-25T17:41:09Z</time>
      </trkpt>
      <trkpt lat="44.53082" lon="0.62167">
        <ele>159.5</ele>
        <time>2018-08-25T17:41:10Z</time>
      </trkpt>
      <trkpt lat="44.53085" lon="0.6217">
        <ele>159.1</ele>
        <time>2018-08-25T17:41:11Z</time>
      </trkpt>
      <trkpt lat="44.53087" lon="0.62172">
        <ele>158.6</ele>
        <time>2018-08-25T17:41:12Z</time>
      </trkpt>
      <trkpt lat="44.53091" lon="0.62175">
        <ele>158.2</ele>
        <time>2018-08-25T17:41:13Z</time>
      </trkpt>
      <trkpt lat="44.53096" lon="0.62179">
        <ele>157.9</ele>
        <time>2018-08-25T17:41:14Z</time>
      </trkpt>
      <trkpt lat="44.53101" lon="0.6218">
        <ele>157.3</ele>
        <time>2018-08-25T17:41:15Z</time>
      </trkpt>
      <trkpt lat="44.53108" lon="0.62178">
        <ele>156.8</ele>
        <time>2018-08-25T17:41:16Z</time>
      </trkpt>
      <trkpt lat="44.53112" lon="0.62178">
        <ele>156.4</ele>
        <time>2018-08-25T17:41:17Z</time>
      </trkpt>
      <trkpt lat="44.53119" lon="0.6218">
        <ele>156</ele>
        <time>2018-08-25T17:41:18Z</time>
      </trkpt>
      <trkpt lat="44.53124" lon="0.62181">
        <ele>155.7</ele>
        <time>2018-08-25T17:41:19Z</time>
      </trkpt>
      <trkpt lat="44.53128" lon="0.62184">
        <ele>155.5</ele>
        <time>2018-08-25T17:41:20Z</time>
      </trkpt>
      <trkpt lat="44.53131" lon="0.62189">
        <ele>155.5</ele>
        <time>2018-08-25T17:41:21Z</time>
      </trkpt>
      <trkpt lat="44.53134" lon="0.62195">
        <ele>155.4</ele>
        <time>2018-08-25T17:41:22Z</time>
      </trkpt>
      <trkpt lat="44.53137" lon="0.62199">
        <ele>155.3</ele>
        <time>2018-08-25T17:41:23Z</time>
      </trkpt>
      <trkpt lat="44.5314" lon="0.62203">
        <ele>155.2</ele>
        <time>2018-08-25T17:41:24Z</time>
      </trkpt>
      <trkpt lat="44.53143" lon="0.62206">
        <ele>155.1</ele>
        <time>2018-08-25T17:41:25Z</time>
      </trkpt>
      <trkpt lat="44.53148" lon="0.62208">
        <ele>155.1</ele>
        <time>2018-08-25T17:41:27Z</time>
      </trkpt>
      <trkpt lat="44.5315" lon="0.62204">
        <ele>155</ele>
        <time>2018-08-25T17:41:28Z</time>
      </trkpt>
      <trkpt lat="44.53152" lon="0.62196">
        <ele>154.8</ele>
        <time>2018-08-25T17:41:29Z</time>
      </trkpt>
      <trkpt lat="44.53152" lon="0.62186">
        <ele>154.6</ele>
        <time>2018-08-25T17:41:30Z</time>
      </trkpt>
      <trkpt lat="44.53151" lon="0.62173">
        <ele>154.3</ele>
        <time>2018-08-25T17:41:31Z</time>
      </trkpt>
      <trkpt lat="44.53151" lon="0.62158">
        <ele>153.9</ele>
        <time>2018-08-25T17:41:32Z</time>
      </trkpt>
      <trkpt lat="44.5315" lon="0.62142">
        <ele>153.5</ele>
        <time>2018-08-25T17:41:33Z</time>
      </trkpt>
      <trkpt lat="44.5315" lon="0.62128">
        <ele>153.1</ele>
        <time>2018-08-25T17:41:34Z</time>
      </trkpt>
      <trkpt lat="44.53149" lon="0.62115">
        <ele>152.8</ele>
        <time>2018-08-25T17:41:35Z</time>
      </trkpt>
      <trkpt lat="44.53149" lon="0.62102">
        <ele>152.5</ele>
        <time>2018-08-25T17:41:36Z</time>
      </trkpt>
      <trkpt lat="44.53148" lon="0.6209">
        <ele>152.1</ele>
        <time>2018-08-25T17:41:37Z</time>
      </trkpt>
      <trkpt lat="44.53146" lon="0.6208">
        <ele>151.5</ele>
        <time>2018-08-25T17:41:38Z</time>
      </trkpt>
      <trkpt lat="44.53145" lon="0.62072">
        <ele>150.9</ele>
        <time>2018-08-25T17:41:39Z</time>
      </trkpt>
      <trkpt lat="44.53142" lon="0.62064">
        <ele>150.3</ele>
        <time>2018-08-25T17:41:40Z</time>
      </trkpt>
      <trkpt lat="44.53141" lon="0.62059">
        <ele>149.9</ele>
        <time>2018-08-25T17:41:41Z</time>
      </trkpt>
      <trkpt lat="44.53142" lon="0.62054">
        <ele>149.6</ele>
        <time>2018-08-25T17:41:42Z</time>
      </trkpt>
      <trkpt lat="44.53145" lon="0.62051">
        <ele>149.6</ele>
        <time>2018-08-25T17:41:43Z</time>
      </trkpt>
      <trkpt lat="44.53149" lon="0.62052">
        <ele>149.7</ele>
        <time>2018-08-25T17:41:44Z</time>
      </trkpt>
      <trkpt lat="44.53153" lon="0.62054">
        <ele>149.9</ele>
        <time>2018-08-25T17:41:45Z</time>
      </trkpt>
      <trkpt lat="44.53158" lon="0.62055">
        <ele>150.1</ele>
        <time>2018-08-25T17:41:46Z</time>
      </trkpt>
      <trkpt lat="44.53163" lon="0.62062">
        <ele>151.7</ele>
        <time>2018-08-25T17:41:47Z</time>
      </trkpt>
      <trkpt lat="44.53168" lon="0.62072">
        <ele>151.5</ele>
        <time>2018-08-25T17:41:48Z</time>
      </trkpt>
      <trkpt lat="44.53174" lon="0.62081">
        <ele>151.3</ele>
        <time>2018-08-25T17:41:49Z</time>
      </trkpt>
      <trkpt lat="44.53183" lon="0.62089">
        <ele>151.1</ele>
        <time>2018-08-25T17:41:50Z</time>
      </trkpt>
      <trkpt lat="44.53194" lon="0.62097">
        <ele>150.8</ele>
        <time>2018-08-25T17:41:51Z</time>
      </trkpt>
      <trkpt lat="44.53207" lon="0.62106">
        <ele>150.6</ele>
        <time>2018-08-25T17:41:52Z</time>
      </trkpt>
      <trkpt lat="44.53221" lon="0.62112">
        <ele>150.4</ele>
        <time>2018-08-25T17:41:53Z</time>
      </trkpt>
      <trkpt lat="44.53236" lon="0.62121">
        <ele>150.3</ele>
        <time>2018-08-25T17:41:54Z</time>
      </trkpt>
      <trkpt lat="44.53249" lon="0.62128">
        <ele>150.2</ele>
        <time>2018-08-25T17:41:55Z</time>
      </trkpt>
      <trkpt lat="44.5326" lon="0.62133">
        <ele>150.1</ele>
        <time>2018-08-25T17:41:56Z</time>
      </trkpt>
      <trkpt lat="44.53273" lon="0.62138">
        <ele>150.1</ele>
        <time>2018-08-25T17:41:57Z</time>
      </trkpt>
      <trkpt lat="44.53282" lon="0.62145">
        <ele>150.1</ele>
        <time>2018-08-25T17:41:58Z</time>
      </trkpt>
      <trkpt lat="44.53291" lon="0.62149">
        <ele>150.1</ele>
        <time>2018-08-25T17:41:59Z</time>
      </trkpt>
      <trkpt lat="44.53302" lon="0.62154">
        <ele>150.1</ele>
        <time>2018-08-25T17:42:00Z</time>
      </trkpt>
      <trkpt lat="44.5331" lon="0.62157">
        <ele>150.1</ele>
        <time>2018-08-25T17:42:01Z</time>
      </trkpt>
      <trkpt lat="44.53318" lon="0.62159">
        <ele>150.1</ele>
        <time>2018-08-25T17:42:02Z</time>
      </trkpt>
      <trkpt lat="44.53325" lon="0.62161">
        <ele>150.1</ele>
        <time>2018-08-25T17:42:03Z</time>
      </trkpt>
      <trkpt lat="44.53334" lon="0.62164">
        <ele>150.1</ele>
        <time>2018-08-25T17:42:04Z</time>
      </trkpt>
      <trkpt lat="44.53342" lon="0.62167">
        <ele>150.1</ele>
        <time>2018-08-25T17:42:05Z</time>
      </trkpt>
      <trkpt lat="44.53352" lon="0.62168">
        <ele>150.1</ele>
        <time>2018-08-25T17:42:06Z</time>
      </trkpt>
      <trkpt lat="44.53363" lon="0.62168">
        <ele>150.2</ele>
        <time>2018-08-25T17:42:07Z</time>
      </trkpt>
      <trkpt lat="44.53374" lon="0.62167">
        <ele>150.2</ele>
        <time>2018-08-25T17:42:08Z</time>
      </trkpt>
      <trkpt lat="44.53383" lon="0.62166">
        <ele>150.2</ele>
        <time>2018-08-25T17:42:09Z</time>
      </trkpt>
      <trkpt lat="44.53391" lon="0.62163">
        <ele>150.2</ele>
        <time>2018-08-25T17:42:10Z</time>
      </trkpt>
      <trkpt lat="44.53399" lon="0.62161">
        <ele>150.2</ele>
        <time>2018-08-25T17:42:11Z</time>
      </trkpt>
      <trkpt lat="44.53406" lon="0.6216">
        <ele>150.2</ele>
        <time>2018-08-25T17:42:12Z</time>
      </trkpt>
      <trkpt lat="44.53412" lon="0.6216">
        <ele>150.1</ele>
        <time>2018-08-25T17:42:13Z</time>
      </trkpt>
      <trkpt lat="44.53418" lon="0.62161">
        <ele>150.1</ele>
        <time>2018-08-25T17:42:14Z</time>
      </trkpt>
      <trkpt lat="44.53422" lon="0.62161">
        <ele>150.1</ele>
        <time>2018-08-25T17:42:15Z</time>
      </trkpt>
      <trkpt lat="44.53426" lon="0.6216">
        <ele>150.1</ele>
        <time>2018-08-25T17:42:16Z</time>
      </trkpt>
      <trkpt lat="44.53428" lon="0.62156">
        <ele>150.1</ele>
        <time>2018-08-25T17:42:17Z</time>
      </trkpt>
      <trkpt lat="44.5343" lon="0.62153">
        <ele>150.1</ele>
        <time>2018-08-25T17:42:18Z</time>
      </trkpt>
      <trkpt lat="44.53434" lon="0.62152">
        <ele>150.1</ele>
        <time>2018-08-25T17:42:20Z</time>
      </trkpt>
      <trkpt lat="44.53436" lon="0.6216">
        <ele>150</ele>
        <time>2018-08-25T17:42:22Z</time>
      </trkpt>
      <trkpt lat="44.53435" lon="0.62165">
        <ele>150</ele>
        <time>2018-08-25T17:42:23Z</time>
      </trkpt>
      <trkpt lat="44.53435" lon="0.62173">
        <ele>150</ele>
        <time>2018-08-25T17:42:25Z</time>
      </trkpt>
      <trkpt lat="44.53436" lon="0.6218">
        <ele>149.9</ele>
        <time>2018-08-25T17:42:26Z</time>
      </trkpt>
      <trkpt lat="44.53438" lon="0.62187">
        <ele>149.9</ele>
        <time>2018-08-25T17:42:27Z</time>
      </trkpt>
      <trkpt lat="44.5344" lon="0.62194">
        <ele>149.9</ele>
        <time>2018-08-25T17:42:28Z</time>
      </trkpt>
      <trkpt lat="44.53444" lon="0.62199">
        <ele>149.8</ele>
        <time>2018-08-25T17:42:29Z</time>
      </trkpt>
      <trkpt lat="44.53451" lon="0.62199">
        <ele>150.5</ele>
        <time>2018-08-25T17:42:30Z</time>
      </trkpt>
      <trkpt lat="44.53456" lon="0.62199">
        <ele>151.2</ele>
        <time>2018-08-25T17:42:31Z</time>
      </trkpt>
      <trkpt lat="44.53465" lon="0.62197">
        <ele>151.8</ele>
        <time>2018-08-25T17:42:32Z</time>
      </trkpt>
      <trkpt lat="44.53471" lon="0.62194">
        <ele>151.6</ele>
        <time>2018-08-25T17:42:33Z</time>
      </trkpt>
      <trkpt lat="44.53479" lon="0.62188">
        <ele>150.9</ele>
        <time>2018-08-25T17:42:34Z</time>
      </trkpt>
      <trkpt lat="44.53488" lon="0.62184">
        <ele>150.7</ele>
        <time>2018-08-25T17:42:35Z</time>
      </trkpt>
      <trkpt lat="44.53494" lon="0.62185">
        <ele>151.7</ele>
        <time>2018-08-25T17:42:36Z</time>
      </trkpt>
      <trkpt lat="44.53501" lon="0.62181">
        <ele>151.6</ele>
        <time>2018-08-25T17:42:37Z</time>
      </trkpt>
      <trkpt lat="44.53507" lon="0.62181">
        <ele>151.9</ele>
        <time>2018-08-25T17:42:38Z</time>
      </trkpt>
      <trkpt lat="44.53513" lon="0.62182">
        <ele>152</ele>
        <time>2018-08-25T17:42:39Z</time>
      </trkpt>
      <trkpt lat="44.53518" lon="0.62185">
        <ele>152.7</ele>
        <time>2018-08-25T17:42:40Z</time>
      </trkpt>
      <trkpt lat="44.53522" lon="0.62189">
        <ele>153.3</ele>
        <time>2018-08-25T17:42:41Z</time>
      </trkpt>
      <trkpt lat="44.53525" lon="0.62193">
        <ele>153.2</ele>
        <time>2018-08-25T17:42:42Z</time>
      </trkpt>
      <trkpt lat="44.53528" lon="0.62197">
        <ele>154.3</ele>
        <time>2018-08-25T17:42:43Z</time>
      </trkpt>
      <trkpt lat="44.53531" lon="0.62204">
        <ele>154.7</ele>
        <time>2018-08-25T17:42:44Z</time>
      </trkpt>
      <trkpt lat="44.53533" lon="0.6221">
        <ele>155.2</ele>
        <time>2018-08-25T17:42:45Z</time>
      </trkpt>
      <trkpt lat="44.53539" lon="0.62217">
        <ele>155.6</ele>
        <time>2018-08-25T17:42:46Z</time>
      </trkpt>
      <trkpt lat="44.53546" lon="0.62226">
        <ele>155.9</ele>
        <time>2018-08-25T17:42:47Z</time>
      </trkpt>
      <trkpt lat="44.53551" lon="0.62231">
        <ele>155.8</ele>
        <time>2018-08-25T17:42:48Z</time>
      </trkpt>
      <trkpt lat="44.53555" lon="0.62236">
        <ele>155.6</ele>
        <time>2018-08-25T17:42:49Z</time>
      </trkpt>
      <trkpt lat="44.5356" lon="0.62239">
        <ele>155.8</ele>
        <time>2018-08-25T17:42:50Z</time>
      </trkpt>
      <trkpt lat="44.53561" lon="0.62236">
        <ele>155.4</ele>
        <time>2018-08-25T17:42:55Z</time>
      </trkpt>
      <trkpt lat="44.53562" lon="0.62242">
        <ele>156</ele>
        <time>2018-08-25T17:43:00Z</time>
      </trkpt>
      <trkpt lat="44.53562" lon="0.62247">
        <ele>156.5</ele>
        <time>2018-08-25T17:43:01Z</time>
      </trkpt>
      <trkpt lat="44.53562" lon="0.62253">
        <ele>157.1</ele>
        <time>2018-08-25T17:43:02Z</time>
      </trkpt>
      <trkpt lat="44.53563" lon="0.62259">
        <ele>158</ele>
        <time>2018-08-25T17:43:03Z</time>
      </trkpt>
      <trkpt lat="44.53564" lon="0.62268">
        <ele>158.9</ele>
        <time>2018-08-25T17:43:04Z</time>
      </trkpt>
      <trkpt lat="44.53561" lon="0.62272">
        <ele>159.9</ele>
        <time>2018-08-25T17:43:05Z</time>
      </trkpt>
      <trkpt lat="44.53564" lon="0.62276">
        <ele>160</ele>
        <time>2018-08-25T17:43:06Z</time>
      </trkpt>
      <trkpt lat="44.53566" lon="0.62281">
        <ele>160.1</ele>
        <time>2018-08-25T17:43:07Z</time>
      </trkpt>
      <trkpt lat="44.53569" lon="0.62284">
        <ele>160</ele>
        <time>2018-08-25T17:43:08Z</time>
      </trkpt>
      <trkpt lat="44.5357" lon="0.62288">
        <ele>160.4</ele>
        <time>2018-08-25T17:43:09Z</time>
      </trkpt>
      <trkpt lat="44.53569" lon="0.62291">
        <ele>160.5</ele>
        <time>2018-08-25T17:43:10Z</time>
      </trkpt>
      <trkpt lat="44.53566" lon="0.62294">
        <ele>161.5</ele>
        <time>2018-08-25T17:43:11Z</time>
      </trkpt>
      <trkpt lat="44.53561" lon="0.6229">
        <ele>162.2</ele>
        <time>2018-08-25T17:43:14Z</time>
      </trkpt>
      <trkpt lat="44.53556" lon="0.62285">
        <ele>162.4</ele>
        <time>2018-08-25T17:43:15Z</time>
      </trkpt>
      <trkpt lat="44.5355" lon="0.62283">
        <ele>162.9</ele>
        <time>2018-08-25T17:43:16Z</time>
      </trkpt>
      <trkpt lat="44.53548" lon="0.62279">
        <ele>163.4</ele>
        <time>2018-08-25T17:43:17Z</time>
      </trkpt>
      <trkpt lat="44.53543" lon="0.62275">
        <ele>163.5</ele>
        <time>2018-08-25T17:43:18Z</time>
      </trkpt>
      <trkpt lat="44.53538" lon="0.62273">
        <ele>163.8</ele>
        <time>2018-08-25T17:43:19Z</time>
      </trkpt>
      <trkpt lat="44.53534" lon="0.62271">
        <ele>164.3</ele>
        <time>2018-08-25T17:43:20Z</time>
      </trkpt>
      <trkpt lat="44.53527" lon="0.62273">
        <ele>165.4</ele>
        <time>2018-08-25T17:43:21Z</time>
      </trkpt>
      <trkpt lat="44.53519" lon="0.62277">
        <ele>166.4</ele>
        <time>2018-08-25T17:43:22Z</time>
      </trkpt>
      <trkpt lat="44.53513" lon="0.62279">
        <ele>167.4</ele>
        <time>2018-08-25T17:43:23Z</time>
      </trkpt>
      <trkpt lat="44.53508" lon="0.62282">
        <ele>167.8</ele>
        <time>2018-08-25T17:43:24Z</time>
      </trkpt>
      <trkpt lat="44.53504" lon="0.62287">
        <ele>168.6</ele>
        <time>2018-08-25T17:43:25Z</time>
      </trkpt>
      <trkpt lat="44.53502" lon="0.62294">
        <ele>169.6</ele>
        <time>2018-08-25T17:43:26Z</time>
      </trkpt>
      <trkpt lat="44.53494" lon="0.62303">
        <ele>171</ele>
        <time>2018-08-25T17:43:27Z</time>
      </trkpt>
      <trkpt lat="44.53487" lon="0.62311">
        <ele>172</ele>
        <time>2018-08-25T17:43:28Z</time>
      </trkpt>
      <trkpt lat="44.5348" lon="0.62321">
        <ele>172.9</ele>
        <time>2018-08-25T17:43:29Z</time>
      </trkpt>
      <trkpt lat="44.53472" lon="0.62328">
        <ele>173.8</ele>
        <time>2018-08-25T17:43:30Z</time>
      </trkpt>
      <trkpt lat="44.53466" lon="0.62335">
        <ele>174.6</ele>
        <time>2018-08-25T17:43:31Z</time>
      </trkpt>
      <trkpt lat="44.53462" lon="0.62341">
        <ele>175</ele>
        <time>2018-08-25T17:43:32Z</time>
      </trkpt>
      <trkpt lat="44.53459" lon="0.62347">
        <ele>175.4</ele>
        <time>2018-08-25T17:43:33Z</time>
      </trkpt>
      <trkpt lat="44.53457" lon="0.62353">
        <ele>176</ele>
        <time>2018-08-25T17:43:34Z</time>
      </trkpt>
      <trkpt lat="44.53458" lon="0.62359">
        <ele>176.4</ele>
        <time>2018-08-25T17:43:35Z</time>
      </trkpt>
      <trkpt lat="44.53459" lon="0.62365">
        <ele>176.9</ele>
        <time>2018-08-25T17:43:36Z</time>
      </trkpt>
      <trkpt lat="44.53464" lon="0.62368">
        <ele>177</ele>
        <time>2018-08-25T17:43:37Z</time>
      </trkpt>
      <trkpt lat="44.53469" lon="0.62369">
        <ele>177.2</ele>
        <time>2018-08-25T17:43:38Z</time>
      </trkpt>
      <trkpt lat="44.53475" lon="0.62368">
        <ele>177</ele>
        <time>2018-08-25T17:43:39Z</time>
      </trkpt>
      <trkpt lat="44.53482" lon="0.62365">
        <ele>176.9</ele>
        <time>2018-08-25T17:43:40Z</time>
      </trkpt>
      <trkpt lat="44.53487" lon="0.62361">
        <ele>176.6</ele>
        <time>2018-08-25T17:43:41Z</time>
      </trkpt>
      <trkpt lat="44.53493" lon="0.62358">
        <ele>176.1</ele>
        <time>2018-08-25T17:43:42Z</time>
      </trkpt>
      <trkpt lat="44.53499" lon="0.62356">
        <ele>175.6</ele>
        <time>2018-08-25T17:43:43Z</time>
      </trkpt>
      <trkpt lat="44.53504" lon="0.62353">
        <ele>175.1</ele>
        <time>2018-08-25T17:43:44Z</time>
      </trkpt>
      <trkpt lat="44.53507" lon="0.62349">
        <ele>174.8</ele>
        <time>2018-08-25T17:43:45Z</time>
      </trkpt>
      <trkpt lat="44.5351" lon="0.62344">
        <ele>174.4</ele>
        <time>2018-08-25T17:43:46Z</time>
      </trkpt>
      <trkpt lat="44.53511" lon="0.62339">
        <ele>174.3</ele>
        <time>2018-08-25T17:43:47Z</time>
      </trkpt>
      <trkpt lat="44.53511" lon="0.62335">
        <ele>174.2</ele>
        <time>2018-08-25T17:43:48Z</time>
      </trkpt>
      <trkpt lat="44.5351" lon="0.6233">
        <ele>173.8</ele>
        <time>2018-08-25T17:43:50Z</time>
      </trkpt>
      <trkpt lat="44.53509" lon="0.62326">
        <ele>173.8</ele>
        <time>2018-08-25T17:43:51Z</time>
      </trkpt>
      <trkpt lat="44.53507" lon="0.62322">
        <ele>173.9</ele>
        <time>2018-08-25T17:43:52Z</time>
      </trkpt>
      <trkpt lat="44.53502" lon="0.62321">
        <ele>174.2</ele>
        <time>2018-08-25T17:43:53Z</time>
      </trkpt>
      <trkpt lat="44.53497" lon="0.62323">
        <ele>175</ele>
        <time>2018-08-25T17:43:54Z</time>
      </trkpt>
      <trkpt lat="44.53491" lon="0.62326">
        <ele>175.3</ele>
        <time>2018-08-25T17:43:55Z</time>
      </trkpt>
      <trkpt lat="44.53485" lon="0.6233">
        <ele>176.1</ele>
        <time>2018-08-25T17:43:56Z</time>
      </trkpt>
      <trkpt lat="44.53481" lon="0.62339">
        <ele>177.2</ele>
        <time>2018-08-25T17:43:57Z</time>
      </trkpt>
      <trkpt lat="44.53477" lon="0.62346">
        <ele>177.7</ele>
        <time>2018-08-25T17:43:58Z</time>
      </trkpt>
      <trkpt lat="44.53473" lon="0.62352">
        <ele>178.1</ele>
        <time>2018-08-25T17:43:59Z</time>
      </trkpt>
      <trkpt lat="44.53469" lon="0.62355">
        <ele>178.5</ele>
        <time>2018-08-25T17:44:00Z</time>
      </trkpt>
      <trkpt lat="44.53466" lon="0.62356">
        <ele>178.6</ele>
        <time>2018-08-25T17:44:01Z</time>
      </trkpt>
      <trkpt lat="44.53462" lon="0.62353">
        <ele>178.7</ele>
        <time>2018-08-25T17:44:03Z</time>
      </trkpt>
      <trkpt lat="44.53462" lon="0.62349">
        <ele>178.5</ele>
        <time>2018-08-25T17:44:04Z</time>
      </trkpt>
      <trkpt lat="44.53464" lon="0.62341">
        <ele>178</ele>
        <time>2018-08-25T17:44:06Z</time>
      </trkpt>
      <trkpt lat="44.53468" lon="0.62336">
        <ele>177.8</ele>
        <time>2018-08-25T17:44:07Z</time>
      </trkpt>
      <trkpt lat="44.53473" lon="0.62329">
        <ele>177.2</ele>
        <time>2018-08-25T17:44:08Z</time>
      </trkpt>
      <trkpt lat="44.5348" lon="0.62321">
        <ele>176.5</ele>
        <time>2018-08-25T17:44:09Z</time>
      </trkpt>
      <trkpt lat="44.53487" lon="0.62314">
        <ele>176.1</ele>
        <time>2018-08-25T17:44:10Z</time>
      </trkpt>
      <trkpt lat="44.53494" lon="0.62307">
        <ele>175.2</ele>
        <time>2018-08-25T17:44:11Z</time>
      </trkpt>
      <trkpt lat="44.535" lon="0.62302">
        <ele>174.7</ele>
        <time>2018-08-25T17:44:12Z</time>
      </trkpt>
      <trkpt lat="44.53506" lon="0.62297">
        <ele>174</ele>
        <time>2018-08-25T17:44:13Z</time>
      </trkpt>
      <trkpt lat="44.53511" lon="0.62292">
        <ele>173.3</ele>
        <time>2018-08-25T17:44:14Z</time>
      </trkpt>
      <trkpt lat="44.53515" lon="0.6229">
        <ele>172.8</ele>
        <time>2018-08-25T17:44:15Z</time>
      </trkpt>
      <trkpt lat="44.53519" lon="0.62287">
        <ele>172.1</ele>
        <time>2018-08-25T17:44:16Z</time>
      </trkpt>
      <trkpt lat="44.53523" lon="0.62282">
        <ele>171.5</ele>
        <time>2018-08-25T17:44:19Z</time>
      </trkpt>
      <trkpt lat="44.53529" lon="0.62279">
        <ele>171</ele>
        <time>2018-08-25T17:44:21Z</time>
      </trkpt>
      <trkpt lat="44.53532" lon="0.62279">
        <ele>170.4</ele>
        <time>2018-08-25T17:44:22Z</time>
      </trkpt>
      <trkpt lat="44.53534" lon="0.62279">
        <ele>170.5</ele>
        <time>2018-08-25T17:44:23Z</time>
      </trkpt>
      <trkpt lat="44.53539" lon="0.62279">
        <ele>170.3</ele>
        <time>2018-08-25T17:44:24Z</time>
      </trkpt>
      <trkpt lat="44.53542" lon="0.6228">
        <ele>170</ele>
        <time>2018-08-25T17:44:26Z</time>
      </trkpt>
      <trkpt lat="44.53545" lon="0.62283">
        <ele>170.2</ele>
        <time>2018-08-25T17:44:27Z</time>
      </trkpt>
      <trkpt lat="44.53547" lon="0.62288">
        <ele>170.3</ele>
        <time>2018-08-25T17:44:28Z</time>
      </trkpt>
      <trkpt lat="44.53549" lon="0.62294">
        <ele>170.7</ele>
        <time>2018-08-25T17:44:29Z</time>
      </trkpt>
      <trkpt lat="44.53551" lon="0.623">
        <ele>170.7</ele>
        <time>2018-08-25T17:44:30Z</time>
      </trkpt>
      <trkpt lat="44.53551" lon="0.62305">
        <ele>171.4</ele>
        <time>2018-08-25T17:44:31Z</time>
      </trkpt>
      <trkpt lat="44.53552" lon="0.62309">
        <ele>171.8</ele>
        <time>2018-08-25T17:44:32Z</time>
      </trkpt>
      <trkpt lat="44.53553" lon="0.62314">
        <ele>171.6</ele>
        <time>2018-08-25T17:44:33Z</time>
      </trkpt>
      <trkpt lat="44.53553" lon="0.62319">
        <ele>172</ele>
        <time>2018-08-25T17:44:34Z</time>
      </trkpt>
      <trkpt lat="44.53553" lon="0.62324">
        <ele>172.4</ele>
        <time>2018-08-25T17:44:35Z</time>
      </trkpt>
      <trkpt lat="44.53554" lon="0.6233">
        <ele>172.8</ele>
        <time>2018-08-25T17:44:36Z</time>
      </trkpt>
      <trkpt lat="44.53553" lon="0.62335">
        <ele>173.5</ele>
        <time>2018-08-25T17:44:37Z</time>
      </trkpt>
      <trkpt lat="44.53553" lon="0.62341">
        <ele>173.8</ele>
        <time>2018-08-25T17:44:38Z</time>
      </trkpt>
      <trkpt lat="44.53553" lon="0.62347">
        <ele>174.1</ele>
        <time>2018-08-25T17:44:39Z</time>
      </trkpt>
      <trkpt lat="44.53552" lon="0.62354">
        <ele>174.9</ele>
        <time>2018-08-25T17:44:40Z</time>
      </trkpt>
      <trkpt lat="44.53552" lon="0.6236">
        <ele>175.1</ele>
        <time>2018-08-25T17:44:41Z</time>
      </trkpt>
      <trkpt lat="44.53552" lon="0.62366">
        <ele>175.2</ele>
        <time>2018-08-25T17:44:42Z</time>
      </trkpt>
      <trkpt lat="44.53551" lon="0.62372">
        <ele>175.3</ele>
        <time>2018-08-25T17:44:43Z</time>
      </trkpt>
      <trkpt lat="44.53551" lon="0.62377">
        <ele>175.3</ele>
        <time>2018-08-25T17:44:44Z</time>
      </trkpt>
      <trkpt lat="44.5355" lon="0.62383">
        <ele>175.4</ele>
        <time>2018-08-25T17:44:45Z</time>
      </trkpt>
      <trkpt lat="44.53549" lon="0.62389">
        <ele>175.8</ele>
        <time>2018-08-25T17:44:46Z</time>
      </trkpt>
      <trkpt lat="44.53548" lon="0.62395">
        <ele>175.9</ele>
        <time>2018-08-25T17:44:47Z</time>
      </trkpt>
      <trkpt lat="44.53548" lon="0.624">
        <ele>175.9</ele>
        <time>2018-08-25T17:44:48Z</time>
      </trkpt>
      <trkpt lat="44.53547" lon="0.62406">
        <ele>176</ele>
        <time>2018-08-25T17:44:49Z</time>
      </trkpt>
      <trkpt lat="44.53546" lon="0.62412">
        <ele>176.1</ele>
        <time>2018-08-25T17:44:50Z</time>
      </trkpt>
      <trkpt lat="44.53545" lon="0.62417">
        <ele>176</ele>
        <time>2018-08-25T17:44:51Z</time>
      </trkpt>
      <trkpt lat="44.53545" lon="0.62428">
        <ele>175.7</ele>
        <time>2018-08-25T17:44:52Z</time>
      </trkpt>
      <trkpt lat="44.53546" lon="0.62434">
        <ele>175.4</ele>
        <time>2018-08-25T17:44:53Z</time>
      </trkpt>
      <trkpt lat="44.53545" lon="0.62439">
        <ele>175.3</ele>
        <time>2018-08-25T17:44:54Z</time>
      </trkpt>
      <trkpt lat="44.53542" lon="0.62434">
        <ele>175.9</ele>
        <time>2018-08-25T17:44:55Z</time>
      </trkpt>
      <trkpt lat="44.5354" lon="0.62439">
        <ele>175.8</ele>
        <time>2018-08-25T17:44:56Z</time>
      </trkpt>
      <trkpt lat="44.53539" lon="0.62446">
        <ele>175.9</ele>
        <time>2018-08-25T17:44:57Z</time>
      </trkpt>
      <trkpt lat="44.5354" lon="0.62453">
        <ele>175.2</ele>
        <time>2018-08-25T17:44:59Z</time>
      </trkpt>
      <trkpt lat="44.53542" lon="0.62456">
        <ele>174.9</ele>
        <time>2018-08-25T17:45:00Z</time>
      </trkpt>
      <trkpt lat="44.53547" lon="0.62458">
        <ele>174.4</ele>
        <time>2018-08-25T17:45:01Z</time>
      </trkpt>
      <trkpt lat="44.5355" lon="0.62457">
        <ele>174.2</ele>
        <time>2018-08-25T17:45:04Z</time>
      </trkpt>
      <trkpt lat="44.53554" lon="0.62456">
        <ele>174.3</ele>
        <time>2018-08-25T17:45:07Z</time>
      </trkpt>
      <trkpt lat="44.53556" lon="0.62452">
        <ele>174.4</ele>
        <time>2018-08-25T17:45:09Z</time>
      </trkpt>
      <trkpt lat="44.53559" lon="0.62445">
        <ele>174.6</ele>
        <time>2018-08-25T17:45:11Z</time>
      </trkpt>
      <trkpt lat="44.53562" lon="0.6244">
        <ele>174.7</ele>
        <time>2018-08-25T17:45:13Z</time>
      </trkpt>
      <trkpt lat="44.53566" lon="0.6244">
        <ele>174.9</ele>
        <time>2018-08-25T17:45:15Z</time>
      </trkpt>
      <trkpt lat="44.53568" lon="0.62444">
        <ele>175</ele>
        <time>2018-08-25T17:45:17Z</time>
      </trkpt>
      <trkpt lat="44.53573" lon="0.62447">
        <ele>175.1</ele>
        <time>2018-08-25T17:45:19Z</time>
      </trkpt>
      <trkpt lat="44.5358" lon="0.62445">
        <ele>175.3</ele>
        <time>2018-08-25T17:45:20Z</time>
      </trkpt>
      <trkpt lat="44.53583" lon="0.62438">
        <ele>175.5</ele>
        <time>2018-08-25T17:45:21Z</time>
      </trkpt>
      <trkpt lat="44.53586" lon="0.62431">
        <ele>175.7</ele>
        <time>2018-08-25T17:45:22Z</time>
      </trkpt>
      <trkpt lat="44.53589" lon="0.62422">
        <ele>175.9</ele>
        <time>2018-08-25T17:45:23Z</time>
      </trkpt>
      <trkpt lat="44.53593" lon="0.6241">
        <ele>176.2</ele>
        <time>2018-08-25T17:45:24Z</time>
      </trkpt>
      <trkpt lat="44.53597" lon="0.62401">
        <ele>176.4</ele>
        <time>2018-08-25T17:45:25Z</time>
      </trkpt>
      <trkpt lat="44.536" lon="0.62395">
        <ele>176.5</ele>
        <time>2018-08-25T17:45:26Z</time>
      </trkpt>
      <trkpt lat="44.53603" lon="0.62389">
        <ele>176.7</ele>
        <time>2018-08-25T17:45:27Z</time>
      </trkpt>
      <trkpt lat="44.53608" lon="0.62384">
        <ele>177</ele>
        <time>2018-08-25T17:45:28Z</time>
      </trkpt>
      <trkpt lat="44.53607" lon="0.62386">
        <ele>177</ele>
        <time>2018-08-25T17:45:30Z</time>
      </trkpt>
      <trkpt lat="44.5361" lon="0.62389">
        <ele>177</ele>
        <time>2018-08-25T17:45:31Z</time>
      </trkpt>
      <trkpt lat="44.53611" lon="0.62397">
        <ele>176.1</ele>
        <time>2018-08-25T17:45:32Z</time>
      </trkpt>
      <trkpt lat="44.53617" lon="0.62404">
        <ele>175.4</ele>
        <time>2018-08-25T17:45:33Z</time>
      </trkpt>
      <trkpt lat="44.53621" lon="0.62418">
        <ele>174.4</ele>
        <time>2018-08-25T17:45:34Z</time>
      </trkpt>
      <trkpt lat="44.53609" lon="0.62459">
        <ele>171.4</ele>
        <time>2018-08-25T17:45:36Z</time>
      </trkpt>
      <trkpt lat="44.53612" lon="0.6247">
        <ele>171</ele>
        <time>2018-08-25T17:45:37Z</time>
      </trkpt>
      <trkpt lat="44.53618" lon="0.62478">
        <ele>171</ele>
        <time>2018-08-25T17:45:38Z</time>
      </trkpt>
      <trkpt lat="44.53623" lon="0.62483">
        <ele>170.9</ele>
        <time>2018-08-25T17:45:39Z</time>
      </trkpt>
      <trkpt lat="44.53629" lon="0.62487">
        <ele>170.8</ele>
        <time>2018-08-25T17:45:40Z</time>
      </trkpt>
      <trkpt lat="44.53633" lon="0.62489">
        <ele>170.8</ele>
        <time>2018-08-25T17:45:41Z</time>
      </trkpt>
      <trkpt lat="44.53637" lon="0.62491">
        <ele>170.8</ele>
        <time>2018-08-25T17:45:42Z</time>
      </trkpt>
      <trkpt lat="44.53641" lon="0.62491">
        <ele>170.7</ele>
        <time>2018-08-25T17:45:44Z</time>
      </trkpt>
      <trkpt lat="44.5364" lon="0.62497">
        <ele>170.1</ele>
        <time>2018-08-25T17:45:46Z</time>
      </trkpt>
      <trkpt lat="44.53642" lon="0.62505">
        <ele>168.8</ele>
        <time>2018-08-25T17:49:28Z</time>
      </trkpt>
      <trkpt lat="44.53642" lon="0.62508">
        <ele>168.2</ele>
        <time>2018-08-25T17:49:29Z</time>
      </trkpt>
      <trkpt lat="44.53643" lon="0.62518">
        <ele>167.3</ele>
        <time>2018-08-25T17:49:30Z</time>
      </trkpt>
      <trkpt lat="44.53645" lon="0.6253">
        <ele>165.8</ele>
        <time>2018-08-25T17:49:31Z</time>
      </trkpt>
      <trkpt lat="44.53646" lon="0.62541">
        <ele>164.8</ele>
        <time>2018-08-25T17:49:32Z</time>
      </trkpt>
      <trkpt lat="44.53646" lon="0.62551">
        <ele>164.6</ele>
        <time>2018-08-25T17:49:33Z</time>
      </trkpt>
      <trkpt lat="44.53647" lon="0.62559">
        <ele>164.3</ele>
        <time>2018-08-25T17:49:34Z</time>
      </trkpt>
      <trkpt lat="44.53646" lon="0.62567">
        <ele>164.2</ele>
        <time>2018-08-25T17:49:35Z</time>
      </trkpt>
      <trkpt lat="44.53645" lon="0.62574">
        <ele>164.2</ele>
        <time>2018-08-25T17:49:36Z</time>
      </trkpt>
      <trkpt lat="44.53642" lon="0.62582">
        <ele>164.2</ele>
        <time>2018-08-25T17:49:37Z</time>
      </trkpt>
      <trkpt lat="44.53638" lon="0.62589">
        <ele>164.1</ele>
        <time>2018-08-25T17:49:38Z</time>
      </trkpt>
      <trkpt lat="44.53634" lon="0.62595">
        <ele>164.1</ele>
        <time>2018-08-25T17:49:39Z</time>
      </trkpt>
      <trkpt lat="44.53629" lon="0.62602">
        <ele>163.9</ele>
        <time>2018-08-25T17:49:40Z</time>
      </trkpt>
      <trkpt lat="44.53625" lon="0.62608">
        <ele>163.7</ele>
        <time>2018-08-25T17:49:41Z</time>
      </trkpt>
      <trkpt lat="44.53621" lon="0.62614">
        <ele>163.5</ele>
        <time>2018-08-25T17:49:42Z</time>
      </trkpt>
      <trkpt lat="44.53618" lon="0.6262">
        <ele>163.3</ele>
        <time>2018-08-25T17:49:43Z</time>
      </trkpt>
      <trkpt lat="44.53615" lon="0.62624">
        <ele>163.2</ele>
        <time>2018-08-25T17:49:44Z</time>
      </trkpt>
      <trkpt lat="44.53612" lon="0.62627">
        <ele>163.1</ele>
        <time>2018-08-25T17:49:45Z</time>
      </trkpt>
      <trkpt lat="44.53608" lon="0.62631">
        <ele>163.1</ele>
        <time>2018-08-25T17:49:47Z</time>
      </trkpt>
      <trkpt lat="44.53605" lon="0.62635">
        <ele>163.1</ele>
        <time>2018-08-25T17:49:49Z</time>
      </trkpt>
      <trkpt lat="44.536" lon="0.62637">
        <ele>163</ele>
        <time>2018-08-25T17:49:56Z</time>
      </trkpt>
      <trkpt lat="44.53598" lon="0.62637">
        <ele>163</ele>
        <time>2018-08-25T17:49:57Z</time>
      </trkpt>
      <trkpt lat="44.53592" lon="0.62639">
        <ele>163</ele>
        <time>2018-08-25T17:49:58Z</time>
      </trkpt>
      <trkpt lat="44.53584" lon="0.62641">
        <ele>163</ele>
        <time>2018-08-25T17:49:59Z</time>
      </trkpt>
      <trkpt lat="44.53576" lon="0.62644">
        <ele>162.8</ele>
        <time>2018-08-25T17:50:00Z</time>
      </trkpt>
      <trkpt lat="44.53565" lon="0.62649">
        <ele>162.4</ele>
        <time>2018-08-25T17:50:01Z</time>
      </trkpt>
      <trkpt lat="44.53556" lon="0.62653">
        <ele>162.1</ele>
        <time>2018-08-25T17:50:02Z</time>
      </trkpt>
      <trkpt lat="44.53549" lon="0.62656">
        <ele>161.8</ele>
        <time>2018-08-25T17:50:03Z</time>
      </trkpt>
      <trkpt lat="44.53544" lon="0.62658">
        <ele>161.6</ele>
        <time>2018-08-25T17:50:04Z</time>
      </trkpt>
      <trkpt lat="44.53538" lon="0.62661">
        <ele>161.5</ele>
        <time>2018-08-25T17:50:05Z</time>
      </trkpt>
      <trkpt lat="44.53533" lon="0.62664">
        <ele>161.2</ele>
        <time>2018-08-25T17:50:06Z</time>
      </trkpt>
      <trkpt lat="44.53529" lon="0.62665">
        <ele>160.9</ele>
        <time>2018-08-25T17:50:07Z</time>
      </trkpt>
      <trkpt lat="44.53526" lon="0.62666">
        <ele>160.8</ele>
        <time>2018-08-25T17:50:08Z</time>
      </trkpt>
      <trkpt lat="44.53521" lon="0.62667">
        <ele>160.5</ele>
        <time>2018-08-25T17:50:10Z</time>
      </trkpt>
      <trkpt lat="44.53518" lon="0.62664">
        <ele>161.2</ele>
        <time>2018-08-25T17:50:11Z</time>
      </trkpt>
      <trkpt lat="44.53516" lon="0.62658">
        <ele>161.9</ele>
        <time>2018-08-25T17:50:12Z</time>
      </trkpt>
      <trkpt lat="44.53514" lon="0.62651">
        <ele>162.8</ele>
        <time>2018-08-25T17:50:13Z</time>
      </trkpt>
      <trkpt lat="44.53512" lon="0.62645">
        <ele>163.6</ele>
        <time>2018-08-25T17:50:14Z</time>
      </trkpt>
      <trkpt lat="44.53508" lon="0.62641">
        <ele>164.4</ele>
        <time>2018-08-25T17:50:15Z</time>
      </trkpt>
      <trkpt lat="44.53502" lon="0.6264">
        <ele>164.7</ele>
        <time>2018-08-25T17:50:16Z</time>
      </trkpt>
      <trkpt lat="44.53496" lon="0.62641">
        <ele>164.3</ele>
        <time>2018-08-25T17:50:17Z</time>
      </trkpt>
      <trkpt lat="44.53489" lon="0.62644">
        <ele>163.9</ele>
        <time>2018-08-25T17:50:18Z</time>
      </trkpt>
      <trkpt lat="44.53481" lon="0.62652">
        <ele>163.3</ele>
        <time>2018-08-25T17:50:19Z</time>
      </trkpt>
      <trkpt lat="44.53471" lon="0.62658">
        <ele>162.3</ele>
        <time>2018-08-25T17:50:20Z</time>
      </trkpt>
      <trkpt lat="44.53463" lon="0.62665">
        <ele>161.3</ele>
        <time>2018-08-25T17:50:21Z</time>
      </trkpt>
      <trkpt lat="44.53456" lon="0.62669">
        <ele>160.5</ele>
        <time>2018-08-25T17:50:22Z</time>
      </trkpt>
      <trkpt lat="44.53451" lon="0.62674">
        <ele>159.7</ele>
        <time>2018-08-25T17:50:23Z</time>
      </trkpt>
      <trkpt lat="44.53446" lon="0.62679">
        <ele>159.1</ele>
        <time>2018-08-25T17:50:24Z</time>
      </trkpt>
      <trkpt lat="44.53444" lon="0.62687">
        <ele>158.3</ele>
        <time>2018-08-25T17:50:25Z</time>
      </trkpt>
      <trkpt lat="44.53445" lon="0.62697">
        <ele>157.8</ele>
        <time>2018-08-25T17:50:26Z</time>
      </trkpt>
      <trkpt lat="44.53449" lon="0.62709">
        <ele>157.4</ele>
        <time>2018-08-25T17:50:27Z</time>
      </trkpt>
      <trkpt lat="44.53453" lon="0.62722">
        <ele>156.6</ele>
        <time>2018-08-25T17:50:28Z</time>
      </trkpt>
      <trkpt lat="44.53457" lon="0.62732">
        <ele>156.3</ele>
        <time>2018-08-25T17:50:29Z</time>
      </trkpt>
      <trkpt lat="44.53459" lon="0.62742">
        <ele>156</ele>
        <time>2018-08-25T17:50:30Z</time>
      </trkpt>
      <trkpt lat="44.53461" lon="0.62754">
        <ele>155.4</ele>
        <time>2018-08-25T17:50:31Z</time>
      </trkpt>
      <trkpt lat="44.5346" lon="0.62763">
        <ele>155.1</ele>
        <time>2018-08-25T17:50:32Z</time>
      </trkpt>
      <trkpt lat="44.53451" lon="0.6277">
        <ele>154.7</ele>
        <time>2018-08-25T17:50:33Z</time>
      </trkpt>
      <trkpt lat="44.53444" lon="0.62778">
        <ele>154.4</ele>
        <time>2018-08-25T17:50:34Z</time>
      </trkpt>
      <trkpt lat="44.53437" lon="0.62786">
        <ele>154</ele>
        <time>2018-08-25T17:50:35Z</time>
      </trkpt>
      <trkpt lat="44.53428" lon="0.62793">
        <ele>153.9</ele>
        <time>2018-08-25T17:50:36Z</time>
      </trkpt>
      <trkpt lat="44.5342" lon="0.628">
        <ele>153.3</ele>
        <time>2018-08-25T17:50:37Z</time>
      </trkpt>
      <trkpt lat="44.53412" lon="0.62806">
        <ele>152.7</ele>
        <time>2018-08-25T17:50:38Z</time>
      </trkpt>
      <trkpt lat="44.53405" lon="0.62812">
        <ele>152.3</ele>
        <time>2018-08-25T17:50:39Z</time>
      </trkpt>
      <trkpt lat="44.53399" lon="0.62818">
        <ele>151.9</ele>
        <time>2018-08-25T17:50:40Z</time>
      </trkpt>
      <trkpt lat="44.53393" lon="0.62824">
        <ele>151.3</ele>
        <time>2018-08-25T17:50:41Z</time>
      </trkpt>
      <trkpt lat="44.53388" lon="0.62831">
        <ele>150.7</ele>
        <time>2018-08-25T17:50:42Z</time>
      </trkpt>
      <trkpt lat="44.53383" lon="0.62838">
        <ele>150.2</ele>
        <time>2018-08-25T17:50:43Z</time>
      </trkpt>
      <trkpt lat="44.53379" lon="0.62845">
        <ele>149.7</ele>
        <time>2018-08-25T17:50:44Z</time>
      </trkpt>
      <trkpt lat="44.53374" lon="0.62852">
        <ele>149.2</ele>
        <time>2018-08-25T17:50:45Z</time>
      </trkpt>
      <trkpt lat="44.5337" lon="0.62858">
        <ele>148.8</ele>
        <time>2018-08-25T17:50:46Z</time>
      </trkpt>
      <trkpt lat="44.53365" lon="0.62863">
        <ele>148.5</ele>
        <time>2018-08-25T17:50:47Z</time>
      </trkpt>
      <trkpt lat="44.53361" lon="0.62867">
        <ele>148.2</ele>
        <time>2018-08-25T17:50:48Z</time>
      </trkpt>
      <trkpt lat="44.53356" lon="0.62871">
        <ele>147.9</ele>
        <time>2018-08-25T17:50:49Z</time>
      </trkpt>
      <trkpt lat="44.53352" lon="0.62874">
        <ele>147.7</ele>
        <time>2018-08-25T17:50:50Z</time>
      </trkpt>
      <trkpt lat="44.53348" lon="0.62878">
        <ele>147.4</ele>
        <time>2018-08-25T17:50:51Z</time>
      </trkpt>
      <trkpt lat="44.53345" lon="0.62882">
        <ele>147.2</ele>
        <time>2018-08-25T17:50:52Z</time>
      </trkpt>
      <trkpt lat="44.53344" lon="0.62887">
        <ele>147.2</ele>
        <time>2018-08-25T17:50:53Z</time>
      </trkpt>
      <trkpt lat="44.53342" lon="0.62892">
        <ele>147.1</ele>
        <time>2018-08-25T17:50:54Z</time>
      </trkpt>
      <trkpt lat="44.5334" lon="0.62897">
        <ele>146.9</ele>
        <time>2018-08-25T17:50:55Z</time>
      </trkpt>
      <trkpt lat="44.53339" lon="0.62902">
        <ele>146.8</ele>
        <time>2018-08-25T17:50:56Z</time>
      </trkpt>
      <trkpt lat="44.53337" lon="0.62905">
        <ele>146.8</ele>
        <time>2018-08-25T17:50:57Z</time>
      </trkpt>
      <trkpt lat="44.53336" lon="0.62914">
        <ele>146.3</ele>
        <time>2018-08-25T17:50:59Z</time>
      </trkpt>
      <trkpt lat="44.53335" lon="0.62919">
        <ele>146.2</ele>
        <time>2018-08-25T17:51:13Z</time>
      </trkpt>
      <trkpt lat="44.53335" lon="0.62925">
        <ele>146</ele>
        <time>2018-08-25T17:51:14Z</time>
      </trkpt>
      <trkpt lat="44.53334" lon="0.62933">
        <ele>145.7</ele>
        <time>2018-08-25T17:51:15Z</time>
      </trkpt>
      <trkpt lat="44.53334" lon="0.62943">
        <ele>145.4</ele>
        <time>2018-08-25T17:51:16Z</time>
      </trkpt>
      <trkpt lat="44.53332" lon="0.62955">
        <ele>145</ele>
        <time>2018-08-25T17:51:17Z</time>
      </trkpt>
      <trkpt lat="44.5333" lon="0.62967">
        <ele>144.5</ele>
        <time>2018-08-25T17:51:18Z</time>
      </trkpt>
      <trkpt lat="44.53328" lon="0.62978">
        <ele>144.1</ele>
        <time>2018-08-25T17:51:19Z</time>
      </trkpt>
      <trkpt lat="44.53325" lon="0.62987">
        <ele>143.6</ele>
        <time>2018-08-25T17:51:20Z</time>
      </trkpt>
      <trkpt lat="44.53322" lon="0.62999">
        <ele>143.1</ele>
        <time>2018-08-25T17:51:21Z</time>
      </trkpt>
      <trkpt lat="44.53318" lon="0.6301">
        <ele>142.6</ele>
        <time>2018-08-25T17:51:22Z</time>
      </trkpt>
      <trkpt lat="44.53316" lon="0.6302">
        <ele>142.3</ele>
        <time>2018-08-25T17:51:23Z</time>
      </trkpt>
      <trkpt lat="44.53313" lon="0.63031">
        <ele>141.9</ele>
        <time>2018-08-25T17:51:24Z</time>
      </trkpt>
      <trkpt lat="44.53312" lon="0.63042">
        <ele>141.8</ele>
        <time>2018-08-25T17:51:25Z</time>
      </trkpt>
      <trkpt lat="44.53311" lon="0.63053">
        <ele>141.7</ele>
        <time>2018-08-25T17:51:26Z</time>
      </trkpt>
      <trkpt lat="44.53311" lon="0.63064">
        <ele>141.6</ele>
        <time>2018-08-25T17:51:27Z</time>
      </trkpt>
      <trkpt lat="44.5331" lon="0.63075">
        <ele>141.4</ele>
        <time>2018-08-25T17:51:28Z</time>
      </trkpt>
      <trkpt lat="44.5331" lon="0.63083">
        <ele>141.4</ele>
        <time>2018-08-25T17:51:29Z</time>
      </trkpt>
      <trkpt lat="44.53309" lon="0.63091">
        <ele>141.3</ele>
        <time>2018-08-25T17:51:30Z</time>
      </trkpt>
      <trkpt lat="44.53307" lon="0.63102">
        <ele>141.2</ele>
        <time>2018-08-25T17:51:31Z</time>
      </trkpt>
      <trkpt lat="44.53307" lon="0.6311">
        <ele>141.1</ele>
        <time>2018-08-25T17:51:32Z</time>
      </trkpt>
      <trkpt lat="44.53307" lon="0.63118">
        <ele>141.1</ele>
        <time>2018-08-25T17:51:33Z</time>
      </trkpt>
      <trkpt lat="44.53306" lon="0.63127">
        <ele>141</ele>
        <time>2018-08-25T17:51:34Z</time>
      </trkpt>
      <trkpt lat="44.53305" lon="0.63135">
        <ele>140.9</ele>
        <time>2018-08-25T17:51:35Z</time>
      </trkpt>
      <trkpt lat="44.53303" lon="0.63144">
        <ele>140.7</ele>
        <time>2018-08-25T17:51:36Z</time>
      </trkpt>
      <trkpt lat="44.533" lon="0.63152">
        <ele>140.5</ele>
        <time>2018-08-25T17:51:37Z</time>
      </trkpt>
      <trkpt lat="44.53296" lon="0.63159">
        <ele>140.3</ele>
        <time>2018-08-25T17:51:38Z</time>
      </trkpt>
      <trkpt lat="44.53292" lon="0.63168">
        <ele>140</ele>
        <time>2018-08-25T17:51:39Z</time>
      </trkpt>
      <trkpt lat="44.53288" lon="0.63177">
        <ele>139.8</ele>
        <time>2018-08-25T17:51:40Z</time>
      </trkpt>
      <trkpt lat="44.53284" lon="0.63187">
        <ele>139.5</ele>
        <time>2018-08-25T17:51:41Z</time>
      </trkpt>
      <trkpt lat="44.53279" lon="0.63197">
        <ele>139.1</ele>
        <time>2018-08-25T17:51:42Z</time>
      </trkpt>
      <trkpt lat="44.53272" lon="0.63208">
        <ele>138.5</ele>
        <time>2018-08-25T17:51:43Z</time>
      </trkpt>
      <trkpt lat="44.53266" lon="0.63218">
        <ele>137.9</ele>
        <time>2018-08-25T17:51:44Z</time>
      </trkpt>
      <trkpt lat="44.53261" lon="0.63227">
        <ele>137.1</ele>
        <time>2018-08-25T17:51:45Z</time>
      </trkpt>
      <trkpt lat="44.53257" lon="0.63237">
        <ele>136.7</ele>
        <time>2018-08-25T17:51:46Z</time>
      </trkpt>
      <trkpt lat="44.53255" lon="0.63244">
        <ele>136.3</ele>
        <time>2018-08-25T17:51:47Z</time>
      </trkpt>
      <trkpt lat="44.53254" lon="0.63254">
        <ele>135.9</ele>
        <time>2018-08-25T17:51:48Z</time>
      </trkpt>
      <trkpt lat="44.53259" lon="0.63259">
        <ele>136.1</ele>
        <time>2018-08-25T17:51:49Z</time>
      </trkpt>
      <trkpt lat="44.53265" lon="0.63266">
        <ele>136.1</ele>
        <time>2018-08-25T17:51:50Z</time>
      </trkpt>
      <trkpt lat="44.53269" lon="0.63271">
        <ele>136.4</ele>
        <time>2018-08-25T17:51:51Z</time>
      </trkpt>
      <trkpt lat="44.53273" lon="0.63276">
        <ele>136.6</ele>
        <time>2018-08-25T17:51:52Z</time>
      </trkpt>
      <trkpt lat="44.53273" lon="0.63281">
        <ele>136.5</ele>
        <time>2018-08-25T17:51:53Z</time>
      </trkpt>
      <trkpt lat="44.53272" lon="0.63287">
        <ele>136.4</ele>
        <time>2018-08-25T17:51:54Z</time>
      </trkpt>
      <trkpt lat="44.53267" lon="0.63292">
        <ele>135.9</ele>
        <time>2018-08-25T17:51:55Z</time>
      </trkpt>
      <trkpt lat="44.53262" lon="0.63296">
        <ele>135.7</ele>
        <time>2018-08-25T17:51:56Z</time>
      </trkpt>
      <trkpt lat="44.53252" lon="0.63297">
        <ele>134.8</ele>
        <time>2018-08-25T17:51:57Z</time>
      </trkpt>
      <trkpt lat="44.53244" lon="0.63298">
        <ele>134.4</ele>
        <time>2018-08-25T17:51:58Z</time>
      </trkpt>
      <trkpt lat="44.53237" lon="0.63299">
        <ele>134.1</ele>
        <time>2018-08-25T17:51:59Z</time>
      </trkpt>
      <trkpt lat="44.53231" lon="0.63301">
        <ele>133.8</ele>
        <time>2018-08-25T17:52:00Z</time>
      </trkpt>
      <trkpt lat="44.53224" lon="0.63304">
        <ele>133.6</ele>
        <time>2018-08-25T17:52:01Z</time>
      </trkpt>
      <trkpt lat="44.53219" lon="0.63309">
        <ele>133.3</ele>
        <time>2018-08-25T17:52:02Z</time>
      </trkpt>
      <trkpt lat="44.53214" lon="0.63316">
        <ele>133</ele>
        <time>2018-08-25T17:52:03Z</time>
      </trkpt>
      <trkpt lat="44.53209" lon="0.63327">
        <ele>132.6</ele>
        <time>2018-08-25T17:52:04Z</time>
      </trkpt>
      <trkpt lat="44.53202" lon="0.63341">
        <ele>132.3</ele>
        <time>2018-08-25T17:52:05Z</time>
      </trkpt>
      <trkpt lat="44.53194" lon="0.63354">
        <ele>132.1</ele>
        <time>2018-08-25T17:52:06Z</time>
      </trkpt>
      <trkpt lat="44.53188" lon="0.63365">
        <ele>132</ele>
        <time>2018-08-25T17:52:07Z</time>
      </trkpt>
      <trkpt lat="44.53182" lon="0.63373">
        <ele>131.9</ele>
        <time>2018-08-25T17:52:08Z</time>
      </trkpt>
      <trkpt lat="44.53176" lon="0.63382">
        <ele>131.8</ele>
        <time>2018-08-25T17:52:09Z</time>
      </trkpt>
      <trkpt lat="44.53171" lon="0.63388">
        <ele>131.7</ele>
        <time>2018-08-25T17:52:10Z</time>
      </trkpt>
      <trkpt lat="44.53167" lon="0.63395">
        <ele>131.6</ele>
        <time>2018-08-25T17:52:11Z</time>
      </trkpt>
      <trkpt lat="44.53163" lon="0.63401">
        <ele>131.5</ele>
        <time>2018-08-25T17:52:12Z</time>
      </trkpt>
      <trkpt lat="44.53159" lon="0.63407">
        <ele>131.4</ele>
        <time>2018-08-25T17:52:13Z</time>
      </trkpt>
      <trkpt lat="44.53156" lon="0.63414">
        <ele>131.3</ele>
        <time>2018-08-25T17:52:14Z</time>
      </trkpt>
      <trkpt lat="44.53153" lon="0.63421">
        <ele>131.2</ele>
        <time>2018-08-25T17:52:15Z</time>
      </trkpt>
      <trkpt lat="44.53152" lon="0.63431">
        <ele>131.1</ele>
        <time>2018-08-25T17:52:16Z</time>
      </trkpt>
      <trkpt lat="44.5315" lon="0.63442">
        <ele>131.1</ele>
        <time>2018-08-25T17:52:17Z</time>
      </trkpt>
      <trkpt lat="44.53148" lon="0.63453">
        <ele>131.1</ele>
        <time>2018-08-25T17:52:18Z</time>
      </trkpt>
      <trkpt lat="44.53147" lon="0.63466">
        <ele>131.2</ele>
        <time>2018-08-25T17:52:19Z</time>
      </trkpt>
      <trkpt lat="44.53145" lon="0.63481">
        <ele>131.3</ele>
        <time>2018-08-25T17:52:20Z</time>
      </trkpt>
      <trkpt lat="44.53143" lon="0.63496">
        <ele>131.4</ele>
        <time>2018-08-25T17:52:21Z</time>
      </trkpt>
      <trkpt lat="44.53141" lon="0.63511">
        <ele>131.4</ele>
        <time>2018-08-25T17:52:22Z</time>
      </trkpt>
      <trkpt lat="44.53139" lon="0.63525">
        <ele>131.5</ele>
        <time>2018-08-25T17:52:23Z</time>
      </trkpt>
      <trkpt lat="44.53136" lon="0.63539">
        <ele>131.5</ele>
        <time>2018-08-25T17:52:24Z</time>
      </trkpt>
      <trkpt lat="44.53132" lon="0.63552">
        <ele>131.6</ele>
        <time>2018-08-25T17:52:25Z</time>
      </trkpt>
      <trkpt lat="44.53127" lon="0.63565">
        <ele>131.8</ele>
        <time>2018-08-25T17:52:26Z</time>
      </trkpt>
      <trkpt lat="44.53121" lon="0.6358">
        <ele>131.9</ele>
        <time>2018-08-25T17:52:27Z</time>
      </trkpt>
      <trkpt lat="44.53114" lon="0.63595">
        <ele>131.8</ele>
        <time>2018-08-25T17:52:28Z</time>
      </trkpt>
      <trkpt lat="44.53106" lon="0.6361">
        <ele>131.5</ele>
        <time>2018-08-25T17:52:29Z</time>
      </trkpt>
      <trkpt lat="44.53099" lon="0.63625">
        <ele>131.2</ele>
        <time>2018-08-25T17:52:30Z</time>
      </trkpt>
      <trkpt lat="44.53092" lon="0.63638">
        <ele>130.9</ele>
        <time>2018-08-25T17:52:31Z</time>
      </trkpt>
      <trkpt lat="44.53088" lon="0.63648">
        <ele>130.6</ele>
        <time>2018-08-25T17:52:32Z</time>
      </trkpt>
      <trkpt lat="44.53083" lon="0.63657">
        <ele>130.3</ele>
        <time>2018-08-25T17:52:33Z</time>
      </trkpt>
      <trkpt lat="44.5308" lon="0.63665">
        <ele>130.2</ele>
        <time>2018-08-25T17:52:34Z</time>
      </trkpt>
      <trkpt lat="44.53077" lon="0.63671">
        <ele>129.9</ele>
        <time>2018-08-25T17:52:35Z</time>
      </trkpt>
      <trkpt lat="44.53074" lon="0.63676">
        <ele>129.8</ele>
        <time>2018-08-25T17:52:36Z</time>
      </trkpt>
      <trkpt lat="44.53071" lon="0.6368">
        <ele>129.7</ele>
        <time>2018-08-25T17:52:37Z</time>
      </trkpt>
      <trkpt lat="44.53071" lon="0.63678">
        <ele>129.7</ele>
        <time>2018-08-25T17:52:45Z</time>
      </trkpt>
      <trkpt lat="44.53067" lon="0.63679">
        <ele>129.8</ele>
        <time>2018-08-25T17:52:51Z</time>
      </trkpt>
      <trkpt lat="44.53063" lon="0.6368">
        <ele>129.8</ele>
        <time>2018-08-25T17:52:52Z</time>
      </trkpt>
      <trkpt lat="44.53056" lon="0.63679">
        <ele>130</ele>
        <time>2018-08-25T17:52:53Z</time>
      </trkpt>
      <trkpt lat="44.53048" lon="0.63676">
        <ele>130.3</ele>
        <time>2018-08-25T17:52:54Z</time>
      </trkpt>
      <trkpt lat="44.53041" lon="0.63674">
        <ele>130.6</ele>
        <time>2018-08-25T17:52:55Z</time>
      </trkpt>
      <trkpt lat="44.53036" lon="0.63677">
        <ele>130.7</ele>
        <time>2018-08-25T17:52:56Z</time>
      </trkpt>
      <trkpt lat="44.53031" lon="0.63681">
        <ele>131</ele>
        <time>2018-08-25T17:52:57Z</time>
      </trkpt>
      <trkpt lat="44.53028" lon="0.63688">
        <ele>131.2</ele>
        <time>2018-08-25T17:52:58Z</time>
      </trkpt>
      <trkpt lat="44.53026" lon="0.63702">
        <ele>131.2</ele>
        <time>2018-08-25T17:52:59Z</time>
      </trkpt>
      <trkpt lat="44.53024" lon="0.63709">
        <ele>131.2</ele>
        <time>2018-08-25T17:53:00Z</time>
      </trkpt>
      <trkpt lat="44.53022" lon="0.63717">
        <ele>131.3</ele>
        <time>2018-08-25T17:53:02Z</time>
      </trkpt>
      <trkpt lat="44.5302" lon="0.63718">
        <ele>131.5</ele>
        <time>2018-08-25T17:53:03Z</time>
      </trkpt>
      <trkpt lat="44.53017" lon="0.63717">
        <ele>131.6</ele>
        <time>2018-08-25T17:53:04Z</time>
      </trkpt>
      <trkpt lat="44.53014" lon="0.63717">
        <ele>131.6</ele>
        <time>2018-08-25T17:53:05Z</time>
      </trkpt>
      <trkpt lat="44.5301" lon="0.63721">
        <ele>132</ele>
        <time>2018-08-25T17:53:07Z</time>
      </trkpt>
      <trkpt lat="44.53009" lon="0.63726">
        <ele>132.1</ele>
        <time>2018-08-25T17:53:09Z</time>
      </trkpt>
      <trkpt lat="44.53008" lon="0.63732">
        <ele>132.2</ele>
        <time>2018-08-25T17:53:11Z</time>
      </trkpt>
      <trkpt lat="44.53008" lon="0.63738">
        <ele>132.3</ele>
        <time>2018-08-25T17:53:12Z</time>
      </trkpt>
      <trkpt lat="44.53008" lon="0.63743">
        <ele>132.4</ele>
        <time>2018-08-25T17:53:13Z</time>
      </trkpt>
      <trkpt lat="44.53006" lon="0.6375">
        <ele>132.7</ele>
        <time>2018-08-25T17:53:15Z</time>
      </trkpt>
      <trkpt lat="44.53004" lon="0.63754">
        <ele>133</ele>
        <time>2018-08-25T17:53:16Z</time>
      </trkpt>
      <trkpt lat="44.53003" lon="0.63759">
        <ele>133</ele>
        <time>2018-08-25T17:53:17Z</time>
      </trkpt>
      <trkpt lat="44.53002" lon="0.63764">
        <ele>133.2</ele>
        <time>2018-08-25T17:53:19Z</time>
      </trkpt>
      <trkpt lat="44.53002" lon="0.63768">
        <ele>133.2</ele>
        <time>2018-08-25T17:53:21Z</time>
      </trkpt>
      <trkpt lat="44.53" lon="0.63771">
        <ele>133.4</ele>
        <time>2018-08-25T17:53:22Z</time>
      </trkpt>
      <trkpt lat="44.52998" lon="0.63773">
        <ele>133.5</ele>
        <time>2018-08-25T17:53:23Z</time>
      </trkpt>
      <trkpt lat="44.52996" lon="0.63776">
        <ele>133.6</ele>
        <time>2018-08-25T17:53:25Z</time>
      </trkpt>
      <trkpt lat="44.52993" lon="0.6378">
        <ele>133.7</ele>
        <time>2018-08-25T17:53:27Z</time>
      </trkpt>
      <trkpt lat="44.52991" lon="0.63783">
        <ele>133.9</ele>
        <time>2018-08-25T17:53:28Z</time>
      </trkpt>
      <trkpt lat="44.52987" lon="0.63786">
        <ele>134.1</ele>
        <time>2018-08-25T17:53:29Z</time>
      </trkpt>
      <trkpt lat="44.52983" lon="0.63789">
        <ele>134.4</ele>
        <time>2018-08-25T17:53:30Z</time>
      </trkpt>
      <trkpt lat="44.52978" lon="0.63793">
        <ele>134.5</ele>
        <time>2018-08-25T17:53:31Z</time>
      </trkpt>
      <trkpt lat="44.52974" lon="0.63797">
        <ele>134.8</ele>
        <time>2018-08-25T17:53:32Z</time>
      </trkpt>
      <trkpt lat="44.52971" lon="0.63801">
        <ele>134.9</ele>
        <time>2018-08-25T17:53:33Z</time>
      </trkpt>
      <trkpt lat="44.52967" lon="0.63806">
        <ele>135.1</ele>
        <time>2018-08-25T17:53:34Z</time>
      </trkpt>
      <trkpt lat="44.52963" lon="0.63811">
        <ele>135.3</ele>
        <time>2018-08-25T17:53:35Z</time>
      </trkpt>
      <trkpt lat="44.52956" lon="0.63823">
        <ele>135.7</ele>
        <time>2018-08-25T17:53:36Z</time>
      </trkpt>
      <trkpt lat="44.52948" lon="0.63828">
        <ele>136.3</ele>
        <time>2018-08-25T17:53:37Z</time>
      </trkpt>
      <trkpt lat="44.52941" lon="0.63833">
        <ele>136.8</ele>
        <time>2018-08-25T17:53:38Z</time>
      </trkpt>
      <trkpt lat="44.52935" lon="0.63837">
        <ele>137.3</ele>
        <time>2018-08-25T17:53:39Z</time>
      </trkpt>
      <trkpt lat="44.52931" lon="0.63842">
        <ele>137.8</ele>
        <time>2018-08-25T17:53:40Z</time>
      </trkpt>
      <trkpt lat="44.52924" lon="0.63845">
        <ele>138.2</ele>
        <time>2018-08-25T17:53:41Z</time>
      </trkpt>
      <trkpt lat="44.52919" lon="0.63849">
        <ele>138.4</ele>
        <time>2018-08-25T17:53:42Z</time>
      </trkpt>
      <trkpt lat="44.52914" lon="0.63854">
        <ele>138.8</ele>
        <time>2018-08-25T17:53:43Z</time>
      </trkpt>
      <trkpt lat="44.52911" lon="0.63858">
        <ele>139</ele>
        <time>2018-08-25T17:53:44Z</time>
      </trkpt>
      <trkpt lat="44.52904" lon="0.63866">
        <ele>139.1</ele>
        <time>2018-08-25T17:53:45Z</time>
      </trkpt>
      <trkpt lat="44.52899" lon="0.63871">
        <ele>139.2</ele>
        <time>2018-08-25T17:53:46Z</time>
      </trkpt>
      <trkpt lat="44.52896" lon="0.63874">
        <ele>139.4</ele>
        <time>2018-08-25T17:53:47Z</time>
      </trkpt>
      <trkpt lat="44.52891" lon="0.63876">
        <ele>139.9</ele>
        <time>2018-08-25T17:53:49Z</time>
      </trkpt>
      <trkpt lat="44.52886" lon="0.63877">
        <ele>140.2</ele>
        <time>2018-08-25T17:53:50Z</time>
      </trkpt>
      <trkpt lat="44.52881" lon="0.63875">
        <ele>140.8</ele>
        <time>2018-08-25T17:53:51Z</time>
      </trkpt>
      <trkpt lat="44.52874" lon="0.63875">
        <ele>141.3</ele>
        <time>2018-08-25T17:53:53Z</time>
      </trkpt>
      <trkpt lat="44.52865" lon="0.63875">
        <ele>142.3</ele>
        <time>2018-08-25T17:53:54Z</time>
      </trkpt>
      <trkpt lat="44.52861" lon="0.63873">
        <ele>142.3</ele>
        <time>2018-08-25T17:53:56Z</time>
      </trkpt>
      <trkpt lat="44.52858" lon="0.63872">
        <ele>142.4</ele>
        <time>2018-08-25T17:53:57Z</time>
      </trkpt>
      <trkpt lat="44.52853" lon="0.63868">
        <ele>142.4</ele>
        <time>2018-08-25T17:53:59Z</time>
      </trkpt>
      <trkpt lat="44.52852" lon="0.63865">
        <ele>142.5</ele>
        <time>2018-08-25T17:54:00Z</time>
      </trkpt>
      <trkpt lat="44.5285" lon="0.6386">
        <ele>142.6</ele>
        <time>2018-08-25T17:54:01Z</time>
      </trkpt>
      <trkpt lat="44.52849" lon="0.63856">
        <ele>142.6</ele>
        <time>2018-08-25T17:54:02Z</time>
      </trkpt>
      <trkpt lat="44.52847" lon="0.63853">
        <ele>142.7</ele>
        <time>2018-08-25T17:54:03Z</time>
      </trkpt>
      <trkpt lat="44.52845" lon="0.6385">
        <ele>142.7</ele>
        <time>2018-08-25T17:54:04Z</time>
      </trkpt>
      <trkpt lat="44.52842" lon="0.63849">
        <ele>142.8</ele>
        <time>2018-08-25T17:54:05Z</time>
      </trkpt>
      <trkpt lat="44.52838" lon="0.63849">
        <ele>142.9</ele>
        <time>2018-08-25T17:54:06Z</time>
      </trkpt>
      <trkpt lat="44.52835" lon="0.63849">
        <ele>142.9</ele>
        <time>2018-08-25T17:54:07Z</time>
      </trkpt>
      <trkpt lat="44.52831" lon="0.63847">
        <ele>143</ele>
        <time>2018-08-25T17:54:08Z</time>
      </trkpt>
      <trkpt lat="44.52827" lon="0.63843">
        <ele>143.2</ele>
        <time>2018-08-25T17:54:09Z</time>
      </trkpt>
      <trkpt lat="44.52824" lon="0.6384">
        <ele>143.3</ele>
        <time>2018-08-25T17:54:10Z</time>
      </trkpt>
      <trkpt lat="44.52822" lon="0.63838">
        <ele>143.4</ele>
        <time>2018-08-25T17:54:11Z</time>
      </trkpt>
      <trkpt lat="44.52817" lon="0.63835">
        <ele>144.1</ele>
        <time>2018-08-25T17:54:13Z</time>
      </trkpt>
      <trkpt lat="44.52813" lon="0.63834">
        <ele>144.5</ele>
        <time>2018-08-25T17:54:14Z</time>
      </trkpt>
      <trkpt lat="44.52807" lon="0.63834">
        <ele>145.3</ele>
        <time>2018-08-25T17:54:15Z</time>
      </trkpt>
      <trkpt lat="44.52801" lon="0.63835">
        <ele>146.2</ele>
        <time>2018-08-25T17:54:16Z</time>
      </trkpt>
      <trkpt lat="44.52794" lon="0.63836">
        <ele>147.1</ele>
        <time>2018-08-25T17:54:17Z</time>
      </trkpt>
      <trkpt lat="44.52789" lon="0.63838">
        <ele>148</ele>
        <time>2018-08-25T17:54:18Z</time>
      </trkpt>
      <trkpt lat="44.52784" lon="0.63841">
        <ele>149.3</ele>
        <time>2018-08-25T17:54:19Z</time>
      </trkpt>
      <trkpt lat="44.5278" lon="0.63843">
        <ele>149.8</ele>
        <time>2018-08-25T17:54:20Z</time>
      </trkpt>
      <trkpt lat="44.52776" lon="0.63845">
        <ele>150.4</ele>
        <time>2018-08-25T17:54:22Z</time>
      </trkpt>
      <trkpt lat="44.52771" lon="0.63845">
        <ele>151.4</ele>
        <time>2018-08-25T17:54:24Z</time>
      </trkpt>
      <trkpt lat="44.52767" lon="0.63843">
        <ele>151.9</ele>
        <time>2018-08-25T17:54:27Z</time>
      </trkpt>
      <trkpt lat="44.52764" lon="0.63841">
        <ele>152.3</ele>
        <time>2018-08-25T17:54:28Z</time>
      </trkpt>
      <trkpt lat="44.52762" lon="0.63839">
        <ele>152.8</ele>
        <time>2018-08-25T17:54:29Z</time>
      </trkpt>
      <trkpt lat="44.5276" lon="0.63835">
        <ele>152.8</ele>
        <time>2018-08-25T17:54:30Z</time>
      </trkpt>
      <trkpt lat="44.5276" lon="0.63828">
        <ele>152.8</ele>
        <time>2018-08-25T17:54:32Z</time>
      </trkpt>
      <trkpt lat="44.52762" lon="0.63825">
        <ele>152.7</ele>
        <time>2018-08-25T17:54:33Z</time>
      </trkpt>
      <trkpt lat="44.52763" lon="0.63821">
        <ele>152.3</ele>
        <time>2018-08-25T17:54:34Z</time>
      </trkpt>
      <trkpt lat="44.52764" lon="0.63817">
        <ele>152.3</ele>
        <time>2018-08-25T17:54:35Z</time>
      </trkpt>
      <trkpt lat="44.52761" lon="0.63809">
        <ele>152.7</ele>
        <time>2018-08-25T17:54:37Z</time>
      </trkpt>
      <trkpt lat="44.52759" lon="0.63805">
        <ele>153.1</ele>
        <time>2018-08-25T17:54:38Z</time>
      </trkpt>
      <trkpt lat="44.52757" lon="0.63802">
        <ele>153.1</ele>
        <time>2018-08-25T17:54:39Z</time>
      </trkpt>
      <trkpt lat="44.52754" lon="0.63798">
        <ele>153.5</ele>
        <time>2018-08-25T17:54:41Z</time>
      </trkpt>
      <trkpt lat="44.52752" lon="0.63795">
        <ele>153.8</ele>
        <time>2018-08-25T17:54:42Z</time>
      </trkpt>
      <trkpt lat="44.52751" lon="0.6379">
        <ele>153.8</ele>
        <time>2018-08-25T17:54:43Z</time>
      </trkpt>
      <trkpt lat="44.5275" lon="0.63784">
        <ele>154</ele>
        <time>2018-08-25T17:54:44Z</time>
      </trkpt>
      <trkpt lat="44.52749" lon="0.63778">
        <ele>154</ele>
        <time>2018-08-25T17:54:45Z</time>
      </trkpt>
      <trkpt lat="44.52748" lon="0.63773">
        <ele>154.2</ele>
        <time>2018-08-25T17:54:46Z</time>
      </trkpt>
      <trkpt lat="44.52746" lon="0.63769">
        <ele>154.1</ele>
        <time>2018-08-25T17:54:47Z</time>
      </trkpt>
      <trkpt lat="44.52744" lon="0.63765">
        <ele>154.3</ele>
        <time>2018-08-25T17:54:48Z</time>
      </trkpt>
      <trkpt lat="44.52742" lon="0.63761">
        <ele>154.2</ele>
        <time>2018-08-25T17:54:49Z</time>
      </trkpt>
      <trkpt lat="44.52738" lon="0.63756">
        <ele>154.5</ele>
        <time>2018-08-25T17:54:50Z</time>
      </trkpt>
      <trkpt lat="44.52735" lon="0.63751">
        <ele>154.5</ele>
        <time>2018-08-25T17:54:51Z</time>
      </trkpt>
      <trkpt lat="44.52731" lon="0.63747">
        <ele>154.5</ele>
        <time>2018-08-25T17:54:52Z</time>
      </trkpt>
      <trkpt lat="44.52728" lon="0.63744">
        <ele>154.4</ele>
        <time>2018-08-25T17:54:53Z</time>
      </trkpt>
      <trkpt lat="44.52727" lon="0.63738">
        <ele>154.1</ele>
        <time>2018-08-25T17:54:55Z</time>
      </trkpt>
      <trkpt lat="44.52727" lon="0.63734">
        <ele>154.1</ele>
        <time>2018-08-25T17:54:58Z</time>
      </trkpt>
      <trkpt lat="44.52729" lon="0.63731">
        <ele>154</ele>
        <time>2018-08-25T17:55:02Z</time>
      </trkpt>
      <trkpt lat="44.52726" lon="0.63728">
        <ele>153.9</ele>
        <time>2018-08-25T17:55:08Z</time>
      </trkpt>
      <trkpt lat="44.52721" lon="0.63729">
        <ele>154</ele>
        <time>2018-08-25T17:55:10Z</time>
      </trkpt>
      <trkpt lat="44.52717" lon="0.63731">
        <ele>154.2</ele>
        <time>2018-08-25T17:55:11Z</time>
      </trkpt>
      <trkpt lat="44.52712" lon="0.63735">
        <ele>154.4</ele>
        <time>2018-08-25T17:55:12Z</time>
      </trkpt>
      <trkpt lat="44.52705" lon="0.63738">
        <ele>154.5</ele>
        <time>2018-08-25T17:55:13Z</time>
      </trkpt>
      <trkpt lat="44.52697" lon="0.63742">
        <ele>154.4</ele>
        <time>2018-08-25T17:55:14Z</time>
      </trkpt>
      <trkpt lat="44.52691" lon="0.63744">
        <ele>154.5</ele>
        <time>2018-08-25T17:55:15Z</time>
      </trkpt>
      <trkpt lat="44.52685" lon="0.63747">
        <ele>154.6</ele>
        <time>2018-08-25T17:55:16Z</time>
      </trkpt>
      <trkpt lat="44.52679" lon="0.63751">
        <ele>154.7</ele>
        <time>2018-08-25T17:55:17Z</time>
      </trkpt>
      <trkpt lat="44.52672" lon="0.63756">
        <ele>154.8</ele>
        <time>2018-08-25T17:55:18Z</time>
      </trkpt>
      <trkpt lat="44.52665" lon="0.6376">
        <ele>154.9</ele>
        <time>2018-08-25T17:55:19Z</time>
      </trkpt>
      <trkpt lat="44.52658" lon="0.63764">
        <ele>154.7</ele>
        <time>2018-08-25T17:55:20Z</time>
      </trkpt>
      <trkpt lat="44.52653" lon="0.63767">
        <ele>154.7</ele>
        <time>2018-08-25T17:55:21Z</time>
      </trkpt>
      <trkpt lat="44.52645" lon="0.6377">
        <ele>154.6</ele>
        <time>2018-08-25T17:55:22Z</time>
      </trkpt>
      <trkpt lat="44.52643" lon="0.63774">
        <ele>154.6</ele>
        <time>2018-08-25T17:55:23Z</time>
      </trkpt>
      <trkpt lat="44.52638" lon="0.63778">
        <ele>154.5</ele>
        <time>2018-08-25T17:55:24Z</time>
      </trkpt>
      <trkpt lat="44.52631" lon="0.63783">
        <ele>154.1</ele>
        <time>2018-08-25T17:55:25Z</time>
      </trkpt>
      <trkpt lat="44.52624" lon="0.63785">
        <ele>153.8</ele>
        <time>2018-08-25T17:55:26Z</time>
      </trkpt>
      <trkpt lat="44.52619" lon="0.63787">
        <ele>153.5</ele>
        <time>2018-08-25T17:55:27Z</time>
      </trkpt>
      <trkpt lat="44.52613" lon="0.6379">
        <ele>153.4</ele>
        <time>2018-08-25T17:55:28Z</time>
      </trkpt>
      <trkpt lat="44.52606" lon="0.63795">
        <ele>152.9</ele>
        <time>2018-08-25T17:55:29Z</time>
      </trkpt>
      <trkpt lat="44.52601" lon="0.63802">
        <ele>152.8</ele>
        <time>2018-08-25T17:55:30Z</time>
      </trkpt>
      <trkpt lat="44.52595" lon="0.63809">
        <ele>152.5</ele>
        <time>2018-08-25T17:55:31Z</time>
      </trkpt>
      <trkpt lat="44.52588" lon="0.63814">
        <ele>151.7</ele>
        <time>2018-08-25T17:55:32Z</time>
      </trkpt>
      <trkpt lat="44.52583" lon="0.63817">
        <ele>151.4</ele>
        <time>2018-08-25T17:55:33Z</time>
      </trkpt>
      <trkpt lat="44.52576" lon="0.63817">
        <ele>150.5</ele>
        <time>2018-08-25T17:55:34Z</time>
      </trkpt>
      <trkpt lat="44.5257" lon="0.63818">
        <ele>149.9</ele>
        <time>2018-08-25T17:55:35Z</time>
      </trkpt>
      <trkpt lat="44.52567" lon="0.63824">
        <ele>149.5</ele>
        <time>2018-08-25T17:55:36Z</time>
      </trkpt>
      <trkpt lat="44.52567" lon="0.6383">
        <ele>149.4</ele>
        <time>2018-08-25T17:55:37Z</time>
      </trkpt>
      <trkpt lat="44.52564" lon="0.63832">
        <ele>149.4</ele>
        <time>2018-08-25T17:55:38Z</time>
      </trkpt>
      <trkpt lat="44.5256" lon="0.63835">
        <ele>148.6</ele>
        <time>2018-08-25T17:55:39Z</time>
      </trkpt>
      <trkpt lat="44.52556" lon="0.63838">
        <ele>148.1</ele>
        <time>2018-08-25T17:55:41Z</time>
      </trkpt>
      <trkpt lat="44.52552" lon="0.63839">
        <ele>147.8</ele>
        <time>2018-08-25T17:55:42Z</time>
      </trkpt>
      <trkpt lat="44.52548" lon="0.63841">
        <ele>147</ele>
        <time>2018-08-25T17:55:44Z</time>
      </trkpt>
      <trkpt lat="44.52543" lon="0.63841">
        <ele>146.4</ele>
        <time>2018-08-25T17:55:46Z</time>
      </trkpt>
      <trkpt lat="44.5254" lon="0.6384">
        <ele>146.4</ele>
        <time>2018-08-25T17:55:48Z</time>
      </trkpt>
      <trkpt lat="44.52534" lon="0.63839">
        <ele>145.7</ele>
        <time>2018-08-25T17:55:50Z</time>
      </trkpt>
      <trkpt lat="44.5253" lon="0.63838">
        <ele>145.4</ele>
        <time>2018-08-25T17:55:51Z</time>
      </trkpt>
      <trkpt lat="44.52526" lon="0.63837">
        <ele>145.4</ele>
        <time>2018-08-25T17:55:52Z</time>
      </trkpt>
      <trkpt lat="44.52522" lon="0.63833">
        <ele>145.3</ele>
        <time>2018-08-25T17:55:53Z</time>
      </trkpt>
      <trkpt lat="44.52517" lon="0.63828">
        <ele>145.3</ele>
        <time>2018-08-25T17:55:54Z</time>
      </trkpt>
      <trkpt lat="44.52515" lon="0.63824">
        <ele>145.3</ele>
        <time>2018-08-25T17:55:55Z</time>
      </trkpt>
      <trkpt lat="44.52515" lon="0.63819">
        <ele>145.3</ele>
        <time>2018-08-25T17:55:58Z</time>
      </trkpt>
      <trkpt lat="44.52516" lon="0.63815">
        <ele>145.3</ele>
        <time>2018-08-25T17:55:59Z</time>
      </trkpt>
      <trkpt lat="44.52517" lon="0.63808">
        <ele>145.3</ele>
        <time>2018-08-25T17:56:00Z</time>
      </trkpt>
      <trkpt lat="44.52519" lon="0.63789">
        <ele>145.3</ele>
        <time>2018-08-25T17:56:01Z</time>
      </trkpt>
      <trkpt lat="44.5252" lon="0.63784">
        <ele>145.3</ele>
        <time>2018-08-25T17:56:02Z</time>
      </trkpt>
      <trkpt lat="44.52521" lon="0.63773">
        <ele>145.3</ele>
        <time>2018-08-25T17:56:03Z</time>
      </trkpt>
      <trkpt lat="44.5252" lon="0.63768">
        <ele>145.3</ele>
        <time>2018-08-25T17:56:04Z</time>
      </trkpt>
      <trkpt lat="44.5252" lon="0.6376">
        <ele>145.3</ele>
        <time>2018-08-25T17:56:05Z</time>
      </trkpt>
      <trkpt lat="44.5252" lon="0.63755">
        <ele>145.6</ele>
        <time>2018-08-25T17:56:06Z</time>
      </trkpt>
      <trkpt lat="44.52521" lon="0.63749">
        <ele>146.1</ele>
        <time>2018-08-25T17:56:07Z</time>
      </trkpt>
      <trkpt lat="44.52523" lon="0.63742">
        <ele>146.4</ele>
        <time>2018-08-25T17:56:08Z</time>
      </trkpt>
      <trkpt lat="44.52526" lon="0.63739">
        <ele>146.5</ele>
        <time>2018-08-25T17:56:09Z</time>
      </trkpt>
      <trkpt lat="44.5253" lon="0.63734">
        <ele>146.6</ele>
        <time>2018-08-25T17:56:11Z</time>
      </trkpt>
      <trkpt lat="44.52533" lon="0.6373">
        <ele>146.7</ele>
        <time>2018-08-25T17:56:12Z</time>
      </trkpt>
      <trkpt lat="44.52535" lon="0.63726">
        <ele>146.7</ele>
        <time>2018-08-25T17:56:13Z</time>
      </trkpt>
      <trkpt lat="44.52536" lon="0.63719">
        <ele>147</ele>
        <time>2018-08-25T17:56:15Z</time>
      </trkpt>
      <trkpt lat="44.52536" lon="0.63714">
        <ele>147.1</ele>
        <time>2018-08-25T17:56:16Z</time>
      </trkpt>
      <trkpt lat="44.52536" lon="0.63708">
        <ele>147.3</ele>
        <time>2018-08-25T17:56:17Z</time>
      </trkpt>
      <trkpt lat="44.52539" lon="0.6369">
        <ele>147.5</ele>
        <time>2018-08-25T17:56:18Z</time>
      </trkpt>
      <trkpt lat="44.52541" lon="0.63679">
        <ele>147.7</ele>
        <time>2018-08-25T17:56:19Z</time>
      </trkpt>
      <trkpt lat="44.52546" lon="0.6367">
        <ele>147.8</ele>
        <time>2018-08-25T17:56:20Z</time>
      </trkpt>
      <trkpt lat="44.52543" lon="0.63662">
        <ele>148.1</ele>
        <time>2018-08-25T17:56:21Z</time>
      </trkpt>
      <trkpt lat="44.52544" lon="0.63656">
        <ele>148.3</ele>
        <time>2018-08-25T17:56:22Z</time>
      </trkpt>
      <trkpt lat="44.52541" lon="0.63651">
        <ele>148.5</ele>
        <time>2018-08-25T17:56:23Z</time>
      </trkpt>
      <trkpt lat="44.52537" lon="0.63645">
        <ele>148.7</ele>
        <time>2018-08-25T17:56:24Z</time>
      </trkpt>
      <trkpt lat="44.5254" lon="0.63641">
        <ele>148.8</ele>
        <time>2018-08-25T17:56:25Z</time>
      </trkpt>
      <trkpt lat="44.5254" lon="0.63635">
        <ele>149</ele>
        <time>2018-08-25T17:56:26Z</time>
      </trkpt>
      <trkpt lat="44.5254" lon="0.63628">
        <ele>149.2</ele>
        <time>2018-08-25T17:56:27Z</time>
      </trkpt>
      <trkpt lat="44.52538" lon="0.63618">
        <ele>149.6</ele>
        <time>2018-08-25T17:56:28Z</time>
      </trkpt>
      <trkpt lat="44.52536" lon="0.63607">
        <ele>149.9</ele>
        <time>2018-08-25T17:56:29Z</time>
      </trkpt>
      <trkpt lat="44.52532" lon="0.63596">
        <ele>150.2</ele>
        <time>2018-08-25T17:56:30Z</time>
      </trkpt>
      <trkpt lat="44.5253" lon="0.63588">
        <ele>150.4</ele>
        <time>2018-08-25T17:56:31Z</time>
      </trkpt>
      <trkpt lat="44.52528" lon="0.63581">
        <ele>150.3</ele>
        <time>2018-08-25T17:56:32Z</time>
      </trkpt>
      <trkpt lat="44.52522" lon="0.63576">
        <ele>150.3</ele>
        <time>2018-08-25T17:56:33Z</time>
      </trkpt>
      <trkpt lat="44.52517" lon="0.63572">
        <ele>150.1</ele>
        <time>2018-08-25T17:56:34Z</time>
      </trkpt>
      <trkpt lat="44.52511" lon="0.63571">
        <ele>150.1</ele>
        <time>2018-08-25T17:56:35Z</time>
      </trkpt>
      <trkpt lat="44.52504" lon="0.63571">
        <ele>149.9</ele>
        <time>2018-08-25T17:56:36Z</time>
      </trkpt>
      <trkpt lat="44.52496" lon="0.63572">
        <ele>149.3</ele>
        <time>2018-08-25T17:56:37Z</time>
      </trkpt>
      <trkpt lat="44.52485" lon="0.6357">
        <ele>148.5</ele>
        <time>2018-08-25T17:56:38Z</time>
      </trkpt>
      <trkpt lat="44.52478" lon="0.63569">
        <ele>147.9</ele>
        <time>2018-08-25T17:56:39Z</time>
      </trkpt>
      <trkpt lat="44.52472" lon="0.63568">
        <ele>147.5</ele>
        <time>2018-08-25T17:56:40Z</time>
      </trkpt>
      <trkpt lat="44.52468" lon="0.63568">
        <ele>147.4</ele>
        <time>2018-08-25T17:56:41Z</time>
      </trkpt>
      <trkpt lat="44.52463" lon="0.63565">
        <ele>146.6</ele>
        <time>2018-08-25T17:56:42Z</time>
      </trkpt>
      <trkpt lat="44.52457" lon="0.63564">
        <ele>146.4</ele>
        <time>2018-08-25T17:56:43Z</time>
      </trkpt>
      <trkpt lat="44.52451" lon="0.63563">
        <ele>145.4</ele>
        <time>2018-08-25T17:56:44Z</time>
      </trkpt>
      <trkpt lat="44.52445" lon="0.63562">
        <ele>144.9</ele>
        <time>2018-08-25T17:56:45Z</time>
      </trkpt>
      <trkpt lat="44.52441" lon="0.6356">
        <ele>144.1</ele>
        <time>2018-08-25T17:56:46Z</time>
      </trkpt>
      <trkpt lat="44.52436" lon="0.63559">
        <ele>143.8</ele>
        <time>2018-08-25T17:56:47Z</time>
      </trkpt>
      <trkpt lat="44.5243" lon="0.63558">
        <ele>143.1</ele>
        <time>2018-08-25T17:56:48Z</time>
      </trkpt>
      <trkpt lat="44.52425" lon="0.63557">
        <ele>142.3</ele>
        <time>2018-08-25T17:56:49Z</time>
      </trkpt>
      <trkpt lat="44.52421" lon="0.63556">
        <ele>142.1</ele>
        <time>2018-08-25T17:56:50Z</time>
      </trkpt>
      <trkpt lat="44.52417" lon="0.63557">
        <ele>141.7</ele>
        <time>2018-08-25T17:56:51Z</time>
      </trkpt>
      <trkpt lat="44.52414" lon="0.63557">
        <ele>141.5</ele>
        <time>2018-08-25T17:56:52Z</time>
      </trkpt>
      <trkpt lat="44.52411" lon="0.6356">
        <ele>141.8</ele>
        <time>2018-08-25T17:56:54Z</time>
      </trkpt>
      <trkpt lat="44.5241" lon="0.63564">
        <ele>141.9</ele>
        <time>2018-08-25T17:56:55Z</time>
      </trkpt>
      <trkpt lat="44.52411" lon="0.6357">
        <ele>142.2</ele>
        <time>2018-08-25T17:56:58Z</time>
      </trkpt>
      <trkpt lat="44.52411" lon="0.63574">
        <ele>142.9</ele>
        <time>2018-08-25T17:56:59Z</time>
      </trkpt>
      <trkpt lat="44.52413" lon="0.63577">
        <ele>143.3</ele>
        <time>2018-08-25T17:57:00Z</time>
      </trkpt>
      <trkpt lat="44.52412" lon="0.63582">
        <ele>143.6</ele>
        <time>2018-08-25T17:57:02Z</time>
      </trkpt>
      <trkpt lat="44.52414" lon="0.63588">
        <ele>144.2</ele>
        <time>2018-08-25T17:57:04Z</time>
      </trkpt>
      <trkpt lat="44.52416" lon="0.63592">
        <ele>144.9</ele>
        <time>2018-08-25T17:57:07Z</time>
      </trkpt>
      <trkpt lat="44.52419" lon="0.63594">
        <ele>145.5</ele>
        <time>2018-08-25T17:57:09Z</time>
      </trkpt>
      <trkpt lat="44.52425" lon="0.63592">
        <ele>146.2</ele>
        <time>2018-08-25T17:57:11Z</time>
      </trkpt>
      <trkpt lat="44.52428" lon="0.6359">
        <ele>146.7</ele>
        <time>2018-08-25T17:57:12Z</time>
      </trkpt>
      <trkpt lat="44.52431" lon="0.63589">
        <ele>147.2</ele>
        <time>2018-08-25T17:57:13Z</time>
      </trkpt>
      <trkpt lat="44.52434" lon="0.63589">
        <ele>147.8</ele>
        <time>2018-08-25T17:57:14Z</time>
      </trkpt>
      <trkpt lat="44.52437" lon="0.63589">
        <ele>148.3</ele>
        <time>2018-08-25T17:57:15Z</time>
      </trkpt>
      <trkpt lat="44.5244" lon="0.6359">
        <ele>148.8</ele>
        <time>2018-08-25T17:57:16Z</time>
      </trkpt>
      <trkpt lat="44.52444" lon="0.63592">
        <ele>149.4</ele>
        <time>2018-08-25T17:57:17Z</time>
      </trkpt>
      <trkpt lat="44.52448" lon="0.63593">
        <ele>150.5</ele>
        <time>2018-08-25T17:57:18Z</time>
      </trkpt>
      <trkpt lat="44.52452" lon="0.63594">
        <ele>151</ele>
        <time>2018-08-25T17:57:19Z</time>
      </trkpt>
      <trkpt lat="44.52456" lon="0.63596">
        <ele>151.5</ele>
        <time>2018-08-25T17:57:20Z</time>
      </trkpt>
      <trkpt lat="44.5246" lon="0.63599">
        <ele>152.2</ele>
        <time>2018-08-25T17:57:21Z</time>
      </trkpt>
      <trkpt lat="44.52464" lon="0.63603">
        <ele>153.2</ele>
        <time>2018-08-25T17:57:22Z</time>
      </trkpt>
      <trkpt lat="44.52468" lon="0.63609">
        <ele>153.8</ele>
        <time>2018-08-25T17:57:23Z</time>
      </trkpt>
      <trkpt lat="44.52473" lon="0.63616">
        <ele>154.9</ele>
        <time>2018-08-25T17:57:24Z</time>
      </trkpt>
      <trkpt lat="44.52476" lon="0.63623">
        <ele>155.5</ele>
        <time>2018-08-25T17:57:25Z</time>
      </trkpt>
      <trkpt lat="44.52478" lon="0.6363">
        <ele>155.7</ele>
        <time>2018-08-25T17:57:26Z</time>
      </trkpt>
      <trkpt lat="44.52481" lon="0.63639">
        <ele>156.2</ele>
        <time>2018-08-25T17:57:27Z</time>
      </trkpt>
      <trkpt lat="44.52483" lon="0.63648">
        <ele>156.6</ele>
        <time>2018-08-25T17:57:28Z</time>
      </trkpt>
      <trkpt lat="44.52486" lon="0.63656">
        <ele>156.9</ele>
        <time>2018-08-25T17:57:29Z</time>
      </trkpt>
      <trkpt lat="44.52489" lon="0.63664">
        <ele>157.1</ele>
        <time>2018-08-25T17:57:30Z</time>
      </trkpt>
      <trkpt lat="44.52495" lon="0.6367">
        <ele>157.4</ele>
        <time>2018-08-25T17:57:31Z</time>
      </trkpt>
      <trkpt lat="44.52495" lon="0.63675">
        <ele>157.5</ele>
        <time>2018-08-25T17:57:32Z</time>
      </trkpt>
      <trkpt lat="44.52496" lon="0.6368">
        <ele>157.7</ele>
        <time>2018-08-25T17:57:33Z</time>
      </trkpt>
      <trkpt lat="44.52497" lon="0.63685">
        <ele>157.8</ele>
        <time>2018-08-25T17:57:34Z</time>
      </trkpt>
      <trkpt lat="44.52498" lon="0.6369">
        <ele>157.9</ele>
        <time>2018-08-25T17:57:35Z</time>
      </trkpt>
      <trkpt lat="44.52498" lon="0.63695">
        <ele>157.9</ele>
        <time>2018-08-25T17:57:36Z</time>
      </trkpt>
      <trkpt lat="44.52498" lon="0.63699">
        <ele>158</ele>
        <time>2018-08-25T17:57:37Z</time>
      </trkpt>
      <trkpt lat="44.525" lon="0.63703">
        <ele>158.1</ele>
        <time>2018-08-25T17:57:38Z</time>
      </trkpt>
      <trkpt lat="44.52502" lon="0.63708">
        <ele>158.2</ele>
        <time>2018-08-25T17:57:39Z</time>
      </trkpt>
      <trkpt lat="44.525" lon="0.63716">
        <ele>157.9</ele>
        <time>2018-08-25T17:57:40Z</time>
      </trkpt>
      <trkpt lat="44.52498" lon="0.6372">
        <ele>157.8</ele>
        <time>2018-08-25T17:57:41Z</time>
      </trkpt>
      <trkpt lat="44.52498" lon="0.63725">
        <ele>157.6</ele>
        <time>2018-08-25T17:57:42Z</time>
      </trkpt>
      <trkpt lat="44.52498" lon="0.63729">
        <ele>157.4</ele>
        <time>2018-08-25T17:57:43Z</time>
      </trkpt>
      <trkpt lat="44.52497" lon="0.63733">
        <ele>157.3</ele>
        <time>2018-08-25T17:57:44Z</time>
      </trkpt>
      <trkpt lat="44.52497" lon="0.63737">
        <ele>157.2</ele>
        <time>2018-08-25T17:57:45Z</time>
      </trkpt>
      <trkpt lat="44.52496" lon="0.63744">
        <ele>156.5</ele>
        <time>2018-08-25T17:57:47Z</time>
      </trkpt>
      <trkpt lat="44.52496" lon="0.6375">
        <ele>156.4</ele>
        <time>2018-08-25T17:57:48Z</time>
      </trkpt>
      <trkpt lat="44.52495" lon="0.63756">
        <ele>156</ele>
        <time>2018-08-25T17:57:49Z</time>
      </trkpt>
      <trkpt lat="44.52495" lon="0.6376">
        <ele>155.8</ele>
        <time>2018-08-25T17:57:50Z</time>
      </trkpt>
      <trkpt lat="44.52495" lon="0.63765">
        <ele>155.6</ele>
        <time>2018-08-25T17:57:51Z</time>
      </trkpt>
      <trkpt lat="44.52495" lon="0.63769">
        <ele>155.4</ele>
        <time>2018-08-25T17:57:52Z</time>
      </trkpt>
      <trkpt lat="44.52496" lon="0.63777">
        <ele>155</ele>
        <time>2018-08-25T17:57:54Z</time>
      </trkpt>
      <trkpt lat="44.52496" lon="0.6378">
        <ele>155.1</ele>
        <time>2018-08-25T17:57:55Z</time>
      </trkpt>
      <trkpt lat="44.52495" lon="0.63785">
        <ele>154.9</ele>
        <time>2018-08-25T17:57:57Z</time>
      </trkpt>
      <trkpt lat="44.52492" lon="0.63788">
        <ele>154.4</ele>
        <time>2018-08-25T17:57:59Z</time>
      </trkpt>
      <trkpt lat="44.52488" lon="0.63791">
        <ele>153.8</ele>
        <time>2018-08-25T17:58:00Z</time>
      </trkpt>
      <trkpt lat="44.52483" lon="0.63794">
        <ele>153.1</ele>
        <time>2018-08-25T17:58:01Z</time>
      </trkpt>
      <trkpt lat="44.52476" lon="0.63797">
        <ele>152</ele>
        <time>2018-08-25T17:58:02Z</time>
      </trkpt>
      <trkpt lat="44.52468" lon="0.63802">
        <ele>150.5</ele>
        <time>2018-08-25T17:58:03Z</time>
      </trkpt>
      <trkpt lat="44.52461" lon="0.63806">
        <ele>149.5</ele>
        <time>2018-08-25T17:58:04Z</time>
      </trkpt>
      <trkpt lat="44.52454" lon="0.6381">
        <ele>148.6</ele>
        <time>2018-08-25T17:58:05Z</time>
      </trkpt>
      <trkpt lat="44.52447" lon="0.63815">
        <ele>148</ele>
        <time>2018-08-25T17:58:06Z</time>
      </trkpt>
      <trkpt lat="44.52442" lon="0.63821">
        <ele>147.4</ele>
        <time>2018-08-25T17:58:07Z</time>
      </trkpt>
      <trkpt lat="44.5244" lon="0.63828">
        <ele>146.9</ele>
        <time>2018-08-25T17:58:08Z</time>
      </trkpt>
      <trkpt lat="44.52439" lon="0.63838">
        <ele>146.6</ele>
        <time>2018-08-25T17:58:09Z</time>
      </trkpt>
      <trkpt lat="44.5244" lon="0.63847">
        <ele>146.2</ele>
        <time>2018-08-25T17:58:10Z</time>
      </trkpt>
      <trkpt lat="44.52443" lon="0.63855">
        <ele>145.9</ele>
        <time>2018-08-25T17:58:11Z</time>
      </trkpt>
      <trkpt lat="44.52445" lon="0.63861">
        <ele>145.7</ele>
        <time>2018-08-25T17:58:12Z</time>
      </trkpt>
      <trkpt lat="44.52447" lon="0.63867">
        <ele>145.4</ele>
        <time>2018-08-25T17:58:13Z</time>
      </trkpt>
      <trkpt lat="44.52451" lon="0.63873">
        <ele>145.5</ele>
        <time>2018-08-25T17:58:20Z</time>
      </trkpt>
      <trkpt lat="44.52452" lon="0.63881">
        <ele>145.5</ele>
        <time>2018-08-25T18:00:54Z</time>
      </trkpt>
      <trkpt lat="44.52457" lon="0.63887">
        <ele>145.5</ele>
        <time>2018-08-25T18:00:56Z</time>
      </trkpt>
      <trkpt lat="44.52462" lon="0.63889">
        <ele>145.4</ele>
        <time>2018-08-25T18:00:57Z</time>
      </trkpt>
      <trkpt lat="44.5247" lon="0.63891">
        <ele>145.4</ele>
        <time>2018-08-25T18:00:58Z</time>
      </trkpt>
      <trkpt lat="44.52478" lon="0.63891">
        <ele>145.4</ele>
        <time>2018-08-25T18:00:59Z</time>
      </trkpt>
      <trkpt lat="44.52487" lon="0.63891">
        <ele>145.4</ele>
        <time>2018-08-25T18:01:00Z</time>
      </trkpt>
      <trkpt lat="44.52498" lon="0.63891">
        <ele>145.4</ele>
        <time>2018-08-25T18:01:01Z</time>
      </trkpt>
      <trkpt lat="44.52506" lon="0.63889">
        <ele>145.4</ele>
        <time>2018-08-25T18:01:02Z</time>
      </trkpt>
      <trkpt lat="44.52513" lon="0.63885">
        <ele>145.4</ele>
        <time>2018-08-25T18:01:03Z</time>
      </trkpt>
      <trkpt lat="44.52512" lon="0.63879">
        <ele>145.4</ele>
        <time>2018-08-25T18:01:04Z</time>
      </trkpt>
      <trkpt lat="44.52515" lon="0.63877">
        <ele>145.4</ele>
        <time>2018-08-25T18:01:05Z</time>
      </trkpt>
      <trkpt lat="44.52518" lon="0.63876">
        <ele>145.4</ele>
        <time>2018-08-25T18:01:06Z</time>
      </trkpt>
      <trkpt lat="44.52522" lon="0.63875">
        <ele>145.4</ele>
        <time>2018-08-25T18:01:09Z</time>
      </trkpt>
      <trkpt lat="44.5253" lon="0.63873">
        <ele>145.4</ele>
        <time>2018-08-25T18:01:11Z</time>
      </trkpt>
      <trkpt lat="44.52537" lon="0.63876">
        <ele>146.4</ele>
        <time>2018-08-25T18:01:13Z</time>
      </trkpt>
      <trkpt lat="44.52541" lon="0.63877">
        <ele>146.7</ele>
        <time>2018-08-25T18:01:14Z</time>
      </trkpt>
      <trkpt lat="44.52549" lon="0.63886">
        <ele>147.6</ele>
        <time>2018-08-25T18:01:16Z</time>
      </trkpt>
      <trkpt lat="44.52553" lon="0.63894">
        <ele>147.3</ele>
        <time>2018-08-25T18:01:17Z</time>
      </trkpt>
      <trkpt lat="44.52559" lon="0.63897">
        <ele>148.3</ele>
        <time>2018-08-25T18:01:18Z</time>
      </trkpt>
      <trkpt lat="44.52562" lon="0.63904">
        <ele>147.9</ele>
        <time>2018-08-25T18:01:19Z</time>
      </trkpt>
      <trkpt lat="44.52564" lon="0.63911">
        <ele>147.1</ele>
        <time>2018-08-25T18:01:20Z</time>
      </trkpt>
      <trkpt lat="44.52567" lon="0.63918">
        <ele>147.3</ele>
        <time>2018-08-25T18:01:21Z</time>
      </trkpt>
      <trkpt lat="44.5257" lon="0.63924">
        <ele>146.9</ele>
        <time>2018-08-25T18:01:22Z</time>
      </trkpt>
      <trkpt lat="44.52571" lon="0.6393">
        <ele>147.1</ele>
        <time>2018-08-25T18:01:23Z</time>
      </trkpt>
      <trkpt lat="44.52573" lon="0.63939">
        <ele>146.4</ele>
        <time>2018-08-25T18:01:25Z</time>
      </trkpt>
      <trkpt lat="44.52574" lon="0.63947">
        <ele>146.2</ele>
        <time>2018-08-25T18:01:26Z</time>
      </trkpt>
      <trkpt lat="44.52576" lon="0.63951">
        <ele>145.9</ele>
        <time>2018-08-25T18:01:27Z</time>
      </trkpt>
      <trkpt lat="44.52578" lon="0.63955">
        <ele>146.1</ele>
        <time>2018-08-25T18:01:28Z</time>
      </trkpt>
      <trkpt lat="44.52578" lon="0.63961">
        <ele>145.7</ele>
        <time>2018-08-25T18:01:29Z</time>
      </trkpt>
      <trkpt lat="44.52579" lon="0.63967">
        <ele>145.2</ele>
        <time>2018-08-25T18:01:30Z</time>
      </trkpt>
      <trkpt lat="44.5258" lon="0.63971">
        <ele>145.4</ele>
        <time>2018-08-25T18:01:31Z</time>
      </trkpt>
      <trkpt lat="44.52582" lon="0.63977">
        <ele>145.1</ele>
        <time>2018-08-25T18:01:32Z</time>
      </trkpt>
      <trkpt lat="44.52585" lon="0.63982">
        <ele>145.4</ele>
        <time>2018-08-25T18:01:33Z</time>
      </trkpt>
      <trkpt lat="44.5259" lon="0.6399">
        <ele>145.8</ele>
        <time>2018-08-25T18:01:34Z</time>
      </trkpt>
      <trkpt lat="44.52594" lon="0.63996">
        <ele>145.6</ele>
        <time>2018-08-25T18:01:35Z</time>
      </trkpt>
      <trkpt lat="44.52599" lon="0.64002">
        <ele>146.2</ele>
        <time>2018-08-25T18:01:36Z</time>
      </trkpt>
      <trkpt lat="44.52603" lon="0.64007">
        <ele>146.2</ele>
        <time>2018-08-25T18:01:37Z</time>
      </trkpt>
      <trkpt lat="44.52607" lon="0.64013">
        <ele>146.2</ele>
        <time>2018-08-25T18:01:38Z</time>
      </trkpt>
      <trkpt lat="44.52612" lon="0.64018">
        <ele>146.2</ele>
        <time>2018-08-25T18:01:39Z</time>
      </trkpt>
      <trkpt lat="44.52616" lon="0.64022">
        <ele>146.6</ele>
        <time>2018-08-25T18:01:40Z</time>
      </trkpt>
      <trkpt lat="44.5262" lon="0.64028">
        <ele>146.5</ele>
        <time>2018-08-25T18:01:41Z</time>
      </trkpt>
      <trkpt lat="44.52625" lon="0.64035">
        <ele>145.9</ele>
        <time>2018-08-25T18:01:42Z</time>
      </trkpt>
      <trkpt lat="44.52628" lon="0.64042">
        <ele>145.9</ele>
        <time>2018-08-25T18:01:43Z</time>
      </trkpt>
      <trkpt lat="44.52631" lon="0.64048">
        <ele>145.5</ele>
        <time>2018-08-25T18:01:44Z</time>
      </trkpt>
      <trkpt lat="44.52633" lon="0.64056">
        <ele>145.3</ele>
        <time>2018-08-25T18:01:45Z</time>
      </trkpt>
      <trkpt lat="44.52635" lon="0.64063">
        <ele>145.4</ele>
        <time>2018-08-25T18:01:46Z</time>
      </trkpt>
      <trkpt lat="44.52638" lon="0.6407">
        <ele>145.3</ele>
        <time>2018-08-25T18:01:47Z</time>
      </trkpt>
      <trkpt lat="44.5264" lon="0.64076">
        <ele>145</ele>
        <time>2018-08-25T18:01:48Z</time>
      </trkpt>
      <trkpt lat="44.52642" lon="0.64082">
        <ele>145</ele>
        <time>2018-08-25T18:01:49Z</time>
      </trkpt>
      <trkpt lat="44.52643" lon="0.64088">
        <ele>144.7</ele>
        <time>2018-08-25T18:01:50Z</time>
      </trkpt>
      <trkpt lat="44.52645" lon="0.64091">
        <ele>145</ele>
        <time>2018-08-25T18:01:51Z</time>
      </trkpt>
      <trkpt lat="44.52649" lon="0.64091">
        <ele>145.4</ele>
        <time>2018-08-25T18:01:54Z</time>
      </trkpt>
      <trkpt lat="44.52653" lon="0.6409">
        <ele>145.8</ele>
        <time>2018-08-25T18:01:57Z</time>
      </trkpt>
      <trkpt lat="44.52656" lon="0.64097">
        <ele>146.4</ele>
        <time>2018-08-25T18:01:59Z</time>
      </trkpt>
      <trkpt lat="44.52658" lon="0.64103">
        <ele>146.2</ele>
        <time>2018-08-25T18:02:00Z</time>
      </trkpt>
      <trkpt lat="44.5266" lon="0.64108">
        <ele>146.2</ele>
        <time>2018-08-25T18:02:01Z</time>
      </trkpt>
      <trkpt lat="44.52662" lon="0.64114">
        <ele>146.3</ele>
        <time>2018-08-25T18:02:02Z</time>
      </trkpt>
      <trkpt lat="44.52665" lon="0.6412">
        <ele>145.8</ele>
        <time>2018-08-25T18:02:03Z</time>
      </trkpt>
      <trkpt lat="44.52672" lon="0.64127">
        <ele>146.8</ele>
        <time>2018-08-25T18:02:04Z</time>
      </trkpt>
      <trkpt lat="44.52675" lon="0.64133">
        <ele>146.9</ele>
        <time>2018-08-25T18:02:05Z</time>
      </trkpt>
      <trkpt lat="44.52675" lon="0.6414">
        <ele>146.6</ele>
        <time>2018-08-25T18:02:06Z</time>
      </trkpt>
      <trkpt lat="44.52677" lon="0.64145">
        <ele>146.8</ele>
        <time>2018-08-25T18:02:07Z</time>
      </trkpt>
      <trkpt lat="44.52679" lon="0.64148">
        <ele>146.6</ele>
        <time>2018-08-25T18:02:08Z</time>
      </trkpt>
      <trkpt lat="44.5268" lon="0.64153">
        <ele>146.4</ele>
        <time>2018-08-25T18:02:10Z</time>
      </trkpt>
      <trkpt lat="44.5268" lon="0.64157">
        <ele>146.3</ele>
        <time>2018-08-25T18:02:11Z</time>
      </trkpt>
      <trkpt lat="44.52679" lon="0.64162">
        <ele>146.1</ele>
        <time>2018-08-25T18:02:12Z</time>
      </trkpt>
      <trkpt lat="44.5268" lon="0.64167">
        <ele>146.2</ele>
        <time>2018-08-25T18:02:13Z</time>
      </trkpt>
      <trkpt lat="44.52681" lon="0.64174">
        <ele>145.9</ele>
        <time>2018-08-25T18:02:14Z</time>
      </trkpt>
      <trkpt lat="44.52684" lon="0.64181">
        <ele>146</ele>
        <time>2018-08-25T18:02:15Z</time>
      </trkpt>
      <trkpt lat="44.52685" lon="0.64189">
        <ele>145.9</ele>
        <time>2018-08-25T18:02:16Z</time>
      </trkpt>
      <trkpt lat="44.52687" lon="0.64196">
        <ele>146</ele>
        <time>2018-08-25T18:02:17Z</time>
      </trkpt>
      <trkpt lat="44.52689" lon="0.64204">
        <ele>145.9</ele>
        <time>2018-08-25T18:02:18Z</time>
      </trkpt>
      <trkpt lat="44.52691" lon="0.64211">
        <ele>146</ele>
        <time>2018-08-25T18:02:19Z</time>
      </trkpt>
      <trkpt lat="44.52693" lon="0.64218">
        <ele>146</ele>
        <time>2018-08-25T18:02:20Z</time>
      </trkpt>
      <trkpt lat="44.52694" lon="0.64226">
        <ele>145.8</ele>
        <time>2018-08-25T18:02:21Z</time>
      </trkpt>
      <trkpt lat="44.52696" lon="0.64233">
        <ele>145.9</ele>
        <time>2018-08-25T18:02:22Z</time>
      </trkpt>
      <trkpt lat="44.52698" lon="0.64239">
        <ele>145.8</ele>
        <time>2018-08-25T18:02:23Z</time>
      </trkpt>
      <trkpt lat="44.52699" lon="0.64245">
        <ele>145.8</ele>
        <time>2018-08-25T18:02:24Z</time>
      </trkpt>
      <trkpt lat="44.52701" lon="0.64252">
        <ele>145.7</ele>
        <time>2018-08-25T18:02:25Z</time>
      </trkpt>
      <trkpt lat="44.52703" lon="0.64259">
        <ele>145.6</ele>
        <time>2018-08-25T18:02:26Z</time>
      </trkpt>
      <trkpt lat="44.52705" lon="0.64267">
        <ele>145.6</ele>
        <time>2018-08-25T18:02:27Z</time>
      </trkpt>
      <trkpt lat="44.52708" lon="0.64274">
        <ele>145.5</ele>
        <time>2018-08-25T18:02:28Z</time>
      </trkpt>
      <trkpt lat="44.52709" lon="0.64282">
        <ele>145.5</ele>
        <time>2018-08-25T18:02:29Z</time>
      </trkpt>
      <trkpt lat="44.5271" lon="0.64289">
        <ele>145.4</ele>
        <time>2018-08-25T18:02:30Z</time>
      </trkpt>
      <trkpt lat="44.52712" lon="0.64295">
        <ele>145.4</ele>
        <time>2018-08-25T18:02:31Z</time>
      </trkpt>
      <trkpt lat="44.52714" lon="0.64302">
        <ele>145.3</ele>
        <time>2018-08-25T18:02:32Z</time>
      </trkpt>
      <trkpt lat="44.52715" lon="0.64308">
        <ele>145.3</ele>
        <time>2018-08-25T18:02:33Z</time>
      </trkpt>
      <trkpt lat="44.52717" lon="0.64315">
        <ele>145.2</ele>
        <time>2018-08-25T18:02:34Z</time>
      </trkpt>
      <trkpt lat="44.52719" lon="0.64321">
        <ele>145</ele>
        <time>2018-08-25T18:02:35Z</time>
      </trkpt>
      <trkpt lat="44.52721" lon="0.64329">
        <ele>144.8</ele>
        <time>2018-08-25T18:02:36Z</time>
      </trkpt>
      <trkpt lat="44.52722" lon="0.64336">
        <ele>144.3</ele>
        <time>2018-08-25T18:02:37Z</time>
      </trkpt>
      <trkpt lat="44.52725" lon="0.64343">
        <ele>143.9</ele>
        <time>2018-08-25T18:02:38Z</time>
      </trkpt>
      <trkpt lat="44.52726" lon="0.64351">
        <ele>143.6</ele>
        <time>2018-08-25T18:02:39Z</time>
      </trkpt>
      <trkpt lat="44.52728" lon="0.64358">
        <ele>143.1</ele>
        <time>2018-08-25T18:02:40Z</time>
      </trkpt>
      <trkpt lat="44.5273" lon="0.64364">
        <ele>142.9</ele>
        <time>2018-08-25T18:02:41Z</time>
      </trkpt>
      <trkpt lat="44.52732" lon="0.6437">
        <ele>142.3</ele>
        <time>2018-08-25T18:02:42Z</time>
      </trkpt>
      <trkpt lat="44.52734" lon="0.64375">
        <ele>142.1</ele>
        <time>2018-08-25T18:02:43Z</time>
      </trkpt>
      <trkpt lat="44.52737" lon="0.64379">
        <ele>141.9</ele>
        <time>2018-08-25T18:02:44Z</time>
      </trkpt>
      <trkpt lat="44.5274" lon="0.64381">
        <ele>142</ele>
        <time>2018-08-25T18:02:45Z</time>
      </trkpt>
      <trkpt lat="44.52745" lon="0.6438">
        <ele>142.2</ele>
        <time>2018-08-25T18:02:47Z</time>
      </trkpt>
      <trkpt lat="44.52749" lon="0.64379">
        <ele>142.3</ele>
        <time>2018-08-25T18:02:48Z</time>
      </trkpt>
      <trkpt lat="44.52753" lon="0.64377">
        <ele>142.6</ele>
        <time>2018-08-25T18:02:49Z</time>
      </trkpt>
      <trkpt lat="44.52758" lon="0.64375">
        <ele>142.8</ele>
        <time>2018-08-25T18:02:50Z</time>
      </trkpt>
      <trkpt lat="44.52764" lon="0.64373">
        <ele>143.2</ele>
        <time>2018-08-25T18:02:51Z</time>
      </trkpt>
      <trkpt lat="44.52769" lon="0.64371">
        <ele>143.3</ele>
        <time>2018-08-25T18:02:52Z</time>
      </trkpt>
      <trkpt lat="44.52775" lon="0.64369">
        <ele>143.3</ele>
        <time>2018-08-25T18:02:53Z</time>
      </trkpt>
      <trkpt lat="44.5278" lon="0.64368">
        <ele>143.6</ele>
        <time>2018-08-25T18:02:54Z</time>
      </trkpt>
      <trkpt lat="44.52786" lon="0.64367">
        <ele>143.6</ele>
        <time>2018-08-25T18:02:55Z</time>
      </trkpt>
      <trkpt lat="44.52791" lon="0.64366">
        <ele>143.6</ele>
        <time>2018-08-25T18:02:56Z</time>
      </trkpt>
      <trkpt lat="44.52797" lon="0.64366">
        <ele>143.5</ele>
        <time>2018-08-25T18:02:57Z</time>
      </trkpt>
      <trkpt lat="44.52803" lon="0.64367">
        <ele>143.5</ele>
        <time>2018-08-25T18:02:58Z</time>
      </trkpt>
      <trkpt lat="44.52809" lon="0.64367">
        <ele>143.4</ele>
        <time>2018-08-25T18:02:59Z</time>
      </trkpt>
      <trkpt lat="44.52816" lon="0.64369">
        <ele>143.2</ele>
        <time>2018-08-25T18:03:00Z</time>
      </trkpt>
      <trkpt lat="44.52822" lon="0.6437">
        <ele>143</ele>
        <time>2018-08-25T18:03:01Z</time>
      </trkpt>
      <trkpt lat="44.52826" lon="0.64372">
        <ele>142.9</ele>
        <time>2018-08-25T18:03:02Z</time>
      </trkpt>
      <trkpt lat="44.52831" lon="0.64374">
        <ele>142.6</ele>
        <time>2018-08-25T18:03:03Z</time>
      </trkpt>
      <trkpt lat="44.52836" lon="0.64375">
        <ele>142.4</ele>
        <time>2018-08-25T18:03:04Z</time>
      </trkpt>
      <trkpt lat="44.52841" lon="0.64377">
        <ele>142.2</ele>
        <time>2018-08-25T18:03:05Z</time>
      </trkpt>
      <trkpt lat="44.52846" lon="0.64378">
        <ele>141.9</ele>
        <time>2018-08-25T18:03:06Z</time>
      </trkpt>
      <trkpt lat="44.5285" lon="0.64379">
        <ele>141.8</ele>
        <time>2018-08-25T18:03:07Z</time>
      </trkpt>
      <trkpt lat="44.52855" lon="0.64377">
        <ele>141.7</ele>
        <time>2018-08-25T18:03:09Z</time>
      </trkpt>
      <trkpt lat="44.52858" lon="0.64376">
        <ele>141.5</ele>
        <time>2018-08-25T18:03:10Z</time>
      </trkpt>
      <trkpt lat="44.52863" lon="0.64376">
        <ele>141.4</ele>
        <time>2018-08-25T18:03:11Z</time>
      </trkpt>
      <trkpt lat="44.52866" lon="0.64375">
        <ele>141.3</ele>
        <time>2018-08-25T18:03:12Z</time>
      </trkpt>
      <trkpt lat="44.5287" lon="0.64375">
        <ele>141.1</ele>
        <time>2018-08-25T18:03:13Z</time>
      </trkpt>
      <trkpt lat="44.52873" lon="0.64375">
        <ele>141</ele>
        <time>2018-08-25T18:03:14Z</time>
      </trkpt>
      <trkpt lat="44.52876" lon="0.64374">
        <ele>140.9</ele>
        <time>2018-08-25T18:03:15Z</time>
      </trkpt>
      <trkpt lat="44.5288" lon="0.6438">
        <ele>140.7</ele>
        <time>2018-08-25T18:03:17Z</time>
      </trkpt>
      <trkpt lat="44.52882" lon="0.64387">
        <ele>140.7</ele>
        <time>2018-08-25T18:03:18Z</time>
      </trkpt>
      <trkpt lat="44.52884" lon="0.64395">
        <ele>140.7</ele>
        <time>2018-08-25T18:03:19Z</time>
      </trkpt>
      <trkpt lat="44.52887" lon="0.64405">
        <ele>140.8</ele>
        <time>2018-08-25T18:03:20Z</time>
      </trkpt>
      <trkpt lat="44.5289" lon="0.64414">
        <ele>140.9</ele>
        <time>2018-08-25T18:03:21Z</time>
      </trkpt>
      <trkpt lat="44.52894" lon="0.64422">
        <ele>141.1</ele>
        <time>2018-08-25T18:03:22Z</time>
      </trkpt>
      <trkpt lat="44.52897" lon="0.6443">
        <ele>141.1</ele>
        <time>2018-08-25T18:03:23Z</time>
      </trkpt>
      <trkpt lat="44.52898" lon="0.64437">
        <ele>141.2</ele>
        <time>2018-08-25T18:03:24Z</time>
      </trkpt>
      <trkpt lat="44.52901" lon="0.64446">
        <ele>141.1</ele>
        <time>2018-08-25T18:03:25Z</time>
      </trkpt>
      <trkpt lat="44.52902" lon="0.64456">
        <ele>140.9</ele>
        <time>2018-08-25T18:03:26Z</time>
      </trkpt>
      <trkpt lat="44.52903" lon="0.64469">
        <ele>140.5</ele>
        <time>2018-08-25T18:03:27Z</time>
      </trkpt>
      <trkpt lat="44.52904" lon="0.64481">
        <ele>140</ele>
        <time>2018-08-25T18:03:28Z</time>
      </trkpt>
      <trkpt lat="44.52904" lon="0.64491">
        <ele>139.7</ele>
        <time>2018-08-25T18:03:29Z</time>
      </trkpt>
      <trkpt lat="44.52906" lon="0.64501">
        <ele>139.3</ele>
        <time>2018-08-25T18:03:30Z</time>
      </trkpt>
      <trkpt lat="44.52909" lon="0.6451">
        <ele>139</ele>
        <time>2018-08-25T18:03:31Z</time>
      </trkpt>
      <trkpt lat="44.52914" lon="0.64517">
        <ele>138.6</ele>
        <time>2018-08-25T18:03:32Z</time>
      </trkpt>
      <trkpt lat="44.52919" lon="0.64525">
        <ele>138</ele>
        <time>2018-08-25T18:03:33Z</time>
      </trkpt>
      <trkpt lat="44.52926" lon="0.64535">
        <ele>137.3</ele>
        <time>2018-08-25T18:03:34Z</time>
      </trkpt>
      <trkpt lat="44.52931" lon="0.64541">
        <ele>136.7</ele>
        <time>2018-08-25T18:03:35Z</time>
      </trkpt>
      <trkpt lat="44.52937" lon="0.64549">
        <ele>136</ele>
        <time>2018-08-25T18:03:36Z</time>
      </trkpt>
      <trkpt lat="44.52943" lon="0.64557">
        <ele>135.4</ele>
        <time>2018-08-25T18:03:37Z</time>
      </trkpt>
      <trkpt lat="44.52947" lon="0.64564">
        <ele>134.2</ele>
        <time>2018-08-25T18:03:38Z</time>
      </trkpt>
      <trkpt lat="44.52948" lon="0.64572">
        <ele>133.4</ele>
        <time>2018-08-25T18:03:39Z</time>
      </trkpt>
      <trkpt lat="44.52952" lon="0.64581">
        <ele>132.3</ele>
        <time>2018-08-25T18:03:40Z</time>
      </trkpt>
      <trkpt lat="44.52955" lon="0.64593">
        <ele>130.9</ele>
        <time>2018-08-25T18:03:41Z</time>
      </trkpt>
      <trkpt lat="44.52958" lon="0.64603">
        <ele>130</ele>
        <time>2018-08-25T18:03:42Z</time>
      </trkpt>
      <trkpt lat="44.5296" lon="0.64611">
        <ele>129.4</ele>
        <time>2018-08-25T18:03:43Z</time>
      </trkpt>
      <trkpt lat="44.52962" lon="0.64619">
        <ele>128.8</ele>
        <time>2018-08-25T18:03:44Z</time>
      </trkpt>
      <trkpt lat="44.52964" lon="0.64623">
        <ele>128.6</ele>
        <time>2018-08-25T18:03:45Z</time>
      </trkpt>
      <trkpt lat="44.52963" lon="0.64628">
        <ele>128.4</ele>
        <time>2018-08-25T18:03:46Z</time>
      </trkpt>
      <trkpt lat="44.52961" lon="0.64631">
        <ele>128.5</ele>
        <time>2018-08-25T18:03:47Z</time>
      </trkpt>
      <trkpt lat="44.52959" lon="0.64635">
        <ele>128.3</ele>
        <time>2018-08-25T18:03:48Z</time>
      </trkpt>
      <trkpt lat="44.52955" lon="0.64638">
        <ele>128.6</ele>
        <time>2018-08-25T18:03:49Z</time>
      </trkpt>
      <trkpt lat="44.52948" lon="0.64643">
        <ele>128.9</ele>
        <time>2018-08-25T18:03:50Z</time>
      </trkpt>
      <trkpt lat="44.52943" lon="0.64648">
        <ele>129.1</ele>
        <time>2018-08-25T18:03:51Z</time>
      </trkpt>
      <trkpt lat="44.5294" lon="0.6465">
        <ele>129.2</ele>
        <time>2018-08-25T18:03:52Z</time>
      </trkpt>
      <trkpt lat="44.52938" lon="0.64655">
        <ele>128.9</ele>
        <time>2018-08-25T18:03:53Z</time>
      </trkpt>
      <trkpt lat="44.52942" lon="0.64664">
        <ele>128.3</ele>
        <time>2018-08-25T18:03:55Z</time>
      </trkpt>
      <trkpt lat="44.52945" lon="0.64672">
        <ele>127.6</ele>
        <time>2018-08-25T18:03:56Z</time>
      </trkpt>
      <trkpt lat="44.52948" lon="0.64681">
        <ele>127</ele>
        <time>2018-08-25T18:03:57Z</time>
      </trkpt>
      <trkpt lat="44.52954" lon="0.64692">
        <ele>126</ele>
        <time>2018-08-25T18:03:58Z</time>
      </trkpt>
      <trkpt lat="44.52959" lon="0.64704">
        <ele>125.2</ele>
        <time>2018-08-25T18:03:59Z</time>
      </trkpt>
      <trkpt lat="44.52964" lon="0.64717">
        <ele>124.1</ele>
        <time>2018-08-25T18:04:00Z</time>
      </trkpt>
      <trkpt lat="44.52971" lon="0.64731">
        <ele>122.9</ele>
        <time>2018-08-25T18:04:01Z</time>
      </trkpt>
      <trkpt lat="44.52977" lon="0.64746">
        <ele>121.4</ele>
        <time>2018-08-25T18:04:02Z</time>
      </trkpt>
      <trkpt lat="44.52983" lon="0.64759">
        <ele>119.5</ele>
        <time>2018-08-25T18:04:03Z</time>
      </trkpt>
      <trkpt lat="44.5299" lon="0.64773">
        <ele>118.4</ele>
        <time>2018-08-25T18:04:04Z</time>
      </trkpt>
      <trkpt lat="44.52995" lon="0.64784">
        <ele>118</ele>
        <time>2018-08-25T18:04:05Z</time>
      </trkpt>
      <trkpt lat="44.53" lon="0.64795">
        <ele>117.5</ele>
        <time>2018-08-25T18:04:06Z</time>
      </trkpt>
      <trkpt lat="44.53004" lon="0.64804">
        <ele>117.3</ele>
        <time>2018-08-25T18:04:07Z</time>
      </trkpt>
      <trkpt lat="44.53009" lon="0.64814">
        <ele>116.9</ele>
        <time>2018-08-25T18:04:08Z</time>
      </trkpt>
      <trkpt lat="44.53014" lon="0.64825">
        <ele>116.6</ele>
        <time>2018-08-25T18:04:09Z</time>
      </trkpt>
      <trkpt lat="44.53019" lon="0.64837">
        <ele>116.3</ele>
        <time>2018-08-25T18:04:10Z</time>
      </trkpt>
      <trkpt lat="44.53024" lon="0.64848">
        <ele>115.8</ele>
        <time>2018-08-25T18:04:11Z</time>
      </trkpt>
      <trkpt lat="44.53028" lon="0.64858">
        <ele>115.4</ele>
        <time>2018-08-25T18:04:12Z</time>
      </trkpt>
      <trkpt lat="44.53032" lon="0.64865">
        <ele>115.1</ele>
        <time>2018-08-25T18:04:13Z</time>
      </trkpt>
      <trkpt lat="44.53036" lon="0.6487">
        <ele>114.7</ele>
        <time>2018-08-25T18:04:14Z</time>
      </trkpt>
      <trkpt lat="44.53041" lon="0.64871">
        <ele>114.4</ele>
        <time>2018-08-25T18:04:15Z</time>
      </trkpt>
      <trkpt lat="44.5305" lon="0.64871">
        <ele>113.9</ele>
        <time>2018-08-25T18:04:16Z</time>
      </trkpt>
      <trkpt lat="44.5306" lon="0.64871">
        <ele>113.2</ele>
        <time>2018-08-25T18:04:17Z</time>
      </trkpt>
      <trkpt lat="44.53072" lon="0.64871">
        <ele>112.6</ele>
        <time>2018-08-25T18:04:18Z</time>
      </trkpt>
      <trkpt lat="44.53085" lon="0.64871">
        <ele>111.7</ele>
        <time>2018-08-25T18:04:19Z</time>
      </trkpt>
      <trkpt lat="44.53098" lon="0.64872">
        <ele>111</ele>
        <time>2018-08-25T18:04:20Z</time>
      </trkpt>
      <trkpt lat="44.5311" lon="0.64872">
        <ele>110.5</ele>
        <time>2018-08-25T18:04:21Z</time>
      </trkpt>
      <trkpt lat="44.53122" lon="0.64873">
        <ele>110</ele>
        <time>2018-08-25T18:04:22Z</time>
      </trkpt>
      <trkpt lat="44.53134" lon="0.64873">
        <ele>109.7</ele>
        <time>2018-08-25T18:04:23Z</time>
      </trkpt>
      <trkpt lat="44.53144" lon="0.64873">
        <ele>109.5</ele>
        <time>2018-08-25T18:04:24Z</time>
      </trkpt>
      <trkpt lat="44.53153" lon="0.64873">
        <ele>109.3</ele>
        <time>2018-08-25T18:04:25Z</time>
      </trkpt>
      <trkpt lat="44.53161" lon="0.64873">
        <ele>109.3</ele>
        <time>2018-08-25T18:04:26Z</time>
      </trkpt>
      <trkpt lat="44.53168" lon="0.64873">
        <ele>109.3</ele>
        <time>2018-08-25T18:04:27Z</time>
      </trkpt>
      <trkpt lat="44.53173" lon="0.64872">
        <ele>109.2</ele>
        <time>2018-08-25T18:04:28Z</time>
      </trkpt>
      <trkpt lat="44.53179" lon="0.64871">
        <ele>109.3</ele>
        <time>2018-08-25T18:04:29Z</time>
      </trkpt>
      <trkpt lat="44.53185" lon="0.64871">
        <ele>109.2</ele>
        <time>2018-08-25T18:04:30Z</time>
      </trkpt>
      <trkpt lat="44.53193" lon="0.6487">
        <ele>109.2</ele>
        <time>2018-08-25T18:04:31Z</time>
      </trkpt>
      <trkpt lat="44.53203" lon="0.64869">
        <ele>109.2</ele>
        <time>2018-08-25T18:04:32Z</time>
      </trkpt>
      <trkpt lat="44.53215" lon="0.64869">
        <ele>109.2</ele>
        <time>2018-08-25T18:04:33Z</time>
      </trkpt>
      <trkpt lat="44.53227" lon="0.6487">
        <ele>109.6</ele>
        <time>2018-08-25T18:04:34Z</time>
      </trkpt>
      <trkpt lat="44.53239" lon="0.6487">
        <ele>110.2</ele>
        <time>2018-08-25T18:04:35Z</time>
      </trkpt>
      <trkpt lat="44.53253" lon="0.64871">
        <ele>111.3</ele>
        <time>2018-08-25T18:04:36Z</time>
      </trkpt>
      <trkpt lat="44.53266" lon="0.64871">
        <ele>112.5</ele>
        <time>2018-08-25T18:04:37Z</time>
      </trkpt>
      <trkpt lat="44.5328" lon="0.6487">
        <ele>114.4</ele>
        <time>2018-08-25T18:04:38Z</time>
      </trkpt>
      <trkpt lat="44.53294" lon="0.6487">
        <ele>115.9</ele>
        <time>2018-08-25T18:04:39Z</time>
      </trkpt>
      <trkpt lat="44.53305" lon="0.6487">
        <ele>117.4</ele>
        <time>2018-08-25T18:04:40Z</time>
      </trkpt>
      <trkpt lat="44.53315" lon="0.64871">
        <ele>118.5</ele>
        <time>2018-08-25T18:04:41Z</time>
      </trkpt>
      <trkpt lat="44.53324" lon="0.64871">
        <ele>119.4</ele>
        <time>2018-08-25T18:04:42Z</time>
      </trkpt>
      <trkpt lat="44.53331" lon="0.64871">
        <ele>120</ele>
        <time>2018-08-25T18:04:43Z</time>
      </trkpt>
      <trkpt lat="44.53337" lon="0.64872">
        <ele>120.7</ele>
        <time>2018-08-25T18:04:44Z</time>
      </trkpt>
      <trkpt lat="44.53342" lon="0.64874">
        <ele>121.3</ele>
        <time>2018-08-25T18:04:45Z</time>
      </trkpt>
      <trkpt lat="44.53347" lon="0.64879">
        <ele>121.5</ele>
        <time>2018-08-25T18:04:46Z</time>
      </trkpt>
      <trkpt lat="44.53352" lon="0.64891">
        <ele>121.7</ele>
        <time>2018-08-25T18:04:47Z</time>
      </trkpt>
      <trkpt lat="44.53352" lon="0.64909">
        <ele>121.2</ele>
        <time>2018-08-25T18:04:48Z</time>
      </trkpt>
      <trkpt lat="44.53357" lon="0.64924">
        <ele>121.6</ele>
        <time>2018-08-25T18:04:49Z</time>
      </trkpt>
      <trkpt lat="44.53362" lon="0.64937">
        <ele>122</ele>
        <time>2018-08-25T18:04:50Z</time>
      </trkpt>
      <trkpt lat="44.53368" lon="0.64953">
        <ele>122.9</ele>
        <time>2018-08-25T18:04:51Z</time>
      </trkpt>
      <trkpt lat="44.53372" lon="0.64968">
        <ele>123.7</ele>
        <time>2018-08-25T18:04:52Z</time>
      </trkpt>
      <trkpt lat="44.53376" lon="0.64977">
        <ele>124.1</ele>
        <time>2018-08-25T18:04:53Z</time>
      </trkpt>
      <trkpt lat="44.53379" lon="0.64987">
        <ele>124.5</ele>
        <time>2018-08-25T18:04:54Z</time>
      </trkpt>
      <trkpt lat="44.53382" lon="0.64993">
        <ele>124.9</ele>
        <time>2018-08-25T18:04:55Z</time>
      </trkpt>
      <trkpt lat="44.53386" lon="0.65">
        <ele>125.4</ele>
        <time>2018-08-25T18:04:56Z</time>
      </trkpt>
      <trkpt lat="44.53391" lon="0.65005">
        <ele>126.5</ele>
        <time>2018-08-25T18:04:57Z</time>
      </trkpt>
      <trkpt lat="44.53396" lon="0.6501">
        <ele>127.6</ele>
        <time>2018-08-25T18:04:58Z</time>
      </trkpt>
      <trkpt lat="44.53402" lon="0.65014">
        <ele>128.1</ele>
        <time>2018-08-25T18:04:59Z</time>
      </trkpt>
      <trkpt lat="44.53409" lon="0.65016">
        <ele>129.6</ele>
        <time>2018-08-25T18:05:00Z</time>
      </trkpt>
      <trkpt lat="44.53415" lon="0.65017">
        <ele>129.7</ele>
        <time>2018-08-25T18:05:01Z</time>
      </trkpt>
      <trkpt lat="44.53419" lon="0.65017">
        <ele>129.8</ele>
        <time>2018-08-25T18:05:02Z</time>
      </trkpt>
      <trkpt lat="44.53422" lon="0.65016">
        <ele>129.9</ele>
        <time>2018-08-25T18:05:04Z</time>
      </trkpt>
      <trkpt lat="44.53425" lon="0.65013">
        <ele>129.9</ele>
        <time>2018-08-25T18:05:07Z</time>
      </trkpt>
      <trkpt lat="44.53433" lon="0.65015">
        <ele>130</ele>
        <time>2018-08-25T18:05:09Z</time>
      </trkpt>
      <trkpt lat="44.53441" lon="0.65016">
        <ele>130.2</ele>
        <time>2018-08-25T18:05:10Z</time>
      </trkpt>
      <trkpt lat="44.5345" lon="0.65018">
        <ele>131.6</ele>
        <time>2018-08-25T18:05:11Z</time>
      </trkpt>
      <trkpt lat="44.5346" lon="0.65019">
        <ele>133.1</ele>
        <time>2018-08-25T18:05:12Z</time>
      </trkpt>
      <trkpt lat="44.53477" lon="0.65019">
        <ele>134.6</ele>
        <time>2018-08-25T18:05:13Z</time>
      </trkpt>
      <trkpt lat="44.53488" lon="0.65023">
        <ele>135.2</ele>
        <time>2018-08-25T18:05:14Z</time>
      </trkpt>
      <trkpt lat="44.53484" lon="0.65023">
        <ele>135.1</ele>
        <time>2018-08-25T18:05:15Z</time>
      </trkpt>
      <trkpt lat="44.53489" lon="0.65029">
        <ele>135.4</ele>
        <time>2018-08-25T18:05:17Z</time>
      </trkpt>
      <trkpt lat="44.53491" lon="0.65034">
        <ele>135.6</ele>
        <time>2018-08-25T18:05:18Z</time>
      </trkpt>
      <trkpt lat="44.53492" lon="0.65046">
        <ele>135.8</ele>
        <time>2018-08-25T18:05:19Z</time>
      </trkpt>
      <trkpt lat="44.53485" lon="0.65093">
        <ele>135.7</ele>
        <time>2018-08-25T18:05:21Z</time>
      </trkpt>
      <trkpt lat="44.53483" lon="0.65106">
        <ele>135.7</ele>
        <time>2018-08-25T18:05:22Z</time>
      </trkpt>
      <trkpt lat="44.53482" lon="0.65118">
        <ele>135.8</ele>
        <time>2018-08-25T18:05:23Z</time>
      </trkpt>
      <trkpt lat="44.53484" lon="0.65129">
        <ele>135.9</ele>
        <time>2018-08-25T18:05:24Z</time>
      </trkpt>
      <trkpt lat="44.53485" lon="0.6514">
        <ele>136.2</ele>
        <time>2018-08-25T18:05:25Z</time>
      </trkpt>
      <trkpt lat="44.53488" lon="0.6515">
        <ele>136.5</ele>
        <time>2018-08-25T18:05:26Z</time>
      </trkpt>
      <trkpt lat="44.53491" lon="0.65158">
        <ele>136.8</ele>
        <time>2018-08-25T18:05:27Z</time>
      </trkpt>
      <trkpt lat="44.53493" lon="0.65161">
        <ele>137.1</ele>
        <time>2018-08-25T18:05:28Z</time>
      </trkpt>
      <trkpt lat="44.535" lon="0.65168">
        <ele>137.4</ele>
        <time>2018-08-25T18:05:29Z</time>
      </trkpt>
      <trkpt lat="44.53504" lon="0.65178">
        <ele>137.6</ele>
        <time>2018-08-25T18:05:31Z</time>
      </trkpt>
      <trkpt lat="44.535" lon="0.65193">
        <ele>137.3</ele>
        <time>2018-08-25T18:05:32Z</time>
      </trkpt>
      <trkpt lat="44.53497" lon="0.65208">
        <ele>136.9</ele>
        <time>2018-08-25T18:05:33Z</time>
      </trkpt>
      <trkpt lat="44.53493" lon="0.65225">
        <ele>136.6</ele>
        <time>2018-08-25T18:05:34Z</time>
      </trkpt>
      <trkpt lat="44.53492" lon="0.65241">
        <ele>136.3</ele>
        <time>2018-08-25T18:05:35Z</time>
      </trkpt>
      <trkpt lat="44.5349" lon="0.65253">
        <ele>135.7</ele>
        <time>2018-08-25T18:05:36Z</time>
      </trkpt>
      <trkpt lat="44.53489" lon="0.65263">
        <ele>135.4</ele>
        <time>2018-08-25T18:05:37Z</time>
      </trkpt>
      <trkpt lat="44.53489" lon="0.65273">
        <ele>134.9</ele>
        <time>2018-08-25T18:05:38Z</time>
      </trkpt>
      <trkpt lat="44.53488" lon="0.65282">
        <ele>134.4</ele>
        <time>2018-08-25T18:05:39Z</time>
      </trkpt>
      <trkpt lat="44.5349" lon="0.65291">
        <ele>133.8</ele>
        <time>2018-08-25T18:05:40Z</time>
      </trkpt>
      <trkpt lat="44.53492" lon="0.65301">
        <ele>133.1</ele>
        <time>2018-08-25T18:05:41Z</time>
      </trkpt>
      <trkpt lat="44.535" lon="0.65308">
        <ele>133.2</ele>
        <time>2018-08-25T18:05:42Z</time>
      </trkpt>
      <trkpt lat="44.53506" lon="0.65314">
        <ele>132.9</ele>
        <time>2018-08-25T18:05:43Z</time>
      </trkpt>
      <trkpt lat="44.53512" lon="0.65318">
        <ele>132.8</ele>
        <time>2018-08-25T18:05:44Z</time>
      </trkpt>
      <trkpt lat="44.5352" lon="0.65321">
        <ele>132.9</ele>
        <time>2018-08-25T18:05:45Z</time>
      </trkpt>
      <trkpt lat="44.53528" lon="0.65323">
        <ele>132.6</ele>
        <time>2018-08-25T18:05:46Z</time>
      </trkpt>
      <trkpt lat="44.53537" lon="0.65323">
        <ele>132.7</ele>
        <time>2018-08-25T18:05:47Z</time>
      </trkpt>
      <trkpt lat="44.53545" lon="0.65323">
        <ele>132.9</ele>
        <time>2018-08-25T18:05:48Z</time>
      </trkpt>
      <trkpt lat="44.53555" lon="0.65321">
        <ele>133.9</ele>
        <time>2018-08-25T18:05:49Z</time>
      </trkpt>
      <trkpt lat="44.53567" lon="0.65318">
        <ele>134.6</ele>
        <time>2018-08-25T18:05:50Z</time>
      </trkpt>
      <trkpt lat="44.5358" lon="0.65314">
        <ele>136</ele>
        <time>2018-08-25T18:05:51Z</time>
      </trkpt>
      <trkpt lat="44.53593" lon="0.65311">
        <ele>137.2</ele>
        <time>2018-08-25T18:05:52Z</time>
      </trkpt>
      <trkpt lat="44.53607" lon="0.65308">
        <ele>138.6</ele>
        <time>2018-08-25T18:05:53Z</time>
      </trkpt>
      <trkpt lat="44.5362" lon="0.65305">
        <ele>140.4</ele>
        <time>2018-08-25T18:05:54Z</time>
      </trkpt>
      <trkpt lat="44.53633" lon="0.65303">
        <ele>142</ele>
        <time>2018-08-25T18:05:55Z</time>
      </trkpt>
      <trkpt lat="44.53646" lon="0.65303">
        <ele>143.4</ele>
        <time>2018-08-25T18:05:56Z</time>
      </trkpt>
      <trkpt lat="44.53659" lon="0.65302">
        <ele>144.5</ele>
        <time>2018-08-25T18:05:57Z</time>
      </trkpt>
      <trkpt lat="44.5367" lon="0.65303">
        <ele>145.6</ele>
        <time>2018-08-25T18:05:58Z</time>
      </trkpt>
      <trkpt lat="44.53678" lon="0.65299">
        <ele>146.3</ele>
        <time>2018-08-25T18:05:59Z</time>
      </trkpt>
      <trkpt lat="44.53686" lon="0.65293">
        <ele>146.7</ele>
        <time>2018-08-25T18:06:00Z</time>
      </trkpt>
      <trkpt lat="44.5369" lon="0.65292">
        <ele>147.1</ele>
        <time>2018-08-25T18:06:01Z</time>
      </trkpt>
      <trkpt lat="44.53689" lon="0.65289">
        <ele>147</ele>
        <time>2018-08-25T18:06:02Z</time>
      </trkpt>
      <trkpt lat="44.53692" lon="0.65288">
        <ele>147.3</ele>
        <time>2018-08-25T18:06:03Z</time>
      </trkpt>
      <trkpt lat="44.53696" lon="0.65288">
        <ele>147.7</ele>
        <time>2018-08-25T18:06:04Z</time>
      </trkpt>
      <trkpt lat="44.537" lon="0.65287">
        <ele>147.9</ele>
        <time>2018-08-25T18:06:05Z</time>
      </trkpt>
      <trkpt lat="44.53704" lon="0.65289">
        <ele>148.1</ele>
        <time>2018-08-25T18:06:06Z</time>
      </trkpt>
      <trkpt lat="44.53708" lon="0.65291">
        <ele>148.3</ele>
        <time>2018-08-25T18:06:07Z</time>
      </trkpt>
      <trkpt lat="44.53711" lon="0.65297">
        <ele>148.6</ele>
        <time>2018-08-25T18:06:08Z</time>
      </trkpt>
      <trkpt lat="44.53714" lon="0.65304">
        <ele>149</ele>
        <time>2018-08-25T18:06:09Z</time>
      </trkpt>
      <trkpt lat="44.53715" lon="0.65311">
        <ele>149.3</ele>
        <time>2018-08-25T18:06:10Z</time>
      </trkpt>
      <trkpt lat="44.53716" lon="0.65316">
        <ele>149.4</ele>
        <time>2018-08-25T18:06:11Z</time>
      </trkpt>
      <trkpt lat="44.53716" lon="0.65321">
        <ele>149.5</ele>
        <time>2018-08-25T18:06:12Z</time>
      </trkpt>
      <trkpt lat="44.53716" lon="0.65328">
        <ele>149.6</ele>
        <time>2018-08-25T18:06:13Z</time>
      </trkpt>
      <trkpt lat="44.53717" lon="0.65338">
        <ele>149.6</ele>
        <time>2018-08-25T18:06:14Z</time>
      </trkpt>
      <trkpt lat="44.53718" lon="0.6535">
        <ele>149.7</ele>
        <time>2018-08-25T18:06:15Z</time>
      </trkpt>
      <trkpt lat="44.5372" lon="0.65362">
        <ele>149.3</ele>
        <time>2018-08-25T18:06:16Z</time>
      </trkpt>
      <trkpt lat="44.53723" lon="0.65383">
        <ele>148.4</ele>
        <time>2018-08-25T18:06:17Z</time>
      </trkpt>
      <trkpt lat="44.53726" lon="0.65395">
        <ele>147.9</ele>
        <time>2018-08-25T18:06:18Z</time>
      </trkpt>
      <trkpt lat="44.53728" lon="0.6541">
        <ele>147.6</ele>
        <time>2018-08-25T18:06:19Z</time>
      </trkpt>
      <trkpt lat="44.53728" lon="0.65425">
        <ele>146.9</ele>
        <time>2018-08-25T18:06:20Z</time>
      </trkpt>
      <trkpt lat="44.53729" lon="0.6544">
        <ele>146.4</ele>
        <time>2018-08-25T18:06:21Z</time>
      </trkpt>
      <trkpt lat="44.53729" lon="0.65454">
        <ele>145.8</ele>
        <time>2018-08-25T18:06:22Z</time>
      </trkpt>
      <trkpt lat="44.5373" lon="0.65467">
        <ele>145</ele>
        <time>2018-08-25T18:06:23Z</time>
      </trkpt>
      <trkpt lat="44.53729" lon="0.65479">
        <ele>144.2</ele>
        <time>2018-08-25T18:06:24Z</time>
      </trkpt>
      <trkpt lat="44.53729" lon="0.65494">
        <ele>143.1</ele>
        <time>2018-08-25T18:06:25Z</time>
      </trkpt>
      <trkpt lat="44.53728" lon="0.65504">
        <ele>142.7</ele>
        <time>2018-08-25T18:06:26Z</time>
      </trkpt>
      <trkpt lat="44.53729" lon="0.65518">
        <ele>142</ele>
        <time>2018-08-25T18:06:27Z</time>
      </trkpt>
      <trkpt lat="44.53728" lon="0.65527">
        <ele>141.7</ele>
        <time>2018-08-25T18:06:28Z</time>
      </trkpt>
      <trkpt lat="44.53729" lon="0.65538">
        <ele>141.2</ele>
        <time>2018-08-25T18:06:29Z</time>
      </trkpt>
      <trkpt lat="44.5373" lon="0.6555">
        <ele>140.9</ele>
        <time>2018-08-25T18:06:30Z</time>
      </trkpt>
      <trkpt lat="44.53731" lon="0.65559">
        <ele>140.7</ele>
        <time>2018-08-25T18:06:31Z</time>
      </trkpt>
      <trkpt lat="44.53732" lon="0.6557">
        <ele>140.3</ele>
        <time>2018-08-25T18:06:32Z</time>
      </trkpt>
      <trkpt lat="44.53731" lon="0.6558">
        <ele>140.1</ele>
        <time>2018-08-25T18:06:33Z</time>
      </trkpt>
      <trkpt lat="44.53731" lon="0.65592">
        <ele>139.8</ele>
        <time>2018-08-25T18:06:34Z</time>
      </trkpt>
      <trkpt lat="44.53733" lon="0.65603">
        <ele>139.6</ele>
        <time>2018-08-25T18:06:35Z</time>
      </trkpt>
      <trkpt lat="44.53734" lon="0.65617">
        <ele>139.2</ele>
        <time>2018-08-25T18:06:36Z</time>
      </trkpt>
      <trkpt lat="44.53735" lon="0.65629">
        <ele>138.7</ele>
        <time>2018-08-25T18:06:37Z</time>
      </trkpt>
      <trkpt lat="44.53735" lon="0.65641">
        <ele>138.1</ele>
        <time>2018-08-25T18:06:38Z</time>
      </trkpt>
      <trkpt lat="44.53735" lon="0.65654">
        <ele>137.3</ele>
        <time>2018-08-25T18:06:39Z</time>
      </trkpt>
      <trkpt lat="44.53735" lon="0.65667">
        <ele>136.6</ele>
        <time>2018-08-25T18:06:40Z</time>
      </trkpt>
      <trkpt lat="44.53735" lon="0.65675">
        <ele>136.3</ele>
        <time>2018-08-25T18:06:41Z</time>
      </trkpt>
      <trkpt lat="44.53735" lon="0.65687">
        <ele>135.8</ele>
        <time>2018-08-25T18:06:42Z</time>
      </trkpt>
      <trkpt lat="44.53734" lon="0.65698">
        <ele>135.5</ele>
        <time>2018-08-25T18:06:43Z</time>
      </trkpt>
      <trkpt lat="44.53735" lon="0.65708">
        <ele>135</ele>
        <time>2018-08-25T18:06:44Z</time>
      </trkpt>
      <trkpt lat="44.53737" lon="0.6572">
        <ele>134.8</ele>
        <time>2018-08-25T18:06:45Z</time>
      </trkpt>
      <trkpt lat="44.53739" lon="0.6573">
        <ele>134.4</ele>
        <time>2018-08-25T18:06:46Z</time>
      </trkpt>
      <trkpt lat="44.53739" lon="0.6574">
        <ele>134.2</ele>
        <time>2018-08-25T18:06:47Z</time>
      </trkpt>
      <trkpt lat="44.53739" lon="0.6575">
        <ele>134.1</ele>
        <time>2018-08-25T18:06:48Z</time>
      </trkpt>
      <trkpt lat="44.53737" lon="0.65755">
        <ele>134.1</ele>
        <time>2018-08-25T18:06:49Z</time>
      </trkpt>
      <trkpt lat="44.53735" lon="0.6576">
        <ele>134</ele>
        <time>2018-08-25T18:06:50Z</time>
      </trkpt>
      <trkpt lat="44.53734" lon="0.65767">
        <ele>134</ele>
        <time>2018-08-25T18:06:51Z</time>
      </trkpt>
      <trkpt lat="44.53733" lon="0.65776">
        <ele>133.8</ele>
        <time>2018-08-25T18:06:52Z</time>
      </trkpt>
      <trkpt lat="44.53733" lon="0.65786">
        <ele>133.5</ele>
        <time>2018-08-25T18:06:53Z</time>
      </trkpt>
      <trkpt lat="44.53733" lon="0.65795">
        <ele>133.4</ele>
        <time>2018-08-25T18:06:54Z</time>
      </trkpt>
      <trkpt lat="44.53734" lon="0.65805">
        <ele>133.2</ele>
        <time>2018-08-25T18:06:55Z</time>
      </trkpt>
      <trkpt lat="44.53737" lon="0.65817">
        <ele>133</ele>
        <time>2018-08-25T18:06:56Z</time>
      </trkpt>
      <trkpt lat="44.53738" lon="0.65826">
        <ele>132.8</ele>
        <time>2018-08-25T18:06:57Z</time>
      </trkpt>
      <trkpt lat="44.53739" lon="0.65834">
        <ele>132.7</ele>
        <time>2018-08-25T18:06:58Z</time>
      </trkpt>
      <trkpt lat="44.53739" lon="0.65841">
        <ele>132.7</ele>
        <time>2018-08-25T18:06:59Z</time>
      </trkpt>
      <trkpt lat="44.5374" lon="0.6585">
        <ele>132.6</ele>
        <time>2018-08-25T18:07:00Z</time>
      </trkpt>
      <trkpt lat="44.53739" lon="0.65858">
        <ele>132.5</ele>
        <time>2018-08-25T18:07:01Z</time>
      </trkpt>
      <trkpt lat="44.53739" lon="0.65868">
        <ele>132.3</ele>
        <time>2018-08-25T18:07:02Z</time>
      </trkpt>
      <trkpt lat="44.53739" lon="0.65877">
        <ele>132.2</ele>
        <time>2018-08-25T18:07:03Z</time>
      </trkpt>
      <trkpt lat="44.53738" lon="0.65881">
        <ele>132.1</ele>
        <time>2018-08-25T18:07:04Z</time>
      </trkpt>
      <trkpt lat="44.53739" lon="0.65892">
        <ele>131.8</ele>
        <time>2018-08-25T18:07:05Z</time>
      </trkpt>
      <trkpt lat="44.5374" lon="0.65904">
        <ele>131.6</ele>
        <time>2018-08-25T18:07:06Z</time>
      </trkpt>
      <trkpt lat="44.53742" lon="0.65914">
        <ele>131.1</ele>
        <time>2018-08-25T18:07:07Z</time>
      </trkpt>
      <trkpt lat="44.53744" lon="0.65924">
        <ele>130.7</ele>
        <time>2018-08-25T18:07:08Z</time>
      </trkpt>
      <trkpt lat="44.53743" lon="0.65928">
        <ele>130.6</ele>
        <time>2018-08-25T18:07:09Z</time>
      </trkpt>
      <trkpt lat="44.53743" lon="0.65933">
        <ele>130.5</ele>
        <time>2018-08-25T18:07:10Z</time>
      </trkpt>
      <trkpt lat="44.53745" lon="0.65936">
        <ele>130.4</ele>
        <time>2018-08-25T18:07:12Z</time>
      </trkpt>
      <trkpt lat="44.53749" lon="0.6594">
        <ele>130.2</ele>
        <time>2018-08-25T18:10:44Z</time>
      </trkpt>
      <trkpt lat="44.53755" lon="0.65943">
        <ele>130</ele>
        <time>2018-08-25T18:10:46Z</time>
      </trkpt>
      <trkpt lat="44.53759" lon="0.65946">
        <ele>129.8</ele>
        <time>2018-08-25T18:10:47Z</time>
      </trkpt>
      <trkpt lat="44.53763" lon="0.65948">
        <ele>129.6</ele>
        <time>2018-08-25T18:10:48Z</time>
      </trkpt>
      <trkpt lat="44.5377" lon="0.65948">
        <ele>129.1</ele>
        <time>2018-08-25T18:10:49Z</time>
      </trkpt>
      <trkpt lat="44.53778" lon="0.65948">
        <ele>128.6</ele>
        <time>2018-08-25T18:10:50Z</time>
      </trkpt>
      <trkpt lat="44.53791" lon="0.65946">
        <ele>127</ele>
        <time>2018-08-25T18:10:51Z</time>
      </trkpt>
      <trkpt lat="44.53796" lon="0.65948">
        <ele>126.7</ele>
        <time>2018-08-25T18:10:52Z</time>
      </trkpt>
      <trkpt lat="44.53803" lon="0.65947">
        <ele>125.5</ele>
        <time>2018-08-25T18:10:53Z</time>
      </trkpt>
      <trkpt lat="44.53811" lon="0.65946">
        <ele>124.7</ele>
        <time>2018-08-25T18:10:54Z</time>
      </trkpt>
      <trkpt lat="44.53817" lon="0.65947">
        <ele>124</ele>
        <time>2018-08-25T18:10:55Z</time>
      </trkpt>
      <trkpt lat="44.53827" lon="0.65947">
        <ele>123.2</ele>
        <time>2018-08-25T18:10:56Z</time>
      </trkpt>
      <trkpt lat="44.53836" lon="0.65947">
        <ele>122.4</ele>
        <time>2018-08-25T18:10:57Z</time>
      </trkpt>
      <trkpt lat="44.53847" lon="0.65946">
        <ele>121.7</ele>
        <time>2018-08-25T18:10:58Z</time>
      </trkpt>
      <trkpt lat="44.53858" lon="0.65946">
        <ele>121.2</ele>
        <time>2018-08-25T18:10:59Z</time>
      </trkpt>
      <trkpt lat="44.53869" lon="0.65946">
        <ele>120.9</ele>
        <time>2018-08-25T18:11:00Z</time>
      </trkpt>
      <trkpt lat="44.53882" lon="0.65948">
        <ele>120.5</ele>
        <time>2018-08-25T18:11:01Z</time>
      </trkpt>
      <trkpt lat="44.53894" lon="0.65949">
        <ele>120</ele>
        <time>2018-08-25T18:11:02Z</time>
      </trkpt>
      <trkpt lat="44.53905" lon="0.6595">
        <ele>119.6</ele>
        <time>2018-08-25T18:11:03Z</time>
      </trkpt>
      <trkpt lat="44.53916" lon="0.6595">
        <ele>119.3</ele>
        <time>2018-08-25T18:11:04Z</time>
      </trkpt>
      <trkpt lat="44.53923" lon="0.65951">
        <ele>119</ele>
        <time>2018-08-25T18:11:05Z</time>
      </trkpt>
      <trkpt lat="44.5393" lon="0.6595">
        <ele>118.8</ele>
        <time>2018-08-25T18:11:06Z</time>
      </trkpt>
      <trkpt lat="44.53937" lon="0.65949">
        <ele>118.6</ele>
        <time>2018-08-25T18:11:07Z</time>
      </trkpt>
      <trkpt lat="44.53942" lon="0.65946">
        <ele>118.3</ele>
        <time>2018-08-25T18:11:08Z</time>
      </trkpt>
      <trkpt lat="44.53943" lon="0.65938">
        <ele>118.2</ele>
        <time>2018-08-25T18:11:09Z</time>
      </trkpt>
      <trkpt lat="44.53945" lon="0.65931">
        <ele>117.9</ele>
        <time>2018-08-25T18:11:10Z</time>
      </trkpt>
      <trkpt lat="44.53948" lon="0.65921">
        <ele>117.4</ele>
        <time>2018-08-25T18:11:11Z</time>
      </trkpt>
      <trkpt lat="44.53951" lon="0.65913">
        <ele>116.8</ele>
        <time>2018-08-25T18:11:12Z</time>
      </trkpt>
      <trkpt lat="44.53953" lon="0.65905">
        <ele>116.3</ele>
        <time>2018-08-25T18:11:13Z</time>
      </trkpt>
      <trkpt lat="44.53957" lon="0.659">
        <ele>116</ele>
        <time>2018-08-25T18:11:14Z</time>
      </trkpt>
      <trkpt lat="44.53963" lon="0.65896">
        <ele>115.4</ele>
        <time>2018-08-25T18:11:15Z</time>
      </trkpt>
      <trkpt lat="44.53969" lon="0.65893">
        <ele>114.9</ele>
        <time>2018-08-25T18:11:16Z</time>
      </trkpt>
      <trkpt lat="44.53976" lon="0.65892">
        <ele>114.2</ele>
        <time>2018-08-25T18:11:17Z</time>
      </trkpt>
      <trkpt lat="44.53983" lon="0.6589">
        <ele>113.8</ele>
        <time>2018-08-25T18:11:18Z</time>
      </trkpt>
      <trkpt lat="44.53989" lon="0.65888">
        <ele>113.5</ele>
        <time>2018-08-25T18:11:19Z</time>
      </trkpt>
      <trkpt lat="44.53997" lon="0.65888">
        <ele>113.1</ele>
        <time>2018-08-25T18:11:20Z</time>
      </trkpt>
      <trkpt lat="44.54005" lon="0.65887">
        <ele>112.6</ele>
        <time>2018-08-25T18:11:21Z</time>
      </trkpt>
      <trkpt lat="44.54012" lon="0.65883">
        <ele>112.5</ele>
        <time>2018-08-25T18:11:22Z</time>
      </trkpt>
      <trkpt lat="44.54021" lon="0.65883">
        <ele>112.3</ele>
        <time>2018-08-25T18:11:23Z</time>
      </trkpt>
      <trkpt lat="44.5403" lon="0.65883">
        <ele>112</ele>
        <time>2018-08-25T18:11:24Z</time>
      </trkpt>
      <trkpt lat="44.54039" lon="0.65884">
        <ele>111.9</ele>
        <time>2018-08-25T18:11:25Z</time>
      </trkpt>
      <trkpt lat="44.54047" lon="0.65886">
        <ele>111.9</ele>
        <time>2018-08-25T18:11:26Z</time>
      </trkpt>
      <trkpt lat="44.54053" lon="0.65887">
        <ele>111.8</ele>
        <time>2018-08-25T18:11:27Z</time>
      </trkpt>
      <trkpt lat="44.5406" lon="0.65889">
        <ele>111.8</ele>
        <time>2018-08-25T18:11:28Z</time>
      </trkpt>
      <trkpt lat="44.54067" lon="0.6589">
        <ele>111.8</ele>
        <time>2018-08-25T18:11:29Z</time>
      </trkpt>
      <trkpt lat="44.54074" lon="0.65891">
        <ele>111.8</ele>
        <time>2018-08-25T18:11:30Z</time>
      </trkpt>
      <trkpt lat="44.54079" lon="0.65893">
        <ele>111.9</ele>
        <time>2018-08-25T18:11:31Z</time>
      </trkpt>
      <trkpt lat="44.54085" lon="0.65893">
        <ele>111.9</ele>
        <time>2018-08-25T18:11:32Z</time>
      </trkpt>
      <trkpt lat="44.5409" lon="0.65895">
        <ele>111.9</ele>
        <time>2018-08-25T18:11:33Z</time>
      </trkpt>
      <trkpt lat="44.54096" lon="0.65896">
        <ele>111.9</ele>
        <time>2018-08-25T18:11:34Z</time>
      </trkpt>
      <trkpt lat="44.54102" lon="0.65898">
        <ele>111.8</ele>
        <time>2018-08-25T18:11:35Z</time>
      </trkpt>
      <trkpt lat="44.54107" lon="0.65898">
        <ele>111.8</ele>
        <time>2018-08-25T18:11:36Z</time>
      </trkpt>
      <trkpt lat="44.54112" lon="0.659">
        <ele>111.6</ele>
        <time>2018-08-25T18:11:37Z</time>
      </trkpt>
      <trkpt lat="44.54116" lon="0.659">
        <ele>111.7</ele>
        <time>2018-08-25T18:11:38Z</time>
      </trkpt>
      <trkpt lat="44.54119" lon="0.659">
        <ele>111.7</ele>
        <time>2018-08-25T18:11:39Z</time>
      </trkpt>
      <trkpt lat="44.54123" lon="0.65901">
        <ele>111.8</ele>
        <time>2018-08-25T18:11:40Z</time>
      </trkpt>
      <trkpt lat="44.54127" lon="0.65902">
        <ele>111.7</ele>
        <time>2018-08-25T18:11:42Z</time>
      </trkpt>
      <trkpt lat="44.54125" lon="0.65903">
        <ele>111.7</ele>
        <time>2018-08-25T18:11:53Z</time>
      </trkpt>
      <trkpt lat="44.54128" lon="0.65903">
        <ele>111.7</ele>
        <time>2018-08-25T18:11:55Z</time>
      </trkpt>
      <trkpt lat="44.5413" lon="0.65904">
        <ele>111.7</ele>
        <time>2018-08-25T18:12:53Z</time>
      </trkpt>
      <trkpt lat="44.54132" lon="0.65904">
        <ele>111.7</ele>
        <time>2018-08-25T18:12:56Z</time>
      </trkpt>
      <trkpt lat="44.54135" lon="0.65904">
        <ele>111.7</ele>
        <time>2018-08-25T18:13:01Z</time>
      </trkpt>
      <trkpt lat="44.54137" lon="0.65904">
        <ele>111.6</ele>
        <time>2018-08-25T18:13:02Z</time>
      </trkpt>
      <trkpt lat="44.54145" lon="0.65905">
        <ele>111.4</ele>
        <time>2018-08-25T18:13:03Z</time>
      </trkpt>
      <trkpt lat="44.54154" lon="0.65906">
        <ele>111.1</ele>
        <time>2018-08-25T18:13:04Z</time>
      </trkpt>
      <trkpt lat="44.54163" lon="0.65907">
        <ele>110.6</ele>
        <time>2018-08-25T18:13:05Z</time>
      </trkpt>
      <trkpt lat="44.54176" lon="0.65909">
        <ele>109.7</ele>
        <time>2018-08-25T18:13:06Z</time>
      </trkpt>
      <trkpt lat="44.54187" lon="0.65911">
        <ele>109</ele>
        <time>2018-08-25T18:13:07Z</time>
      </trkpt>
      <trkpt lat="44.54198" lon="0.65913">
        <ele>108</ele>
        <time>2018-08-25T18:13:08Z</time>
      </trkpt>
      <trkpt lat="44.5421" lon="0.65914">
        <ele>106.9</ele>
        <time>2018-08-25T18:13:09Z</time>
      </trkpt>
      <trkpt lat="44.54221" lon="0.65918">
        <ele>106.1</ele>
        <time>2018-08-25T18:13:10Z</time>
      </trkpt>
      <trkpt lat="44.54231" lon="0.65924">
        <ele>105.2</ele>
        <time>2018-08-25T18:13:11Z</time>
      </trkpt>
      <trkpt lat="44.54241" lon="0.65934">
        <ele>104.4</ele>
        <time>2018-08-25T18:13:12Z</time>
      </trkpt>
      <trkpt lat="44.54252" lon="0.65944">
        <ele>103.5</ele>
        <time>2018-08-25T18:13:13Z</time>
      </trkpt>
      <trkpt lat="44.54264" lon="0.65959">
        <ele>102.7</ele>
        <time>2018-08-25T18:13:14Z</time>
      </trkpt>
      <trkpt lat="44.54277" lon="0.65973">
        <ele>101.9</ele>
        <time>2018-08-25T18:13:15Z</time>
      </trkpt>
      <trkpt lat="44.5429" lon="0.65989">
        <ele>101.4</ele>
        <time>2018-08-25T18:13:16Z</time>
      </trkpt>
      <trkpt lat="44.54304" lon="0.66003">
        <ele>100.9</ele>
        <time>2018-08-25T18:13:17Z</time>
      </trkpt>
      <trkpt lat="44.54317" lon="0.66019">
        <ele>100.5</ele>
        <time>2018-08-25T18:13:18Z</time>
      </trkpt>
      <trkpt lat="44.54329" lon="0.66032">
        <ele>100.1</ele>
        <time>2018-08-25T18:13:19Z</time>
      </trkpt>
      <trkpt lat="44.5434" lon="0.66045">
        <ele>99.7</ele>
        <time>2018-08-25T18:13:20Z</time>
      </trkpt>
      <trkpt lat="44.54349" lon="0.66056">
        <ele>99.6</ele>
        <time>2018-08-25T18:13:21Z</time>
      </trkpt>
      <trkpt lat="44.54357" lon="0.66065">
        <ele>99.4</ele>
        <time>2018-08-25T18:13:22Z</time>
      </trkpt>
      <trkpt lat="44.54363" lon="0.66071">
        <ele>99.2</ele>
        <time>2018-08-25T18:13:23Z</time>
      </trkpt>
      <trkpt lat="44.54371" lon="0.66074">
        <ele>99.3</ele>
        <time>2018-08-25T18:13:24Z</time>
      </trkpt>
      <trkpt lat="44.54379" lon="0.66074">
        <ele>99.4</ele>
        <time>2018-08-25T18:13:25Z</time>
      </trkpt>
      <trkpt lat="44.54388" lon="0.66063">
        <ele>99.6</ele>
        <time>2018-08-25T18:13:26Z</time>
      </trkpt>
      <trkpt lat="44.54399" lon="0.66052">
        <ele>99.8</ele>
        <time>2018-08-25T18:13:27Z</time>
      </trkpt>
      <trkpt lat="44.5441" lon="0.66042">
        <ele>100.1</ele>
        <time>2018-08-25T18:13:28Z</time>
      </trkpt>
      <trkpt lat="44.54423" lon="0.66029">
        <ele>100.3</ele>
        <time>2018-08-25T18:13:29Z</time>
      </trkpt>
      <trkpt lat="44.54434" lon="0.66015">
        <ele>100.7</ele>
        <time>2018-08-25T18:13:30Z</time>
      </trkpt>
      <trkpt lat="44.54444" lon="0.66002">
        <ele>101</ele>
        <time>2018-08-25T18:13:31Z</time>
      </trkpt>
      <trkpt lat="44.54454" lon="0.65987">
        <ele>101.5</ele>
        <time>2018-08-25T18:13:32Z</time>
      </trkpt>
      <trkpt lat="44.54464" lon="0.65973">
        <ele>102.1</ele>
        <time>2018-08-25T18:13:33Z</time>
      </trkpt>
      <trkpt lat="44.54474" lon="0.65959">
        <ele>102.8</ele>
        <time>2018-08-25T18:13:34Z</time>
      </trkpt>
      <trkpt lat="44.54483" lon="0.65945">
        <ele>103.4</ele>
        <time>2018-08-25T18:13:35Z</time>
      </trkpt>
      <trkpt lat="44.54491" lon="0.65933">
        <ele>103.9</ele>
        <time>2018-08-25T18:13:36Z</time>
      </trkpt>
      <trkpt lat="44.54499" lon="0.65922">
        <ele>104.5</ele>
        <time>2018-08-25T18:13:37Z</time>
      </trkpt>
      <trkpt lat="44.54508" lon="0.65913">
        <ele>105.2</ele>
        <time>2018-08-25T18:13:38Z</time>
      </trkpt>
      <trkpt lat="44.54517" lon="0.65904">
        <ele>105.6</ele>
        <time>2018-08-25T18:13:39Z</time>
      </trkpt>
      <trkpt lat="44.54526" lon="0.65896">
        <ele>106.1</ele>
        <time>2018-08-25T18:13:40Z</time>
      </trkpt>
      <trkpt lat="44.54534" lon="0.65887">
        <ele>106.5</ele>
        <time>2018-08-25T18:13:41Z</time>
      </trkpt>
      <trkpt lat="44.54542" lon="0.6588">
        <ele>106.9</ele>
        <time>2018-08-25T18:13:42Z</time>
      </trkpt>
      <trkpt lat="44.54548" lon="0.65871">
        <ele>107.3</ele>
        <time>2018-08-25T18:13:43Z</time>
      </trkpt>
      <trkpt lat="44.54554" lon="0.65864">
        <ele>107.6</ele>
        <time>2018-08-25T18:13:44Z</time>
      </trkpt>
      <trkpt lat="44.54558" lon="0.65856">
        <ele>107.9</ele>
        <time>2018-08-25T18:13:45Z</time>
      </trkpt>
      <trkpt lat="44.54563" lon="0.65849">
        <ele>108.3</ele>
        <time>2018-08-25T18:13:46Z</time>
      </trkpt>
      <trkpt lat="44.54568" lon="0.65843">
        <ele>108.7</ele>
        <time>2018-08-25T18:13:47Z</time>
      </trkpt>
      <trkpt lat="44.54572" lon="0.65837">
        <ele>109</ele>
        <time>2018-08-25T18:13:49Z</time>
      </trkpt>
      <trkpt lat="44.54575" lon="0.65832">
        <ele>109.3</ele>
        <time>2018-08-25T18:13:50Z</time>
      </trkpt>
      <trkpt lat="44.5458" lon="0.65826">
        <ele>109.7</ele>
        <time>2018-08-25T18:13:51Z</time>
      </trkpt>
      <trkpt lat="44.54585" lon="0.65819">
        <ele>110.1</ele>
        <time>2018-08-25T18:13:52Z</time>
      </trkpt>
      <trkpt lat="44.5459" lon="0.65811">
        <ele>110.4</ele>
        <time>2018-08-25T18:13:53Z</time>
      </trkpt>
      <trkpt lat="44.54596" lon="0.65801">
        <ele>110.8</ele>
        <time>2018-08-25T18:13:54Z</time>
      </trkpt>
      <trkpt lat="44.54602" lon="0.65793">
        <ele>111.2</ele>
        <time>2018-08-25T18:13:55Z</time>
      </trkpt>
      <trkpt lat="44.54609" lon="0.65783">
        <ele>111.8</ele>
        <time>2018-08-25T18:13:56Z</time>
      </trkpt>
      <trkpt lat="44.54616" lon="0.65774">
        <ele>112.4</ele>
        <time>2018-08-25T18:13:57Z</time>
      </trkpt>
      <trkpt lat="44.54623" lon="0.65763">
        <ele>112.9</ele>
        <time>2018-08-25T18:13:58Z</time>
      </trkpt>
      <trkpt lat="44.5463" lon="0.65753">
        <ele>113.3</ele>
        <time>2018-08-25T18:13:59Z</time>
      </trkpt>
      <trkpt lat="44.54636" lon="0.65743">
        <ele>113.9</ele>
        <time>2018-08-25T18:14:00Z</time>
      </trkpt>
      <trkpt lat="44.54641" lon="0.65736">
        <ele>114.4</ele>
        <time>2018-08-25T18:14:01Z</time>
      </trkpt>
      <trkpt lat="44.54645" lon="0.65727">
        <ele>114.8</ele>
        <time>2018-08-25T18:14:02Z</time>
      </trkpt>
      <trkpt lat="44.54649" lon="0.65721">
        <ele>115.1</ele>
        <time>2018-08-25T18:14:03Z</time>
      </trkpt>
      <trkpt lat="44.54652" lon="0.65716">
        <ele>115.3</ele>
        <time>2018-08-25T18:14:04Z</time>
      </trkpt>
      <trkpt lat="44.54655" lon="0.65711">
        <ele>115.6</ele>
        <time>2018-08-25T18:14:06Z</time>
      </trkpt>
      <trkpt lat="44.54654" lon="0.65707">
        <ele>115.7</ele>
        <time>2018-08-25T18:14:07Z</time>
      </trkpt>
      <trkpt lat="44.54653" lon="0.65699">
        <ele>116</ele>
        <time>2018-08-25T18:14:08Z</time>
      </trkpt>
      <trkpt lat="44.54637" lon="0.65648">
        <ele>119.5</ele>
        <time>2018-08-25T18:14:10Z</time>
      </trkpt>
      <trkpt lat="44.54631" lon="0.6563">
        <ele>120.4</ele>
        <time>2018-08-25T18:14:11Z</time>
      </trkpt>
      <trkpt lat="44.54627" lon="0.65614">
        <ele>120.8</ele>
        <time>2018-08-25T18:14:12Z</time>
      </trkpt>
      <trkpt lat="44.54624" lon="0.65599">
        <ele>121.6</ele>
        <time>2018-08-25T18:14:13Z</time>
      </trkpt>
      <trkpt lat="44.54621" lon="0.65584">
        <ele>122.2</ele>
        <time>2018-08-25T18:14:14Z</time>
      </trkpt>
      <trkpt lat="44.54618" lon="0.6557">
        <ele>123.3</ele>
        <time>2018-08-25T18:14:15Z</time>
      </trkpt>
      <trkpt lat="44.54615" lon="0.65556">
        <ele>123.9</ele>
        <time>2018-08-25T18:14:16Z</time>
      </trkpt>
      <trkpt lat="44.54612" lon="0.6554">
        <ele>124.7</ele>
        <time>2018-08-25T18:14:17Z</time>
      </trkpt>
      <trkpt lat="44.54609" lon="0.65522">
        <ele>125.2</ele>
        <time>2018-08-25T18:14:18Z</time>
      </trkpt>
      <trkpt lat="44.54603" lon="0.65505">
        <ele>125.6</ele>
        <time>2018-08-25T18:14:19Z</time>
      </trkpt>
      <trkpt lat="44.54597" lon="0.6549">
        <ele>125.6</ele>
        <time>2018-08-25T18:14:20Z</time>
      </trkpt>
      <trkpt lat="44.54591" lon="0.65479">
        <ele>125.5</ele>
        <time>2018-08-25T18:14:21Z</time>
      </trkpt>
      <trkpt lat="44.54588" lon="0.65467">
        <ele>125.2</ele>
        <time>2018-08-25T18:14:22Z</time>
      </trkpt>
      <trkpt lat="44.54586" lon="0.65455">
        <ele>124.8</ele>
        <time>2018-08-25T18:14:23Z</time>
      </trkpt>
      <trkpt lat="44.54584" lon="0.65442">
        <ele>124.4</ele>
        <time>2018-08-25T18:14:24Z</time>
      </trkpt>
      <trkpt lat="44.54584" lon="0.65432">
        <ele>123.9</ele>
        <time>2018-08-25T18:14:25Z</time>
      </trkpt>
      <trkpt lat="44.54584" lon="0.65425">
        <ele>123.5</ele>
        <time>2018-08-25T18:14:26Z</time>
      </trkpt>
      <trkpt lat="44.54586" lon="0.65418">
        <ele>123</ele>
        <time>2018-08-25T18:14:27Z</time>
      </trkpt>
      <trkpt lat="44.54586" lon="0.65413">
        <ele>122.6</ele>
        <time>2018-08-25T18:14:28Z</time>
      </trkpt>
      <trkpt lat="44.54602" lon="0.65399">
        <ele>122.7</ele>
        <time>2018-08-25T18:14:31Z</time>
      </trkpt>
      <trkpt lat="44.54612" lon="0.65397">
        <ele>122.7</ele>
        <time>2018-08-25T18:14:32Z</time>
      </trkpt>
      <trkpt lat="44.54622" lon="0.65396">
        <ele>122.6</ele>
        <time>2018-08-25T18:14:33Z</time>
      </trkpt>
      <trkpt lat="44.54629" lon="0.65396">
        <ele>122.5</ele>
        <time>2018-08-25T18:14:34Z</time>
      </trkpt>
      <trkpt lat="44.54636" lon="0.65394">
        <ele>122.4</ele>
        <time>2018-08-25T18:14:35Z</time>
      </trkpt>
      <trkpt lat="44.54641" lon="0.65388">
        <ele>122.2</ele>
        <time>2018-08-25T18:14:36Z</time>
      </trkpt>
      <trkpt lat="44.54644" lon="0.65378">
        <ele>121.8</ele>
        <time>2018-08-25T18:14:37Z</time>
      </trkpt>
      <trkpt lat="44.54645" lon="0.65367">
        <ele>121.7</ele>
        <time>2018-08-25T18:14:38Z</time>
      </trkpt>
      <trkpt lat="44.54645" lon="0.65353">
        <ele>121.7</ele>
        <time>2018-08-25T18:14:39Z</time>
      </trkpt>
      <trkpt lat="44.54644" lon="0.65336">
        <ele>121.7</ele>
        <time>2018-08-25T18:14:40Z</time>
      </trkpt>
      <trkpt lat="44.54645" lon="0.65316">
        <ele>121.7</ele>
        <time>2018-08-25T18:14:41Z</time>
      </trkpt>
      <trkpt lat="44.54645" lon="0.65296">
        <ele>121.9</ele>
        <time>2018-08-25T18:14:42Z</time>
      </trkpt>
      <trkpt lat="44.54645" lon="0.65276">
        <ele>122.1</ele>
        <time>2018-08-25T18:14:43Z</time>
      </trkpt>
      <trkpt lat="44.54645" lon="0.65258">
        <ele>122.3</ele>
        <time>2018-08-25T18:14:44Z</time>
      </trkpt>
      <trkpt lat="44.54645" lon="0.65242">
        <ele>122.6</ele>
        <time>2018-08-25T18:14:45Z</time>
      </trkpt>
      <trkpt lat="44.54645" lon="0.65232">
        <ele>122.9</ele>
        <time>2018-08-25T18:14:46Z</time>
      </trkpt>
      <trkpt lat="44.54646" lon="0.65223">
        <ele>123.1</ele>
        <time>2018-08-25T18:14:47Z</time>
      </trkpt>
      <trkpt lat="44.54646" lon="0.65217">
        <ele>123.3</ele>
        <time>2018-08-25T18:14:48Z</time>
      </trkpt>
      <trkpt lat="44.54649" lon="0.6521">
        <ele>123.5</ele>
        <time>2018-08-25T18:14:50Z</time>
      </trkpt>
      <trkpt lat="44.54652" lon="0.65202">
        <ele>123.7</ele>
        <time>2018-08-25T18:14:52Z</time>
      </trkpt>
      <trkpt lat="44.54654" lon="0.65193">
        <ele>124</ele>
        <time>2018-08-25T18:14:53Z</time>
      </trkpt>
      <trkpt lat="44.54655" lon="0.65181">
        <ele>124.3</ele>
        <time>2018-08-25T18:14:54Z</time>
      </trkpt>
      <trkpt lat="44.54655" lon="0.65166">
        <ele>124.8</ele>
        <time>2018-08-25T18:14:55Z</time>
      </trkpt>
      <trkpt lat="44.54655" lon="0.65153">
        <ele>125.3</ele>
        <time>2018-08-25T18:14:56Z</time>
      </trkpt>
      <trkpt lat="44.54655" lon="0.65141">
        <ele>125.7</ele>
        <time>2018-08-25T18:14:57Z</time>
      </trkpt>
      <trkpt lat="44.54654" lon="0.65132">
        <ele>126.1</ele>
        <time>2018-08-25T18:14:58Z</time>
      </trkpt>
      <trkpt lat="44.54655" lon="0.65127">
        <ele>126.3</ele>
        <time>2018-08-25T18:14:59Z</time>
      </trkpt>
      <trkpt lat="44.54657" lon="0.65122">
        <ele>126.5</ele>
        <time>2018-08-25T18:15:00Z</time>
      </trkpt>
      <trkpt lat="44.54661" lon="0.65121">
        <ele>126.7</ele>
        <time>2018-08-25T18:15:01Z</time>
      </trkpt>
      <trkpt lat="44.54667" lon="0.6512">
        <ele>126.5</ele>
        <time>2018-08-25T18:15:02Z</time>
      </trkpt>
      <trkpt lat="44.54674" lon="0.65121">
        <ele>126.1</ele>
        <time>2018-08-25T18:15:03Z</time>
      </trkpt>
      <trkpt lat="44.54681" lon="0.65125">
        <ele>125.5</ele>
        <time>2018-08-25T18:15:04Z</time>
      </trkpt>
      <trkpt lat="44.54692" lon="0.6513">
        <ele>124.6</ele>
        <time>2018-08-25T18:15:05Z</time>
      </trkpt>
      <trkpt lat="44.547" lon="0.65136">
        <ele>123.6</ele>
        <time>2018-08-25T18:15:06Z</time>
      </trkpt>
      <trkpt lat="44.54708" lon="0.65142">
        <ele>122.6</ele>
        <time>2018-08-25T18:15:07Z</time>
      </trkpt>
      <trkpt lat="44.54717" lon="0.65147">
        <ele>121.9</ele>
        <time>2018-08-25T18:15:08Z</time>
      </trkpt>
      <trkpt lat="44.54725" lon="0.65152">
        <ele>121.1</ele>
        <time>2018-08-25T18:15:09Z</time>
      </trkpt>
      <trkpt lat="44.54732" lon="0.65156">
        <ele>120.5</ele>
        <time>2018-08-25T18:15:10Z</time>
      </trkpt>
      <trkpt lat="44.54741" lon="0.65158">
        <ele>119.7</ele>
        <time>2018-08-25T18:15:11Z</time>
      </trkpt>
      <trkpt lat="44.54747" lon="0.65163">
        <ele>118.9</ele>
        <time>2018-08-25T18:15:12Z</time>
      </trkpt>
      <trkpt lat="44.54756" lon="0.65169">
        <ele>117.4</ele>
        <time>2018-08-25T18:15:13Z</time>
      </trkpt>
      <trkpt lat="44.54763" lon="0.65173">
        <ele>116.4</ele>
        <time>2018-08-25T18:15:14Z</time>
      </trkpt>
      <trkpt lat="44.5477" lon="0.65176">
        <ele>115.1</ele>
        <time>2018-08-25T18:15:15Z</time>
      </trkpt>
      <trkpt lat="44.54778" lon="0.65178">
        <ele>114.3</ele>
        <time>2018-08-25T18:15:16Z</time>
      </trkpt>
      <trkpt lat="44.54786" lon="0.6518">
        <ele>113</ele>
        <time>2018-08-25T18:15:17Z</time>
      </trkpt>
      <trkpt lat="44.54795" lon="0.65179">
        <ele>112.1</ele>
        <time>2018-08-25T18:15:18Z</time>
      </trkpt>
      <trkpt lat="44.54804" lon="0.65179">
        <ele>111</ele>
        <time>2018-08-25T18:15:19Z</time>
      </trkpt>
      <trkpt lat="44.54814" lon="0.65179">
        <ele>110.1</ele>
        <time>2018-08-25T18:15:20Z</time>
      </trkpt>
      <trkpt lat="44.54822" lon="0.65179">
        <ele>109.4</ele>
        <time>2018-08-25T18:15:21Z</time>
      </trkpt>
      <trkpt lat="44.5483" lon="0.65179">
        <ele>109</ele>
        <time>2018-08-25T18:15:22Z</time>
      </trkpt>
      <trkpt lat="44.5484" lon="0.6518">
        <ele>108.4</ele>
        <time>2018-08-25T18:15:23Z</time>
      </trkpt>
      <trkpt lat="44.5485" lon="0.65182">
        <ele>107.8</ele>
        <time>2018-08-25T18:15:24Z</time>
      </trkpt>
      <trkpt lat="44.54861" lon="0.65184">
        <ele>107.5</ele>
        <time>2018-08-25T18:15:25Z</time>
      </trkpt>
      <trkpt lat="44.5487" lon="0.65186">
        <ele>107.3</ele>
        <time>2018-08-25T18:15:26Z</time>
      </trkpt>
      <trkpt lat="44.54879" lon="0.65188">
        <ele>107.2</ele>
        <time>2018-08-25T18:15:27Z</time>
      </trkpt>
      <trkpt lat="44.54886" lon="0.6519">
        <ele>107.1</ele>
        <time>2018-08-25T18:15:28Z</time>
      </trkpt>
      <trkpt lat="44.54893" lon="0.65193">
        <ele>107</ele>
        <time>2018-08-25T18:15:29Z</time>
      </trkpt>
      <trkpt lat="44.54898" lon="0.65195">
        <ele>107</ele>
        <time>2018-08-25T18:15:30Z</time>
      </trkpt>
      <trkpt lat="44.54904" lon="0.65197">
        <ele>107</ele>
        <time>2018-08-25T18:15:31Z</time>
      </trkpt>
      <trkpt lat="44.5491" lon="0.65199">
        <ele>106.9</ele>
        <time>2018-08-25T18:15:32Z</time>
      </trkpt>
      <trkpt lat="44.54914" lon="0.65202">
        <ele>106.7</ele>
        <time>2018-08-25T18:15:33Z</time>
      </trkpt>
      <trkpt lat="44.5492" lon="0.65203">
        <ele>106.6</ele>
        <time>2018-08-25T18:15:34Z</time>
      </trkpt>
      <trkpt lat="44.54925" lon="0.65205">
        <ele>106.6</ele>
        <time>2018-08-25T18:15:35Z</time>
      </trkpt>
      <trkpt lat="44.5493" lon="0.65207">
        <ele>106.4</ele>
        <time>2018-08-25T18:15:36Z</time>
      </trkpt>
      <trkpt lat="44.54937" lon="0.6521">
        <ele>106.2</ele>
        <time>2018-08-25T18:15:37Z</time>
      </trkpt>
      <trkpt lat="44.54941" lon="0.65211">
        <ele>106.1</ele>
        <time>2018-08-25T18:15:38Z</time>
      </trkpt>
      <trkpt lat="44.54948" lon="0.65214">
        <ele>106</ele>
        <time>2018-08-25T18:15:39Z</time>
      </trkpt>
      <trkpt lat="44.54955" lon="0.65216">
        <ele>105.9</ele>
        <time>2018-08-25T18:15:40Z</time>
      </trkpt>
      <trkpt lat="44.54961" lon="0.65218">
        <ele>105.8</ele>
        <time>2018-08-25T18:15:41Z</time>
      </trkpt>
      <trkpt lat="44.54965" lon="0.6522">
        <ele>105.7</ele>
        <time>2018-08-25T18:15:42Z</time>
      </trkpt>
      <trkpt lat="44.54969" lon="0.65225">
        <ele>105.6</ele>
        <time>2018-08-25T18:15:43Z</time>
      </trkpt>
      <trkpt lat="44.54972" lon="0.65229">
        <ele>105.4</ele>
        <time>2018-08-25T18:15:44Z</time>
      </trkpt>
      <trkpt lat="44.54975" lon="0.65236">
        <ele>105.3</ele>
        <time>2018-08-25T18:15:45Z</time>
      </trkpt>
      <trkpt lat="44.54977" lon="0.65242">
        <ele>105.2</ele>
        <time>2018-08-25T18:15:46Z</time>
      </trkpt>
      <trkpt lat="44.5498" lon="0.65252">
        <ele>105</ele>
        <time>2018-08-25T18:15:47Z</time>
      </trkpt>
      <trkpt lat="44.54987" lon="0.65265">
        <ele>104.8</ele>
        <time>2018-08-25T18:15:48Z</time>
      </trkpt>
      <trkpt lat="44.54993" lon="0.65276">
        <ele>104.7</ele>
        <time>2018-08-25T18:15:49Z</time>
      </trkpt>
      <trkpt lat="44.54998" lon="0.65283">
        <ele>104.8</ele>
        <time>2018-08-25T18:15:50Z</time>
      </trkpt>
      <trkpt lat="44.55003" lon="0.65287">
        <ele>105</ele>
        <time>2018-08-25T18:15:51Z</time>
      </trkpt>
      <trkpt lat="44.55007" lon="0.65292">
        <ele>105.2</ele>
        <time>2018-08-25T18:15:52Z</time>
      </trkpt>
      <trkpt lat="44.55012" lon="0.65296">
        <ele>105.5</ele>
        <time>2018-08-25T18:15:53Z</time>
      </trkpt>
      <trkpt lat="44.55019" lon="0.653">
        <ele>105.9</ele>
        <time>2018-08-25T18:15:54Z</time>
      </trkpt>
      <trkpt lat="44.55026" lon="0.65302">
        <ele>106.3</ele>
        <time>2018-08-25T18:15:55Z</time>
      </trkpt>
      <trkpt lat="44.55033" lon="0.65306">
        <ele>106.9</ele>
        <time>2018-08-25T18:15:56Z</time>
      </trkpt>
      <trkpt lat="44.55039" lon="0.65309">
        <ele>107.4</ele>
        <time>2018-08-25T18:15:57Z</time>
      </trkpt>
      <trkpt lat="44.55045" lon="0.65317">
        <ele>107.9</ele>
        <time>2018-08-25T18:15:58Z</time>
      </trkpt>
      <trkpt lat="44.55052" lon="0.65321">
        <ele>108.3</ele>
        <time>2018-08-25T18:15:59Z</time>
      </trkpt>
      <trkpt lat="44.55059" lon="0.65329">
        <ele>108.9</ele>
        <time>2018-08-25T18:16:00Z</time>
      </trkpt>
      <trkpt lat="44.55066" lon="0.65336">
        <ele>109.5</ele>
        <time>2018-08-25T18:16:01Z</time>
      </trkpt>
      <trkpt lat="44.5507" lon="0.65338">
        <ele>109.8</ele>
        <time>2018-08-25T18:16:02Z</time>
      </trkpt>
      <trkpt lat="44.55077" lon="0.65343">
        <ele>110.3</ele>
        <time>2018-08-25T18:16:03Z</time>
      </trkpt>
      <trkpt lat="44.55083" lon="0.65348">
        <ele>110.7</ele>
        <time>2018-08-25T18:16:04Z</time>
      </trkpt>
      <trkpt lat="44.55091" lon="0.65354">
        <ele>111.2</ele>
        <time>2018-08-25T18:16:05Z</time>
      </trkpt>
      <trkpt lat="44.55096" lon="0.65359">
        <ele>111.4</ele>
        <time>2018-08-25T18:16:06Z</time>
      </trkpt>
      <trkpt lat="44.55101" lon="0.65364">
        <ele>111.6</ele>
        <time>2018-08-25T18:16:07Z</time>
      </trkpt>
      <trkpt lat="44.55104" lon="0.65371">
        <ele>111.7</ele>
        <time>2018-08-25T18:16:08Z</time>
      </trkpt>
      <trkpt lat="44.55107" lon="0.65379">
        <ele>111.6</ele>
        <time>2018-08-25T18:16:09Z</time>
      </trkpt>
      <trkpt lat="44.5511" lon="0.65387">
        <ele>111.6</ele>
        <time>2018-08-25T18:16:10Z</time>
      </trkpt>
      <trkpt lat="44.55114" lon="0.65392">
        <ele>111.5</ele>
        <time>2018-08-25T18:16:11Z</time>
      </trkpt>
      <trkpt lat="44.55119" lon="0.65398">
        <ele>111.5</ele>
        <time>2018-08-25T18:16:12Z</time>
      </trkpt>
      <trkpt lat="44.55125" lon="0.65403">
        <ele>111.3</ele>
        <time>2018-08-25T18:16:13Z</time>
      </trkpt>
      <trkpt lat="44.5513" lon="0.65407">
        <ele>111.2</ele>
        <time>2018-08-25T18:16:14Z</time>
      </trkpt>
      <trkpt lat="44.55132" lon="0.65411">
        <ele>111</ele>
        <time>2018-08-25T18:16:15Z</time>
      </trkpt>
      <trkpt lat="44.55135" lon="0.65411">
        <ele>111.1</ele>
        <time>2018-08-25T18:16:16Z</time>
      </trkpt>
      <trkpt lat="44.55138" lon="0.6541">
        <ele>111.2</ele>
        <time>2018-08-25T18:16:17Z</time>
      </trkpt>
      <trkpt lat="44.55142" lon="0.65408">
        <ele>111.3</ele>
        <time>2018-08-25T18:16:18Z</time>
      </trkpt>
      <trkpt lat="44.55146" lon="0.65395">
        <ele>111.7</ele>
        <time>2018-08-25T18:16:19Z</time>
      </trkpt>
      <trkpt lat="44.55148" lon="0.65389">
        <ele>112</ele>
        <time>2018-08-25T18:16:20Z</time>
      </trkpt>
      <trkpt lat="44.55151" lon="0.65386">
        <ele>112.3</ele>
        <time>2018-08-25T18:16:21Z</time>
      </trkpt>
      <trkpt lat="44.55153" lon="0.65391">
        <ele>112</ele>
        <time>2018-08-25T18:16:23Z</time>
      </trkpt>
      <trkpt lat="44.55154" lon="0.65396">
        <ele>111.8</ele>
        <time>2018-08-25T18:16:24Z</time>
      </trkpt>
      <trkpt lat="44.55153" lon="0.654">
        <ele>111.6</ele>
        <time>2018-08-25T18:16:25Z</time>
      </trkpt>
      <trkpt lat="44.5515" lon="0.65403">
        <ele>111.5</ele>
        <time>2018-08-25T18:16:26Z</time>
      </trkpt>
      <trkpt lat="44.55149" lon="0.65407">
        <ele>111.5</ele>
        <time>2018-08-25T18:16:27Z</time>
      </trkpt>
      <trkpt lat="44.55149" lon="0.65412">
        <ele>111.4</ele>
        <time>2018-08-25T18:16:28Z</time>
      </trkpt>
      <trkpt lat="44.5515" lon="0.65417">
        <ele>111.3</ele>
        <time>2018-08-25T18:16:29Z</time>
      </trkpt>
      <trkpt lat="44.5515" lon="0.65423">
        <ele>111.1</ele>
        <time>2018-08-25T18:16:30Z</time>
      </trkpt>
      <trkpt lat="44.55151" lon="0.65428">
        <ele>111</ele>
        <time>2018-08-25T18:16:31Z</time>
      </trkpt>
      <trkpt lat="44.55154" lon="0.65433">
        <ele>110.6</ele>
        <time>2018-08-25T18:16:32Z</time>
      </trkpt>
      <trkpt lat="44.55157" lon="0.65438">
        <ele>109.9</ele>
        <time>2018-08-25T18:16:33Z</time>
      </trkpt>
      <trkpt lat="44.55161" lon="0.65447">
        <ele>109</ele>
        <time>2018-08-25T18:16:34Z</time>
      </trkpt>
      <trkpt lat="44.55164" lon="0.65453">
        <ele>108.6</ele>
        <time>2018-08-25T18:16:35Z</time>
      </trkpt>
      <trkpt lat="44.5517" lon="0.65465">
        <ele>107.6</ele>
        <time>2018-08-25T18:16:36Z</time>
      </trkpt>
      <trkpt lat="44.55176" lon="0.65474">
        <ele>106.5</ele>
        <time>2018-08-25T18:16:37Z</time>
      </trkpt>
      <trkpt lat="44.55182" lon="0.65479">
        <ele>106</ele>
        <time>2018-08-25T18:16:38Z</time>
      </trkpt>
      <trkpt lat="44.55187" lon="0.65487">
        <ele>105.2</ele>
        <time>2018-08-25T18:16:39Z</time>
      </trkpt>
      <trkpt lat="44.55191" lon="0.65494">
        <ele>104.6</ele>
        <time>2018-08-25T18:16:40Z</time>
      </trkpt>
      <trkpt lat="44.55192" lon="0.65498">
        <ele>104.2</ele>
        <time>2018-08-25T18:16:41Z</time>
      </trkpt>
      <trkpt lat="44.55193" lon="0.65504">
        <ele>104</ele>
        <time>2018-08-25T18:16:42Z</time>
      </trkpt>
      <trkpt lat="44.55195" lon="0.6551">
        <ele>103.5</ele>
        <time>2018-08-25T18:16:43Z</time>
      </trkpt>
      <trkpt lat="44.55197" lon="0.65516">
        <ele>103.2</ele>
        <time>2018-08-25T18:16:44Z</time>
      </trkpt>
      <trkpt lat="44.55199" lon="0.65522">
        <ele>102.9</ele>
        <time>2018-08-25T18:16:45Z</time>
      </trkpt>
      <trkpt lat="44.55203" lon="0.65529">
        <ele>102.4</ele>
        <time>2018-08-25T18:16:46Z</time>
      </trkpt>
      <trkpt lat="44.55207" lon="0.65534">
        <ele>102.1</ele>
        <time>2018-08-25T18:16:47Z</time>
      </trkpt>
      <trkpt lat="44.55209" lon="0.65539">
        <ele>101.9</ele>
        <time>2018-08-25T18:16:48Z</time>
      </trkpt>
      <trkpt lat="44.55212" lon="0.65544">
        <ele>101.6</ele>
        <time>2018-08-25T18:16:49Z</time>
      </trkpt>
      <trkpt lat="44.55213" lon="0.6555">
        <ele>101.4</ele>
        <time>2018-08-25T18:16:51Z</time>
      </trkpt>
      <trkpt lat="44.55215" lon="0.65552">
        <ele>101.2</ele>
        <time>2018-08-25T18:16:52Z</time>
      </trkpt>
      <trkpt lat="44.55218" lon="0.65558">
        <ele>100.9</ele>
        <time>2018-08-25T18:16:53Z</time>
      </trkpt>
      <trkpt lat="44.55222" lon="0.65566">
        <ele>100.7</ele>
        <time>2018-08-25T18:16:54Z</time>
      </trkpt>
      <trkpt lat="44.55228" lon="0.65575">
        <ele>100.3</ele>
        <time>2018-08-25T18:16:55Z</time>
      </trkpt>
      <trkpt lat="44.55234" lon="0.65583">
        <ele>100.1</ele>
        <time>2018-08-25T18:16:56Z</time>
      </trkpt>
      <trkpt lat="44.55241" lon="0.65591">
        <ele>99.9</ele>
        <time>2018-08-25T18:16:57Z</time>
      </trkpt>
      <trkpt lat="44.55247" lon="0.65599">
        <ele>99.8</ele>
        <time>2018-08-25T18:16:58Z</time>
      </trkpt>
      <trkpt lat="44.55251" lon="0.65605">
        <ele>99.9</ele>
        <time>2018-08-25T18:16:59Z</time>
      </trkpt>
      <trkpt lat="44.55257" lon="0.65614">
        <ele>100.2</ele>
        <time>2018-08-25T18:17:00Z</time>
      </trkpt>
      <trkpt lat="44.55266" lon="0.6562">
        <ele>100.5</ele>
        <time>2018-08-25T18:17:01Z</time>
      </trkpt>
      <trkpt lat="44.55272" lon="0.6563">
        <ele>101</ele>
        <time>2018-08-25T18:17:02Z</time>
      </trkpt>
      <trkpt lat="44.55276" lon="0.65638">
        <ele>101.5</ele>
        <time>2018-08-25T18:17:03Z</time>
      </trkpt>
      <trkpt lat="44.55281" lon="0.65648">
        <ele>102.5</ele>
        <time>2018-08-25T18:17:04Z</time>
      </trkpt>
      <trkpt lat="44.55285" lon="0.65658">
        <ele>103.1</ele>
        <time>2018-08-25T18:17:05Z</time>
      </trkpt>
      <trkpt lat="44.55291" lon="0.65668">
        <ele>103.8</ele>
        <time>2018-08-25T18:17:06Z</time>
      </trkpt>
      <trkpt lat="44.55294" lon="0.65673">
        <ele>104</ele>
        <time>2018-08-25T18:17:07Z</time>
      </trkpt>
      <trkpt lat="44.55296" lon="0.6568">
        <ele>104.5</ele>
        <time>2018-08-25T18:17:08Z</time>
      </trkpt>
      <trkpt lat="44.55299" lon="0.6569">
        <ele>105</ele>
        <time>2018-08-25T18:17:09Z</time>
      </trkpt>
      <trkpt lat="44.55299" lon="0.65699">
        <ele>105.5</ele>
        <time>2018-08-25T18:17:10Z</time>
      </trkpt>
      <trkpt lat="44.55296" lon="0.6571">
        <ele>105.7</ele>
        <time>2018-08-25T18:17:11Z</time>
      </trkpt>
      <trkpt lat="44.55296" lon="0.6572">
        <ele>106</ele>
        <time>2018-08-25T18:17:12Z</time>
      </trkpt>
      <trkpt lat="44.55296" lon="0.65727">
        <ele>106.4</ele>
        <time>2018-08-25T18:17:13Z</time>
      </trkpt>
      <trkpt lat="44.55295" lon="0.65734">
        <ele>106.6</ele>
        <time>2018-08-25T18:17:14Z</time>
      </trkpt>
      <trkpt lat="44.55296" lon="0.65738">
        <ele>106.7</ele>
        <time>2018-08-25T18:17:15Z</time>
      </trkpt>
      <trkpt lat="44.55297" lon="0.65743">
        <ele>107</ele>
        <time>2018-08-25T18:17:16Z</time>
      </trkpt>
      <trkpt lat="44.553" lon="0.65748">
        <ele>107.2</ele>
        <time>2018-08-25T18:17:17Z</time>
      </trkpt>
      <trkpt lat="44.55303" lon="0.65753">
        <ele>107.4</ele>
        <time>2018-08-25T18:17:18Z</time>
      </trkpt>
      <trkpt lat="44.55307" lon="0.65761">
        <ele>107.8</ele>
        <time>2018-08-25T18:17:19Z</time>
      </trkpt>
      <trkpt lat="44.55311" lon="0.65768">
        <ele>108.2</ele>
        <time>2018-08-25T18:17:20Z</time>
      </trkpt>
      <trkpt lat="44.55315" lon="0.65779">
        <ele>108.5</ele>
        <time>2018-08-25T18:17:21Z</time>
      </trkpt>
      <trkpt lat="44.55321" lon="0.65789">
        <ele>108.8</ele>
        <time>2018-08-25T18:17:22Z</time>
      </trkpt>
      <trkpt lat="44.55326" lon="0.658">
        <ele>109.2</ele>
        <time>2018-08-25T18:17:23Z</time>
      </trkpt>
      <trkpt lat="44.55334" lon="0.65811">
        <ele>109.4</ele>
        <time>2018-08-25T18:17:24Z</time>
      </trkpt>
      <trkpt lat="44.5534" lon="0.65822">
        <ele>109.6</ele>
        <time>2018-08-25T18:17:25Z</time>
      </trkpt>
      <trkpt lat="44.55346" lon="0.65832">
        <ele>109.9</ele>
        <time>2018-08-25T18:17:26Z</time>
      </trkpt>
      <trkpt lat="44.5535" lon="0.65842">
        <ele>110.4</ele>
        <time>2018-08-25T18:17:27Z</time>
      </trkpt>
      <trkpt lat="44.55355" lon="0.6585">
        <ele>110.7</ele>
        <time>2018-08-25T18:17:28Z</time>
      </trkpt>
      <trkpt lat="44.5536" lon="0.65859">
        <ele>111.1</ele>
        <time>2018-08-25T18:17:29Z</time>
      </trkpt>
      <trkpt lat="44.55364" lon="0.65867">
        <ele>111.5</ele>
        <time>2018-08-25T18:17:30Z</time>
      </trkpt>
      <trkpt lat="44.55369" lon="0.65876">
        <ele>111.9</ele>
        <time>2018-08-25T18:17:31Z</time>
      </trkpt>
      <trkpt lat="44.55374" lon="0.65884">
        <ele>112.2</ele>
        <time>2018-08-25T18:17:32Z</time>
      </trkpt>
      <trkpt lat="44.55377" lon="0.6589">
        <ele>112.6</ele>
        <time>2018-08-25T18:17:33Z</time>
      </trkpt>
      <trkpt lat="44.55379" lon="0.65896">
        <ele>112.8</ele>
        <time>2018-08-25T18:17:34Z</time>
      </trkpt>
      <trkpt lat="44.55381" lon="0.65901">
        <ele>113</ele>
        <time>2018-08-25T18:17:35Z</time>
      </trkpt>
      <trkpt lat="44.55384" lon="0.65904">
        <ele>113.1</ele>
        <time>2018-08-25T18:17:36Z</time>
      </trkpt>
      <trkpt lat="44.55388" lon="0.65903">
        <ele>113.1</ele>
        <time>2018-08-25T18:17:37Z</time>
      </trkpt>
      <trkpt lat="44.55392" lon="0.659">
        <ele>112.9</ele>
        <time>2018-08-25T18:17:38Z</time>
      </trkpt>
      <trkpt lat="44.55397" lon="0.65895">
        <ele>112.6</ele>
        <time>2018-08-25T18:17:39Z</time>
      </trkpt>
      <trkpt lat="44.55403" lon="0.65888">
        <ele>112.3</ele>
        <time>2018-08-25T18:17:40Z</time>
      </trkpt>
      <trkpt lat="44.5541" lon="0.65874">
        <ele>111.8</ele>
        <time>2018-08-25T18:17:41Z</time>
      </trkpt>
      <trkpt lat="44.55418" lon="0.65866">
        <ele>111.6</ele>
        <time>2018-08-25T18:17:42Z</time>
      </trkpt>
      <trkpt lat="44.55426" lon="0.65858">
        <ele>111.4</ele>
        <time>2018-08-25T18:17:43Z</time>
      </trkpt>
      <trkpt lat="44.55433" lon="0.65851">
        <ele>111.4</ele>
        <time>2018-08-25T18:17:44Z</time>
      </trkpt>
      <trkpt lat="44.55436" lon="0.65849">
        <ele>111.5</ele>
        <time>2018-08-25T18:17:45Z</time>
      </trkpt>
      <trkpt lat="44.5544" lon="0.65848">
        <ele>111.4</ele>
        <time>2018-08-25T18:17:46Z</time>
      </trkpt>
      <trkpt lat="44.55445" lon="0.6585">
        <ele>111.5</ele>
        <time>2018-08-25T18:17:48Z</time>
      </trkpt>
      <trkpt lat="44.55446" lon="0.65856">
        <ele>111.5</ele>
        <time>2018-08-25T18:17:49Z</time>
      </trkpt>
      <trkpt lat="44.55446" lon="0.65866">
        <ele>111.6</ele>
        <time>2018-08-25T18:17:50Z</time>
      </trkpt>
      <trkpt lat="44.55448" lon="0.65878">
        <ele>111.8</ele>
        <time>2018-08-25T18:17:51Z</time>
      </trkpt>
      <trkpt lat="44.5545" lon="0.65892">
        <ele>112.2</ele>
        <time>2018-08-25T18:17:52Z</time>
      </trkpt>
      <trkpt lat="44.55454" lon="0.65906">
        <ele>112.9</ele>
        <time>2018-08-25T18:17:53Z</time>
      </trkpt>
      <trkpt lat="44.55459" lon="0.65923">
        <ele>113.6</ele>
        <time>2018-08-25T18:17:54Z</time>
      </trkpt>
      <trkpt lat="44.55464" lon="0.6594">
        <ele>114.9</ele>
        <time>2018-08-25T18:17:55Z</time>
      </trkpt>
      <trkpt lat="44.55472" lon="0.6596">
        <ele>116</ele>
        <time>2018-08-25T18:17:56Z</time>
      </trkpt>
      <trkpt lat="44.55478" lon="0.65979">
        <ele>116.6</ele>
        <time>2018-08-25T18:17:57Z</time>
      </trkpt>
      <trkpt lat="44.55482" lon="0.65995">
        <ele>117</ele>
        <time>2018-08-25T18:17:58Z</time>
      </trkpt>
      <trkpt lat="44.55485" lon="0.6601">
        <ele>117.4</ele>
        <time>2018-08-25T18:17:59Z</time>
      </trkpt>
      <trkpt lat="44.55487" lon="0.66026">
        <ele>117.9</ele>
        <time>2018-08-25T18:18:00Z</time>
      </trkpt>
      <trkpt lat="44.55481" lon="0.66043">
        <ele>118.4</ele>
        <time>2018-08-25T18:18:01Z</time>
      </trkpt>
      <trkpt lat="44.55473" lon="0.66061">
        <ele>119</ele>
        <time>2018-08-25T18:18:02Z</time>
      </trkpt>
      <trkpt lat="44.55464" lon="0.66076">
        <ele>119.4</ele>
        <time>2018-08-25T18:18:03Z</time>
      </trkpt>
      <trkpt lat="44.55453" lon="0.66094">
        <ele>120</ele>
        <time>2018-08-25T18:18:04Z</time>
      </trkpt>
      <trkpt lat="44.55442" lon="0.66111">
        <ele>120.7</ele>
        <time>2018-08-25T18:18:05Z</time>
      </trkpt>
      <trkpt lat="44.55431" lon="0.66129">
        <ele>121.5</ele>
        <time>2018-08-25T18:18:06Z</time>
      </trkpt>
      <trkpt lat="44.55421" lon="0.66144">
        <ele>122.5</ele>
        <time>2018-08-25T18:18:07Z</time>
      </trkpt>
      <trkpt lat="44.55414" lon="0.6616">
        <ele>123</ele>
        <time>2018-08-25T18:18:08Z</time>
      </trkpt>
      <trkpt lat="44.55407" lon="0.66179">
        <ele>123.2</ele>
        <time>2018-08-25T18:18:09Z</time>
      </trkpt>
      <trkpt lat="44.55404" lon="0.662">
        <ele>123.4</ele>
        <time>2018-08-25T18:18:10Z</time>
      </trkpt>
      <trkpt lat="44.55398" lon="0.66222">
        <ele>123.5</ele>
        <time>2018-08-25T18:18:11Z</time>
      </trkpt>
      <trkpt lat="44.55393" lon="0.66245">
        <ele>123.6</ele>
        <time>2018-08-25T18:18:12Z</time>
      </trkpt>
      <trkpt lat="44.55387" lon="0.66269">
        <ele>123.8</ele>
        <time>2018-08-25T18:18:13Z</time>
      </trkpt>
      <trkpt lat="44.55382" lon="0.66295">
        <ele>124.9</ele>
        <time>2018-08-25T18:18:14Z</time>
      </trkpt>
      <trkpt lat="44.55376" lon="0.66321">
        <ele>126</ele>
        <time>2018-08-25T18:18:15Z</time>
      </trkpt>
      <trkpt lat="44.5537" lon="0.66349">
        <ele>126.6</ele>
        <time>2018-08-25T18:18:16Z</time>
      </trkpt>
      <trkpt lat="44.55364" lon="0.66375">
        <ele>127.3</ele>
        <time>2018-08-25T18:18:17Z</time>
      </trkpt>
      <trkpt lat="44.55358" lon="0.664">
        <ele>127.7</ele>
        <time>2018-08-25T18:18:18Z</time>
      </trkpt>
      <trkpt lat="44.55354" lon="0.6642">
        <ele>128.9</ele>
        <time>2018-08-25T18:18:19Z</time>
      </trkpt>
      <trkpt lat="44.5535" lon="0.66439">
        <ele>129.8</ele>
        <time>2018-08-25T18:18:20Z</time>
      </trkpt>
      <trkpt lat="44.55347" lon="0.66452">
        <ele>130.3</ele>
        <time>2018-08-25T18:18:21Z</time>
      </trkpt>
      <trkpt lat="44.55344" lon="0.66462">
        <ele>130.7</ele>
        <time>2018-08-25T18:18:22Z</time>
      </trkpt>
      <trkpt lat="44.55343" lon="0.66471">
        <ele>131.1</ele>
        <time>2018-08-25T18:18:23Z</time>
      </trkpt>
      <trkpt lat="44.55342" lon="0.66478">
        <ele>131.5</ele>
        <time>2018-08-25T18:18:24Z</time>
      </trkpt>
      <trkpt lat="44.55342" lon="0.66485">
        <ele>131.8</ele>
        <time>2018-08-25T18:18:25Z</time>
      </trkpt>
      <trkpt lat="44.55345" lon="0.66491">
        <ele>132.1</ele>
        <time>2018-08-25T18:18:26Z</time>
      </trkpt>
      <trkpt lat="44.55357" lon="0.66495">
        <ele>132.8</ele>
        <time>2018-08-25T18:18:27Z</time>
      </trkpt>
      <trkpt lat="44.55367" lon="0.66497">
        <ele>133.4</ele>
        <time>2018-08-25T18:18:28Z</time>
      </trkpt>
      <trkpt lat="44.55379" lon="0.66501">
        <ele>134</ele>
        <time>2018-08-25T18:18:29Z</time>
      </trkpt>
      <trkpt lat="44.55393" lon="0.66505">
        <ele>134.4</ele>
        <time>2018-08-25T18:18:30Z</time>
      </trkpt>
      <trkpt lat="44.55408" lon="0.66509">
        <ele>134.8</ele>
        <time>2018-08-25T18:18:31Z</time>
      </trkpt>
      <trkpt lat="44.55424" lon="0.66514">
        <ele>135</ele>
        <time>2018-08-25T18:18:32Z</time>
      </trkpt>
      <trkpt lat="44.55442" lon="0.66519">
        <ele>135.1</ele>
        <time>2018-08-25T18:18:33Z</time>
      </trkpt>
      <trkpt lat="44.5546" lon="0.66526">
        <ele>135.2</ele>
        <time>2018-08-25T18:18:34Z</time>
      </trkpt>
      <trkpt lat="44.5548" lon="0.66531">
        <ele>135.3</ele>
        <time>2018-08-25T18:18:35Z</time>
      </trkpt>
      <trkpt lat="44.55502" lon="0.66536">
        <ele>135.4</ele>
        <time>2018-08-25T18:18:36Z</time>
      </trkpt>
      <trkpt lat="44.55523" lon="0.66543">
        <ele>135.9</ele>
        <time>2018-08-25T18:18:37Z</time>
      </trkpt>
      <trkpt lat="44.55546" lon="0.66549">
        <ele>137.1</ele>
        <time>2018-08-25T18:18:38Z</time>
      </trkpt>
      <trkpt lat="44.55569" lon="0.66556">
        <ele>138.3</ele>
        <time>2018-08-25T18:18:39Z</time>
      </trkpt>
      <trkpt lat="44.55592" lon="0.66563">
        <ele>139</ele>
        <time>2018-08-25T18:18:40Z</time>
      </trkpt>
      <trkpt lat="44.55614" lon="0.6657">
        <ele>139.4</ele>
        <time>2018-08-25T18:18:41Z</time>
      </trkpt>
      <trkpt lat="44.55636" lon="0.66576">
        <ele>139.7</ele>
        <time>2018-08-25T18:18:42Z</time>
      </trkpt>
      <trkpt lat="44.55658" lon="0.66583">
        <ele>140.3</ele>
        <time>2018-08-25T18:18:43Z</time>
      </trkpt>
      <trkpt lat="44.5568" lon="0.66589">
        <ele>140.9</ele>
        <time>2018-08-25T18:18:44Z</time>
      </trkpt>
      <trkpt lat="44.55702" lon="0.66596">
        <ele>141.4</ele>
        <time>2018-08-25T18:18:45Z</time>
      </trkpt>
      <trkpt lat="44.55722" lon="0.66603">
        <ele>141.9</ele>
        <time>2018-08-25T18:18:46Z</time>
      </trkpt>
      <trkpt lat="44.55742" lon="0.66608">
        <ele>142.5</ele>
        <time>2018-08-25T18:18:47Z</time>
      </trkpt>
      <trkpt lat="44.5576" lon="0.66613">
        <ele>143.2</ele>
        <time>2018-08-25T18:18:48Z</time>
      </trkpt>
      <trkpt lat="44.55778" lon="0.66617">
        <ele>144</ele>
        <time>2018-08-25T18:18:49Z</time>
      </trkpt>
      <trkpt lat="44.55795" lon="0.66621">
        <ele>144.7</ele>
        <time>2018-08-25T18:18:50Z</time>
      </trkpt>
      <trkpt lat="44.55808" lon="0.66627">
        <ele>145.3</ele>
        <time>2018-08-25T18:18:51Z</time>
      </trkpt>
      <trkpt lat="44.55823" lon="0.66632">
        <ele>145.9</ele>
        <time>2018-08-25T18:18:52Z</time>
      </trkpt>
      <trkpt lat="44.55836" lon="0.66636">
        <ele>146.5</ele>
        <time>2018-08-25T18:18:53Z</time>
      </trkpt>
      <trkpt lat="44.5585" lon="0.6664">
        <ele>147.1</ele>
        <time>2018-08-25T18:18:54Z</time>
      </trkpt>
      <trkpt lat="44.55861" lon="0.66643">
        <ele>147.7</ele>
        <time>2018-08-25T18:18:55Z</time>
      </trkpt>
      <trkpt lat="44.55872" lon="0.66647">
        <ele>148.3</ele>
        <time>2018-08-25T18:18:56Z</time>
      </trkpt>
      <trkpt lat="44.55881" lon="0.6665">
        <ele>148.7</ele>
        <time>2018-08-25T18:18:57Z</time>
      </trkpt>
      <trkpt lat="44.55884" lon="0.66652">
        <ele>148.8</ele>
        <time>2018-08-25T18:18:58Z</time>
      </trkpt>
      <trkpt lat="44.5589" lon="0.66654">
        <ele>149</ele>
        <time>2018-08-25T18:18:59Z</time>
      </trkpt>
      <trkpt lat="44.55895" lon="0.66658">
        <ele>149</ele>
        <time>2018-08-25T18:19:00Z</time>
      </trkpt>
      <trkpt lat="44.55897" lon="0.66662">
        <ele>149</ele>
        <time>2018-08-25T18:19:01Z</time>
      </trkpt>
      <trkpt lat="44.55901" lon="0.66665">
        <ele>149.2</ele>
        <time>2018-08-25T18:19:02Z</time>
      </trkpt>
      <trkpt lat="44.55901" lon="0.66669">
        <ele>149.3</ele>
        <time>2018-08-25T18:19:03Z</time>
      </trkpt>
      <trkpt lat="44.559" lon="0.66674">
        <ele>149.2</ele>
        <time>2018-08-25T18:19:04Z</time>
      </trkpt>
      <trkpt lat="44.55897" lon="0.6668">
        <ele>149.2</ele>
        <time>2018-08-25T18:19:05Z</time>
      </trkpt>
      <trkpt lat="44.55892" lon="0.66689">
        <ele>149.2</ele>
        <time>2018-08-25T18:19:06Z</time>
      </trkpt>
      <trkpt lat="44.55868" lon="0.66726">
        <ele>149.1</ele>
        <time>2018-08-25T18:19:08Z</time>
      </trkpt>
      <trkpt lat="44.55863" lon="0.66739">
        <ele>149.2</ele>
        <time>2018-08-25T18:19:09Z</time>
      </trkpt>
      <trkpt lat="44.55857" lon="0.66751">
        <ele>149.2</ele>
        <time>2018-08-25T18:19:10Z</time>
      </trkpt>
      <trkpt lat="44.55856" lon="0.66758">
        <ele>149.2</ele>
        <time>2018-08-25T18:19:11Z</time>
      </trkpt>
      <trkpt lat="44.55852" lon="0.66769">
        <ele>148.9</ele>
        <time>2018-08-25T18:19:12Z</time>
      </trkpt>
      <trkpt lat="44.55849" lon="0.66779">
        <ele>148.4</ele>
        <time>2018-08-25T18:19:13Z</time>
      </trkpt>
      <trkpt lat="44.55845" lon="0.66793">
        <ele>147.8</ele>
        <time>2018-08-25T18:19:14Z</time>
      </trkpt>
      <trkpt lat="44.55842" lon="0.66806">
        <ele>147.2</ele>
        <time>2018-08-25T18:19:15Z</time>
      </trkpt>
      <trkpt lat="44.5584" lon="0.66817">
        <ele>146.8</ele>
        <time>2018-08-25T18:19:16Z</time>
      </trkpt>
      <trkpt lat="44.55836" lon="0.66823">
        <ele>146.6</ele>
        <time>2018-08-25T18:19:17Z</time>
      </trkpt>
      <trkpt lat="44.55835" lon="0.66835">
        <ele>146.2</ele>
        <time>2018-08-25T18:19:18Z</time>
      </trkpt>
      <trkpt lat="44.5583" lon="0.66846">
        <ele>145.7</ele>
        <time>2018-08-25T18:19:19Z</time>
      </trkpt>
      <trkpt lat="44.55824" lon="0.66861">
        <ele>145.3</ele>
        <time>2018-08-25T18:19:20Z</time>
      </trkpt>
      <trkpt lat="44.55818" lon="0.66875">
        <ele>144.8</ele>
        <time>2018-08-25T18:19:21Z</time>
      </trkpt>
      <trkpt lat="44.55814" lon="0.66887">
        <ele>144.2</ele>
        <time>2018-08-25T18:19:22Z</time>
      </trkpt>
      <trkpt lat="44.5581" lon="0.66899">
        <ele>143.5</ele>
        <time>2018-08-25T18:19:23Z</time>
      </trkpt>
      <trkpt lat="44.55805" lon="0.66911">
        <ele>142.6</ele>
        <time>2018-08-25T18:19:24Z</time>
      </trkpt>
      <trkpt lat="44.55802" lon="0.66923">
        <ele>142</ele>
        <time>2018-08-25T18:19:25Z</time>
      </trkpt>
      <trkpt lat="44.55797" lon="0.66935">
        <ele>141.4</ele>
        <time>2018-08-25T18:19:26Z</time>
      </trkpt>
      <trkpt lat="44.55792" lon="0.66951">
        <ele>140.8</ele>
        <time>2018-08-25T18:19:27Z</time>
      </trkpt>
      <trkpt lat="44.55788" lon="0.66967">
        <ele>140.4</ele>
        <time>2018-08-25T18:19:28Z</time>
      </trkpt>
      <trkpt lat="44.55783" lon="0.66984">
        <ele>140.4</ele>
        <time>2018-08-25T18:19:29Z</time>
      </trkpt>
      <trkpt lat="44.55779" lon="0.66999">
        <ele>140.3</ele>
        <time>2018-08-25T18:19:30Z</time>
      </trkpt>
      <trkpt lat="44.55776" lon="0.67014">
        <ele>140.3</ele>
        <time>2018-08-25T18:19:31Z</time>
      </trkpt>
      <trkpt lat="44.55773" lon="0.6703">
        <ele>140.1</ele>
        <time>2018-08-25T18:19:32Z</time>
      </trkpt>
      <trkpt lat="44.55768" lon="0.67045">
        <ele>140</ele>
        <time>2018-08-25T18:19:33Z</time>
      </trkpt>
      <trkpt lat="44.55764" lon="0.67061">
        <ele>139.9</ele>
        <time>2018-08-25T18:19:34Z</time>
      </trkpt>
      <trkpt lat="44.5576" lon="0.67076">
        <ele>139.7</ele>
        <time>2018-08-25T18:19:35Z</time>
      </trkpt>
      <trkpt lat="44.55757" lon="0.67092">
        <ele>139.4</ele>
        <time>2018-08-25T18:19:36Z</time>
      </trkpt>
      <trkpt lat="44.55755" lon="0.67109">
        <ele>139.2</ele>
        <time>2018-08-25T18:19:37Z</time>
      </trkpt>
      <trkpt lat="44.55752" lon="0.67123">
        <ele>138.9</ele>
        <time>2018-08-25T18:19:38Z</time>
      </trkpt>
      <trkpt lat="44.55751" lon="0.67139">
        <ele>138.3</ele>
        <time>2018-08-25T18:19:39Z</time>
      </trkpt>
      <trkpt lat="44.55749" lon="0.67153">
        <ele>138</ele>
        <time>2018-08-25T18:19:40Z</time>
      </trkpt>
      <trkpt lat="44.55747" lon="0.67167">
        <ele>137.3</ele>
        <time>2018-08-25T18:19:41Z</time>
      </trkpt>
      <trkpt lat="44.55746" lon="0.67181">
        <ele>136.9</ele>
        <time>2018-08-25T18:19:42Z</time>
      </trkpt>
      <trkpt lat="44.55743" lon="0.67195">
        <ele>136.4</ele>
        <time>2018-08-25T18:19:43Z</time>
      </trkpt>
      <trkpt lat="44.5574" lon="0.67207">
        <ele>136.1</ele>
        <time>2018-08-25T18:19:44Z</time>
      </trkpt>
      <trkpt lat="44.55737" lon="0.67219">
        <ele>135.7</ele>
        <time>2018-08-25T18:19:45Z</time>
      </trkpt>
      <trkpt lat="44.55733" lon="0.67231">
        <ele>135.5</ele>
        <time>2018-08-25T18:19:46Z</time>
      </trkpt>
      <trkpt lat="44.55729" lon="0.67242">
        <ele>135.1</ele>
        <time>2018-08-25T18:19:47Z</time>
      </trkpt>
      <trkpt lat="44.55725" lon="0.67252">
        <ele>134.8</ele>
        <time>2018-08-25T18:19:48Z</time>
      </trkpt>
      <trkpt lat="44.55721" lon="0.67262">
        <ele>134.4</ele>
        <time>2018-08-25T18:19:49Z</time>
      </trkpt>
      <trkpt lat="44.55717" lon="0.67275">
        <ele>134.2</ele>
        <time>2018-08-25T18:19:50Z</time>
      </trkpt>
      <trkpt lat="44.55713" lon="0.67288">
        <ele>134.4</ele>
        <time>2018-08-25T18:19:51Z</time>
      </trkpt>
      <trkpt lat="44.55709" lon="0.673">
        <ele>134.7</ele>
        <time>2018-08-25T18:19:52Z</time>
      </trkpt>
      <trkpt lat="44.55705" lon="0.6731">
        <ele>135.4</ele>
        <time>2018-08-25T18:19:53Z</time>
      </trkpt>
      <trkpt lat="44.55702" lon="0.67319">
        <ele>136.1</ele>
        <time>2018-08-25T18:19:54Z</time>
      </trkpt>
      <trkpt lat="44.557" lon="0.67329">
        <ele>136.8</ele>
        <time>2018-08-25T18:19:55Z</time>
      </trkpt>
      <trkpt lat="44.55699" lon="0.67338">
        <ele>137.6</ele>
        <time>2018-08-25T18:19:56Z</time>
      </trkpt>
      <trkpt lat="44.55696" lon="0.67348">
        <ele>138.6</ele>
        <time>2018-08-25T18:19:57Z</time>
      </trkpt>
      <trkpt lat="44.55691" lon="0.67357">
        <ele>139.3</ele>
        <time>2018-08-25T18:19:58Z</time>
      </trkpt>
      <trkpt lat="44.55686" lon="0.67367">
        <ele>140</ele>
        <time>2018-08-25T18:19:59Z</time>
      </trkpt>
      <trkpt lat="44.55678" lon="0.67385">
        <ele>140.7</ele>
        <time>2018-08-25T18:20:00Z</time>
      </trkpt>
      <trkpt lat="44.55674" lon="0.67397">
        <ele>140.9</ele>
        <time>2018-08-25T18:20:01Z</time>
      </trkpt>
      <trkpt lat="44.55668" lon="0.67408">
        <ele>141.5</ele>
        <time>2018-08-25T18:20:02Z</time>
      </trkpt>
      <trkpt lat="44.55663" lon="0.67417">
        <ele>141.8</ele>
        <time>2018-08-25T18:20:03Z</time>
      </trkpt>
      <trkpt lat="44.55657" lon="0.67424">
        <ele>142.2</ele>
        <time>2018-08-25T18:20:04Z</time>
      </trkpt>
      <trkpt lat="44.55652" lon="0.67433">
        <ele>142.7</ele>
        <time>2018-08-25T18:20:05Z</time>
      </trkpt>
      <trkpt lat="44.55649" lon="0.67443">
        <ele>143</ele>
        <time>2018-08-25T18:20:06Z</time>
      </trkpt>
      <trkpt lat="44.55643" lon="0.67449">
        <ele>143.4</ele>
        <time>2018-08-25T18:20:07Z</time>
      </trkpt>
      <trkpt lat="44.55637" lon="0.67455">
        <ele>143.9</ele>
        <time>2018-08-25T18:20:08Z</time>
      </trkpt>
      <trkpt lat="44.5563" lon="0.67461">
        <ele>144.2</ele>
        <time>2018-08-25T18:20:09Z</time>
      </trkpt>
      <trkpt lat="44.55626" lon="0.67474">
        <ele>144.4</ele>
        <time>2018-08-25T18:20:10Z</time>
      </trkpt>
      <trkpt lat="44.55622" lon="0.67483">
        <ele>144.5</ele>
        <time>2018-08-25T18:20:11Z</time>
      </trkpt>
      <trkpt lat="44.55617" lon="0.67493">
        <ele>144.5</ele>
        <time>2018-08-25T18:20:12Z</time>
      </trkpt>
      <trkpt lat="44.55613" lon="0.67504">
        <ele>144.2</ele>
        <time>2018-08-25T18:20:13Z</time>
      </trkpt>
      <trkpt lat="44.5561" lon="0.67515">
        <ele>143.7</ele>
        <time>2018-08-25T18:20:14Z</time>
      </trkpt>
      <trkpt lat="44.55605" lon="0.67525">
        <ele>143.2</ele>
        <time>2018-08-25T18:20:15Z</time>
      </trkpt>
      <trkpt lat="44.55599" lon="0.67533">
        <ele>142.7</ele>
        <time>2018-08-25T18:20:16Z</time>
      </trkpt>
      <trkpt lat="44.55595" lon="0.67541">
        <ele>142.2</ele>
        <time>2018-08-25T18:20:17Z</time>
      </trkpt>
      <trkpt lat="44.55591" lon="0.67552">
        <ele>141.7</ele>
        <time>2018-08-25T18:20:18Z</time>
      </trkpt>
      <trkpt lat="44.55586" lon="0.67561">
        <ele>141.3</ele>
        <time>2018-08-25T18:20:19Z</time>
      </trkpt>
      <trkpt lat="44.55581" lon="0.67568">
        <ele>140.9</ele>
        <time>2018-08-25T18:20:20Z</time>
      </trkpt>
      <trkpt lat="44.55577" lon="0.67577">
        <ele>140.5</ele>
        <time>2018-08-25T18:20:21Z</time>
      </trkpt>
      <trkpt lat="44.55573" lon="0.67586">
        <ele>140.3</ele>
        <time>2018-08-25T18:20:22Z</time>
      </trkpt>
      <trkpt lat="44.55568" lon="0.67593">
        <ele>140</ele>
        <time>2018-08-25T18:20:23Z</time>
      </trkpt>
      <trkpt lat="44.55564" lon="0.67599">
        <ele>139.9</ele>
        <time>2018-08-25T18:20:24Z</time>
      </trkpt>
      <trkpt lat="44.5556" lon="0.67606">
        <ele>139.6</ele>
        <time>2018-08-25T18:20:25Z</time>
      </trkpt>
      <trkpt lat="44.55555" lon="0.67614">
        <ele>139.2</ele>
        <time>2018-08-25T18:20:26Z</time>
      </trkpt>
      <trkpt lat="44.55551" lon="0.67621">
        <ele>139</ele>
        <time>2018-08-25T18:20:27Z</time>
      </trkpt>
      <trkpt lat="44.55548" lon="0.67629">
        <ele>138.8</ele>
        <time>2018-08-25T18:20:28Z</time>
      </trkpt>
      <trkpt lat="44.55541" lon="0.6764">
        <ele>138.4</ele>
        <time>2018-08-25T18:20:29Z</time>
      </trkpt>
      <trkpt lat="44.55535" lon="0.67651">
        <ele>138.2</ele>
        <time>2018-08-25T18:20:30Z</time>
      </trkpt>
      <trkpt lat="44.5553" lon="0.6766">
        <ele>137.9</ele>
        <time>2018-08-25T18:20:31Z</time>
      </trkpt>
      <trkpt lat="44.55525" lon="0.6767">
        <ele>137.6</ele>
        <time>2018-08-25T18:20:32Z</time>
      </trkpt>
      <trkpt lat="44.5552" lon="0.6768">
        <ele>137.2</ele>
        <time>2018-08-25T18:20:33Z</time>
      </trkpt>
      <trkpt lat="44.55513" lon="0.6769">
        <ele>136.9</ele>
        <time>2018-08-25T18:20:34Z</time>
      </trkpt>
      <trkpt lat="44.55508" lon="0.67701">
        <ele>136.6</ele>
        <time>2018-08-25T18:20:35Z</time>
      </trkpt>
      <trkpt lat="44.55502" lon="0.67711">
        <ele>136.5</ele>
        <time>2018-08-25T18:20:36Z</time>
      </trkpt>
      <trkpt lat="44.55497" lon="0.67721">
        <ele>136.5</ele>
        <time>2018-08-25T18:20:37Z</time>
      </trkpt>
      <trkpt lat="44.55493" lon="0.67731">
        <ele>136.6</ele>
        <time>2018-08-25T18:20:38Z</time>
      </trkpt>
      <trkpt lat="44.55488" lon="0.67741">
        <ele>136.6</ele>
        <time>2018-08-25T18:20:39Z</time>
      </trkpt>
      <trkpt lat="44.55485" lon="0.67754">
        <ele>136.6</ele>
        <time>2018-08-25T18:20:40Z</time>
      </trkpt>
      <trkpt lat="44.55483" lon="0.67761">
        <ele>136.6</ele>
        <time>2018-08-25T18:20:41Z</time>
      </trkpt>
      <trkpt lat="44.55481" lon="0.67765">
        <ele>136.6</ele>
        <time>2018-08-25T18:20:42Z</time>
      </trkpt>
      <trkpt lat="44.55477" lon="0.67771">
        <ele>136.6</ele>
        <time>2018-08-25T18:20:44Z</time>
      </trkpt>
      <trkpt lat="44.55476" lon="0.67776">
        <ele>136.5</ele>
        <time>2018-08-25T18:20:45Z</time>
      </trkpt>
      <trkpt lat="44.55474" lon="0.6778">
        <ele>136.5</ele>
        <time>2018-08-25T18:20:46Z</time>
      </trkpt>
      <trkpt lat="44.55472" lon="0.67786">
        <ele>136.4</ele>
        <time>2018-08-25T18:20:47Z</time>
      </trkpt>
      <trkpt lat="44.5547" lon="0.67794">
        <ele>136.2</ele>
        <time>2018-08-25T18:20:48Z</time>
      </trkpt>
      <trkpt lat="44.55468" lon="0.67799">
        <ele>136.2</ele>
        <time>2018-08-25T18:20:49Z</time>
      </trkpt>
      <trkpt lat="44.55467" lon="0.67803">
        <ele>136.2</ele>
        <time>2018-08-25T18:20:50Z</time>
      </trkpt>
      <trkpt lat="44.55463" lon="0.67807">
        <ele>136.2</ele>
        <time>2018-08-25T18:20:51Z</time>
      </trkpt>
      <trkpt lat="44.55461" lon="0.67816">
        <ele>135.9</ele>
        <time>2018-08-25T18:20:52Z</time>
      </trkpt>
      <trkpt lat="44.55458" lon="0.6783">
        <ele>135.9</ele>
        <time>2018-08-25T18:20:53Z</time>
      </trkpt>
      <trkpt lat="44.55454" lon="0.67841">
        <ele>135.7</ele>
        <time>2018-08-25T18:20:54Z</time>
      </trkpt>
      <trkpt lat="44.5545" lon="0.67852">
        <ele>135.7</ele>
        <time>2018-08-25T18:20:55Z</time>
      </trkpt>
      <trkpt lat="44.55447" lon="0.67865">
        <ele>135.6</ele>
        <time>2018-08-25T18:20:56Z</time>
      </trkpt>
      <trkpt lat="44.55446" lon="0.67881">
        <ele>135</ele>
        <time>2018-08-25T18:20:57Z</time>
      </trkpt>
      <trkpt lat="44.55441" lon="0.6789">
        <ele>135.4</ele>
        <time>2018-08-25T18:20:58Z</time>
      </trkpt>
      <trkpt lat="44.55435" lon="0.67901">
        <ele>135.5</ele>
        <time>2018-08-25T18:20:59Z</time>
      </trkpt>
      <trkpt lat="44.5543" lon="0.6791">
        <ele>135.3</ele>
        <time>2018-08-25T18:21:00Z</time>
      </trkpt>
      <trkpt lat="44.55424" lon="0.67919">
        <ele>135.9</ele>
        <time>2018-08-25T18:21:01Z</time>
      </trkpt>
      <trkpt lat="44.55418" lon="0.6793">
        <ele>135.7</ele>
        <time>2018-08-25T18:21:02Z</time>
      </trkpt>
      <trkpt lat="44.55413" lon="0.67942">
        <ele>135.7</ele>
        <time>2018-08-25T18:21:03Z</time>
      </trkpt>
      <trkpt lat="44.55408" lon="0.67951">
        <ele>135.7</ele>
        <time>2018-08-25T18:21:04Z</time>
      </trkpt>
      <trkpt lat="44.55404" lon="0.67959">
        <ele>135.4</ele>
        <time>2018-08-25T18:21:05Z</time>
      </trkpt>
      <trkpt lat="44.554" lon="0.67969">
        <ele>135</ele>
        <time>2018-08-25T18:21:06Z</time>
      </trkpt>
      <trkpt lat="44.55396" lon="0.6798">
        <ele>134.7</ele>
        <time>2018-08-25T18:21:07Z</time>
      </trkpt>
      <trkpt lat="44.55391" lon="0.67986">
        <ele>134.8</ele>
        <time>2018-08-25T18:21:08Z</time>
      </trkpt>
      <trkpt lat="44.55385" lon="0.67992">
        <ele>135</ele>
        <time>2018-08-25T18:21:09Z</time>
      </trkpt>
      <trkpt lat="44.55381" lon="0.67999">
        <ele>135.5</ele>
        <time>2018-08-25T18:21:10Z</time>
      </trkpt>
      <trkpt lat="44.55377" lon="0.68005">
        <ele>135.2</ele>
        <time>2018-08-25T18:21:11Z</time>
      </trkpt>
      <trkpt lat="44.55373" lon="0.68013">
        <ele>135</ele>
        <time>2018-08-25T18:21:12Z</time>
      </trkpt>
      <trkpt lat="44.5537" lon="0.6802">
        <ele>135.2</ele>
        <time>2018-08-25T18:21:13Z</time>
      </trkpt>
      <trkpt lat="44.55366" lon="0.68026">
        <ele>135.7</ele>
        <time>2018-08-25T18:21:14Z</time>
      </trkpt>
      <trkpt lat="44.55361" lon="0.68033">
        <ele>136</ele>
        <time>2018-08-25T18:21:15Z</time>
      </trkpt>
      <trkpt lat="44.55356" lon="0.68044">
        <ele>136.5</ele>
        <time>2018-08-25T18:21:16Z</time>
      </trkpt>
      <trkpt lat="44.55351" lon="0.68052">
        <ele>136.6</ele>
        <time>2018-08-25T18:21:17Z</time>
      </trkpt>
      <trkpt lat="44.55346" lon="0.68062">
        <ele>137.3</ele>
        <time>2018-08-25T18:21:18Z</time>
      </trkpt>
      <trkpt lat="44.55342" lon="0.68073">
        <ele>137.7</ele>
        <time>2018-08-25T18:21:19Z</time>
      </trkpt>
      <trkpt lat="44.55337" lon="0.68085">
        <ele>138.8</ele>
        <time>2018-08-25T18:21:20Z</time>
      </trkpt>
      <trkpt lat="44.55332" lon="0.68096">
        <ele>139.9</ele>
        <time>2018-08-25T18:21:21Z</time>
      </trkpt>
      <trkpt lat="44.55325" lon="0.68106">
        <ele>140.8</ele>
        <time>2018-08-25T18:21:22Z</time>
      </trkpt>
      <trkpt lat="44.5532" lon="0.68117">
        <ele>141.1</ele>
        <time>2018-08-25T18:21:23Z</time>
      </trkpt>
      <trkpt lat="44.55313" lon="0.68129">
        <ele>142.2</ele>
        <time>2018-08-25T18:21:24Z</time>
      </trkpt>
      <trkpt lat="44.55312" lon="0.68139">
        <ele>142.2</ele>
        <time>2018-08-25T18:21:25Z</time>
      </trkpt>
      <trkpt lat="44.55307" lon="0.68148">
        <ele>143.1</ele>
        <time>2018-08-25T18:21:26Z</time>
      </trkpt>
      <trkpt lat="44.55305" lon="0.68158">
        <ele>143.2</ele>
        <time>2018-08-25T18:21:27Z</time>
      </trkpt>
      <trkpt lat="44.55303" lon="0.68166">
        <ele>143.7</ele>
        <time>2018-08-25T18:21:28Z</time>
      </trkpt>
      <trkpt lat="44.553" lon="0.68171">
        <ele>144.1</ele>
        <time>2018-08-25T18:21:29Z</time>
      </trkpt>
      <trkpt lat="44.55296" lon="0.68175">
        <ele>144.4</ele>
        <time>2018-08-25T18:21:30Z</time>
      </trkpt>
      <trkpt lat="44.55293" lon="0.6818">
        <ele>144.7</ele>
        <time>2018-08-25T18:21:31Z</time>
      </trkpt>
      <trkpt lat="44.5529" lon="0.68185">
        <ele>144.9</ele>
        <time>2018-08-25T18:21:32Z</time>
      </trkpt>
      <trkpt lat="44.55288" lon="0.68191">
        <ele>145.1</ele>
        <time>2018-08-25T18:21:33Z</time>
      </trkpt>
      <trkpt lat="44.55285" lon="0.68198">
        <ele>145.1</ele>
        <time>2018-08-25T18:21:34Z</time>
      </trkpt>
      <trkpt lat="44.55283" lon="0.68208">
        <ele>145</ele>
        <time>2018-08-25T18:21:35Z</time>
      </trkpt>
      <trkpt lat="44.55281" lon="0.68218">
        <ele>144.3</ele>
        <time>2018-08-25T18:21:36Z</time>
      </trkpt>
      <trkpt lat="44.55279" lon="0.68237">
        <ele>143.6</ele>
        <time>2018-08-25T18:21:37Z</time>
      </trkpt>
      <trkpt lat="44.55276" lon="0.68246">
        <ele>143.4</ele>
        <time>2018-08-25T18:21:38Z</time>
      </trkpt>
      <trkpt lat="44.55275" lon="0.68254">
        <ele>142.7</ele>
        <time>2018-08-25T18:21:39Z</time>
      </trkpt>
      <trkpt lat="44.55271" lon="0.68263">
        <ele>142.9</ele>
        <time>2018-08-25T18:21:40Z</time>
      </trkpt>
      <trkpt lat="44.55267" lon="0.68271">
        <ele>142.5</ele>
        <time>2018-08-25T18:21:41Z</time>
      </trkpt>
      <trkpt lat="44.55265" lon="0.68281">
        <ele>141.7</ele>
        <time>2018-08-25T18:21:42Z</time>
      </trkpt>
      <trkpt lat="44.55263" lon="0.68291">
        <ele>141.2</ele>
        <time>2018-08-25T18:21:43Z</time>
      </trkpt>
      <trkpt lat="44.5526" lon="0.68302">
        <ele>140.5</ele>
        <time>2018-08-25T18:21:44Z</time>
      </trkpt>
      <trkpt lat="44.55257" lon="0.68311">
        <ele>140.3</ele>
        <time>2018-08-25T18:21:45Z</time>
      </trkpt>
      <trkpt lat="44.55253" lon="0.68321">
        <ele>140.2</ele>
        <time>2018-08-25T18:21:46Z</time>
      </trkpt>
      <trkpt lat="44.55248" lon="0.68334">
        <ele>140</ele>
        <time>2018-08-25T18:21:47Z</time>
      </trkpt>
      <trkpt lat="44.55245" lon="0.68345">
        <ele>139.5</ele>
        <time>2018-08-25T18:21:48Z</time>
      </trkpt>
      <trkpt lat="44.55239" lon="0.68353">
        <ele>139.2</ele>
        <time>2018-08-25T18:21:49Z</time>
      </trkpt>
      <trkpt lat="44.55232" lon="0.6836">
        <ele>139</ele>
        <time>2018-08-25T18:21:50Z</time>
      </trkpt>
      <trkpt lat="44.55224" lon="0.68369">
        <ele>138.8</ele>
        <time>2018-08-25T18:21:51Z</time>
      </trkpt>
      <trkpt lat="44.55216" lon="0.68377">
        <ele>138.8</ele>
        <time>2018-08-25T18:21:52Z</time>
      </trkpt>
      <trkpt lat="44.55205" lon="0.6838">
        <ele>138.9</ele>
        <time>2018-08-25T18:21:53Z</time>
      </trkpt>
      <trkpt lat="44.55195" lon="0.68383">
        <ele>138.6</ele>
        <time>2018-08-25T18:21:54Z</time>
      </trkpt>
      <trkpt lat="44.55185" lon="0.68387">
        <ele>138.1</ele>
        <time>2018-08-25T18:21:55Z</time>
      </trkpt>
      <trkpt lat="44.55175" lon="0.68392">
        <ele>137.7</ele>
        <time>2018-08-25T18:21:56Z</time>
      </trkpt>
      <trkpt lat="44.55165" lon="0.68397">
        <ele>137.1</ele>
        <time>2018-08-25T18:21:57Z</time>
      </trkpt>
      <trkpt lat="44.55156" lon="0.68401">
        <ele>136.4</ele>
        <time>2018-08-25T18:21:58Z</time>
      </trkpt>
      <trkpt lat="44.55146" lon="0.68401">
        <ele>135.2</ele>
        <time>2018-08-25T18:21:59Z</time>
      </trkpt>
      <trkpt lat="44.55138" lon="0.68403">
        <ele>133.8</ele>
        <time>2018-08-25T18:22:00Z</time>
      </trkpt>
      <trkpt lat="44.55126" lon="0.68408">
        <ele>131.2</ele>
        <time>2018-08-25T18:22:01Z</time>
      </trkpt>
      <trkpt lat="44.55118" lon="0.68416">
        <ele>130.6</ele>
        <time>2018-08-25T18:22:02Z</time>
      </trkpt>
      <trkpt lat="44.55108" lon="0.68422">
        <ele>128.5</ele>
        <time>2018-08-25T18:22:03Z</time>
      </trkpt>
      <trkpt lat="44.55101" lon="0.68428">
        <ele>127.7</ele>
        <time>2018-08-25T18:22:04Z</time>
      </trkpt>
      <trkpt lat="44.55091" lon="0.68433">
        <ele>126.3</ele>
        <time>2018-08-25T18:22:05Z</time>
      </trkpt>
      <trkpt lat="44.55082" lon="0.68438">
        <ele>125.7</ele>
        <time>2018-08-25T18:22:06Z</time>
      </trkpt>
      <trkpt lat="44.55077" lon="0.68444">
        <ele>125.2</ele>
        <time>2018-08-25T18:22:07Z</time>
      </trkpt>
      <trkpt lat="44.55069" lon="0.6845">
        <ele>124.5</ele>
        <time>2018-08-25T18:22:08Z</time>
      </trkpt>
      <trkpt lat="44.55065" lon="0.68455">
        <ele>125.1</ele>
        <time>2018-08-25T18:22:09Z</time>
      </trkpt>
      <trkpt lat="44.5506" lon="0.68463">
        <ele>124.6</ele>
        <time>2018-08-25T18:22:10Z</time>
      </trkpt>
      <trkpt lat="44.55054" lon="0.68469">
        <ele>124.8</ele>
        <time>2018-08-25T18:22:11Z</time>
      </trkpt>
      <trkpt lat="44.55048" lon="0.68473">
        <ele>125</ele>
        <time>2018-08-25T18:22:12Z</time>
      </trkpt>
      <trkpt lat="44.55043" lon="0.6848">
        <ele>125.5</ele>
        <time>2018-08-25T18:22:13Z</time>
      </trkpt>
      <trkpt lat="44.5504" lon="0.68483">
        <ele>125.3</ele>
        <time>2018-08-25T18:22:14Z</time>
      </trkpt>
      <trkpt lat="44.55036" lon="0.68488">
        <ele>125.6</ele>
        <time>2018-08-25T18:22:15Z</time>
      </trkpt>
      <trkpt lat="44.55032" lon="0.68496">
        <ele>126.3</ele>
        <time>2018-08-25T18:22:16Z</time>
      </trkpt>
      <trkpt lat="44.55027" lon="0.68503">
        <ele>127</ele>
        <time>2018-08-25T18:22:17Z</time>
      </trkpt>
      <trkpt lat="44.55022" lon="0.68507">
        <ele>127.1</ele>
        <time>2018-08-25T18:22:18Z</time>
      </trkpt>
      <trkpt lat="44.55017" lon="0.68512">
        <ele>127.2</ele>
        <time>2018-08-25T18:22:19Z</time>
      </trkpt>
      <trkpt lat="44.55011" lon="0.68518">
        <ele>127.4</ele>
        <time>2018-08-25T18:22:20Z</time>
      </trkpt>
      <trkpt lat="44.55003" lon="0.68522">
        <ele>127.5</ele>
        <time>2018-08-25T18:22:21Z</time>
      </trkpt>
      <trkpt lat="44.54991" lon="0.68529">
        <ele>127.7</ele>
        <time>2018-08-25T18:22:22Z</time>
      </trkpt>
      <trkpt lat="44.54982" lon="0.68535">
        <ele>127.7</ele>
        <time>2018-08-25T18:22:23Z</time>
      </trkpt>
      <trkpt lat="44.54975" lon="0.68539">
        <ele>127.8</ele>
        <time>2018-08-25T18:22:24Z</time>
      </trkpt>
      <trkpt lat="44.54967" lon="0.68544">
        <ele>127.6</ele>
        <time>2018-08-25T18:22:25Z</time>
      </trkpt>
      <trkpt lat="44.5496" lon="0.68549">
        <ele>127.8</ele>
        <time>2018-08-25T18:22:26Z</time>
      </trkpt>
      <trkpt lat="44.54954" lon="0.68552">
        <ele>127.5</ele>
        <time>2018-08-25T18:22:27Z</time>
      </trkpt>
      <trkpt lat="44.54948" lon="0.6856">
        <ele>127.6</ele>
        <time>2018-08-25T18:22:28Z</time>
      </trkpt>
      <trkpt lat="44.54941" lon="0.68571">
        <ele>127.8</ele>
        <time>2018-08-25T18:22:29Z</time>
      </trkpt>
      <trkpt lat="44.54933" lon="0.68581">
        <ele>127.8</ele>
        <time>2018-08-25T18:22:30Z</time>
      </trkpt>
      <trkpt lat="44.54927" lon="0.68594">
        <ele>127.9</ele>
        <time>2018-08-25T18:22:31Z</time>
      </trkpt>
      <trkpt lat="44.54921" lon="0.68602">
        <ele>127.7</ele>
        <time>2018-08-25T18:22:32Z</time>
      </trkpt>
      <trkpt lat="44.54915" lon="0.6861">
        <ele>127.3</ele>
        <time>2018-08-25T18:22:33Z</time>
      </trkpt>
      <trkpt lat="44.54909" lon="0.6862">
        <ele>127</ele>
        <time>2018-08-25T18:22:34Z</time>
      </trkpt>
      <trkpt lat="44.54902" lon="0.68632">
        <ele>126.8</ele>
        <time>2018-08-25T18:22:35Z</time>
      </trkpt>
      <trkpt lat="44.54893" lon="0.68645">
        <ele>126.4</ele>
        <time>2018-08-25T18:22:36Z</time>
      </trkpt>
      <trkpt lat="44.5489" lon="0.68652">
        <ele>126.3</ele>
        <time>2018-08-25T18:22:37Z</time>
      </trkpt>
      <trkpt lat="44.54885" lon="0.68657">
        <ele>125.9</ele>
        <time>2018-08-25T18:22:38Z</time>
      </trkpt>
      <trkpt lat="44.5488" lon="0.68666">
        <ele>126</ele>
        <time>2018-08-25T18:22:39Z</time>
      </trkpt>
      <trkpt lat="44.54872" lon="0.68675">
        <ele>125.7</ele>
        <time>2018-08-25T18:22:40Z</time>
      </trkpt>
      <trkpt lat="44.54864" lon="0.68683">
        <ele>125.5</ele>
        <time>2018-08-25T18:22:41Z</time>
      </trkpt>
      <trkpt lat="44.54856" lon="0.68692">
        <ele>125.3</ele>
        <time>2018-08-25T18:22:42Z</time>
      </trkpt>
      <trkpt lat="44.54849" lon="0.68699">
        <ele>125.1</ele>
        <time>2018-08-25T18:22:43Z</time>
      </trkpt>
      <trkpt lat="44.54842" lon="0.68707">
        <ele>124.5</ele>
        <time>2018-08-25T18:22:44Z</time>
      </trkpt>
      <trkpt lat="44.54836" lon="0.68716">
        <ele>124.4</ele>
        <time>2018-08-25T18:22:45Z</time>
      </trkpt>
      <trkpt lat="44.54829" lon="0.68723">
        <ele>124.1</ele>
        <time>2018-08-25T18:22:46Z</time>
      </trkpt>
      <trkpt lat="44.54822" lon="0.68731">
        <ele>124.1</ele>
        <time>2018-08-25T18:22:47Z</time>
      </trkpt>
      <trkpt lat="44.54817" lon="0.68731">
        <ele>123.8</ele>
        <time>2018-08-25T18:22:48Z</time>
      </trkpt>
      <trkpt lat="44.54812" lon="0.68738">
        <ele>123.8</ele>
        <time>2018-08-25T18:22:49Z</time>
      </trkpt>
      <trkpt lat="44.54804" lon="0.68746">
        <ele>123.6</ele>
        <time>2018-08-25T18:22:50Z</time>
      </trkpt>
      <trkpt lat="44.54798" lon="0.68754">
        <ele>123.3</ele>
        <time>2018-08-25T18:22:51Z</time>
      </trkpt>
      <trkpt lat="44.54791" lon="0.68759">
        <ele>123</ele>
        <time>2018-08-25T18:22:52Z</time>
      </trkpt>
      <trkpt lat="44.54785" lon="0.68767">
        <ele>122.8</ele>
        <time>2018-08-25T18:22:53Z</time>
      </trkpt>
      <trkpt lat="44.54779" lon="0.68777">
        <ele>122.1</ele>
        <time>2018-08-25T18:22:54Z</time>
      </trkpt>
      <trkpt lat="44.54773" lon="0.68791">
        <ele>121.3</ele>
        <time>2018-08-25T18:22:55Z</time>
      </trkpt>
      <trkpt lat="44.54766" lon="0.68802">
        <ele>120.3</ele>
        <time>2018-08-25T18:22:56Z</time>
      </trkpt>
      <trkpt lat="44.54755" lon="0.68814">
        <ele>119.6</ele>
        <time>2018-08-25T18:22:57Z</time>
      </trkpt>
      <trkpt lat="44.54742" lon="0.68829">
        <ele>118.9</ele>
        <time>2018-08-25T18:22:58Z</time>
      </trkpt>
      <trkpt lat="44.54731" lon="0.68841">
        <ele>118.9</ele>
        <time>2018-08-25T18:22:59Z</time>
      </trkpt>
      <trkpt lat="44.54722" lon="0.68852">
        <ele>118.9</ele>
        <time>2018-08-25T18:23:00Z</time>
      </trkpt>
      <trkpt lat="44.54713" lon="0.68862">
        <ele>119</ele>
        <time>2018-08-25T18:23:01Z</time>
      </trkpt>
      <trkpt lat="44.54705" lon="0.68872">
        <ele>119.2</ele>
        <time>2018-08-25T18:23:02Z</time>
      </trkpt>
      <trkpt lat="44.54697" lon="0.68881">
        <ele>119.4</ele>
        <time>2018-08-25T18:23:03Z</time>
      </trkpt>
      <trkpt lat="44.54689" lon="0.68889">
        <ele>119.7</ele>
        <time>2018-08-25T18:23:04Z</time>
      </trkpt>
      <trkpt lat="44.54682" lon="0.68897">
        <ele>119.9</ele>
        <time>2018-08-25T18:23:05Z</time>
      </trkpt>
      <trkpt lat="44.54677" lon="0.68901">
        <ele>120.1</ele>
        <time>2018-08-25T18:23:06Z</time>
      </trkpt>
      <trkpt lat="44.54669" lon="0.68909">
        <ele>120.4</ele>
        <time>2018-08-25T18:23:07Z</time>
      </trkpt>
      <trkpt lat="44.54661" lon="0.68917">
        <ele>120.6</ele>
        <time>2018-08-25T18:23:08Z</time>
      </trkpt>
      <trkpt lat="44.54653" lon="0.68926">
        <ele>120.9</ele>
        <time>2018-08-25T18:23:09Z</time>
      </trkpt>
      <trkpt lat="44.54644" lon="0.68935">
        <ele>121</ele>
        <time>2018-08-25T18:23:10Z</time>
      </trkpt>
      <trkpt lat="44.54635" lon="0.68942">
        <ele>120.9</ele>
        <time>2018-08-25T18:23:11Z</time>
      </trkpt>
      <trkpt lat="44.54625" lon="0.68951">
        <ele>120.6</ele>
        <time>2018-08-25T18:23:12Z</time>
      </trkpt>
      <trkpt lat="44.54616" lon="0.68959">
        <ele>120.2</ele>
        <time>2018-08-25T18:23:13Z</time>
      </trkpt>
      <trkpt lat="44.54607" lon="0.68966">
        <ele>119.7</ele>
        <time>2018-08-25T18:23:14Z</time>
      </trkpt>
      <trkpt lat="44.54598" lon="0.68975">
        <ele>119</ele>
        <time>2018-08-25T18:23:15Z</time>
      </trkpt>
      <trkpt lat="44.54592" lon="0.68983">
        <ele>118.5</ele>
        <time>2018-08-25T18:23:16Z</time>
      </trkpt>
      <trkpt lat="44.54583" lon="0.68989">
        <ele>117.6</ele>
        <time>2018-08-25T18:23:17Z</time>
      </trkpt>
      <trkpt lat="44.54574" lon="0.68999">
        <ele>116.9</ele>
        <time>2018-08-25T18:23:18Z</time>
      </trkpt>
      <trkpt lat="44.54566" lon="0.69007">
        <ele>116.1</ele>
        <time>2018-08-25T18:23:19Z</time>
      </trkpt>
      <trkpt lat="44.54559" lon="0.69015">
        <ele>115.5</ele>
        <time>2018-08-25T18:23:20Z</time>
      </trkpt>
      <trkpt lat="44.54552" lon="0.69024">
        <ele>114.9</ele>
        <time>2018-08-25T18:23:21Z</time>
      </trkpt>
      <trkpt lat="44.54542" lon="0.69032">
        <ele>114.2</ele>
        <time>2018-08-25T18:23:22Z</time>
      </trkpt>
      <trkpt lat="44.54532" lon="0.69042">
        <ele>113.5</ele>
        <time>2018-08-25T18:23:23Z</time>
      </trkpt>
      <trkpt lat="44.54521" lon="0.69053">
        <ele>112.8</ele>
        <time>2018-08-25T18:23:24Z</time>
      </trkpt>
      <trkpt lat="44.54512" lon="0.69063">
        <ele>112.5</ele>
        <time>2018-08-25T18:23:25Z</time>
      </trkpt>
      <trkpt lat="44.54502" lon="0.69073">
        <ele>112.4</ele>
        <time>2018-08-25T18:23:26Z</time>
      </trkpt>
      <trkpt lat="44.54494" lon="0.69081">
        <ele>112.2</ele>
        <time>2018-08-25T18:23:27Z</time>
      </trkpt>
      <trkpt lat="44.54486" lon="0.69088">
        <ele>111.9</ele>
        <time>2018-08-25T18:23:28Z</time>
      </trkpt>
      <trkpt lat="44.5448" lon="0.69094">
        <ele>111.6</ele>
        <time>2018-08-25T18:23:29Z</time>
      </trkpt>
      <trkpt lat="44.54473" lon="0.69102">
        <ele>111.3</ele>
        <time>2018-08-25T18:23:30Z</time>
      </trkpt>
      <trkpt lat="44.54467" lon="0.6911">
        <ele>110.7</ele>
        <time>2018-08-25T18:23:31Z</time>
      </trkpt>
      <trkpt lat="44.5446" lon="0.69119">
        <ele>110.3</ele>
        <time>2018-08-25T18:23:32Z</time>
      </trkpt>
      <trkpt lat="44.54452" lon="0.69128">
        <ele>109.9</ele>
        <time>2018-08-25T18:23:33Z</time>
      </trkpt>
      <trkpt lat="44.54445" lon="0.69136">
        <ele>109.5</ele>
        <time>2018-08-25T18:23:34Z</time>
      </trkpt>
      <trkpt lat="44.54439" lon="0.69144">
        <ele>109.2</ele>
        <time>2018-08-25T18:23:35Z</time>
      </trkpt>
      <trkpt lat="44.54435" lon="0.69148">
        <ele>109.1</ele>
        <time>2018-08-25T18:23:36Z</time>
      </trkpt>
      <trkpt lat="44.5443" lon="0.69154">
        <ele>108.9</ele>
        <time>2018-08-25T18:23:37Z</time>
      </trkpt>
      <trkpt lat="44.54424" lon="0.69162">
        <ele>108.7</ele>
        <time>2018-08-25T18:23:38Z</time>
      </trkpt>
      <trkpt lat="44.54418" lon="0.6917">
        <ele>108.5</ele>
        <time>2018-08-25T18:23:39Z</time>
      </trkpt>
      <trkpt lat="44.54412" lon="0.69177">
        <ele>108.4</ele>
        <time>2018-08-25T18:23:40Z</time>
      </trkpt>
      <trkpt lat="44.54407" lon="0.69183">
        <ele>108.1</ele>
        <time>2018-08-25T18:23:41Z</time>
      </trkpt>
      <trkpt lat="44.544" lon="0.69189">
        <ele>107.8</ele>
        <time>2018-08-25T18:23:42Z</time>
      </trkpt>
      <trkpt lat="44.54393" lon="0.69195">
        <ele>107.4</ele>
        <time>2018-08-25T18:23:43Z</time>
      </trkpt>
      <trkpt lat="44.54385" lon="0.692">
        <ele>107.1</ele>
        <time>2018-08-25T18:23:44Z</time>
      </trkpt>
      <trkpt lat="44.54378" lon="0.69208">
        <ele>106.6</ele>
        <time>2018-08-25T18:23:45Z</time>
      </trkpt>
      <trkpt lat="44.54372" lon="0.69219">
        <ele>106.1</ele>
        <time>2018-08-25T18:23:46Z</time>
      </trkpt>
      <trkpt lat="44.54367" lon="0.69228">
        <ele>105.9</ele>
        <time>2018-08-25T18:23:47Z</time>
      </trkpt>
      <trkpt lat="44.5436" lon="0.69236">
        <ele>105.5</ele>
        <time>2018-08-25T18:23:48Z</time>
      </trkpt>
      <trkpt lat="44.54352" lon="0.6925">
        <ele>105.1</ele>
        <time>2018-08-25T18:23:49Z</time>
      </trkpt>
      <trkpt lat="44.54347" lon="0.69258">
        <ele>104.8</ele>
        <time>2018-08-25T18:23:50Z</time>
      </trkpt>
      <trkpt lat="44.54341" lon="0.69267">
        <ele>104.6</ele>
        <time>2018-08-25T18:23:52Z</time>
      </trkpt>
      <trkpt lat="44.54337" lon="0.69274">
        <ele>104.4</ele>
        <time>2018-08-25T18:23:53Z</time>
      </trkpt>
      <trkpt lat="44.54334" lon="0.6928">
        <ele>104.2</ele>
        <time>2018-08-25T18:23:54Z</time>
      </trkpt>
      <trkpt lat="44.54331" lon="0.69286">
        <ele>104.1</ele>
        <time>2018-08-25T18:23:55Z</time>
      </trkpt>
      <trkpt lat="44.54328" lon="0.69295">
        <ele>103.9</ele>
        <time>2018-08-25T18:23:56Z</time>
      </trkpt>
      <trkpt lat="44.54326" lon="0.69304">
        <ele>103.5</ele>
        <time>2018-08-25T18:23:57Z</time>
      </trkpt>
      <trkpt lat="44.5432" lon="0.69315">
        <ele>103.3</ele>
        <time>2018-08-25T18:23:58Z</time>
      </trkpt>
      <trkpt lat="44.54316" lon="0.69324">
        <ele>103.2</ele>
        <time>2018-08-25T18:23:59Z</time>
      </trkpt>
      <trkpt lat="44.54314" lon="0.69333">
        <ele>103</ele>
        <time>2018-08-25T18:24:00Z</time>
      </trkpt>
      <trkpt lat="44.54311" lon="0.69341">
        <ele>102.8</ele>
        <time>2018-08-25T18:24:01Z</time>
      </trkpt>
      <trkpt lat="44.54308" lon="0.69349">
        <ele>102.6</ele>
        <time>2018-08-25T18:24:02Z</time>
      </trkpt>
      <trkpt lat="44.54303" lon="0.69356">
        <ele>102.4</ele>
        <time>2018-08-25T18:24:03Z</time>
      </trkpt>
      <trkpt lat="44.54301" lon="0.69366">
        <ele>102.2</ele>
        <time>2018-08-25T18:24:04Z</time>
      </trkpt>
      <trkpt lat="44.54297" lon="0.69378">
        <ele>101.8</ele>
        <time>2018-08-25T18:24:05Z</time>
      </trkpt>
      <trkpt lat="44.54294" lon="0.69387">
        <ele>101.5</ele>
        <time>2018-08-25T18:24:06Z</time>
      </trkpt>
      <trkpt lat="44.5429" lon="0.69395">
        <ele>101.3</ele>
        <time>2018-08-25T18:24:07Z</time>
      </trkpt>
      <trkpt lat="44.54288" lon="0.69402">
        <ele>101.2</ele>
        <time>2018-08-25T18:24:08Z</time>
      </trkpt>
      <trkpt lat="44.54286" lon="0.69411">
        <ele>100.9</ele>
        <time>2018-08-25T18:24:09Z</time>
      </trkpt>
      <trkpt lat="44.54283" lon="0.69414">
        <ele>100.9</ele>
        <time>2018-08-25T18:24:11Z</time>
      </trkpt>
      <trkpt lat="44.54281" lon="0.69417">
        <ele>101</ele>
        <time>2018-08-25T18:24:12Z</time>
      </trkpt>
      <trkpt lat="44.54279" lon="0.69418">
        <ele>101</ele>
        <time>2018-08-25T18:24:13Z</time>
      </trkpt>
      <trkpt lat="44.54269" lon="0.69412">
        <ele>101.2</ele>
        <time>2018-08-25T18:24:14Z</time>
      </trkpt>
      <trkpt lat="44.54262" lon="0.69408">
        <ele>101.3</ele>
        <time>2018-08-25T18:24:15Z</time>
      </trkpt>
      <trkpt lat="44.54251" lon="0.69402">
        <ele>101.4</ele>
        <time>2018-08-25T18:24:16Z</time>
      </trkpt>
      <trkpt lat="44.54241" lon="0.69396">
        <ele>101.4</ele>
        <time>2018-08-25T18:24:17Z</time>
      </trkpt>
      <trkpt lat="44.54232" lon="0.69388">
        <ele>101.4</ele>
        <time>2018-08-25T18:24:18Z</time>
      </trkpt>
      <trkpt lat="44.54221" lon="0.69377">
        <ele>101.3</ele>
        <time>2018-08-25T18:24:19Z</time>
      </trkpt>
      <trkpt lat="44.5421" lon="0.69367">
        <ele>101.3</ele>
        <time>2018-08-25T18:24:20Z</time>
      </trkpt>
      <trkpt lat="44.54198" lon="0.69354">
        <ele>101</ele>
        <time>2018-08-25T18:24:21Z</time>
      </trkpt>
      <trkpt lat="44.54185" lon="0.6934">
        <ele>100.6</ele>
        <time>2018-08-25T18:24:22Z</time>
      </trkpt>
      <trkpt lat="44.54172" lon="0.69325">
        <ele>100.3</ele>
        <time>2018-08-25T18:24:23Z</time>
      </trkpt>
      <trkpt lat="44.54158" lon="0.6931">
        <ele>99.7</ele>
        <time>2018-08-25T18:24:24Z</time>
      </trkpt>
      <trkpt lat="44.54145" lon="0.69294">
        <ele>99.1</ele>
        <time>2018-08-25T18:24:25Z</time>
      </trkpt>
      <trkpt lat="44.54135" lon="0.6928">
        <ele>98.6</ele>
        <time>2018-08-25T18:24:26Z</time>
      </trkpt>
      <trkpt lat="44.54127" lon="0.69266">
        <ele>98.1</ele>
        <time>2018-08-25T18:24:27Z</time>
      </trkpt>
      <trkpt lat="44.54121" lon="0.69251">
        <ele>97.6</ele>
        <time>2018-08-25T18:24:28Z</time>
      </trkpt>
      <trkpt lat="44.54118" lon="0.69235">
        <ele>97.1</ele>
        <time>2018-08-25T18:24:29Z</time>
      </trkpt>
      <trkpt lat="44.54115" lon="0.69217">
        <ele>96.4</ele>
        <time>2018-08-25T18:24:30Z</time>
      </trkpt>
      <trkpt lat="44.54114" lon="0.69198">
        <ele>95.6</ele>
        <time>2018-08-25T18:24:31Z</time>
      </trkpt>
      <trkpt lat="44.54117" lon="0.69177">
        <ele>94.9</ele>
        <time>2018-08-25T18:24:32Z</time>
      </trkpt>
      <trkpt lat="44.54121" lon="0.69156">
        <ele>94.3</ele>
        <time>2018-08-25T18:24:33Z</time>
      </trkpt>
      <trkpt lat="44.54124" lon="0.69135">
        <ele>93.7</ele>
        <time>2018-08-25T18:24:34Z</time>
      </trkpt>
      <trkpt lat="44.54127" lon="0.69112">
        <ele>93</ele>
        <time>2018-08-25T18:24:35Z</time>
      </trkpt>
      <trkpt lat="44.54129" lon="0.69091">
        <ele>92.4</ele>
        <time>2018-08-25T18:24:36Z</time>
      </trkpt>
      <trkpt lat="44.54124" lon="0.69071">
        <ele>91.7</ele>
        <time>2018-08-25T18:24:37Z</time>
      </trkpt>
      <trkpt lat="44.54122" lon="0.6905">
        <ele>91.1</ele>
        <time>2018-08-25T18:24:38Z</time>
      </trkpt>
      <trkpt lat="44.54117" lon="0.69031">
        <ele>90.6</ele>
        <time>2018-08-25T18:24:39Z</time>
      </trkpt>
      <trkpt lat="44.5411" lon="0.69016">
        <ele>90.2</ele>
        <time>2018-08-25T18:24:40Z</time>
      </trkpt>
      <trkpt lat="44.541" lon="0.69003">
        <ele>90.2</ele>
        <time>2018-08-25T18:24:41Z</time>
      </trkpt>
      <trkpt lat="44.54086" lon="0.6899">
        <ele>90.6</ele>
        <time>2018-08-25T18:24:42Z</time>
      </trkpt>
      <trkpt lat="44.54075" lon="0.68981">
        <ele>90.9</ele>
        <time>2018-08-25T18:24:43Z</time>
      </trkpt>
      <trkpt lat="44.54063" lon="0.68975">
        <ele>91.1</ele>
        <time>2018-08-25T18:24:44Z</time>
      </trkpt>
      <trkpt lat="44.54051" lon="0.68967">
        <ele>91.3</ele>
        <time>2018-08-25T18:24:45Z</time>
      </trkpt>
      <trkpt lat="44.54042" lon="0.6896">
        <ele>91.4</ele>
        <time>2018-08-25T18:24:46Z</time>
      </trkpt>
      <trkpt lat="44.5403" lon="0.68953">
        <ele>91.6</ele>
        <time>2018-08-25T18:24:47Z</time>
      </trkpt>
      <trkpt lat="44.54018" lon="0.68945">
        <ele>91.8</ele>
        <time>2018-08-25T18:24:48Z</time>
      </trkpt>
      <trkpt lat="44.54008" lon="0.68938">
        <ele>92</ele>
        <time>2018-08-25T18:24:49Z</time>
      </trkpt>
      <trkpt lat="44.53997" lon="0.68931">
        <ele>92.2</ele>
        <time>2018-08-25T18:24:50Z</time>
      </trkpt>
      <trkpt lat="44.53987" lon="0.68925">
        <ele>92.5</ele>
        <time>2018-08-25T18:24:51Z</time>
      </trkpt>
      <trkpt lat="44.53977" lon="0.68919">
        <ele>92.7</ele>
        <time>2018-08-25T18:24:52Z</time>
      </trkpt>
      <trkpt lat="44.53967" lon="0.68913">
        <ele>92.9</ele>
        <time>2018-08-25T18:24:53Z</time>
      </trkpt>
      <trkpt lat="44.53956" lon="0.68906">
        <ele>93.2</ele>
        <time>2018-08-25T18:24:54Z</time>
      </trkpt>
      <trkpt lat="44.53946" lon="0.68899">
        <ele>93.6</ele>
        <time>2018-08-25T18:24:55Z</time>
      </trkpt>
      <trkpt lat="44.53936" lon="0.68892">
        <ele>94.2</ele>
        <time>2018-08-25T18:24:56Z</time>
      </trkpt>
      <trkpt lat="44.53926" lon="0.68885">
        <ele>94.7</ele>
        <time>2018-08-25T18:24:57Z</time>
      </trkpt>
      <trkpt lat="44.53917" lon="0.68879">
        <ele>95.2</ele>
        <time>2018-08-25T18:24:58Z</time>
      </trkpt>
      <trkpt lat="44.53909" lon="0.68872">
        <ele>95.7</ele>
        <time>2018-08-25T18:24:59Z</time>
      </trkpt>
      <trkpt lat="44.53902" lon="0.68867">
        <ele>96.2</ele>
        <time>2018-08-25T18:25:00Z</time>
      </trkpt>
      <trkpt lat="44.53897" lon="0.68863">
        <ele>96.7</ele>
        <time>2018-08-25T18:25:01Z</time>
      </trkpt>
      <trkpt lat="44.53894" lon="0.6886">
        <ele>97.2</ele>
        <time>2018-08-25T18:25:02Z</time>
      </trkpt>
      <trkpt lat="44.53892" lon="0.68858">
        <ele>97.4</ele>
        <time>2018-08-25T18:25:03Z</time>
      </trkpt>
      <trkpt lat="44.53889" lon="0.68854">
        <ele>97.6</ele>
        <time>2018-08-25T18:25:06Z</time>
      </trkpt>
      <trkpt lat="44.53888" lon="0.6885">
        <ele>97.8</ele>
        <time>2018-08-25T18:25:07Z</time>
      </trkpt>
      <trkpt lat="44.53888" lon="0.68842">
        <ele>98.1</ele>
        <time>2018-08-25T18:25:08Z</time>
      </trkpt>
      <trkpt lat="44.53888" lon="0.68831">
        <ele>98.4</ele>
        <time>2018-08-25T18:25:09Z</time>
      </trkpt>
      <trkpt lat="44.5389" lon="0.68819">
        <ele>98.9</ele>
        <time>2018-08-25T18:25:10Z</time>
      </trkpt>
      <trkpt lat="44.53895" lon="0.68803">
        <ele>99.5</ele>
        <time>2018-08-25T18:25:11Z</time>
      </trkpt>
      <trkpt lat="44.53896" lon="0.68789">
        <ele>100</ele>
        <time>2018-08-25T18:25:12Z</time>
      </trkpt>
      <trkpt lat="44.53897" lon="0.68776">
        <ele>100.2</ele>
        <time>2018-08-25T18:25:13Z</time>
      </trkpt>
      <trkpt lat="44.53898" lon="0.68763">
        <ele>100.3</ele>
        <time>2018-08-25T18:25:14Z</time>
      </trkpt>
      <trkpt lat="44.53899" lon="0.6875">
        <ele>100.5</ele>
        <time>2018-08-25T18:25:15Z</time>
      </trkpt>
      <trkpt lat="44.539" lon="0.68737">
        <ele>100.7</ele>
        <time>2018-08-25T18:25:16Z</time>
      </trkpt>
      <trkpt lat="44.539" lon="0.68724">
        <ele>100.8</ele>
        <time>2018-08-25T18:25:17Z</time>
      </trkpt>
      <trkpt lat="44.53901" lon="0.68711">
        <ele>101</ele>
        <time>2018-08-25T18:25:18Z</time>
      </trkpt>
      <trkpt lat="44.53902" lon="0.68698">
        <ele>100.9</ele>
        <time>2018-08-25T18:25:19Z</time>
      </trkpt>
      <trkpt lat="44.53902" lon="0.68685">
        <ele>100.8</ele>
        <time>2018-08-25T18:25:20Z</time>
      </trkpt>
      <trkpt lat="44.53903" lon="0.68671">
        <ele>100.7</ele>
        <time>2018-08-25T18:25:21Z</time>
      </trkpt>
      <trkpt lat="44.53904" lon="0.68656">
        <ele>100.6</ele>
        <time>2018-08-25T18:25:22Z</time>
      </trkpt>
      <trkpt lat="44.53905" lon="0.68641">
        <ele>100.5</ele>
        <time>2018-08-25T18:25:23Z</time>
      </trkpt>
      <trkpt lat="44.53906" lon="0.68627">
        <ele>100.4</ele>
        <time>2018-08-25T18:25:24Z</time>
      </trkpt>
      <trkpt lat="44.53907" lon="0.68615">
        <ele>100.4</ele>
        <time>2018-08-25T18:25:25Z</time>
      </trkpt>
      <trkpt lat="44.53908" lon="0.68604">
        <ele>100.3</ele>
        <time>2018-08-25T18:25:26Z</time>
      </trkpt>
      <trkpt lat="44.53908" lon="0.68591">
        <ele>100.2</ele>
        <time>2018-08-25T18:25:27Z</time>
      </trkpt>
      <trkpt lat="44.53909" lon="0.6858">
        <ele>100.2</ele>
        <time>2018-08-25T18:25:28Z</time>
      </trkpt>
      <trkpt lat="44.5391" lon="0.6857">
        <ele>100.1</ele>
        <time>2018-08-25T18:25:29Z</time>
      </trkpt>
      <trkpt lat="44.5391" lon="0.68561">
        <ele>100.1</ele>
        <time>2018-08-25T18:25:30Z</time>
      </trkpt>
      <trkpt lat="44.5391" lon="0.68553">
        <ele>100.1</ele>
        <time>2018-08-25T18:25:31Z</time>
      </trkpt>
      <trkpt lat="44.53908" lon="0.68546">
        <ele>100</ele>
        <time>2018-08-25T18:25:32Z</time>
      </trkpt>
      <trkpt lat="44.53903" lon="0.68543">
        <ele>100.5</ele>
        <time>2018-08-25T18:25:33Z</time>
      </trkpt>
      <trkpt lat="44.53896" lon="0.6854">
        <ele>100.9</ele>
        <time>2018-08-25T18:25:34Z</time>
      </trkpt>
      <trkpt lat="44.53889" lon="0.68539">
        <ele>101.2</ele>
        <time>2018-08-25T18:25:35Z</time>
      </trkpt>
      <trkpt lat="44.53881" lon="0.68538">
        <ele>101.4</ele>
        <time>2018-08-25T18:25:36Z</time>
      </trkpt>
      <trkpt lat="44.53873" lon="0.68536">
        <ele>101.7</ele>
        <time>2018-08-25T18:25:37Z</time>
      </trkpt>
      <trkpt lat="44.53868" lon="0.68538">
        <ele>101.9</ele>
        <time>2018-08-25T18:25:38Z</time>
      </trkpt>
      <trkpt lat="44.53863" lon="0.68541">
        <ele>102.1</ele>
        <time>2018-08-25T18:25:39Z</time>
      </trkpt>
      <trkpt lat="44.5386" lon="0.68544">
        <ele>102.2</ele>
        <time>2018-08-25T18:25:40Z</time>
      </trkpt>
      <trkpt lat="44.53856" lon="0.68548">
        <ele>102.4</ele>
        <time>2018-08-25T18:25:41Z</time>
      </trkpt>
      <trkpt lat="44.53853" lon="0.68551">
        <ele>102.5</ele>
        <time>2018-08-25T18:25:42Z</time>
      </trkpt>
      <trkpt lat="44.53851" lon="0.68553">
        <ele>102.6</ele>
        <time>2018-08-25T18:25:43Z</time>
      </trkpt>
      <trkpt lat="44.53848" lon="0.68557">
        <ele>102.7</ele>
        <time>2018-08-25T18:25:45Z</time>
      </trkpt>
      <trkpt lat="44.53851" lon="0.68555">
        <ele>103</ele>
        <time>2018-08-25T18:25:49Z</time>
      </trkpt>
      <trkpt lat="44.5385" lon="0.68562">
        <ele>103.6</ele>
        <time>2018-08-25T18:28:04Z</time>
      </trkpt>
      <trkpt lat="44.53849" lon="0.68568">
        <ele>104.1</ele>
        <time>2018-08-25T18:28:06Z</time>
      </trkpt>
      <trkpt lat="44.53845" lon="0.68575">
        <ele>104.8</ele>
        <time>2018-08-25T18:28:08Z</time>
      </trkpt>
      <trkpt lat="44.53841" lon="0.6858">
        <ele>105.3</ele>
        <time>2018-08-25T18:28:09Z</time>
      </trkpt>
      <trkpt lat="44.53836" lon="0.68584">
        <ele>106</ele>
        <time>2018-08-25T18:28:10Z</time>
      </trkpt>
      <trkpt lat="44.53831" lon="0.68588">
        <ele>106.5</ele>
        <time>2018-08-25T18:28:11Z</time>
      </trkpt>
      <trkpt lat="44.53826" lon="0.68591">
        <ele>107.1</ele>
        <time>2018-08-25T18:28:12Z</time>
      </trkpt>
      <trkpt lat="44.53818" lon="0.68593">
        <ele>107.8</ele>
        <time>2018-08-25T18:28:13Z</time>
      </trkpt>
      <trkpt lat="44.53811" lon="0.68597">
        <ele>108.3</ele>
        <time>2018-08-25T18:28:14Z</time>
      </trkpt>
      <trkpt lat="44.53804" lon="0.68601">
        <ele>108.9</ele>
        <time>2018-08-25T18:28:15Z</time>
      </trkpt>
      <trkpt lat="44.53797" lon="0.68606">
        <ele>109.5</ele>
        <time>2018-08-25T18:28:16Z</time>
      </trkpt>
      <trkpt lat="44.5379" lon="0.6861">
        <ele>110.2</ele>
        <time>2018-08-25T18:28:17Z</time>
      </trkpt>
      <trkpt lat="44.53783" lon="0.68614">
        <ele>110.7</ele>
        <time>2018-08-25T18:28:18Z</time>
      </trkpt>
      <trkpt lat="44.53778" lon="0.68618">
        <ele>110.7</ele>
        <time>2018-08-25T18:28:19Z</time>
      </trkpt>
      <trkpt lat="44.53773" lon="0.68621">
        <ele>110.9</ele>
        <time>2018-08-25T18:28:20Z</time>
      </trkpt>
      <trkpt lat="44.53769" lon="0.68623">
        <ele>111</ele>
        <time>2018-08-25T18:28:21Z</time>
      </trkpt>
      <trkpt lat="44.53764" lon="0.68626">
        <ele>111.1</ele>
        <time>2018-08-25T18:28:22Z</time>
      </trkpt>
      <trkpt lat="44.53759" lon="0.68629">
        <ele>111.2</ele>
        <time>2018-08-25T18:28:23Z</time>
      </trkpt>
      <trkpt lat="44.53752" lon="0.68634">
        <ele>111.4</ele>
        <time>2018-08-25T18:28:24Z</time>
      </trkpt>
      <trkpt lat="44.53746" lon="0.68639">
        <ele>111.6</ele>
        <time>2018-08-25T18:28:25Z</time>
      </trkpt>
      <trkpt lat="44.53741" lon="0.68642">
        <ele>111.8</ele>
        <time>2018-08-25T18:28:26Z</time>
      </trkpt>
      <trkpt lat="44.53736" lon="0.68644">
        <ele>112</ele>
        <time>2018-08-25T18:28:27Z</time>
      </trkpt>
      <trkpt lat="44.53733" lon="0.68645">
        <ele>112</ele>
        <time>2018-08-25T18:28:28Z</time>
      </trkpt>
      <trkpt lat="44.53732" lon="0.68649">
        <ele>112</ele>
        <time>2018-08-25T18:28:30Z</time>
      </trkpt>
      <trkpt lat="44.5373" lon="0.68653">
        <ele>111.7</ele>
        <time>2018-08-25T18:28:31Z</time>
      </trkpt>
      <trkpt lat="44.53731" lon="0.68659">
        <ele>111.4</ele>
        <time>2018-08-25T18:28:32Z</time>
      </trkpt>
      <trkpt lat="44.53733" lon="0.68666">
        <ele>110.9</ele>
        <time>2018-08-25T18:28:33Z</time>
      </trkpt>
      <trkpt lat="44.53736" lon="0.68673">
        <ele>110.2</ele>
        <time>2018-08-25T18:28:34Z</time>
      </trkpt>
      <trkpt lat="44.53737" lon="0.68679">
        <ele>109.8</ele>
        <time>2018-08-25T18:28:35Z</time>
      </trkpt>
      <trkpt lat="44.53737" lon="0.68685">
        <ele>109.4</ele>
        <time>2018-08-25T18:28:36Z</time>
      </trkpt>
      <trkpt lat="44.53734" lon="0.68688">
        <ele>109.1</ele>
        <time>2018-08-25T18:28:37Z</time>
      </trkpt>
      <trkpt lat="44.53731" lon="0.68689">
        <ele>109.2</ele>
        <time>2018-08-25T18:28:38Z</time>
      </trkpt>
      <trkpt lat="44.53725" lon="0.68691">
        <ele>109.3</ele>
        <time>2018-08-25T18:28:39Z</time>
      </trkpt>
      <trkpt lat="44.53719" lon="0.68693">
        <ele>109.5</ele>
        <time>2018-08-25T18:28:40Z</time>
      </trkpt>
      <trkpt lat="44.53711" lon="0.68694">
        <ele>109.9</ele>
        <time>2018-08-25T18:28:41Z</time>
      </trkpt>
      <trkpt lat="44.53702" lon="0.68697">
        <ele>110.2</ele>
        <time>2018-08-25T18:28:42Z</time>
      </trkpt>
      <trkpt lat="44.53692" lon="0.68698">
        <ele>110.8</ele>
        <time>2018-08-25T18:28:43Z</time>
      </trkpt>
      <trkpt lat="44.53682" lon="0.687">
        <ele>111.2</ele>
        <time>2018-08-25T18:28:44Z</time>
      </trkpt>
      <trkpt lat="44.53672" lon="0.68702">
        <ele>111.7</ele>
        <time>2018-08-25T18:28:45Z</time>
      </trkpt>
      <trkpt lat="44.53662" lon="0.68704">
        <ele>112.2</ele>
        <time>2018-08-25T18:28:46Z</time>
      </trkpt>
      <trkpt lat="44.53653" lon="0.68704">
        <ele>112.5</ele>
        <time>2018-08-25T18:28:47Z</time>
      </trkpt>
      <trkpt lat="44.53643" lon="0.68704">
        <ele>113</ele>
        <time>2018-08-25T18:28:48Z</time>
      </trkpt>
      <trkpt lat="44.53633" lon="0.68705">
        <ele>113.6</ele>
        <time>2018-08-25T18:28:49Z</time>
      </trkpt>
      <trkpt lat="44.53623" lon="0.68705">
        <ele>114.1</ele>
        <time>2018-08-25T18:28:50Z</time>
      </trkpt>
      <trkpt lat="44.53614" lon="0.68706">
        <ele>114.8</ele>
        <time>2018-08-25T18:28:51Z</time>
      </trkpt>
      <trkpt lat="44.53604" lon="0.68707">
        <ele>115.8</ele>
        <time>2018-08-25T18:28:52Z</time>
      </trkpt>
      <trkpt lat="44.53593" lon="0.68709">
        <ele>116.3</ele>
        <time>2018-08-25T18:28:53Z</time>
      </trkpt>
      <trkpt lat="44.53582" lon="0.68714">
        <ele>117.4</ele>
        <time>2018-08-25T18:28:54Z</time>
      </trkpt>
      <trkpt lat="44.5357" lon="0.68719">
        <ele>118.4</ele>
        <time>2018-08-25T18:28:55Z</time>
      </trkpt>
      <trkpt lat="44.5356" lon="0.68724">
        <ele>119.2</ele>
        <time>2018-08-25T18:28:56Z</time>
      </trkpt>
      <trkpt lat="44.53549" lon="0.68729">
        <ele>119.9</ele>
        <time>2018-08-25T18:28:57Z</time>
      </trkpt>
      <trkpt lat="44.53539" lon="0.68734">
        <ele>120.4</ele>
        <time>2018-08-25T18:28:58Z</time>
      </trkpt>
      <trkpt lat="44.53528" lon="0.68739">
        <ele>121.1</ele>
        <time>2018-08-25T18:28:59Z</time>
      </trkpt>
      <trkpt lat="44.53519" lon="0.68744">
        <ele>121.9</ele>
        <time>2018-08-25T18:29:00Z</time>
      </trkpt>
      <trkpt lat="44.53511" lon="0.68748">
        <ele>122.6</ele>
        <time>2018-08-25T18:29:01Z</time>
      </trkpt>
      <trkpt lat="44.53503" lon="0.68746">
        <ele>123.6</ele>
        <time>2018-08-25T18:29:02Z</time>
      </trkpt>
      <trkpt lat="44.53497" lon="0.68743">
        <ele>124.5</ele>
        <time>2018-08-25T18:29:03Z</time>
      </trkpt>
      <trkpt lat="44.5349" lon="0.68733">
        <ele>125.6</ele>
        <time>2018-08-25T18:29:04Z</time>
      </trkpt>
      <trkpt lat="44.53483" lon="0.68723">
        <ele>126.5</ele>
        <time>2018-08-25T18:29:05Z</time>
      </trkpt>
      <trkpt lat="44.53477" lon="0.68711">
        <ele>127.4</ele>
        <time>2018-08-25T18:29:06Z</time>
      </trkpt>
      <trkpt lat="44.53468" lon="0.68699">
        <ele>128.6</ele>
        <time>2018-08-25T18:29:07Z</time>
      </trkpt>
      <trkpt lat="44.53461" lon="0.68688">
        <ele>129.3</ele>
        <time>2018-08-25T18:29:08Z</time>
      </trkpt>
      <trkpt lat="44.53453" lon="0.68678">
        <ele>130.3</ele>
        <time>2018-08-25T18:29:09Z</time>
      </trkpt>
      <trkpt lat="44.53447" lon="0.68671">
        <ele>131.1</ele>
        <time>2018-08-25T18:29:10Z</time>
      </trkpt>
      <trkpt lat="44.53442" lon="0.68669">
        <ele>131.3</ele>
        <time>2018-08-25T18:29:11Z</time>
      </trkpt>
      <trkpt lat="44.53434" lon="0.68674">
        <ele>132</ele>
        <time>2018-08-25T18:29:12Z</time>
      </trkpt>
      <trkpt lat="44.53422" lon="0.6868">
        <ele>132.9</ele>
        <time>2018-08-25T18:29:13Z</time>
      </trkpt>
      <trkpt lat="44.53415" lon="0.68687">
        <ele>133.3</ele>
        <time>2018-08-25T18:29:14Z</time>
      </trkpt>
      <trkpt lat="44.53406" lon="0.68694">
        <ele>133.9</ele>
        <time>2018-08-25T18:29:15Z</time>
      </trkpt>
      <trkpt lat="44.534" lon="0.68699">
        <ele>134.1</ele>
        <time>2018-08-25T18:29:16Z</time>
      </trkpt>
      <trkpt lat="44.53394" lon="0.68704">
        <ele>134.5</ele>
        <time>2018-08-25T18:29:17Z</time>
      </trkpt>
      <trkpt lat="44.53389" lon="0.6871">
        <ele>134.8</ele>
        <time>2018-08-25T18:29:18Z</time>
      </trkpt>
      <trkpt lat="44.53384" lon="0.68714">
        <ele>135.1</ele>
        <time>2018-08-25T18:29:19Z</time>
      </trkpt>
      <trkpt lat="44.53382" lon="0.68717">
        <ele>135.3</ele>
        <time>2018-08-25T18:29:20Z</time>
      </trkpt>
      <trkpt lat="44.53379" lon="0.6872">
        <ele>135.5</ele>
        <time>2018-08-25T18:29:21Z</time>
      </trkpt>
      <trkpt lat="44.53379" lon="0.68724">
        <ele>135.5</ele>
        <time>2018-08-25T18:29:22Z</time>
      </trkpt>
      <trkpt lat="44.53379" lon="0.68732">
        <ele>135.6</ele>
        <time>2018-08-25T18:29:23Z</time>
      </trkpt>
      <trkpt lat="44.53378" lon="0.68739">
        <ele>135.7</ele>
        <time>2018-08-25T18:29:24Z</time>
      </trkpt>
      <trkpt lat="44.53377" lon="0.68747">
        <ele>136</ele>
        <time>2018-08-25T18:29:25Z</time>
      </trkpt>
      <trkpt lat="44.53376" lon="0.68755">
        <ele>136.2</ele>
        <time>2018-08-25T18:29:26Z</time>
      </trkpt>
      <trkpt lat="44.53374" lon="0.68763">
        <ele>136.6</ele>
        <time>2018-08-25T18:29:27Z</time>
      </trkpt>
      <trkpt lat="44.53371" lon="0.68772">
        <ele>136.9</ele>
        <time>2018-08-25T18:29:28Z</time>
      </trkpt>
      <trkpt lat="44.53367" lon="0.68779">
        <ele>137.4</ele>
        <time>2018-08-25T18:29:29Z</time>
      </trkpt>
      <trkpt lat="44.53365" lon="0.6879">
        <ele>137.8</ele>
        <time>2018-08-25T18:29:30Z</time>
      </trkpt>
      <trkpt lat="44.5336" lon="0.68801">
        <ele>138.2</ele>
        <time>2018-08-25T18:29:31Z</time>
      </trkpt>
      <trkpt lat="44.53356" lon="0.68809">
        <ele>138.9</ele>
        <time>2018-08-25T18:29:32Z</time>
      </trkpt>
      <trkpt lat="44.53353" lon="0.68813">
        <ele>139.2</ele>
        <time>2018-08-25T18:29:33Z</time>
      </trkpt>
      <trkpt lat="44.53353" lon="0.68817">
        <ele>139.2</ele>
        <time>2018-08-25T18:29:34Z</time>
      </trkpt>
      <trkpt lat="44.5335" lon="0.68827">
        <ele>139.5</ele>
        <time>2018-08-25T18:29:35Z</time>
      </trkpt>
      <trkpt lat="44.53347" lon="0.68838">
        <ele>139.9</ele>
        <time>2018-08-25T18:29:36Z</time>
      </trkpt>
      <trkpt lat="44.53344" lon="0.68849">
        <ele>140.1</ele>
        <time>2018-08-25T18:29:37Z</time>
      </trkpt>
      <trkpt lat="44.53339" lon="0.68859">
        <ele>140.2</ele>
        <time>2018-08-25T18:29:38Z</time>
      </trkpt>
      <trkpt lat="44.53335" lon="0.68868">
        <ele>140.5</ele>
        <time>2018-08-25T18:29:39Z</time>
      </trkpt>
      <trkpt lat="44.53329" lon="0.68877">
        <ele>140.5</ele>
        <time>2018-08-25T18:29:40Z</time>
      </trkpt>
      <trkpt lat="44.53322" lon="0.68886">
        <ele>140.5</ele>
        <time>2018-08-25T18:29:41Z</time>
      </trkpt>
      <trkpt lat="44.53315" lon="0.68894">
        <ele>140.5</ele>
        <time>2018-08-25T18:29:42Z</time>
      </trkpt>
      <trkpt lat="44.53308" lon="0.68905">
        <ele>140.4</ele>
        <time>2018-08-25T18:29:43Z</time>
      </trkpt>
      <trkpt lat="44.533" lon="0.68918">
        <ele>140.1</ele>
        <time>2018-08-25T18:29:44Z</time>
      </trkpt>
      <trkpt lat="44.53293" lon="0.6893">
        <ele>140</ele>
        <time>2018-08-25T18:29:45Z</time>
      </trkpt>
      <trkpt lat="44.53287" lon="0.68941">
        <ele>139.7</ele>
        <time>2018-08-25T18:29:46Z</time>
      </trkpt>
      <trkpt lat="44.53281" lon="0.68951">
        <ele>139.7</ele>
        <time>2018-08-25T18:29:47Z</time>
      </trkpt>
      <trkpt lat="44.53275" lon="0.68959">
        <ele>139.8</ele>
        <time>2018-08-25T18:29:48Z</time>
      </trkpt>
      <trkpt lat="44.53271" lon="0.68968">
        <ele>139.8</ele>
        <time>2018-08-25T18:29:49Z</time>
      </trkpt>
      <trkpt lat="44.53266" lon="0.68975">
        <ele>139.8</ele>
        <time>2018-08-25T18:29:50Z</time>
      </trkpt>
      <trkpt lat="44.53262" lon="0.68981">
        <ele>139.8</ele>
        <time>2018-08-25T18:29:51Z</time>
      </trkpt>
      <trkpt lat="44.53259" lon="0.68985">
        <ele>139.7</ele>
        <time>2018-08-25T18:29:52Z</time>
      </trkpt>
      <trkpt lat="44.53255" lon="0.68989">
        <ele>139.6</ele>
        <time>2018-08-25T18:29:53Z</time>
      </trkpt>
      <trkpt lat="44.53251" lon="0.68991">
        <ele>139.6</ele>
        <time>2018-08-25T18:29:54Z</time>
      </trkpt>
      <trkpt lat="44.53246" lon="0.6899">
        <ele>139.6</ele>
        <time>2018-08-25T18:29:55Z</time>
      </trkpt>
      <trkpt lat="44.53243" lon="0.6899">
        <ele>139.5</ele>
        <time>2018-08-25T18:29:56Z</time>
      </trkpt>
      <trkpt lat="44.53238" lon="0.68987">
        <ele>139.5</ele>
        <time>2018-08-25T18:29:57Z</time>
      </trkpt>
      <trkpt lat="44.5323" lon="0.68983">
        <ele>139.4</ele>
        <time>2018-08-25T18:29:58Z</time>
      </trkpt>
      <trkpt lat="44.53222" lon="0.68978">
        <ele>139.3</ele>
        <time>2018-08-25T18:29:59Z</time>
      </trkpt>
      <trkpt lat="44.53213" lon="0.68971">
        <ele>139.3</ele>
        <time>2018-08-25T18:30:00Z</time>
      </trkpt>
      <trkpt lat="44.53202" lon="0.68965">
        <ele>139.5</ele>
        <time>2018-08-25T18:30:01Z</time>
      </trkpt>
      <trkpt lat="44.5319" lon="0.68959">
        <ele>139.7</ele>
        <time>2018-08-25T18:30:02Z</time>
      </trkpt>
      <trkpt lat="44.5318" lon="0.68954">
        <ele>139.8</ele>
        <time>2018-08-25T18:30:03Z</time>
      </trkpt>
      <trkpt lat="44.53171" lon="0.68948">
        <ele>139.9</ele>
        <time>2018-08-25T18:30:04Z</time>
      </trkpt>
      <trkpt lat="44.53162" lon="0.68942">
        <ele>140.1</ele>
        <time>2018-08-25T18:30:05Z</time>
      </trkpt>
      <trkpt lat="44.53152" lon="0.68937">
        <ele>140.2</ele>
        <time>2018-08-25T18:30:06Z</time>
      </trkpt>
      <trkpt lat="44.53142" lon="0.6893">
        <ele>140.2</ele>
        <time>2018-08-25T18:30:07Z</time>
      </trkpt>
      <trkpt lat="44.53132" lon="0.68924">
        <ele>140</ele>
        <time>2018-08-25T18:30:08Z</time>
      </trkpt>
      <trkpt lat="44.53122" lon="0.68917">
        <ele>139.9</ele>
        <time>2018-08-25T18:30:09Z</time>
      </trkpt>
      <trkpt lat="44.53113" lon="0.68911">
        <ele>139.7</ele>
        <time>2018-08-25T18:30:10Z</time>
      </trkpt>
      <trkpt lat="44.53103" lon="0.68903">
        <ele>139.6</ele>
        <time>2018-08-25T18:30:11Z</time>
      </trkpt>
      <trkpt lat="44.53093" lon="0.68897">
        <ele>139.4</ele>
        <time>2018-08-25T18:30:12Z</time>
      </trkpt>
      <trkpt lat="44.53083" lon="0.6889">
        <ele>139.3</ele>
        <time>2018-08-25T18:30:13Z</time>
      </trkpt>
      <trkpt lat="44.53073" lon="0.68884">
        <ele>139.2</ele>
        <time>2018-08-25T18:30:14Z</time>
      </trkpt>
      <trkpt lat="44.53063" lon="0.68877">
        <ele>139.3</ele>
        <time>2018-08-25T18:30:15Z</time>
      </trkpt>
      <trkpt lat="44.53054" lon="0.68871">
        <ele>139.2</ele>
        <time>2018-08-25T18:30:16Z</time>
      </trkpt>
      <trkpt lat="44.53046" lon="0.68868">
        <ele>139.1</ele>
        <time>2018-08-25T18:30:17Z</time>
      </trkpt>
      <trkpt lat="44.5304" lon="0.68864">
        <ele>139.1</ele>
        <time>2018-08-25T18:30:18Z</time>
      </trkpt>
      <trkpt lat="44.53034" lon="0.6886">
        <ele>139.2</ele>
        <time>2018-08-25T18:30:19Z</time>
      </trkpt>
      <trkpt lat="44.5303" lon="0.68857">
        <ele>139.3</ele>
        <time>2018-08-25T18:30:20Z</time>
      </trkpt>
      <trkpt lat="44.53028" lon="0.68854">
        <ele>139.2</ele>
        <time>2018-08-25T18:30:21Z</time>
      </trkpt>
      <trkpt lat="44.53026" lon="0.6885">
        <ele>139.3</ele>
        <time>2018-08-25T18:30:22Z</time>
      </trkpt>
      <trkpt lat="44.53023" lon="0.68847">
        <ele>139.5</ele>
        <time>2018-08-25T18:30:23Z</time>
      </trkpt>
      <trkpt lat="44.5302" lon="0.68844">
        <ele>139.6</ele>
        <time>2018-08-25T18:30:24Z</time>
      </trkpt>
      <trkpt lat="44.53015" lon="0.68843">
        <ele>139.6</ele>
        <time>2018-08-25T18:30:25Z</time>
      </trkpt>
      <trkpt lat="44.53011" lon="0.68842">
        <ele>139.5</ele>
        <time>2018-08-25T18:30:26Z</time>
      </trkpt>
      <trkpt lat="44.53004" lon="0.68842">
        <ele>139.3</ele>
        <time>2018-08-25T18:30:27Z</time>
      </trkpt>
      <trkpt lat="44.52998" lon="0.68842">
        <ele>139.2</ele>
        <time>2018-08-25T18:30:28Z</time>
      </trkpt>
      <trkpt lat="44.52991" lon="0.68842">
        <ele>139.1</ele>
        <time>2018-08-25T18:30:29Z</time>
      </trkpt>
      <trkpt lat="44.52985" lon="0.68838">
        <ele>139.2</ele>
        <time>2018-08-25T18:30:30Z</time>
      </trkpt>
      <trkpt lat="44.52982" lon="0.68834">
        <ele>139.4</ele>
        <time>2018-08-25T18:30:31Z</time>
      </trkpt>
      <trkpt lat="44.52979" lon="0.68831">
        <ele>139.6</ele>
        <time>2018-08-25T18:30:32Z</time>
      </trkpt>
      <trkpt lat="44.52976" lon="0.68828">
        <ele>139.6</ele>
        <time>2018-08-25T18:30:33Z</time>
      </trkpt>
      <trkpt lat="44.52973" lon="0.68827">
        <ele>139.8</ele>
        <time>2018-08-25T18:30:34Z</time>
      </trkpt>
      <trkpt lat="44.52969" lon="0.68828">
        <ele>139.7</ele>
        <time>2018-08-25T18:30:36Z</time>
      </trkpt>
      <trkpt lat="44.52966" lon="0.68833">
        <ele>139.5</ele>
        <time>2018-08-25T18:30:38Z</time>
      </trkpt>
      <trkpt lat="44.52962" lon="0.68836">
        <ele>139.3</ele>
        <time>2018-08-25T18:30:39Z</time>
      </trkpt>
      <trkpt lat="44.52958" lon="0.68839">
        <ele>139.3</ele>
        <time>2018-08-25T18:30:40Z</time>
      </trkpt>
      <trkpt lat="44.52952" lon="0.68844">
        <ele>139</ele>
        <time>2018-08-25T18:30:41Z</time>
      </trkpt>
      <trkpt lat="44.52946" lon="0.68847">
        <ele>138.7</ele>
        <time>2018-08-25T18:30:42Z</time>
      </trkpt>
      <trkpt lat="44.52937" lon="0.68853">
        <ele>138.4</ele>
        <time>2018-08-25T18:30:43Z</time>
      </trkpt>
      <trkpt lat="44.52928" lon="0.6886">
        <ele>137.8</ele>
        <time>2018-08-25T18:30:44Z</time>
      </trkpt>
      <trkpt lat="44.52919" lon="0.68866">
        <ele>137.7</ele>
        <time>2018-08-25T18:30:45Z</time>
      </trkpt>
      <trkpt lat="44.5291" lon="0.68872">
        <ele>137.4</ele>
        <time>2018-08-25T18:30:46Z</time>
      </trkpt>
      <trkpt lat="44.52903" lon="0.68876">
        <ele>137.6</ele>
        <time>2018-08-25T18:30:47Z</time>
      </trkpt>
      <trkpt lat="44.52897" lon="0.6888">
        <ele>137.6</ele>
        <time>2018-08-25T18:30:48Z</time>
      </trkpt>
      <trkpt lat="44.5289" lon="0.68883">
        <ele>138.1</ele>
        <time>2018-08-25T18:30:49Z</time>
      </trkpt>
      <trkpt lat="44.52882" lon="0.68884">
        <ele>138.5</ele>
        <time>2018-08-25T18:30:50Z</time>
      </trkpt>
      <trkpt lat="44.52873" lon="0.68885">
        <ele>139.1</ele>
        <time>2018-08-25T18:30:51Z</time>
      </trkpt>
      <trkpt lat="44.52865" lon="0.68884">
        <ele>140</ele>
        <time>2018-08-25T18:30:52Z</time>
      </trkpt>
      <trkpt lat="44.52855" lon="0.68885">
        <ele>141.1</ele>
        <time>2018-08-25T18:30:53Z</time>
      </trkpt>
      <trkpt lat="44.52846" lon="0.68885">
        <ele>142</ele>
        <time>2018-08-25T18:30:54Z</time>
      </trkpt>
      <trkpt lat="44.52836" lon="0.68884">
        <ele>143.3</ele>
        <time>2018-08-25T18:30:55Z</time>
      </trkpt>
      <trkpt lat="44.52826" lon="0.68884">
        <ele>144.4</ele>
        <time>2018-08-25T18:30:56Z</time>
      </trkpt>
      <trkpt lat="44.52818" lon="0.68884">
        <ele>145.4</ele>
        <time>2018-08-25T18:30:57Z</time>
      </trkpt>
      <trkpt lat="44.52811" lon="0.68881">
        <ele>146.5</ele>
        <time>2018-08-25T18:30:58Z</time>
      </trkpt>
      <trkpt lat="44.52806" lon="0.6888">
        <ele>147</ele>
        <time>2018-08-25T18:30:59Z</time>
      </trkpt>
      <trkpt lat="44.52803" lon="0.68882">
        <ele>147.8</ele>
        <time>2018-08-25T18:31:00Z</time>
      </trkpt>
      <trkpt lat="44.52797" lon="0.68878">
        <ele>148.7</ele>
        <time>2018-08-25T18:31:01Z</time>
      </trkpt>
      <trkpt lat="44.52795" lon="0.68872">
        <ele>149.5</ele>
        <time>2018-08-25T18:31:02Z</time>
      </trkpt>
      <trkpt lat="44.52793" lon="0.68867">
        <ele>150.4</ele>
        <time>2018-08-25T18:31:03Z</time>
      </trkpt>
      <trkpt lat="44.52793" lon="0.68858">
        <ele>151.1</ele>
        <time>2018-08-25T18:31:04Z</time>
      </trkpt>
      <trkpt lat="44.52797" lon="0.68849">
        <ele>151.3</ele>
        <time>2018-08-25T18:31:05Z</time>
      </trkpt>
      <trkpt lat="44.52797" lon="0.68838">
        <ele>151.9</ele>
        <time>2018-08-25T18:31:06Z</time>
      </trkpt>
      <trkpt lat="44.52799" lon="0.68831">
        <ele>152.4</ele>
        <time>2018-08-25T18:31:07Z</time>
      </trkpt>
      <trkpt lat="44.52796" lon="0.68824">
        <ele>153</ele>
        <time>2018-08-25T18:31:08Z</time>
      </trkpt>
      <trkpt lat="44.52797" lon="0.68818">
        <ele>153</ele>
        <time>2018-08-25T18:31:09Z</time>
      </trkpt>
      <trkpt lat="44.52799" lon="0.68817">
        <ele>153</ele>
        <time>2018-08-25T18:31:12Z</time>
      </trkpt>
      <trkpt lat="44.52803" lon="0.68816">
        <ele>152.2</ele>
        <time>2018-08-25T18:31:14Z</time>
      </trkpt>
      <trkpt lat="44.52806" lon="0.68816">
        <ele>151.8</ele>
        <time>2018-08-25T18:31:15Z</time>
      </trkpt>
      <trkpt lat="44.5281" lon="0.68814">
        <ele>151.6</ele>
        <time>2018-08-25T18:31:16Z</time>
      </trkpt>
      <trkpt lat="44.52815" lon="0.68812">
        <ele>150.8</ele>
        <time>2018-08-25T18:31:17Z</time>
      </trkpt>
      <trkpt lat="44.52818" lon="0.68806">
        <ele>151</ele>
        <time>2018-08-25T18:31:18Z</time>
      </trkpt>
      <trkpt lat="44.52819" lon="0.68798">
        <ele>151.2</ele>
        <time>2018-08-25T18:31:19Z</time>
      </trkpt>
      <trkpt lat="44.52818" lon="0.68788">
        <ele>152</ele>
        <time>2018-08-25T18:31:20Z</time>
      </trkpt>
      <trkpt lat="44.52818" lon="0.68775">
        <ele>152.1</ele>
        <time>2018-08-25T18:31:21Z</time>
      </trkpt>
      <trkpt lat="44.52817" lon="0.68763">
        <ele>152.4</ele>
        <time>2018-08-25T18:31:22Z</time>
      </trkpt>
      <trkpt lat="44.52814" lon="0.68752">
        <ele>152.5</ele>
        <time>2018-08-25T18:31:23Z</time>
      </trkpt>
      <trkpt lat="44.52816" lon="0.68737">
        <ele>152</ele>
        <time>2018-08-25T18:31:24Z</time>
      </trkpt>
      <trkpt lat="44.52817" lon="0.68726">
        <ele>151.9</ele>
        <time>2018-08-25T18:31:25Z</time>
      </trkpt>
      <trkpt lat="44.52817" lon="0.68717">
        <ele>151.8</ele>
        <time>2018-08-25T18:31:26Z</time>
      </trkpt>
      <trkpt lat="44.52815" lon="0.68708">
        <ele>151.7</ele>
        <time>2018-08-25T18:31:27Z</time>
      </trkpt>
      <trkpt lat="44.52814" lon="0.68703">
        <ele>151.6</ele>
        <time>2018-08-25T18:31:28Z</time>
      </trkpt>
      <trkpt lat="44.52813" lon="0.68699">
        <ele>151.6</ele>
        <time>2018-08-25T18:31:29Z</time>
      </trkpt>
      <trkpt lat="44.52812" lon="0.68695">
        <ele>151.7</ele>
        <time>2018-08-25T18:31:30Z</time>
      </trkpt>
      <trkpt lat="44.52805" lon="0.68691">
        <ele>151.9</ele>
        <time>2018-08-25T18:31:32Z</time>
      </trkpt>
      <trkpt lat="44.52801" lon="0.68692">
        <ele>152.1</ele>
        <time>2018-08-25T18:31:33Z</time>
      </trkpt>
      <trkpt lat="44.52797" lon="0.6869">
        <ele>152.1</ele>
        <time>2018-08-25T18:31:34Z</time>
      </trkpt>
      <trkpt lat="44.5279" lon="0.6869">
        <ele>152.4</ele>
        <time>2018-08-25T18:31:35Z</time>
      </trkpt>
      <trkpt lat="44.52781" lon="0.68687">
        <ele>152.7</ele>
        <time>2018-08-25T18:31:36Z</time>
      </trkpt>
      <trkpt lat="44.52775" lon="0.68684">
        <ele>152.8</ele>
        <time>2018-08-25T18:31:37Z</time>
      </trkpt>
      <trkpt lat="44.52767" lon="0.68683">
        <ele>153</ele>
        <time>2018-08-25T18:31:38Z</time>
      </trkpt>
      <trkpt lat="44.52757" lon="0.68681">
        <ele>153.1</ele>
        <time>2018-08-25T18:31:39Z</time>
      </trkpt>
      <trkpt lat="44.52749" lon="0.68678">
        <ele>153.4</ele>
        <time>2018-08-25T18:31:40Z</time>
      </trkpt>
      <trkpt lat="44.52739" lon="0.68676">
        <ele>153.6</ele>
        <time>2018-08-25T18:31:41Z</time>
      </trkpt>
      <trkpt lat="44.52729" lon="0.68674">
        <ele>153.8</ele>
        <time>2018-08-25T18:31:42Z</time>
      </trkpt>
      <trkpt lat="44.5272" lon="0.68671">
        <ele>153.8</ele>
        <time>2018-08-25T18:31:43Z</time>
      </trkpt>
      <trkpt lat="44.52712" lon="0.68669">
        <ele>153.7</ele>
        <time>2018-08-25T18:31:44Z</time>
      </trkpt>
      <trkpt lat="44.52704" lon="0.68669">
        <ele>153.7</ele>
        <time>2018-08-25T18:31:45Z</time>
      </trkpt>
      <trkpt lat="44.52696" lon="0.68668">
        <ele>153.6</ele>
        <time>2018-08-25T18:31:46Z</time>
      </trkpt>
      <trkpt lat="44.52688" lon="0.68668">
        <ele>153.4</ele>
        <time>2018-08-25T18:31:47Z</time>
      </trkpt>
      <trkpt lat="44.52681" lon="0.68666">
        <ele>153.2</ele>
        <time>2018-08-25T18:31:48Z</time>
      </trkpt>
      <trkpt lat="44.52674" lon="0.68666">
        <ele>152.9</ele>
        <time>2018-08-25T18:31:49Z</time>
      </trkpt>
      <trkpt lat="44.52667" lon="0.68667">
        <ele>152.7</ele>
        <time>2018-08-25T18:31:50Z</time>
      </trkpt>
      <trkpt lat="44.5266" lon="0.68668">
        <ele>152.4</ele>
        <time>2018-08-25T18:31:51Z</time>
      </trkpt>
      <trkpt lat="44.52652" lon="0.68668">
        <ele>152.1</ele>
        <time>2018-08-25T18:31:52Z</time>
      </trkpt>
      <trkpt lat="44.52646" lon="0.68668">
        <ele>151.9</ele>
        <time>2018-08-25T18:31:53Z</time>
      </trkpt>
      <trkpt lat="44.52639" lon="0.68666">
        <ele>151.7</ele>
        <time>2018-08-25T18:31:54Z</time>
      </trkpt>
      <trkpt lat="44.52634" lon="0.68664">
        <ele>151.4</ele>
        <time>2018-08-25T18:31:55Z</time>
      </trkpt>
      <trkpt lat="44.52626" lon="0.68666">
        <ele>151.7</ele>
        <time>2018-08-25T18:31:56Z</time>
      </trkpt>
      <trkpt lat="44.52617" lon="0.68668">
        <ele>152</ele>
        <time>2018-08-25T18:31:57Z</time>
      </trkpt>
      <trkpt lat="44.52608" lon="0.68672">
        <ele>152.7</ele>
        <time>2018-08-25T18:31:58Z</time>
      </trkpt>
      <trkpt lat="44.52601" lon="0.68674">
        <ele>153.1</ele>
        <time>2018-08-25T18:31:59Z</time>
      </trkpt>
      <trkpt lat="44.52594" lon="0.68676">
        <ele>153.5</ele>
        <time>2018-08-25T18:32:00Z</time>
      </trkpt>
      <trkpt lat="44.52588" lon="0.68677">
        <ele>153.6</ele>
        <time>2018-08-25T18:32:01Z</time>
      </trkpt>
      <trkpt lat="44.52582" lon="0.68679">
        <ele>153.7</ele>
        <time>2018-08-25T18:32:02Z</time>
      </trkpt>
      <trkpt lat="44.52575" lon="0.68682">
        <ele>153.6</ele>
        <time>2018-08-25T18:32:03Z</time>
      </trkpt>
      <trkpt lat="44.52568" lon="0.68683">
        <ele>153.5</ele>
        <time>2018-08-25T18:32:04Z</time>
      </trkpt>
      <trkpt lat="44.5256" lon="0.68683">
        <ele>153.4</ele>
        <time>2018-08-25T18:32:05Z</time>
      </trkpt>
      <trkpt lat="44.52552" lon="0.68685">
        <ele>153.2</ele>
        <time>2018-08-25T18:32:06Z</time>
      </trkpt>
      <trkpt lat="44.52546" lon="0.68685">
        <ele>153.1</ele>
        <time>2018-08-25T18:32:07Z</time>
      </trkpt>
      <trkpt lat="44.52539" lon="0.68687">
        <ele>152.8</ele>
        <time>2018-08-25T18:32:08Z</time>
      </trkpt>
      <trkpt lat="44.52532" lon="0.68689">
        <ele>152.7</ele>
        <time>2018-08-25T18:32:09Z</time>
      </trkpt>
      <trkpt lat="44.52525" lon="0.6869">
        <ele>152.6</ele>
        <time>2018-08-25T18:32:10Z</time>
      </trkpt>
      <trkpt lat="44.52517" lon="0.68692">
        <ele>152.2</ele>
        <time>2018-08-25T18:32:11Z</time>
      </trkpt>
      <trkpt lat="44.5251" lon="0.68695">
        <ele>151.9</ele>
        <time>2018-08-25T18:32:12Z</time>
      </trkpt>
      <trkpt lat="44.52503" lon="0.68696">
        <ele>151.6</ele>
        <time>2018-08-25T18:32:13Z</time>
      </trkpt>
      <trkpt lat="44.52497" lon="0.68699">
        <ele>151.5</ele>
        <time>2018-08-25T18:32:14Z</time>
      </trkpt>
      <trkpt lat="44.52493" lon="0.68698">
        <ele>151.2</ele>
        <time>2018-08-25T18:32:15Z</time>
      </trkpt>
      <trkpt lat="44.52487" lon="0.68697">
        <ele>151.1</ele>
        <time>2018-08-25T18:32:16Z</time>
      </trkpt>
      <trkpt lat="44.52482" lon="0.68697">
        <ele>151</ele>
        <time>2018-08-25T18:32:17Z</time>
      </trkpt>
      <trkpt lat="44.52476" lon="0.68698">
        <ele>150.8</ele>
        <time>2018-08-25T18:32:18Z</time>
      </trkpt>
      <trkpt lat="44.52471" lon="0.687">
        <ele>150.5</ele>
        <time>2018-08-25T18:32:19Z</time>
      </trkpt>
      <trkpt lat="44.52465" lon="0.68703">
        <ele>150.3</ele>
        <time>2018-08-25T18:32:20Z</time>
      </trkpt>
      <trkpt lat="44.5246" lon="0.68702">
        <ele>150.2</ele>
        <time>2018-08-25T18:32:21Z</time>
      </trkpt>
      <trkpt lat="44.52456" lon="0.68703">
        <ele>150</ele>
        <time>2018-08-25T18:32:22Z</time>
      </trkpt>
      <trkpt lat="44.52451" lon="0.68706">
        <ele>149.9</ele>
        <time>2018-08-25T18:32:23Z</time>
      </trkpt>
      <trkpt lat="44.52448" lon="0.68706">
        <ele>149.7</ele>
        <time>2018-08-25T18:32:24Z</time>
      </trkpt>
      <trkpt lat="44.52447" lon="0.68712">
        <ele>149.6</ele>
        <time>2018-08-25T18:32:26Z</time>
      </trkpt>
      <trkpt lat="44.52444" lon="0.68718">
        <ele>149.9</ele>
        <time>2018-08-25T18:32:29Z</time>
      </trkpt>
      <trkpt lat="44.52442" lon="0.6872">
        <ele>150</ele>
        <time>2018-08-25T18:33:11Z</time>
      </trkpt>
      <trkpt lat="44.5244" lon="0.68723">
        <ele>150.1</ele>
        <time>2018-08-25T18:33:12Z</time>
      </trkpt>
      <trkpt lat="44.52435" lon="0.68724">
        <ele>150.4</ele>
        <time>2018-08-25T18:33:13Z</time>
      </trkpt>
      <trkpt lat="44.52428" lon="0.68724">
        <ele>150.6</ele>
        <time>2018-08-25T18:33:14Z</time>
      </trkpt>
      <trkpt lat="44.52421" lon="0.68722">
        <ele>150.9</ele>
        <time>2018-08-25T18:33:15Z</time>
      </trkpt>
      <trkpt lat="44.5239" lon="0.68725">
        <ele>151.8</ele>
        <time>2018-08-25T18:33:17Z</time>
      </trkpt>
      <trkpt lat="44.52377" lon="0.6873">
        <ele>152.1</ele>
        <time>2018-08-25T18:33:18Z</time>
      </trkpt>
      <trkpt lat="44.52363" lon="0.68735">
        <ele>152.5</ele>
        <time>2018-08-25T18:33:19Z</time>
      </trkpt>
      <trkpt lat="44.52347" lon="0.68739">
        <ele>152.7</ele>
        <time>2018-08-25T18:33:20Z</time>
      </trkpt>
      <trkpt lat="44.52331" lon="0.68744">
        <ele>152.9</ele>
        <time>2018-08-25T18:33:21Z</time>
      </trkpt>
      <trkpt lat="44.52315" lon="0.68749">
        <ele>152.9</ele>
        <time>2018-08-25T18:33:22Z</time>
      </trkpt>
      <trkpt lat="44.52298" lon="0.68751">
        <ele>153</ele>
        <time>2018-08-25T18:33:23Z</time>
      </trkpt>
      <trkpt lat="44.52281" lon="0.68754">
        <ele>153</ele>
        <time>2018-08-25T18:33:24Z</time>
      </trkpt>
      <trkpt lat="44.52269" lon="0.68755">
        <ele>152.9</ele>
        <time>2018-08-25T18:33:25Z</time>
      </trkpt>
      <trkpt lat="44.52257" lon="0.68754">
        <ele>152.9</ele>
        <time>2018-08-25T18:33:26Z</time>
      </trkpt>
      <trkpt lat="44.52245" lon="0.68753">
        <ele>152.8</ele>
        <time>2018-08-25T18:33:27Z</time>
      </trkpt>
      <trkpt lat="44.52232" lon="0.68749">
        <ele>152.6</ele>
        <time>2018-08-25T18:33:28Z</time>
      </trkpt>
      <trkpt lat="44.52222" lon="0.6874">
        <ele>152.4</ele>
        <time>2018-08-25T18:33:29Z</time>
      </trkpt>
      <trkpt lat="44.52211" lon="0.68733">
        <ele>152.3</ele>
        <time>2018-08-25T18:33:30Z</time>
      </trkpt>
      <trkpt lat="44.52201" lon="0.68726">
        <ele>152.1</ele>
        <time>2018-08-25T18:33:31Z</time>
      </trkpt>
      <trkpt lat="44.52193" lon="0.6872">
        <ele>152</ele>
        <time>2018-08-25T18:33:32Z</time>
      </trkpt>
      <trkpt lat="44.52187" lon="0.68714">
        <ele>152</ele>
        <time>2018-08-25T18:33:33Z</time>
      </trkpt>
      <trkpt lat="44.52182" lon="0.68709">
        <ele>152</ele>
        <time>2018-08-25T18:33:34Z</time>
      </trkpt>
      <trkpt lat="44.52178" lon="0.68706">
        <ele>152</ele>
        <time>2018-08-25T18:33:35Z</time>
      </trkpt>
      <trkpt lat="44.52174" lon="0.68708">
        <ele>152.1</ele>
        <time>2018-08-25T18:33:36Z</time>
      </trkpt>
      <trkpt lat="44.52172" lon="0.68712">
        <ele>152.5</ele>
        <time>2018-08-25T18:33:37Z</time>
      </trkpt>
      <trkpt lat="44.52171" lon="0.68719">
        <ele>152.7</ele>
        <time>2018-08-25T18:33:38Z</time>
      </trkpt>
      <trkpt lat="44.5217" lon="0.68728">
        <ele>153.1</ele>
        <time>2018-08-25T18:33:39Z</time>
      </trkpt>
      <trkpt lat="44.52167" lon="0.68738">
        <ele>154</ele>
        <time>2018-08-25T18:33:40Z</time>
      </trkpt>
      <trkpt lat="44.52164" lon="0.6875">
        <ele>154.7</ele>
        <time>2018-08-25T18:33:41Z</time>
      </trkpt>
      <trkpt lat="44.5216" lon="0.68764">
        <ele>155.9</ele>
        <time>2018-08-25T18:33:42Z</time>
      </trkpt>
      <trkpt lat="44.52156" lon="0.68777">
        <ele>157.1</ele>
        <time>2018-08-25T18:33:43Z</time>
      </trkpt>
      <trkpt lat="44.52153" lon="0.6879">
        <ele>157.8</ele>
        <time>2018-08-25T18:33:44Z</time>
      </trkpt>
      <trkpt lat="44.52149" lon="0.68803">
        <ele>158.5</ele>
        <time>2018-08-25T18:33:45Z</time>
      </trkpt>
      <trkpt lat="44.52146" lon="0.68816">
        <ele>159</ele>
        <time>2018-08-25T18:33:46Z</time>
      </trkpt>
      <trkpt lat="44.52142" lon="0.68829">
        <ele>159.6</ele>
        <time>2018-08-25T18:33:47Z</time>
      </trkpt>
      <trkpt lat="44.52138" lon="0.68842">
        <ele>160.6</ele>
        <time>2018-08-25T18:33:48Z</time>
      </trkpt>
      <trkpt lat="44.52134" lon="0.68856">
        <ele>161.1</ele>
        <time>2018-08-25T18:33:49Z</time>
      </trkpt>
      <trkpt lat="44.52129" lon="0.6887">
        <ele>162.1</ele>
        <time>2018-08-25T18:33:50Z</time>
      </trkpt>
      <trkpt lat="44.52124" lon="0.68887">
        <ele>162.6</ele>
        <time>2018-08-25T18:33:51Z</time>
      </trkpt>
      <trkpt lat="44.52118" lon="0.68904">
        <ele>163.4</ele>
        <time>2018-08-25T18:33:52Z</time>
      </trkpt>
      <trkpt lat="44.52112" lon="0.68922">
        <ele>164</ele>
        <time>2018-08-25T18:33:53Z</time>
      </trkpt>
      <trkpt lat="44.52106" lon="0.6894">
        <ele>164.5</ele>
        <time>2018-08-25T18:33:54Z</time>
      </trkpt>
      <trkpt lat="44.521" lon="0.68956">
        <ele>164.9</ele>
        <time>2018-08-25T18:33:55Z</time>
      </trkpt>
      <trkpt lat="44.52095" lon="0.6897">
        <ele>164.8</ele>
        <time>2018-08-25T18:33:56Z</time>
      </trkpt>
      <trkpt lat="44.52091" lon="0.68985">
        <ele>164.5</ele>
        <time>2018-08-25T18:33:57Z</time>
      </trkpt>
      <trkpt lat="44.52087" lon="0.68997">
        <ele>164.4</ele>
        <time>2018-08-25T18:33:58Z</time>
      </trkpt>
      <trkpt lat="44.52084" lon="0.69009">
        <ele>164.5</ele>
        <time>2018-08-25T18:33:59Z</time>
      </trkpt>
      <trkpt lat="44.52081" lon="0.69018">
        <ele>164.9</ele>
        <time>2018-08-25T18:34:00Z</time>
      </trkpt>
      <trkpt lat="44.52078" lon="0.69026">
        <ele>165.2</ele>
        <time>2018-08-25T18:34:01Z</time>
      </trkpt>
      <trkpt lat="44.52076" lon="0.6903">
        <ele>165.7</ele>
        <time>2018-08-25T18:34:02Z</time>
      </trkpt>
      <trkpt lat="44.52073" lon="0.69034">
        <ele>166</ele>
        <time>2018-08-25T18:34:03Z</time>
      </trkpt>
      <trkpt lat="44.52069" lon="0.69036">
        <ele>166.6</ele>
        <time>2018-08-25T18:34:04Z</time>
      </trkpt>
      <trkpt lat="44.52065" lon="0.69035">
        <ele>167.6</ele>
        <time>2018-08-25T18:34:05Z</time>
      </trkpt>
      <trkpt lat="44.5206" lon="0.69033">
        <ele>168.3</ele>
        <time>2018-08-25T18:34:06Z</time>
      </trkpt>
      <trkpt lat="44.52055" lon="0.69029">
        <ele>169.4</ele>
        <time>2018-08-25T18:34:07Z</time>
      </trkpt>
      <trkpt lat="44.52049" lon="0.69025">
        <ele>170.4</ele>
        <time>2018-08-25T18:34:08Z</time>
      </trkpt>
      <trkpt lat="44.52045" lon="0.69023">
        <ele>170.8</ele>
        <time>2018-08-25T18:34:09Z</time>
      </trkpt>
      <trkpt lat="44.5204" lon="0.69024">
        <ele>171.5</ele>
        <time>2018-08-25T18:34:10Z</time>
      </trkpt>
      <trkpt lat="44.52035" lon="0.69027">
        <ele>172</ele>
        <time>2018-08-25T18:34:11Z</time>
      </trkpt>
      <trkpt lat="44.5203" lon="0.69033">
        <ele>172.1</ele>
        <time>2018-08-25T18:34:12Z</time>
      </trkpt>
      <trkpt lat="44.52025" lon="0.69042">
        <ele>172.3</ele>
        <time>2018-08-25T18:34:13Z</time>
      </trkpt>
      <trkpt lat="44.52023" lon="0.69059">
        <ele>171.7</ele>
        <time>2018-08-25T18:34:14Z</time>
      </trkpt>
      <trkpt lat="44.52016" lon="0.69068">
        <ele>171.7</ele>
        <time>2018-08-25T18:34:15Z</time>
      </trkpt>
      <trkpt lat="44.5201" lon="0.69078">
        <ele>171.6</ele>
        <time>2018-08-25T18:34:16Z</time>
      </trkpt>
      <trkpt lat="44.52004" lon="0.69088">
        <ele>171.3</ele>
        <time>2018-08-25T18:34:17Z</time>
      </trkpt>
      <trkpt lat="44.52001" lon="0.69097">
        <ele>171.2</ele>
        <time>2018-08-25T18:34:18Z</time>
      </trkpt>
      <trkpt lat="44.51996" lon="0.69106">
        <ele>171</ele>
        <time>2018-08-25T18:34:19Z</time>
      </trkpt>
      <trkpt lat="44.51994" lon="0.69113">
        <ele>170.7</ele>
        <time>2018-08-25T18:34:20Z</time>
      </trkpt>
      <trkpt lat="44.51992" lon="0.69117">
        <ele>170.6</ele>
        <time>2018-08-25T18:34:21Z</time>
      </trkpt>
      <trkpt lat="44.5199" lon="0.69123">
        <ele>170.6</ele>
        <time>2018-08-25T18:34:22Z</time>
      </trkpt>
      <trkpt lat="44.51988" lon="0.6913">
        <ele>170.4</ele>
        <time>2018-08-25T18:34:23Z</time>
      </trkpt>
      <trkpt lat="44.51986" lon="0.69138">
        <ele>170.2</ele>
        <time>2018-08-25T18:34:24Z</time>
      </trkpt>
      <trkpt lat="44.51983" lon="0.69145">
        <ele>169.9</ele>
        <time>2018-08-25T18:34:25Z</time>
      </trkpt>
      <trkpt lat="44.51981" lon="0.69152">
        <ele>169.8</ele>
        <time>2018-08-25T18:34:26Z</time>
      </trkpt>
      <trkpt lat="44.51979" lon="0.69158">
        <ele>169.5</ele>
        <time>2018-08-25T18:34:27Z</time>
      </trkpt>
      <trkpt lat="44.51977" lon="0.69166">
        <ele>169.5</ele>
        <time>2018-08-25T18:34:28Z</time>
      </trkpt>
      <trkpt lat="44.51975" lon="0.69172">
        <ele>169.2</ele>
        <time>2018-08-25T18:34:29Z</time>
      </trkpt>
      <trkpt lat="44.51972" lon="0.69178">
        <ele>169</ele>
        <time>2018-08-25T18:34:30Z</time>
      </trkpt>
      <trkpt lat="44.51968" lon="0.69184">
        <ele>168.7</ele>
        <time>2018-08-25T18:34:31Z</time>
      </trkpt>
      <trkpt lat="44.51963" lon="0.69193">
        <ele>168.3</ele>
        <time>2018-08-25T18:34:32Z</time>
      </trkpt>
      <trkpt lat="44.51959" lon="0.69201">
        <ele>168.2</ele>
        <time>2018-08-25T18:34:33Z</time>
      </trkpt>
      <trkpt lat="44.51955" lon="0.69207">
        <ele>168.1</ele>
        <time>2018-08-25T18:34:34Z</time>
      </trkpt>
      <trkpt lat="44.51952" lon="0.6921">
        <ele>168.1</ele>
        <time>2018-08-25T18:34:35Z</time>
      </trkpt>
      <trkpt lat="44.51946" lon="0.6921">
        <ele>168.1</ele>
        <time>2018-08-25T18:34:36Z</time>
      </trkpt>
      <trkpt lat="44.51939" lon="0.69206">
        <ele>168.1</ele>
        <time>2018-08-25T18:34:37Z</time>
      </trkpt>
      <trkpt lat="44.51931" lon="0.69199">
        <ele>168.1</ele>
        <time>2018-08-25T18:34:38Z</time>
      </trkpt>
      <trkpt lat="44.51921" lon="0.69189">
        <ele>168</ele>
        <time>2018-08-25T18:34:39Z</time>
      </trkpt>
      <trkpt lat="44.5191" lon="0.69179">
        <ele>167.9</ele>
        <time>2018-08-25T18:34:40Z</time>
      </trkpt>
      <trkpt lat="44.51899" lon="0.6917">
        <ele>167.2</ele>
        <time>2018-08-25T18:34:41Z</time>
      </trkpt>
      <trkpt lat="44.51889" lon="0.69162">
        <ele>166.4</ele>
        <time>2018-08-25T18:34:42Z</time>
      </trkpt>
      <trkpt lat="44.5188" lon="0.69155">
        <ele>165.5</ele>
        <time>2018-08-25T18:34:43Z</time>
      </trkpt>
      <trkpt lat="44.51873" lon="0.69148">
        <ele>165.2</ele>
        <time>2018-08-25T18:34:44Z</time>
      </trkpt>
      <trkpt lat="44.51869" lon="0.69139">
        <ele>164.8</ele>
        <time>2018-08-25T18:34:45Z</time>
      </trkpt>
      <trkpt lat="44.51867" lon="0.69131">
        <ele>165</ele>
        <time>2018-08-25T18:34:46Z</time>
      </trkpt>
      <trkpt lat="44.51867" lon="0.6912">
        <ele>165.3</ele>
        <time>2018-08-25T18:34:47Z</time>
      </trkpt>
      <trkpt lat="44.5187" lon="0.69109">
        <ele>166</ele>
        <time>2018-08-25T18:34:48Z</time>
      </trkpt>
      <trkpt lat="44.51872" lon="0.69101">
        <ele>166.3</ele>
        <time>2018-08-25T18:34:49Z</time>
      </trkpt>
      <trkpt lat="44.51877" lon="0.69098">
        <ele>167</ele>
        <time>2018-08-25T18:34:50Z</time>
      </trkpt>
      <trkpt lat="44.51884" lon="0.69096">
        <ele>167.6</ele>
        <time>2018-08-25T18:34:51Z</time>
      </trkpt>
      <trkpt lat="44.51889" lon="0.6909">
        <ele>168.3</ele>
        <time>2018-08-25T18:34:52Z</time>
      </trkpt>
      <trkpt lat="44.51893" lon="0.69079">
        <ele>168.9</ele>
        <time>2018-08-25T18:34:53Z</time>
      </trkpt>
      <trkpt lat="44.51897" lon="0.69067">
        <ele>169.8</ele>
        <time>2018-08-25T18:34:54Z</time>
      </trkpt>
      <trkpt lat="44.519" lon="0.69054">
        <ele>170.2</ele>
        <time>2018-08-25T18:34:55Z</time>
      </trkpt>
      <trkpt lat="44.51904" lon="0.69039">
        <ele>170.9</ele>
        <time>2018-08-25T18:34:56Z</time>
      </trkpt>
      <trkpt lat="44.51907" lon="0.69023">
        <ele>171.8</ele>
        <time>2018-08-25T18:34:57Z</time>
      </trkpt>
      <trkpt lat="44.5191" lon="0.69007">
        <ele>173.2</ele>
        <time>2018-08-25T18:34:58Z</time>
      </trkpt>
      <trkpt lat="44.51912" lon="0.68992">
        <ele>174.3</ele>
        <time>2018-08-25T18:34:59Z</time>
      </trkpt>
      <trkpt lat="44.51915" lon="0.6898">
        <ele>175.4</ele>
        <time>2018-08-25T18:35:00Z</time>
      </trkpt>
      <trkpt lat="44.51917" lon="0.68969">
        <ele>176.6</ele>
        <time>2018-08-25T18:35:01Z</time>
      </trkpt>
      <trkpt lat="44.51919" lon="0.68958">
        <ele>177.5</ele>
        <time>2018-08-25T18:35:02Z</time>
      </trkpt>
      <trkpt lat="44.5192" lon="0.68947">
        <ele>178.3</ele>
        <time>2018-08-25T18:35:03Z</time>
      </trkpt>
      <trkpt lat="44.51923" lon="0.68937">
        <ele>179.1</ele>
        <time>2018-08-25T18:35:04Z</time>
      </trkpt>
      <trkpt lat="44.51925" lon="0.68929">
        <ele>180</ele>
        <time>2018-08-25T18:35:05Z</time>
      </trkpt>
      <trkpt lat="44.51926" lon="0.68917">
        <ele>180.8</ele>
        <time>2018-08-25T18:35:06Z</time>
      </trkpt>
      <trkpt lat="44.51927" lon="0.68908">
        <ele>181.4</ele>
        <time>2018-08-25T18:35:07Z</time>
      </trkpt>
      <trkpt lat="44.51927" lon="0.68896">
        <ele>182</ele>
        <time>2018-08-25T18:35:08Z</time>
      </trkpt>
      <trkpt lat="44.51927" lon="0.68886">
        <ele>183</ele>
        <time>2018-08-25T18:35:09Z</time>
      </trkpt>
      <trkpt lat="44.51927" lon="0.68877">
        <ele>183.6</ele>
        <time>2018-08-25T18:35:10Z</time>
      </trkpt>
      <trkpt lat="44.51927" lon="0.68867">
        <ele>184.2</ele>
        <time>2018-08-25T18:35:11Z</time>
      </trkpt>
      <trkpt lat="44.51926" lon="0.68856">
        <ele>184.9</ele>
        <time>2018-08-25T18:35:12Z</time>
      </trkpt>
      <trkpt lat="44.51925" lon="0.68846">
        <ele>185.2</ele>
        <time>2018-08-25T18:35:13Z</time>
      </trkpt>
      <trkpt lat="44.51925" lon="0.68836">
        <ele>185.6</ele>
        <time>2018-08-25T18:35:14Z</time>
      </trkpt>
      <trkpt lat="44.51924" lon="0.68827">
        <ele>185.7</ele>
        <time>2018-08-25T18:35:15Z</time>
      </trkpt>
      <trkpt lat="44.51924" lon="0.68819">
        <ele>185.8</ele>
        <time>2018-08-25T18:35:16Z</time>
      </trkpt>
      <trkpt lat="44.51922" lon="0.68813">
        <ele>186.1</ele>
        <time>2018-08-25T18:35:17Z</time>
      </trkpt>
      <trkpt lat="44.5192" lon="0.68804">
        <ele>186</ele>
        <time>2018-08-25T18:35:18Z</time>
      </trkpt>
      <trkpt lat="44.51921" lon="0.68797">
        <ele>186.1</ele>
        <time>2018-08-25T18:35:19Z</time>
      </trkpt>
      <trkpt lat="44.51922" lon="0.6879">
        <ele>186.5</ele>
        <time>2018-08-25T18:35:20Z</time>
      </trkpt>
      <trkpt lat="44.51921" lon="0.68783">
        <ele>186.3</ele>
        <time>2018-08-25T18:35:21Z</time>
      </trkpt>
      <trkpt lat="44.51922" lon="0.6877">
        <ele>186.4</ele>
        <time>2018-08-25T18:35:22Z</time>
      </trkpt>
      <trkpt lat="44.51924" lon="0.68758">
        <ele>186</ele>
        <time>2018-08-25T18:35:23Z</time>
      </trkpt>
      <trkpt lat="44.51925" lon="0.6875">
        <ele>185.7</ele>
        <time>2018-08-25T18:35:24Z</time>
      </trkpt>
      <trkpt lat="44.51927" lon="0.6874">
        <ele>185.2</ele>
        <time>2018-08-25T18:35:25Z</time>
      </trkpt>
      <trkpt lat="44.51928" lon="0.68733">
        <ele>184.8</ele>
        <time>2018-08-25T18:35:26Z</time>
      </trkpt>
      <trkpt lat="44.5193" lon="0.68725">
        <ele>184.5</ele>
        <time>2018-08-25T18:35:27Z</time>
      </trkpt>
      <trkpt lat="44.5193" lon="0.68719">
        <ele>183.9</ele>
        <time>2018-08-25T18:35:28Z</time>
      </trkpt>
      <trkpt lat="44.5193" lon="0.68713">
        <ele>183.6</ele>
        <time>2018-08-25T18:35:29Z</time>
      </trkpt>
      <trkpt lat="44.51929" lon="0.68708">
        <ele>183.3</ele>
        <time>2018-08-25T18:35:30Z</time>
      </trkpt>
      <trkpt lat="44.51929" lon="0.68703">
        <ele>182.6</ele>
        <time>2018-08-25T18:35:31Z</time>
      </trkpt>
      <trkpt lat="44.51928" lon="0.68698">
        <ele>182.2</ele>
        <time>2018-08-25T18:35:32Z</time>
      </trkpt>
      <trkpt lat="44.51927" lon="0.68693">
        <ele>181.9</ele>
        <time>2018-08-25T18:35:33Z</time>
      </trkpt>
      <trkpt lat="44.51926" lon="0.68687">
        <ele>181.5</ele>
        <time>2018-08-25T18:35:34Z</time>
      </trkpt>
      <trkpt lat="44.51925" lon="0.68683">
        <ele>181.2</ele>
        <time>2018-08-25T18:35:35Z</time>
      </trkpt>
      <trkpt lat="44.51924" lon="0.68677">
        <ele>180.6</ele>
        <time>2018-08-25T18:35:36Z</time>
      </trkpt>
      <trkpt lat="44.51922" lon="0.68672">
        <ele>180.2</ele>
        <time>2018-08-25T18:35:37Z</time>
      </trkpt>
      <trkpt lat="44.51921" lon="0.68667">
        <ele>179.8</ele>
        <time>2018-08-25T18:35:38Z</time>
      </trkpt>
      <trkpt lat="44.51921" lon="0.68663">
        <ele>179.4</ele>
        <time>2018-08-25T18:35:39Z</time>
      </trkpt>
      <trkpt lat="44.51919" lon="0.68658">
        <ele>178.9</ele>
        <time>2018-08-25T18:35:40Z</time>
      </trkpt>
      <trkpt lat="44.51915" lon="0.6865">
        <ele>178</ele>
        <time>2018-08-25T18:35:41Z</time>
      </trkpt>
      <trkpt lat="44.51913" lon="0.68644">
        <ele>177.5</ele>
        <time>2018-08-25T18:35:42Z</time>
      </trkpt>
      <trkpt lat="44.51912" lon="0.68639">
        <ele>177</ele>
        <time>2018-08-25T18:35:43Z</time>
      </trkpt>
      <trkpt lat="44.51911" lon="0.68634">
        <ele>176.1</ele>
        <time>2018-08-25T18:35:44Z</time>
      </trkpt>
      <trkpt lat="44.51909" lon="0.68627">
        <ele>175.7</ele>
        <time>2018-08-25T18:35:45Z</time>
      </trkpt>
      <trkpt lat="44.51909" lon="0.68622">
        <ele>175.1</ele>
        <time>2018-08-25T18:35:46Z</time>
      </trkpt>
      <trkpt lat="44.51908" lon="0.68617">
        <ele>174.2</ele>
        <time>2018-08-25T18:35:47Z</time>
      </trkpt>
      <trkpt lat="44.51908" lon="0.68606">
        <ele>173.2</ele>
        <time>2018-08-25T18:35:49Z</time>
      </trkpt>
      <trkpt lat="44.51907" lon="0.68596">
        <ele>172.2</ele>
        <time>2018-08-25T18:35:50Z</time>
      </trkpt>
      <trkpt lat="44.51905" lon="0.68591">
        <ele>171</ele>
        <time>2018-08-25T18:35:51Z</time>
      </trkpt>
      <trkpt lat="44.51905" lon="0.68585">
        <ele>170.4</ele>
        <time>2018-08-25T18:35:52Z</time>
      </trkpt>
      <trkpt lat="44.51905" lon="0.68578">
        <ele>169.1</ele>
        <time>2018-08-25T18:35:53Z</time>
      </trkpt>
      <trkpt lat="44.51904" lon="0.6857">
        <ele>167.8</ele>
        <time>2018-08-25T18:35:54Z</time>
      </trkpt>
      <trkpt lat="44.51904" lon="0.68563">
        <ele>167.3</ele>
        <time>2018-08-25T18:35:55Z</time>
      </trkpt>
      <trkpt lat="44.51905" lon="0.68555">
        <ele>166.4</ele>
        <time>2018-08-25T18:35:56Z</time>
      </trkpt>
      <trkpt lat="44.51906" lon="0.68545">
        <ele>165.7</ele>
        <time>2018-08-25T18:35:57Z</time>
      </trkpt>
      <trkpt lat="44.51906" lon="0.68536">
        <ele>165.1</ele>
        <time>2018-08-25T18:35:58Z</time>
      </trkpt>
      <trkpt lat="44.51908" lon="0.68527">
        <ele>164.1</ele>
        <time>2018-08-25T18:35:59Z</time>
      </trkpt>
      <trkpt lat="44.5191" lon="0.6852">
        <ele>163.8</ele>
        <time>2018-08-25T18:36:00Z</time>
      </trkpt>
      <trkpt lat="44.51912" lon="0.68511">
        <ele>163.3</ele>
        <time>2018-08-25T18:36:01Z</time>
      </trkpt>
      <trkpt lat="44.51914" lon="0.68505">
        <ele>162.9</ele>
        <time>2018-08-25T18:36:02Z</time>
      </trkpt>
      <trkpt lat="44.51915" lon="0.685">
        <ele>162.7</ele>
        <time>2018-08-25T18:36:03Z</time>
      </trkpt>
      <trkpt lat="44.51917" lon="0.68494">
        <ele>162.5</ele>
        <time>2018-08-25T18:36:04Z</time>
      </trkpt>
      <trkpt lat="44.51919" lon="0.68489">
        <ele>162.3</ele>
        <time>2018-08-25T18:36:05Z</time>
      </trkpt>
      <trkpt lat="44.51921" lon="0.68482">
        <ele>162.1</ele>
        <time>2018-08-25T18:36:06Z</time>
      </trkpt>
      <trkpt lat="44.51924" lon="0.68473">
        <ele>161.8</ele>
        <time>2018-08-25T18:36:07Z</time>
      </trkpt>
      <trkpt lat="44.51926" lon="0.68465">
        <ele>161.5</ele>
        <time>2018-08-25T18:36:08Z</time>
      </trkpt>
      <trkpt lat="44.51928" lon="0.68456">
        <ele>161.3</ele>
        <time>2018-08-25T18:36:09Z</time>
      </trkpt>
      <trkpt lat="44.5193" lon="0.68448">
        <ele>161.3</ele>
        <time>2018-08-25T18:36:10Z</time>
      </trkpt>
      <trkpt lat="44.51932" lon="0.6844">
        <ele>161.2</ele>
        <time>2018-08-25T18:36:11Z</time>
      </trkpt>
      <trkpt lat="44.51933" lon="0.68433">
        <ele>161.2</ele>
        <time>2018-08-25T18:36:12Z</time>
      </trkpt>
      <trkpt lat="44.51934" lon="0.68428">
        <ele>161.3</ele>
        <time>2018-08-25T18:36:13Z</time>
      </trkpt>
      <trkpt lat="44.51935" lon="0.68423">
        <ele>161.5</ele>
        <time>2018-08-25T18:36:14Z</time>
      </trkpt>
      <trkpt lat="44.51936" lon="0.68418">
        <ele>161.6</ele>
        <time>2018-08-25T18:36:15Z</time>
      </trkpt>
      <trkpt lat="44.51936" lon="0.68414">
        <ele>161.5</ele>
        <time>2018-08-25T18:36:16Z</time>
      </trkpt>
      <trkpt lat="44.51937" lon="0.68411">
        <ele>161.5</ele>
        <time>2018-08-25T18:36:17Z</time>
      </trkpt>
      <trkpt lat="44.51938" lon="0.68407">
        <ele>161.4</ele>
        <time>2018-08-25T18:36:18Z</time>
      </trkpt>
      <trkpt lat="44.51939" lon="0.68403">
        <ele>161.3</ele>
        <time>2018-08-25T18:36:20Z</time>
      </trkpt>
      <trkpt lat="44.51942" lon="0.68397">
        <ele>161.2</ele>
        <time>2018-08-25T18:36:23Z</time>
      </trkpt>
      <trkpt lat="44.51944" lon="0.68392">
        <ele>161.1</ele>
        <time>2018-08-25T18:36:24Z</time>
      </trkpt>
      <trkpt lat="44.51945" lon="0.68387">
        <ele>161.5</ele>
        <time>2018-08-25T18:36:25Z</time>
      </trkpt>
      <trkpt lat="44.51939" lon="0.68381">
        <ele>161.9</ele>
        <time>2018-08-25T18:36:26Z</time>
      </trkpt>
      <trkpt lat="44.51936" lon="0.68374">
        <ele>162.2</ele>
        <time>2018-08-25T18:36:27Z</time>
      </trkpt>
      <trkpt lat="44.51934" lon="0.68364">
        <ele>162.9</ele>
        <time>2018-08-25T18:36:28Z</time>
      </trkpt>
      <trkpt lat="44.51933" lon="0.68353">
        <ele>164</ele>
        <time>2018-08-25T18:36:29Z</time>
      </trkpt>
      <trkpt lat="44.51934" lon="0.68342">
        <ele>165.5</ele>
        <time>2018-08-25T18:36:30Z</time>
      </trkpt>
      <trkpt lat="44.51934" lon="0.68335">
        <ele>165.9</ele>
        <time>2018-08-25T18:36:31Z</time>
      </trkpt>
      <trkpt lat="44.51933" lon="0.68329">
        <ele>166.6</ele>
        <time>2018-08-25T18:36:32Z</time>
      </trkpt>
      <trkpt lat="44.51934" lon="0.68323">
        <ele>167</ele>
        <time>2018-08-25T18:36:33Z</time>
      </trkpt>
      <trkpt lat="44.51934" lon="0.68319">
        <ele>167.8</ele>
        <time>2018-08-25T18:36:34Z</time>
      </trkpt>
      <trkpt lat="44.51936" lon="0.68314">
        <ele>168.3</ele>
        <time>2018-08-25T18:36:35Z</time>
      </trkpt>
      <trkpt lat="44.51938" lon="0.68309">
        <ele>169.1</ele>
        <time>2018-08-25T18:36:36Z</time>
      </trkpt>
      <trkpt lat="44.51941" lon="0.68301">
        <ele>170.6</ele>
        <time>2018-08-25T18:36:37Z</time>
      </trkpt>
      <trkpt lat="44.51943" lon="0.68293">
        <ele>171.9</ele>
        <time>2018-08-25T18:36:38Z</time>
      </trkpt>
      <trkpt lat="44.51943" lon="0.68288">
        <ele>172.7</ele>
        <time>2018-08-25T18:36:39Z</time>
      </trkpt>
      <trkpt lat="44.51944" lon="0.68284">
        <ele>173.4</ele>
        <time>2018-08-25T18:36:40Z</time>
      </trkpt>
      <trkpt lat="44.51947" lon="0.68284">
        <ele>173.6</ele>
        <time>2018-08-25T18:36:42Z</time>
      </trkpt>
      <trkpt lat="44.51949" lon="0.68285">
        <ele>173.8</ele>
        <time>2018-08-25T18:37:19Z</time>
      </trkpt>
      <trkpt lat="44.51947" lon="0.68288">
        <ele>173.2</ele>
        <time>2018-08-25T18:37:21Z</time>
      </trkpt>
      <trkpt lat="44.51944" lon="0.68282">
        <ele>174.2</ele>
        <time>2018-08-25T18:37:23Z</time>
      </trkpt>
      <trkpt lat="44.51943" lon="0.68276">
        <ele>174.6</ele>
        <time>2018-08-25T18:37:24Z</time>
      </trkpt>
      <trkpt lat="44.51943" lon="0.68271">
        <ele>175.4</ele>
        <time>2018-08-25T18:37:25Z</time>
      </trkpt>
      <trkpt lat="44.51942" lon="0.68265">
        <ele>176.3</ele>
        <time>2018-08-25T18:37:26Z</time>
      </trkpt>
      <trkpt lat="44.51941" lon="0.68259">
        <ele>176.9</ele>
        <time>2018-08-25T18:37:27Z</time>
      </trkpt>
      <trkpt lat="44.51939" lon="0.6825">
        <ele>177.7</ele>
        <time>2018-08-25T18:37:28Z</time>
      </trkpt>
      <trkpt lat="44.51939" lon="0.68243">
        <ele>178.6</ele>
        <time>2018-08-25T18:37:29Z</time>
      </trkpt>
      <trkpt lat="44.51938" lon="0.68231">
        <ele>179.7</ele>
        <time>2018-08-25T18:37:30Z</time>
      </trkpt>
      <trkpt lat="44.51938" lon="0.68222">
        <ele>180.4</ele>
        <time>2018-08-25T18:37:31Z</time>
      </trkpt>
      <trkpt lat="44.5194" lon="0.68211">
        <ele>181.6</ele>
        <time>2018-08-25T18:37:32Z</time>
      </trkpt>
      <trkpt lat="44.51942" lon="0.68198">
        <ele>182.5</ele>
        <time>2018-08-25T18:37:33Z</time>
      </trkpt>
      <trkpt lat="44.51943" lon="0.68186">
        <ele>183.5</ele>
        <time>2018-08-25T18:37:34Z</time>
      </trkpt>
      <trkpt lat="44.51945" lon="0.68175">
        <ele>183.9</ele>
        <time>2018-08-25T18:37:35Z</time>
      </trkpt>
      <trkpt lat="44.51947" lon="0.68165">
        <ele>184.5</ele>
        <time>2018-08-25T18:37:36Z</time>
      </trkpt>
      <trkpt lat="44.51948" lon="0.68154">
        <ele>184.6</ele>
        <time>2018-08-25T18:37:37Z</time>
      </trkpt>
      <trkpt lat="44.5195" lon="0.68143">
        <ele>185</ele>
        <time>2018-08-25T18:37:38Z</time>
      </trkpt>
      <trkpt lat="44.51952" lon="0.68134">
        <ele>184.9</ele>
        <time>2018-08-25T18:37:39Z</time>
      </trkpt>
      <trkpt lat="44.51953" lon="0.68123">
        <ele>185</ele>
        <time>2018-08-25T18:37:40Z</time>
      </trkpt>
      <trkpt lat="44.51955" lon="0.68114">
        <ele>185.1</ele>
        <time>2018-08-25T18:37:41Z</time>
      </trkpt>
      <trkpt lat="44.51958" lon="0.68103">
        <ele>184.8</ele>
        <time>2018-08-25T18:37:42Z</time>
      </trkpt>
      <trkpt lat="44.5196" lon="0.68095">
        <ele>184.8</ele>
        <time>2018-08-25T18:37:43Z</time>
      </trkpt>
      <trkpt lat="44.51962" lon="0.68089">
        <ele>184.7</ele>
        <time>2018-08-25T18:37:44Z</time>
      </trkpt>
      <trkpt lat="44.51963" lon="0.68081">
        <ele>184.6</ele>
        <time>2018-08-25T18:37:45Z</time>
      </trkpt>
      <trkpt lat="44.51966" lon="0.68073">
        <ele>184.4</ele>
        <time>2018-08-25T18:37:46Z</time>
      </trkpt>
      <trkpt lat="44.51968" lon="0.68064">
        <ele>184.2</ele>
        <time>2018-08-25T18:37:47Z</time>
      </trkpt>
      <trkpt lat="44.51971" lon="0.68056">
        <ele>183.9</ele>
        <time>2018-08-25T18:37:48Z</time>
      </trkpt>
      <trkpt lat="44.51973" lon="0.68046">
        <ele>183.3</ele>
        <time>2018-08-25T18:37:49Z</time>
      </trkpt>
      <trkpt lat="44.51975" lon="0.68037">
        <ele>183</ele>
        <time>2018-08-25T18:37:50Z</time>
      </trkpt>
      <trkpt lat="44.51978" lon="0.68027">
        <ele>182.7</ele>
        <time>2018-08-25T18:37:51Z</time>
      </trkpt>
      <trkpt lat="44.51979" lon="0.68016">
        <ele>182</ele>
        <time>2018-08-25T18:37:52Z</time>
      </trkpt>
      <trkpt lat="44.51981" lon="0.68004">
        <ele>181.7</ele>
        <time>2018-08-25T18:37:53Z</time>
      </trkpt>
      <trkpt lat="44.51984" lon="0.67993">
        <ele>181.2</ele>
        <time>2018-08-25T18:37:54Z</time>
      </trkpt>
      <trkpt lat="44.51986" lon="0.67981">
        <ele>180.6</ele>
        <time>2018-08-25T18:37:55Z</time>
      </trkpt>
      <trkpt lat="44.51988" lon="0.6797">
        <ele>180.2</ele>
        <time>2018-08-25T18:37:56Z</time>
      </trkpt>
      <trkpt lat="44.51991" lon="0.6796">
        <ele>179.7</ele>
        <time>2018-08-25T18:37:57Z</time>
      </trkpt>
      <trkpt lat="44.51994" lon="0.67951">
        <ele>179.4</ele>
        <time>2018-08-25T18:37:58Z</time>
      </trkpt>
      <trkpt lat="44.51998" lon="0.67942">
        <ele>179.1</ele>
        <time>2018-08-25T18:37:59Z</time>
      </trkpt>
      <trkpt lat="44.52" lon="0.67933">
        <ele>178.8</ele>
        <time>2018-08-25T18:38:00Z</time>
      </trkpt>
      <trkpt lat="44.52002" lon="0.67926">
        <ele>178.5</ele>
        <time>2018-08-25T18:38:01Z</time>
      </trkpt>
      <trkpt lat="44.52005" lon="0.67918">
        <ele>178.4</ele>
        <time>2018-08-25T18:38:02Z</time>
      </trkpt>
      <trkpt lat="44.52007" lon="0.6791">
        <ele>177.9</ele>
        <time>2018-08-25T18:38:03Z</time>
      </trkpt>
      <trkpt lat="44.52011" lon="0.67902">
        <ele>177.5</ele>
        <time>2018-08-25T18:38:04Z</time>
      </trkpt>
      <trkpt lat="44.52016" lon="0.67893">
        <ele>177</ele>
        <time>2018-08-25T18:38:05Z</time>
      </trkpt>
      <trkpt lat="44.5202" lon="0.67882">
        <ele>176.2</ele>
        <time>2018-08-25T18:38:06Z</time>
      </trkpt>
      <trkpt lat="44.52023" lon="0.67872">
        <ele>175.7</ele>
        <time>2018-08-25T18:38:07Z</time>
      </trkpt>
      <trkpt lat="44.52026" lon="0.6786">
        <ele>174.8</ele>
        <time>2018-08-25T18:38:08Z</time>
      </trkpt>
      <trkpt lat="44.52028" lon="0.67847">
        <ele>174</ele>
        <time>2018-08-25T18:38:09Z</time>
      </trkpt>
      <trkpt lat="44.5203" lon="0.67832">
        <ele>173.3</ele>
        <time>2018-08-25T18:38:10Z</time>
      </trkpt>
      <trkpt lat="44.52033" lon="0.67817">
        <ele>172.4</ele>
        <time>2018-08-25T18:38:11Z</time>
      </trkpt>
      <trkpt lat="44.52036" lon="0.67801">
        <ele>171.6</ele>
        <time>2018-08-25T18:38:12Z</time>
      </trkpt>
      <trkpt lat="44.52038" lon="0.67787">
        <ele>171.2</ele>
        <time>2018-08-25T18:38:13Z</time>
      </trkpt>
      <trkpt lat="44.52039" lon="0.67774">
        <ele>171.4</ele>
        <time>2018-08-25T18:38:14Z</time>
      </trkpt>
      <trkpt lat="44.5204" lon="0.67763">
        <ele>171.6</ele>
        <time>2018-08-25T18:38:15Z</time>
      </trkpt>
      <trkpt lat="44.52041" lon="0.67755">
        <ele>171.7</ele>
        <time>2018-08-25T18:38:16Z</time>
      </trkpt>
      <trkpt lat="44.52041" lon="0.67749">
        <ele>171.9</ele>
        <time>2018-08-25T18:38:17Z</time>
      </trkpt>
      <trkpt lat="44.52041" lon="0.67742">
        <ele>172</ele>
        <time>2018-08-25T18:38:18Z</time>
      </trkpt>
      <trkpt lat="44.52042" lon="0.67734">
        <ele>172.2</ele>
        <time>2018-08-25T18:38:19Z</time>
      </trkpt>
      <trkpt lat="44.52042" lon="0.67722">
        <ele>172.5</ele>
        <time>2018-08-25T18:38:20Z</time>
      </trkpt>
      <trkpt lat="44.52043" lon="0.67708">
        <ele>172.8</ele>
        <time>2018-08-25T18:38:21Z</time>
      </trkpt>
      <trkpt lat="44.52043" lon="0.67697">
        <ele>173.9</ele>
        <time>2018-08-25T18:38:22Z</time>
      </trkpt>
      <trkpt lat="44.52043" lon="0.67687">
        <ele>174.8</ele>
        <time>2018-08-25T18:38:23Z</time>
      </trkpt>
      <trkpt lat="44.52044" lon="0.6768">
        <ele>175.4</ele>
        <time>2018-08-25T18:38:24Z</time>
      </trkpt>
      <trkpt lat="44.52044" lon="0.67673">
        <ele>176.4</ele>
        <time>2018-08-25T18:38:25Z</time>
      </trkpt>
      <trkpt lat="44.52044" lon="0.67666">
        <ele>176.8</ele>
        <time>2018-08-25T18:38:26Z</time>
      </trkpt>
      <trkpt lat="44.52044" lon="0.67658">
        <ele>177.8</ele>
        <time>2018-08-25T18:38:27Z</time>
      </trkpt>
      <trkpt lat="44.52044" lon="0.6765">
        <ele>178.7</ele>
        <time>2018-08-25T18:38:28Z</time>
      </trkpt>
      <trkpt lat="44.52044" lon="0.67645">
        <ele>179.2</ele>
        <time>2018-08-25T18:38:29Z</time>
      </trkpt>
      <trkpt lat="44.52045" lon="0.6764">
        <ele>179.7</ele>
        <time>2018-08-25T18:38:30Z</time>
      </trkpt>
      <trkpt lat="44.52046" lon="0.67634">
        <ele>180.8</ele>
        <time>2018-08-25T18:38:31Z</time>
      </trkpt>
      <trkpt lat="44.52049" lon="0.6763">
        <ele>180.9</ele>
        <time>2018-08-25T18:38:32Z</time>
      </trkpt>
      <trkpt lat="44.5205" lon="0.67624">
        <ele>181.4</ele>
        <time>2018-08-25T18:38:34Z</time>
      </trkpt>
      <trkpt lat="44.52049" lon="0.67619">
        <ele>181.9</ele>
        <time>2018-08-25T18:38:35Z</time>
      </trkpt>
      <trkpt lat="44.52046" lon="0.67615">
        <ele>182.7</ele>
        <time>2018-08-25T18:38:36Z</time>
      </trkpt>
      <trkpt lat="44.52042" lon="0.67614">
        <ele>183</ele>
        <time>2018-08-25T18:38:37Z</time>
      </trkpt>
      <trkpt lat="44.52037" lon="0.67614">
        <ele>183.6</ele>
        <time>2018-08-25T18:38:38Z</time>
      </trkpt>
      <trkpt lat="44.52027" lon="0.67607">
        <ele>185.6</ele>
        <time>2018-08-25T18:38:39Z</time>
      </trkpt>
      <trkpt lat="44.52017" lon="0.67601">
        <ele>187</ele>
        <time>2018-08-25T18:38:40Z</time>
      </trkpt>
      <trkpt lat="44.52008" lon="0.67594">
        <ele>188.8</ele>
        <time>2018-08-25T18:38:41Z</time>
      </trkpt>
      <trkpt lat="44.51999" lon="0.67587">
        <ele>190.9</ele>
        <time>2018-08-25T18:38:42Z</time>
      </trkpt>
      <trkpt lat="44.5199" lon="0.67578">
        <ele>192.8</ele>
        <time>2018-08-25T18:38:43Z</time>
      </trkpt>
      <trkpt lat="44.51981" lon="0.67569">
        <ele>194.6</ele>
        <time>2018-08-25T18:38:44Z</time>
      </trkpt>
      <trkpt lat="44.51972" lon="0.6756">
        <ele>196.5</ele>
        <time>2018-08-25T18:38:45Z</time>
      </trkpt>
      <trkpt lat="44.51962" lon="0.67555">
        <ele>197.6</ele>
        <time>2018-08-25T18:38:46Z</time>
      </trkpt>
      <trkpt lat="44.51956" lon="0.67554">
        <ele>198</ele>
        <time>2018-08-25T18:38:47Z</time>
      </trkpt>
      <trkpt lat="44.51947" lon="0.67554">
        <ele>198.7</ele>
        <time>2018-08-25T18:38:48Z</time>
      </trkpt>
      <trkpt lat="44.51943" lon="0.67554">
        <ele>198.9</ele>
        <time>2018-08-25T18:38:49Z</time>
      </trkpt>
      <trkpt lat="44.51942" lon="0.6755">
        <ele>199.6</ele>
        <time>2018-08-25T18:38:50Z</time>
      </trkpt>
      <trkpt lat="44.51939" lon="0.67546">
        <ele>200.3</ele>
        <time>2018-08-25T18:38:51Z</time>
      </trkpt>
      <trkpt lat="44.51939" lon="0.67534">
        <ele>201.7</ele>
        <time>2018-08-25T18:38:52Z</time>
      </trkpt>
      <trkpt lat="44.51938" lon="0.67522">
        <ele>203</ele>
        <time>2018-08-25T18:38:53Z</time>
      </trkpt>
      <trkpt lat="44.51937" lon="0.67509">
        <ele>204</ele>
        <time>2018-08-25T18:38:54Z</time>
      </trkpt>
      <trkpt lat="44.51935" lon="0.67495">
        <ele>205.4</ele>
        <time>2018-08-25T18:38:55Z</time>
      </trkpt>
      <trkpt lat="44.51932" lon="0.67479">
        <ele>206.9</ele>
        <time>2018-08-25T18:38:56Z</time>
      </trkpt>
      <trkpt lat="44.5193" lon="0.67465">
        <ele>207.6</ele>
        <time>2018-08-25T18:38:57Z</time>
      </trkpt>
      <trkpt lat="44.51927" lon="0.67453">
        <ele>208.1</ele>
        <time>2018-08-25T18:38:58Z</time>
      </trkpt>
      <trkpt lat="44.51923" lon="0.6744">
        <ele>208.5</ele>
        <time>2018-08-25T18:38:59Z</time>
      </trkpt>
      <trkpt lat="44.5192" lon="0.67428">
        <ele>208.7</ele>
        <time>2018-08-25T18:39:00Z</time>
      </trkpt>
      <trkpt lat="44.51917" lon="0.67415">
        <ele>208.7</ele>
        <time>2018-08-25T18:39:01Z</time>
      </trkpt>
      <trkpt lat="44.51914" lon="0.67403">
        <ele>208.6</ele>
        <time>2018-08-25T18:39:02Z</time>
      </trkpt>
      <trkpt lat="44.5191" lon="0.67391">
        <ele>208.6</ele>
        <time>2018-08-25T18:39:03Z</time>
      </trkpt>
      <trkpt lat="44.51905" lon="0.67378">
        <ele>208.4</ele>
        <time>2018-08-25T18:39:04Z</time>
      </trkpt>
      <trkpt lat="44.51898" lon="0.67366">
        <ele>208.1</ele>
        <time>2018-08-25T18:39:05Z</time>
      </trkpt>
      <trkpt lat="44.51891" lon="0.67353">
        <ele>207.9</ele>
        <time>2018-08-25T18:39:06Z</time>
      </trkpt>
      <trkpt lat="44.51884" lon="0.67339">
        <ele>207.9</ele>
        <time>2018-08-25T18:39:07Z</time>
      </trkpt>
      <trkpt lat="44.51878" lon="0.67327">
        <ele>208.1</ele>
        <time>2018-08-25T18:39:08Z</time>
      </trkpt>
      <trkpt lat="44.51871" lon="0.67314">
        <ele>208.2</ele>
        <time>2018-08-25T18:39:09Z</time>
      </trkpt>
      <trkpt lat="44.51865" lon="0.67302">
        <ele>208.1</ele>
        <time>2018-08-25T18:39:10Z</time>
      </trkpt>
      <trkpt lat="44.51859" lon="0.67289">
        <ele>208</ele>
        <time>2018-08-25T18:39:11Z</time>
      </trkpt>
      <trkpt lat="44.51853" lon="0.67278">
        <ele>207.8</ele>
        <time>2018-08-25T18:39:12Z</time>
      </trkpt>
      <trkpt lat="44.51847" lon="0.67267">
        <ele>207.6</ele>
        <time>2018-08-25T18:39:13Z</time>
      </trkpt>
      <trkpt lat="44.51839" lon="0.67259">
        <ele>207.4</ele>
        <time>2018-08-25T18:39:14Z</time>
      </trkpt>
      <trkpt lat="44.51829" lon="0.67252">
        <ele>207.2</ele>
        <time>2018-08-25T18:39:15Z</time>
      </trkpt>
      <trkpt lat="44.51818" lon="0.67246">
        <ele>207.1</ele>
        <time>2018-08-25T18:39:16Z</time>
      </trkpt>
      <trkpt lat="44.51806" lon="0.67238">
        <ele>207.1</ele>
        <time>2018-08-25T18:39:17Z</time>
      </trkpt>
      <trkpt lat="44.51795" lon="0.67232">
        <ele>207.2</ele>
        <time>2018-08-25T18:39:18Z</time>
      </trkpt>
      <trkpt lat="44.51786" lon="0.67227">
        <ele>207.3</ele>
        <time>2018-08-25T18:39:19Z</time>
      </trkpt>
      <trkpt lat="44.51777" lon="0.6722">
        <ele>207.5</ele>
        <time>2018-08-25T18:39:20Z</time>
      </trkpt>
      <trkpt lat="44.51769" lon="0.67215">
        <ele>207.5</ele>
        <time>2018-08-25T18:39:21Z</time>
      </trkpt>
      <trkpt lat="44.5176" lon="0.6721">
        <ele>207.6</ele>
        <time>2018-08-25T18:39:22Z</time>
      </trkpt>
      <trkpt lat="44.51751" lon="0.67204">
        <ele>207.7</ele>
        <time>2018-08-25T18:39:23Z</time>
      </trkpt>
      <trkpt lat="44.51743" lon="0.67199">
        <ele>207.7</ele>
        <time>2018-08-25T18:39:24Z</time>
      </trkpt>
      <trkpt lat="44.51736" lon="0.67195">
        <ele>207.6</ele>
        <time>2018-08-25T18:39:25Z</time>
      </trkpt>
      <trkpt lat="44.51728" lon="0.67191">
        <ele>207.6</ele>
        <time>2018-08-25T18:39:26Z</time>
      </trkpt>
      <trkpt lat="44.51721" lon="0.67186">
        <ele>207.5</ele>
        <time>2018-08-25T18:39:27Z</time>
      </trkpt>
      <trkpt lat="44.51715" lon="0.67181">
        <ele>207.6</ele>
        <time>2018-08-25T18:39:28Z</time>
      </trkpt>
      <trkpt lat="44.51707" lon="0.67176">
        <ele>207.7</ele>
        <time>2018-08-25T18:39:29Z</time>
      </trkpt>
      <trkpt lat="44.517" lon="0.67171">
        <ele>207.9</ele>
        <time>2018-08-25T18:39:30Z</time>
      </trkpt>
      <trkpt lat="44.51694" lon="0.67166">
        <ele>208</ele>
        <time>2018-08-25T18:39:31Z</time>
      </trkpt>
      <trkpt lat="44.51687" lon="0.67159">
        <ele>208</ele>
        <time>2018-08-25T18:39:32Z</time>
      </trkpt>
      <trkpt lat="44.51681" lon="0.67152">
        <ele>208</ele>
        <time>2018-08-25T18:39:33Z</time>
      </trkpt>
      <trkpt lat="44.51674" lon="0.67142">
        <ele>207.6</ele>
        <time>2018-08-25T18:39:34Z</time>
      </trkpt>
      <trkpt lat="44.51667" lon="0.67132">
        <ele>206.7</ele>
        <time>2018-08-25T18:39:35Z</time>
      </trkpt>
      <trkpt lat="44.51659" lon="0.67119">
        <ele>205.8</ele>
        <time>2018-08-25T18:39:36Z</time>
      </trkpt>
      <trkpt lat="44.51653" lon="0.671">
        <ele>204.5</ele>
        <time>2018-08-25T18:39:37Z</time>
      </trkpt>
      <trkpt lat="44.51646" lon="0.67083">
        <ele>203</ele>
        <time>2018-08-25T18:39:38Z</time>
      </trkpt>
      <trkpt lat="44.5164" lon="0.67063">
        <ele>201.2</ele>
        <time>2018-08-25T18:39:39Z</time>
      </trkpt>
      <trkpt lat="44.51633" lon="0.67044">
        <ele>200.2</ele>
        <time>2018-08-25T18:39:40Z</time>
      </trkpt>
      <trkpt lat="44.51626" lon="0.67025">
        <ele>199.4</ele>
        <time>2018-08-25T18:39:41Z</time>
      </trkpt>
      <trkpt lat="44.5162" lon="0.67007">
        <ele>198.8</ele>
        <time>2018-08-25T18:39:42Z</time>
      </trkpt>
      <trkpt lat="44.51614" lon="0.66993">
        <ele>198.3</ele>
        <time>2018-08-25T18:39:43Z</time>
      </trkpt>
      <trkpt lat="44.51609" lon="0.6698">
        <ele>198.5</ele>
        <time>2018-08-25T18:39:44Z</time>
      </trkpt>
      <trkpt lat="44.51606" lon="0.6697">
        <ele>198.7</ele>
        <time>2018-08-25T18:39:45Z</time>
      </trkpt>
      <trkpt lat="44.51603" lon="0.66962">
        <ele>198.8</ele>
        <time>2018-08-25T18:39:46Z</time>
      </trkpt>
      <trkpt lat="44.51601" lon="0.66955">
        <ele>199</ele>
        <time>2018-08-25T18:39:47Z</time>
      </trkpt>
      <trkpt lat="44.51599" lon="0.66947">
        <ele>199.1</ele>
        <time>2018-08-25T18:39:48Z</time>
      </trkpt>
      <trkpt lat="44.51599" lon="0.66936">
        <ele>199.3</ele>
        <time>2018-08-25T18:39:49Z</time>
      </trkpt>
      <trkpt lat="44.516" lon="0.66924">
        <ele>199.4</ele>
        <time>2018-08-25T18:39:50Z</time>
      </trkpt>
      <trkpt lat="44.51601" lon="0.66912">
        <ele>199.6</ele>
        <time>2018-08-25T18:39:51Z</time>
      </trkpt>
      <trkpt lat="44.51605" lon="0.66893">
        <ele>199.8</ele>
        <time>2018-08-25T18:39:52Z</time>
      </trkpt>
      <trkpt lat="44.51607" lon="0.66875">
        <ele>200</ele>
        <time>2018-08-25T18:39:53Z</time>
      </trkpt>
      <trkpt lat="44.51607" lon="0.66854">
        <ele>200.3</ele>
        <time>2018-08-25T18:39:54Z</time>
      </trkpt>
      <trkpt lat="44.51607" lon="0.66832">
        <ele>200.6</ele>
        <time>2018-08-25T18:39:55Z</time>
      </trkpt>
      <trkpt lat="44.51604" lon="0.66812">
        <ele>200.9</ele>
        <time>2018-08-25T18:39:56Z</time>
      </trkpt>
      <trkpt lat="44.51599" lon="0.66793">
        <ele>201.2</ele>
        <time>2018-08-25T18:39:57Z</time>
      </trkpt>
      <trkpt lat="44.51593" lon="0.66775">
        <ele>201.5</ele>
        <time>2018-08-25T18:39:58Z</time>
      </trkpt>
      <trkpt lat="44.51585" lon="0.66758">
        <ele>201.9</ele>
        <time>2018-08-25T18:39:59Z</time>
      </trkpt>
      <trkpt lat="44.51576" lon="0.66744">
        <ele>202.2</ele>
        <time>2018-08-25T18:40:00Z</time>
      </trkpt>
      <trkpt lat="44.51565" lon="0.66731">
        <ele>202.6</ele>
        <time>2018-08-25T18:40:01Z</time>
      </trkpt>
      <trkpt lat="44.51554" lon="0.6672">
        <ele>202.9</ele>
        <time>2018-08-25T18:40:02Z</time>
      </trkpt>
      <trkpt lat="44.51542" lon="0.6671">
        <ele>203.5</ele>
        <time>2018-08-25T18:40:03Z</time>
      </trkpt>
      <trkpt lat="44.5153" lon="0.66702">
        <ele>204</ele>
        <time>2018-08-25T18:40:04Z</time>
      </trkpt>
      <trkpt lat="44.51511" lon="0.667">
        <ele>204.7</ele>
        <time>2018-08-25T18:40:05Z</time>
      </trkpt>
      <trkpt lat="44.51495" lon="0.66692">
        <ele>205.3</ele>
        <time>2018-08-25T18:40:06Z</time>
      </trkpt>
      <trkpt lat="44.51479" lon="0.66686">
        <ele>205.9</ele>
        <time>2018-08-25T18:40:07Z</time>
      </trkpt>
      <trkpt lat="44.51464" lon="0.66679">
        <ele>206.5</ele>
        <time>2018-08-25T18:40:08Z</time>
      </trkpt>
      <trkpt lat="44.5145" lon="0.66675">
        <ele>207</ele>
        <time>2018-08-25T18:40:09Z</time>
      </trkpt>
      <trkpt lat="44.51438" lon="0.66669">
        <ele>207.5</ele>
        <time>2018-08-25T18:40:10Z</time>
      </trkpt>
      <trkpt lat="44.51428" lon="0.66663">
        <ele>207.8</ele>
        <time>2018-08-25T18:40:11Z</time>
      </trkpt>
      <trkpt lat="44.51419" lon="0.66659">
        <ele>208.1</ele>
        <time>2018-08-25T18:40:12Z</time>
      </trkpt>
      <trkpt lat="44.5141" lon="0.66655">
        <ele>208.3</ele>
        <time>2018-08-25T18:40:13Z</time>
      </trkpt>
      <trkpt lat="44.51403" lon="0.66651">
        <ele>208.4</ele>
        <time>2018-08-25T18:40:14Z</time>
      </trkpt>
      <trkpt lat="44.51399" lon="0.66648">
        <ele>208.5</ele>
        <time>2018-08-25T18:40:15Z</time>
      </trkpt>
      <trkpt lat="44.51396" lon="0.66646">
        <ele>208.5</ele>
        <time>2018-08-25T18:40:16Z</time>
      </trkpt>
      <trkpt lat="44.51397" lon="0.66643">
        <ele>208.6</ele>
        <time>2018-08-25T18:40:22Z</time>
      </trkpt>
      <trkpt lat="44.51394" lon="0.66639">
        <ele>208.6</ele>
        <time>2018-08-25T18:40:26Z</time>
      </trkpt>
      <trkpt lat="44.51392" lon="0.66637">
        <ele>208.7</ele>
        <time>2018-08-25T18:40:36Z</time>
      </trkpt>
      <trkpt lat="44.51393" lon="0.66622">
        <ele>208</ele>
        <time>2018-08-25T18:42:16Z</time>
      </trkpt>
      <trkpt lat="44.51392" lon="0.66617">
        <ele>207.5</ele>
        <time>2018-08-25T18:42:17Z</time>
      </trkpt>
      <trkpt lat="44.51392" lon="0.66612">
        <ele>207.3</ele>
        <time>2018-08-25T18:42:18Z</time>
      </trkpt>
      <trkpt lat="44.51392" lon="0.66606">
        <ele>207.1</ele>
        <time>2018-08-25T18:42:19Z</time>
      </trkpt>
      <trkpt lat="44.51393" lon="0.66602">
        <ele>206.8</ele>
        <time>2018-08-25T18:42:20Z</time>
      </trkpt>
      <trkpt lat="44.51393" lon="0.66596">
        <ele>206.5</ele>
        <time>2018-08-25T18:42:22Z</time>
      </trkpt>
      <trkpt lat="44.51393" lon="0.6659">
        <ele>205.5</ele>
        <time>2018-08-25T18:42:24Z</time>
      </trkpt>
      <trkpt lat="44.51395" lon="0.66585">
        <ele>205.1</ele>
        <time>2018-08-25T18:42:26Z</time>
      </trkpt>
      <trkpt lat="44.51396" lon="0.66578">
        <ele>204.2</ele>
        <time>2018-08-25T18:42:28Z</time>
      </trkpt>
      <trkpt lat="44.51396" lon="0.66571">
        <ele>203.8</ele>
        <time>2018-08-25T18:42:30Z</time>
      </trkpt>
      <trkpt lat="44.51395" lon="0.66567">
        <ele>203.3</ele>
        <time>2018-08-25T18:42:31Z</time>
      </trkpt>
      <trkpt lat="44.51393" lon="0.66563">
        <ele>202.9</ele>
        <time>2018-08-25T18:42:32Z</time>
      </trkpt>
      <trkpt lat="44.5139" lon="0.66559">
        <ele>202.5</ele>
        <time>2018-08-25T18:42:33Z</time>
      </trkpt>
      <trkpt lat="44.51388" lon="0.66556">
        <ele>202.1</ele>
        <time>2018-08-25T18:42:34Z</time>
      </trkpt>
      <trkpt lat="44.51385" lon="0.66551">
        <ele>201.7</ele>
        <time>2018-08-25T18:42:36Z</time>
      </trkpt>
      <trkpt lat="44.51383" lon="0.66545">
        <ele>200.4</ele>
        <time>2018-08-25T18:42:38Z</time>
      </trkpt>
      <trkpt lat="44.51382" lon="0.66539">
        <ele>200</ele>
        <time>2018-08-25T18:42:40Z</time>
      </trkpt>
      <trkpt lat="44.51382" lon="0.66535">
        <ele>199.4</ele>
        <time>2018-08-25T18:42:41Z</time>
      </trkpt>
      <trkpt lat="44.51383" lon="0.6653">
        <ele>198.8</ele>
        <time>2018-08-25T18:42:43Z</time>
      </trkpt>
      <trkpt lat="44.51385" lon="0.66526">
        <ele>198.3</ele>
        <time>2018-08-25T18:42:45Z</time>
      </trkpt>
      <trkpt lat="44.51385" lon="0.66521">
        <ele>197.8</ele>
        <time>2018-08-25T18:42:47Z</time>
      </trkpt>
      <trkpt lat="44.51384" lon="0.66517">
        <ele>197.3</ele>
        <time>2018-08-25T18:42:49Z</time>
      </trkpt>
      <trkpt lat="44.51381" lon="0.66514">
        <ele>196.8</ele>
        <time>2018-08-25T18:42:51Z</time>
      </trkpt>
      <trkpt lat="44.51378" lon="0.66511">
        <ele>197</ele>
        <time>2018-08-25T18:42:53Z</time>
      </trkpt>
      <trkpt lat="44.51375" lon="0.66509">
        <ele>196.5</ele>
        <time>2018-08-25T18:42:55Z</time>
      </trkpt>
      <trkpt lat="44.51372" lon="0.66509">
        <ele>196.8</ele>
        <time>2018-08-25T18:42:57Z</time>
      </trkpt>
      <trkpt lat="44.51369" lon="0.66508">
        <ele>197.1</ele>
        <time>2018-08-25T18:42:59Z</time>
      </trkpt>
      <trkpt lat="44.51366" lon="0.66505">
        <ele>196.7</ele>
        <time>2018-08-25T18:43:01Z</time>
      </trkpt>
      <trkpt lat="44.51362" lon="0.66503">
        <ele>197.1</ele>
        <time>2018-08-25T18:43:03Z</time>
      </trkpt>
      <trkpt lat="44.51358" lon="0.66499">
        <ele>197</ele>
        <time>2018-08-25T18:43:05Z</time>
      </trkpt>
      <trkpt lat="44.51356" lon="0.66497">
        <ele>196.5</ele>
        <time>2018-08-25T18:43:06Z</time>
      </trkpt>
      <trkpt lat="44.51351" lon="0.66493">
        <ele>196.5</ele>
        <time>2018-08-25T18:43:08Z</time>
      </trkpt>
      <trkpt lat="44.51347" lon="0.6649">
        <ele>196.9</ele>
        <time>2018-08-25T18:43:09Z</time>
      </trkpt>
      <trkpt lat="44.51345" lon="0.66486">
        <ele>196.8</ele>
        <time>2018-08-25T18:43:10Z</time>
      </trkpt>
      <trkpt lat="44.51342" lon="0.66483">
        <ele>196.6</ele>
        <time>2018-08-25T18:43:11Z</time>
      </trkpt>
      <trkpt lat="44.51339" lon="0.66477">
        <ele>196.5</ele>
        <time>2018-08-25T18:43:13Z</time>
      </trkpt>
      <trkpt lat="44.51336" lon="0.66473">
        <ele>196.4</ele>
        <time>2018-08-25T18:43:15Z</time>
      </trkpt>
      <trkpt lat="44.51333" lon="0.6647">
        <ele>196.3</ele>
        <time>2018-08-25T18:43:17Z</time>
      </trkpt>
      <trkpt lat="44.5133" lon="0.66465">
        <ele>196.3</ele>
        <time>2018-08-25T18:43:19Z</time>
      </trkpt>
      <trkpt lat="44.51328" lon="0.66462">
        <ele>196.3</ele>
        <time>2018-08-25T18:43:20Z</time>
      </trkpt>
      <trkpt lat="44.51326" lon="0.66457">
        <ele>195.9</ele>
        <time>2018-08-25T18:43:21Z</time>
      </trkpt>
      <trkpt lat="44.51324" lon="0.66453">
        <ele>195.9</ele>
        <time>2018-08-25T18:43:22Z</time>
      </trkpt>
      <trkpt lat="44.51322" lon="0.66449">
        <ele>196</ele>
        <time>2018-08-25T18:43:23Z</time>
      </trkpt>
      <trkpt lat="44.5132" lon="0.66445">
        <ele>195.7</ele>
        <time>2018-08-25T18:43:24Z</time>
      </trkpt>
      <trkpt lat="44.51317" lon="0.66442">
        <ele>196.1</ele>
        <time>2018-08-25T18:43:25Z</time>
      </trkpt>
      <trkpt lat="44.51315" lon="0.66439">
        <ele>196.2</ele>
        <time>2018-08-25T18:43:26Z</time>
      </trkpt>
      <trkpt lat="44.51313" lon="0.66436">
        <ele>196</ele>
        <time>2018-08-25T18:43:27Z</time>
      </trkpt>
      <trkpt lat="44.51312" lon="0.66432">
        <ele>196.1</ele>
        <time>2018-08-25T18:43:28Z</time>
      </trkpt>
      <trkpt lat="44.5131" lon="0.66428">
        <ele>195.9</ele>
        <time>2018-08-25T18:43:29Z</time>
      </trkpt>
      <trkpt lat="44.51309" lon="0.66424">
        <ele>196</ele>
        <time>2018-08-25T18:43:30Z</time>
      </trkpt>
      <trkpt lat="44.51307" lon="0.66419">
        <ele>195.7</ele>
        <time>2018-08-25T18:43:31Z</time>
      </trkpt>
      <trkpt lat="44.51304" lon="0.66415">
        <ele>195.9</ele>
        <time>2018-08-25T18:43:32Z</time>
      </trkpt>
      <trkpt lat="44.51302" lon="0.66411">
        <ele>196.1</ele>
        <time>2018-08-25T18:43:33Z</time>
      </trkpt>
      <trkpt lat="44.513" lon="0.66407">
        <ele>196.4</ele>
        <time>2018-08-25T18:43:34Z</time>
      </trkpt>
      <trkpt lat="44.51299" lon="0.66404">
        <ele>196.6</ele>
        <time>2018-08-25T18:43:35Z</time>
      </trkpt>
      <trkpt lat="44.51297" lon="0.664">
        <ele>196.9</ele>
        <time>2018-08-25T18:43:37Z</time>
      </trkpt>
      <trkpt lat="44.51294" lon="0.66396">
        <ele>197.2</ele>
        <time>2018-08-25T18:43:40Z</time>
      </trkpt>
      <trkpt lat="44.51292" lon="0.66392">
        <ele>197</ele>
        <time>2018-08-25T18:43:42Z</time>
      </trkpt>
      <trkpt lat="44.5129" lon="0.66388">
        <ele>197.4</ele>
        <time>2018-08-25T18:43:45Z</time>
      </trkpt>
      <trkpt lat="44.51289" lon="0.66383">
        <ele>197.2</ele>
        <time>2018-08-25T18:43:47Z</time>
      </trkpt>
      <trkpt lat="44.51286" lon="0.66378">
        <ele>197.5</ele>
        <time>2018-08-25T18:43:49Z</time>
      </trkpt>
      <trkpt lat="44.51284" lon="0.66372">
        <ele>197.5</ele>
        <time>2018-08-25T18:43:51Z</time>
      </trkpt>
      <trkpt lat="44.51283" lon="0.66366">
        <ele>197.3</ele>
        <time>2018-08-25T18:43:53Z</time>
      </trkpt>
      <trkpt lat="44.51283" lon="0.66362">
        <ele>197.1</ele>
        <time>2018-08-25T18:43:54Z</time>
      </trkpt>
      <trkpt lat="44.51284" lon="0.66356">
        <ele>196.9</ele>
        <time>2018-08-25T18:43:56Z</time>
      </trkpt>
      <trkpt lat="44.51283" lon="0.66352">
        <ele>196.7</ele>
        <time>2018-08-25T18:43:58Z</time>
      </trkpt>
      <trkpt lat="44.51279" lon="0.66344">
        <ele>197</ele>
        <time>2018-08-25T18:44:07Z</time>
      </trkpt>
      <trkpt lat="44.51277" lon="0.66339">
        <ele>197.6</ele>
        <time>2018-08-25T18:44:09Z</time>
      </trkpt>
      <trkpt lat="44.51275" lon="0.66332">
        <ele>197.9</ele>
        <time>2018-08-25T18:44:11Z</time>
      </trkpt>
      <trkpt lat="44.51274" lon="0.66328">
        <ele>197.8</ele>
        <time>2018-08-25T18:44:12Z</time>
      </trkpt>
      <trkpt lat="44.51273" lon="0.6632">
        <ele>198.2</ele>
        <time>2018-08-25T18:44:14Z</time>
      </trkpt>
      <trkpt lat="44.51271" lon="0.66315">
        <ele>198.1</ele>
        <time>2018-08-25T18:44:15Z</time>
      </trkpt>
      <trkpt lat="44.51269" lon="0.66311">
        <ele>198.7</ele>
        <time>2018-08-25T18:44:16Z</time>
      </trkpt>
      <trkpt lat="44.51266" lon="0.66307">
        <ele>199.3</ele>
        <time>2018-08-25T18:44:17Z</time>
      </trkpt>
      <trkpt lat="44.51262" lon="0.66301">
        <ele>199.9</ele>
        <time>2018-08-25T18:44:18Z</time>
      </trkpt>
      <trkpt lat="44.5126" lon="0.66294">
        <ele>200.4</ele>
        <time>2018-08-25T18:44:19Z</time>
      </trkpt>
      <trkpt lat="44.51258" lon="0.66287">
        <ele>200.1</ele>
        <time>2018-08-25T18:44:20Z</time>
      </trkpt>
      <trkpt lat="44.51258" lon="0.6628">
        <ele>200</ele>
        <time>2018-08-25T18:44:21Z</time>
      </trkpt>
      <trkpt lat="44.51258" lon="0.66274">
        <ele>199.9</ele>
        <time>2018-08-25T18:44:22Z</time>
      </trkpt>
      <trkpt lat="44.51258" lon="0.66269">
        <ele>199.6</ele>
        <time>2018-08-25T18:44:23Z</time>
      </trkpt>
      <trkpt lat="44.51258" lon="0.66261">
        <ele>199.4</ele>
        <time>2018-08-25T18:44:24Z</time>
      </trkpt>
      <trkpt lat="44.51258" lon="0.66253">
        <ele>199.3</ele>
        <time>2018-08-25T18:44:25Z</time>
      </trkpt>
      <trkpt lat="44.5126" lon="0.66246">
        <ele>199.1</ele>
        <time>2018-08-25T18:44:26Z</time>
      </trkpt>
      <trkpt lat="44.51261" lon="0.66238">
        <ele>198.2</ele>
        <time>2018-08-25T18:44:27Z</time>
      </trkpt>
      <trkpt lat="44.51262" lon="0.66231">
        <ele>197.9</ele>
        <time>2018-08-25T18:44:28Z</time>
      </trkpt>
      <trkpt lat="44.51261" lon="0.66223">
        <ele>197.7</ele>
        <time>2018-08-25T18:44:29Z</time>
      </trkpt>
      <trkpt lat="44.5126" lon="0.66217">
        <ele>197.7</ele>
        <time>2018-08-25T18:44:30Z</time>
      </trkpt>
      <trkpt lat="44.51259" lon="0.66212">
        <ele>197.6</ele>
        <time>2018-08-25T18:44:31Z</time>
      </trkpt>
      <trkpt lat="44.51258" lon="0.66206">
        <ele>197.4</ele>
        <time>2018-08-25T18:44:32Z</time>
      </trkpt>
      <trkpt lat="44.51258" lon="0.66199">
        <ele>197</ele>
        <time>2018-08-25T18:44:33Z</time>
      </trkpt>
      <trkpt lat="44.51259" lon="0.66193">
        <ele>196.8</ele>
        <time>2018-08-25T18:44:34Z</time>
      </trkpt>
      <trkpt lat="44.51259" lon="0.66188">
        <ele>196.7</ele>
        <time>2018-08-25T18:44:35Z</time>
      </trkpt>
      <trkpt lat="44.5126" lon="0.66184">
        <ele>196.5</ele>
        <time>2018-08-25T18:44:36Z</time>
      </trkpt>
      <trkpt lat="44.51261" lon="0.6618">
        <ele>195.7</ele>
        <time>2018-08-25T18:44:37Z</time>
      </trkpt>
      <trkpt lat="44.51262" lon="0.66173">
        <ele>195.6</ele>
        <time>2018-08-25T18:44:38Z</time>
      </trkpt>
      <trkpt lat="44.51263" lon="0.66166">
        <ele>195.2</ele>
        <time>2018-08-25T18:44:39Z</time>
      </trkpt>
      <trkpt lat="44.51264" lon="0.66158">
        <ele>194.7</ele>
        <time>2018-08-25T18:44:40Z</time>
      </trkpt>
      <trkpt lat="44.51264" lon="0.66154">
        <ele>194.3</ele>
        <time>2018-08-25T18:44:41Z</time>
      </trkpt>
      <trkpt lat="44.51266" lon="0.66148">
        <ele>194.1</ele>
        <time>2018-08-25T18:44:43Z</time>
      </trkpt>
      <trkpt lat="44.51268" lon="0.66143">
        <ele>193.7</ele>
        <time>2018-08-25T18:44:45Z</time>
      </trkpt>
      <trkpt lat="44.5127" lon="0.66139">
        <ele>193.5</ele>
        <time>2018-08-25T18:44:46Z</time>
      </trkpt>
      <trkpt lat="44.5127" lon="0.66135">
        <ele>193</ele>
        <time>2018-08-25T18:44:47Z</time>
      </trkpt>
      <trkpt lat="44.5127" lon="0.6613">
        <ele>192.9</ele>
        <time>2018-08-25T18:44:48Z</time>
      </trkpt>
      <trkpt lat="44.51268" lon="0.66124">
        <ele>192.6</ele>
        <time>2018-08-25T18:44:49Z</time>
      </trkpt>
      <trkpt lat="44.51264" lon="0.6612">
        <ele>192.5</ele>
        <time>2018-08-25T18:44:50Z</time>
      </trkpt>
      <trkpt lat="44.51258" lon="0.66116">
        <ele>193</ele>
        <time>2018-08-25T18:44:51Z</time>
      </trkpt>
      <trkpt lat="44.5125" lon="0.66114">
        <ele>193.1</ele>
        <time>2018-08-25T18:44:52Z</time>
      </trkpt>
      <trkpt lat="44.51241" lon="0.66114">
        <ele>193.7</ele>
        <time>2018-08-25T18:44:53Z</time>
      </trkpt>
      <trkpt lat="44.51232" lon="0.66116">
        <ele>194.7</ele>
        <time>2018-08-25T18:44:54Z</time>
      </trkpt>
      <trkpt lat="44.51221" lon="0.6612">
        <ele>195.8</ele>
        <time>2018-08-25T18:44:55Z</time>
      </trkpt>
      <trkpt lat="44.51204" lon="0.66131">
        <ele>197.9</ele>
        <time>2018-08-25T18:44:56Z</time>
      </trkpt>
      <trkpt lat="44.51192" lon="0.66136">
        <ele>199.5</ele>
        <time>2018-08-25T18:44:57Z</time>
      </trkpt>
      <trkpt lat="44.5118" lon="0.66141">
        <ele>201.1</ele>
        <time>2018-08-25T18:44:58Z</time>
      </trkpt>
      <trkpt lat="44.51167" lon="0.66139">
        <ele>202.5</ele>
        <time>2018-08-25T18:44:59Z</time>
      </trkpt>
      <trkpt lat="44.51155" lon="0.66137">
        <ele>204</ele>
        <time>2018-08-25T18:45:00Z</time>
      </trkpt>
      <trkpt lat="44.51146" lon="0.66139">
        <ele>204</ele>
        <time>2018-08-25T18:45:01Z</time>
      </trkpt>
      <trkpt lat="44.51135" lon="0.66141">
        <ele>203.9</ele>
        <time>2018-08-25T18:45:02Z</time>
      </trkpt>
      <trkpt lat="44.51128" lon="0.66138">
        <ele>203.8</ele>
        <time>2018-08-25T18:45:03Z</time>
      </trkpt>
      <trkpt lat="44.51122" lon="0.66138">
        <ele>204</ele>
        <time>2018-08-25T18:45:04Z</time>
      </trkpt>
      <trkpt lat="44.51122" lon="0.66133">
        <ele>204.1</ele>
        <time>2018-08-25T18:45:05Z</time>
      </trkpt>
      <trkpt lat="44.51119" lon="0.66132">
        <ele>204.1</ele>
        <time>2018-08-25T18:45:06Z</time>
      </trkpt>
      <trkpt lat="44.51118" lon="0.66127">
        <ele>204.2</ele>
        <time>2018-08-25T18:45:08Z</time>
      </trkpt>
      <trkpt lat="44.5112" lon="0.66123">
        <ele>203.8</ele>
        <time>2018-08-25T18:45:18Z</time>
      </trkpt>
      <trkpt lat="44.5112" lon="0.66119">
        <ele>203</ele>
        <time>2018-08-25T18:45:20Z</time>
      </trkpt>
      <trkpt lat="44.51122" lon="0.66112">
        <ele>202.6</ele>
        <time>2018-08-25T18:45:22Z</time>
      </trkpt>
      <trkpt lat="44.51123" lon="0.66108">
        <ele>202.2</ele>
        <time>2018-08-25T18:45:23Z</time>
      </trkpt>
      <trkpt lat="44.51123" lon="0.66104">
        <ele>201.3</ele>
        <time>2018-08-25T18:45:24Z</time>
      </trkpt>
      <trkpt lat="44.51123" lon="0.66098">
        <ele>200.4</ele>
        <time>2018-08-25T18:45:26Z</time>
      </trkpt>
      <trkpt lat="44.51123" lon="0.66094">
        <ele>200.4</ele>
        <time>2018-08-25T18:45:28Z</time>
      </trkpt>
      <trkpt lat="44.51122" lon="0.66089">
        <ele>200</ele>
        <time>2018-08-25T18:45:30Z</time>
      </trkpt>
      <trkpt lat="44.51122" lon="0.66083">
        <ele>199.7</ele>
        <time>2018-08-25T18:45:32Z</time>
      </trkpt>
      <trkpt lat="44.51122" lon="0.66078">
        <ele>199.3</ele>
        <time>2018-08-25T18:45:34Z</time>
      </trkpt>
      <trkpt lat="44.51119" lon="0.66075">
        <ele>199.4</ele>
        <time>2018-08-25T18:45:51Z</time>
      </trkpt>
      <trkpt lat="44.51118" lon="0.66069">
        <ele>199.1</ele>
        <time>2018-08-25T18:45:53Z</time>
      </trkpt>
      <trkpt lat="44.51119" lon="0.66061">
        <ele>198.6</ele>
        <time>2018-08-25T18:45:55Z</time>
      </trkpt>
      <trkpt lat="44.51119" lon="0.66058">
        <ele>198.3</ele>
        <time>2018-08-25T18:45:56Z</time>
      </trkpt>
      <trkpt lat="44.51119" lon="0.66054">
        <ele>198</ele>
        <time>2018-08-25T18:45:57Z</time>
      </trkpt>
      <trkpt lat="44.51118" lon="0.66047">
        <ele>197.5</ele>
        <time>2018-08-25T18:45:59Z</time>
      </trkpt>
      <trkpt lat="44.51115" lon="0.66043">
        <ele>198.1</ele>
        <time>2018-08-25T18:46:00Z</time>
      </trkpt>
      <trkpt lat="44.51114" lon="0.6604">
        <ele>197.8</ele>
        <time>2018-08-25T18:46:01Z</time>
      </trkpt>
      <trkpt lat="44.51112" lon="0.66033">
        <ele>198</ele>
        <time>2018-08-25T18:46:03Z</time>
      </trkpt>
      <trkpt lat="44.51111" lon="0.66029">
        <ele>197.8</ele>
        <time>2018-08-25T18:46:04Z</time>
      </trkpt>
      <trkpt lat="44.51111" lon="0.66024">
        <ele>197.6</ele>
        <time>2018-08-25T18:46:05Z</time>
      </trkpt>
      <trkpt lat="44.51111" lon="0.66018">
        <ele>197.4</ele>
        <time>2018-08-25T18:46:06Z</time>
      </trkpt>
      <trkpt lat="44.51112" lon="0.66014">
        <ele>197.3</ele>
        <time>2018-08-25T18:46:07Z</time>
      </trkpt>
      <trkpt lat="44.51112" lon="0.66007">
        <ele>197</ele>
        <time>2018-08-25T18:46:09Z</time>
      </trkpt>
      <trkpt lat="44.51112" lon="0.66002">
        <ele>196.9</ele>
        <time>2018-08-25T18:46:10Z</time>
      </trkpt>
      <trkpt lat="44.51111" lon="0.65998">
        <ele>196.8</ele>
        <time>2018-08-25T18:46:11Z</time>
      </trkpt>
      <trkpt lat="44.51111" lon="0.65994">
        <ele>196.7</ele>
        <time>2018-08-25T18:46:12Z</time>
      </trkpt>
      <trkpt lat="44.51111" lon="0.6599">
        <ele>196.6</ele>
        <time>2018-08-25T18:46:13Z</time>
      </trkpt>
      <trkpt lat="44.51112" lon="0.65985">
        <ele>196.4</ele>
        <time>2018-08-25T18:46:14Z</time>
      </trkpt>
      <trkpt lat="44.51113" lon="0.6598">
        <ele>196.3</ele>
        <time>2018-08-25T18:46:15Z</time>
      </trkpt>
      <trkpt lat="44.51113" lon="0.65976">
        <ele>196.1</ele>
        <time>2018-08-25T18:46:16Z</time>
      </trkpt>
      <trkpt lat="44.51114" lon="0.65972">
        <ele>195</ele>
        <time>2018-08-25T18:46:17Z</time>
      </trkpt>
      <trkpt lat="44.51114" lon="0.65968">
        <ele>194.8</ele>
        <time>2018-08-25T18:46:18Z</time>
      </trkpt>
      <trkpt lat="44.51114" lon="0.65963">
        <ele>194.5</ele>
        <time>2018-08-25T18:46:19Z</time>
      </trkpt>
      <trkpt lat="44.51113" lon="0.65957">
        <ele>195</ele>
        <time>2018-08-25T18:46:20Z</time>
      </trkpt>
      <trkpt lat="44.51113" lon="0.65949">
        <ele>194.5</ele>
        <time>2018-08-25T18:46:21Z</time>
      </trkpt>
      <trkpt lat="44.51112" lon="0.6594">
        <ele>194</ele>
        <time>2018-08-25T18:46:22Z</time>
      </trkpt>
      <trkpt lat="44.51111" lon="0.65931">
        <ele>193.5</ele>
        <time>2018-08-25T18:46:23Z</time>
      </trkpt>
      <trkpt lat="44.51109" lon="0.6592">
        <ele>193.5</ele>
        <time>2018-08-25T18:46:24Z</time>
      </trkpt>
      <trkpt lat="44.51108" lon="0.65912">
        <ele>192.7</ele>
        <time>2018-08-25T18:46:25Z</time>
      </trkpt>
      <trkpt lat="44.51107" lon="0.65905">
        <ele>193</ele>
        <time>2018-08-25T18:46:26Z</time>
      </trkpt>
      <trkpt lat="44.51105" lon="0.65899">
        <ele>192.7</ele>
        <time>2018-08-25T18:46:27Z</time>
      </trkpt>
      <trkpt lat="44.51105" lon="0.65894">
        <ele>192.5</ele>
        <time>2018-08-25T18:46:28Z</time>
      </trkpt>
      <trkpt lat="44.51103" lon="0.65889">
        <ele>193.1</ele>
        <time>2018-08-25T18:46:29Z</time>
      </trkpt>
      <trkpt lat="44.51102" lon="0.65881">
        <ele>192.6</ele>
        <time>2018-08-25T18:46:30Z</time>
      </trkpt>
      <trkpt lat="44.51102" lon="0.65862">
        <ele>191.5</ele>
        <time>2018-08-25T18:46:31Z</time>
      </trkpt>
      <trkpt lat="44.511" lon="0.65854">
        <ele>191.9</ele>
        <time>2018-08-25T18:46:32Z</time>
      </trkpt>
      <trkpt lat="44.511" lon="0.65849">
        <ele>191.7</ele>
        <time>2018-08-25T18:46:33Z</time>
      </trkpt>
      <trkpt lat="44.511" lon="0.65844">
        <ele>191.5</ele>
        <time>2018-08-25T18:46:34Z</time>
      </trkpt>
      <trkpt lat="44.51102" lon="0.65837">
        <ele>190.4</ele>
        <time>2018-08-25T18:46:36Z</time>
      </trkpt>
      <trkpt lat="44.51103" lon="0.65833">
        <ele>190.2</ele>
        <time>2018-08-25T18:46:37Z</time>
      </trkpt>
      <trkpt lat="44.51103" lon="0.65829">
        <ele>189.9</ele>
        <time>2018-08-25T18:46:38Z</time>
      </trkpt>
      <trkpt lat="44.51102" lon="0.65822">
        <ele>189.5</ele>
        <time>2018-08-25T18:46:39Z</time>
      </trkpt>
      <trkpt lat="44.511" lon="0.65818">
        <ele>190.1</ele>
        <time>2018-08-25T18:46:40Z</time>
      </trkpt>
      <trkpt lat="44.51098" lon="0.65815">
        <ele>189.9</ele>
        <time>2018-08-25T18:46:41Z</time>
      </trkpt>
      <trkpt lat="44.51096" lon="0.6581">
        <ele>190.6</ele>
        <time>2018-08-25T18:46:42Z</time>
      </trkpt>
      <trkpt lat="44.51093" lon="0.65804">
        <ele>191.2</ele>
        <time>2018-08-25T18:46:43Z</time>
      </trkpt>
      <trkpt lat="44.51091" lon="0.65798">
        <ele>192</ele>
        <time>2018-08-25T18:46:44Z</time>
      </trkpt>
      <trkpt lat="44.51089" lon="0.65792">
        <ele>191.7</ele>
        <time>2018-08-25T18:46:45Z</time>
      </trkpt>
      <trkpt lat="44.51088" lon="0.65788">
        <ele>192.6</ele>
        <time>2018-08-25T18:46:46Z</time>
      </trkpt>
      <trkpt lat="44.51088" lon="0.65784">
        <ele>192.4</ele>
        <time>2018-08-25T18:46:47Z</time>
      </trkpt>
      <trkpt lat="44.51088" lon="0.65778">
        <ele>192.3</ele>
        <time>2018-08-25T18:46:48Z</time>
      </trkpt>
      <trkpt lat="44.51089" lon="0.65772">
        <ele>192.2</ele>
        <time>2018-08-25T18:46:49Z</time>
      </trkpt>
      <trkpt lat="44.51089" lon="0.65767">
        <ele>191.2</ele>
        <time>2018-08-25T18:46:50Z</time>
      </trkpt>
      <trkpt lat="44.51089" lon="0.65759">
        <ele>192.2</ele>
        <time>2018-08-25T18:46:51Z</time>
      </trkpt>
      <trkpt lat="44.51087" lon="0.65752">
        <ele>192.2</ele>
        <time>2018-08-25T18:46:52Z</time>
      </trkpt>
      <trkpt lat="44.51085" lon="0.65745">
        <ele>193.4</ele>
        <time>2018-08-25T18:46:53Z</time>
      </trkpt>
      <trkpt lat="44.51083" lon="0.65739">
        <ele>193.5</ele>
        <time>2018-08-25T18:46:54Z</time>
      </trkpt>
      <trkpt lat="44.51081" lon="0.65732">
        <ele>194.6</ele>
        <time>2018-08-25T18:46:55Z</time>
      </trkpt>
      <trkpt lat="44.51078" lon="0.65726">
        <ele>195.7</ele>
        <time>2018-08-25T18:46:56Z</time>
      </trkpt>
      <trkpt lat="44.51077" lon="0.6572">
        <ele>195.7</ele>
        <time>2018-08-25T18:46:57Z</time>
      </trkpt>
      <trkpt lat="44.51077" lon="0.65714">
        <ele>196.6</ele>
        <time>2018-08-25T18:46:58Z</time>
      </trkpt>
      <trkpt lat="44.51077" lon="0.65707">
        <ele>195.7</ele>
        <time>2018-08-25T18:46:59Z</time>
      </trkpt>
      <trkpt lat="44.51079" lon="0.65702">
        <ele>195.7</ele>
        <time>2018-08-25T18:47:00Z</time>
      </trkpt>
      <trkpt lat="44.51081" lon="0.65696">
        <ele>194.7</ele>
        <time>2018-08-25T18:47:01Z</time>
      </trkpt>
      <trkpt lat="44.51084" lon="0.65689">
        <ele>193.7</ele>
        <time>2018-08-25T18:47:02Z</time>
      </trkpt>
      <trkpt lat="44.51087" lon="0.65682">
        <ele>192.7</ele>
        <time>2018-08-25T18:47:03Z</time>
      </trkpt>
      <trkpt lat="44.51089" lon="0.65676">
        <ele>192.7</ele>
        <time>2018-08-25T18:47:04Z</time>
      </trkpt>
      <trkpt lat="44.51091" lon="0.6567">
        <ele>191.8</ele>
        <time>2018-08-25T18:47:05Z</time>
      </trkpt>
      <trkpt lat="44.51092" lon="0.65665">
        <ele>190.9</ele>
        <time>2018-08-25T18:47:06Z</time>
      </trkpt>
      <trkpt lat="44.51094" lon="0.6566">
        <ele>190.9</ele>
        <time>2018-08-25T18:47:07Z</time>
      </trkpt>
      <trkpt lat="44.51095" lon="0.65655">
        <ele>190.9</ele>
        <time>2018-08-25T18:47:08Z</time>
      </trkpt>
      <trkpt lat="44.51096" lon="0.6565">
        <ele>190.2</ele>
        <time>2018-08-25T18:47:09Z</time>
      </trkpt>
      <trkpt lat="44.51099" lon="0.65645">
        <ele>189.5</ele>
        <time>2018-08-25T18:47:11Z</time>
      </trkpt>
      <trkpt lat="44.51102" lon="0.65641">
        <ele>188.9</ele>
        <time>2018-08-25T18:47:13Z</time>
      </trkpt>
      <trkpt lat="44.51106" lon="0.65637">
        <ele>188.2</ele>
        <time>2018-08-25T18:47:15Z</time>
      </trkpt>
      <trkpt lat="44.51109" lon="0.65632">
        <ele>187.5</ele>
        <time>2018-08-25T18:47:17Z</time>
      </trkpt>
      <trkpt lat="44.5111" lon="0.65628">
        <ele>187.6</ele>
        <time>2018-08-25T18:47:18Z</time>
      </trkpt>
      <trkpt lat="44.51112" lon="0.65623">
        <ele>186.9</ele>
        <time>2018-08-25T18:47:19Z</time>
      </trkpt>
      <trkpt lat="44.51114" lon="0.65618">
        <ele>186.2</ele>
        <time>2018-08-25T18:47:20Z</time>
      </trkpt>
      <trkpt lat="44.51116" lon="0.65613">
        <ele>186.1</ele>
        <time>2018-08-25T18:47:21Z</time>
      </trkpt>
      <trkpt lat="44.51118" lon="0.65607">
        <ele>185.3</ele>
        <time>2018-08-25T18:47:22Z</time>
      </trkpt>
      <trkpt lat="44.51119" lon="0.65601">
        <ele>185.2</ele>
        <time>2018-08-25T18:47:23Z</time>
      </trkpt>
      <trkpt lat="44.51119" lon="0.65595">
        <ele>185</ele>
        <time>2018-08-25T18:47:24Z</time>
      </trkpt>
      <trkpt lat="44.51118" lon="0.65589">
        <ele>184.9</ele>
        <time>2018-08-25T18:47:25Z</time>
      </trkpt>
      <trkpt lat="44.51117" lon="0.65583">
        <ele>184.7</ele>
        <time>2018-08-25T18:47:26Z</time>
      </trkpt>
      <trkpt lat="44.51109" lon="0.65575">
        <ele>187.2</ele>
        <time>2018-08-25T18:47:27Z</time>
      </trkpt>
      <trkpt lat="44.51105" lon="0.65568">
        <ele>187.8</ele>
        <time>2018-08-25T18:47:28Z</time>
      </trkpt>
      <trkpt lat="44.51101" lon="0.65564">
        <ele>189.2</ele>
        <time>2018-08-25T18:47:29Z</time>
      </trkpt>
      <trkpt lat="44.51097" lon="0.65559">
        <ele>189.7</ele>
        <time>2018-08-25T18:47:30Z</time>
      </trkpt>
      <trkpt lat="44.51088" lon="0.65553">
        <ele>191.3</ele>
        <time>2018-08-25T18:47:31Z</time>
      </trkpt>
      <trkpt lat="44.51081" lon="0.65548">
        <ele>192.7</ele>
        <time>2018-08-25T18:47:32Z</time>
      </trkpt>
      <trkpt lat="44.51074" lon="0.65543">
        <ele>194.9</ele>
        <time>2018-08-25T18:47:33Z</time>
      </trkpt>
      <trkpt lat="44.51067" lon="0.65539">
        <ele>196.3</ele>
        <time>2018-08-25T18:47:34Z</time>
      </trkpt>
      <trkpt lat="44.51062" lon="0.65533">
        <ele>197</ele>
        <time>2018-08-25T18:47:35Z</time>
      </trkpt>
      <trkpt lat="44.51059" lon="0.65529">
        <ele>197.7</ele>
        <time>2018-08-25T18:47:36Z</time>
      </trkpt>
      <trkpt lat="44.51054" lon="0.65522">
        <ele>199.2</ele>
        <time>2018-08-25T18:47:37Z</time>
      </trkpt>
      <trkpt lat="44.51049" lon="0.65515">
        <ele>200.7</ele>
        <time>2018-08-25T18:47:38Z</time>
      </trkpt>
      <trkpt lat="44.51044" lon="0.65506">
        <ele>200.9</ele>
        <time>2018-08-25T18:47:39Z</time>
      </trkpt>
      <trkpt lat="44.51043" lon="0.65501">
        <ele>201.5</ele>
        <time>2018-08-25T18:47:40Z</time>
      </trkpt>
      <trkpt lat="44.5104" lon="0.65496">
        <ele>201.3</ele>
        <time>2018-08-25T18:47:41Z</time>
      </trkpt>
      <trkpt lat="44.51038" lon="0.65491">
        <ele>201.9</ele>
        <time>2018-08-25T18:47:42Z</time>
      </trkpt>
      <trkpt lat="44.51037" lon="0.65485">
        <ele>202.6</ele>
        <time>2018-08-25T18:47:43Z</time>
      </trkpt>
      <trkpt lat="44.51036" lon="0.65479">
        <ele>202.2</ele>
        <time>2018-08-25T18:47:44Z</time>
      </trkpt>
      <trkpt lat="44.51035" lon="0.65473">
        <ele>202</ele>
        <time>2018-08-25T18:47:45Z</time>
      </trkpt>
      <trkpt lat="44.51034" lon="0.65463">
        <ele>201.4</ele>
        <time>2018-08-25T18:47:46Z</time>
      </trkpt>
      <trkpt lat="44.51031" lon="0.65455">
        <ele>203</ele>
        <time>2018-08-25T18:47:47Z</time>
      </trkpt>
      <trkpt lat="44.51028" lon="0.65444">
        <ele>202.3</ele>
        <time>2018-08-25T18:47:48Z</time>
      </trkpt>
      <trkpt lat="44.51026" lon="0.65436">
        <ele>202.7</ele>
        <time>2018-08-25T18:47:49Z</time>
      </trkpt>
      <trkpt lat="44.51021" lon="0.65426">
        <ele>204</ele>
        <time>2018-08-25T18:47:50Z</time>
      </trkpt>
      <trkpt lat="44.51018" lon="0.65421">
        <ele>204.7</ele>
        <time>2018-08-25T18:47:51Z</time>
      </trkpt>
      <trkpt lat="44.51018" lon="0.65416">
        <ele>204.6</ele>
        <time>2018-08-25T18:47:52Z</time>
      </trkpt>
      <trkpt lat="44.51017" lon="0.65405">
        <ele>204.6</ele>
        <time>2018-08-25T18:47:53Z</time>
      </trkpt>
      <trkpt lat="44.51017" lon="0.65398">
        <ele>204.7</ele>
        <time>2018-08-25T18:47:54Z</time>
      </trkpt>
      <trkpt lat="44.51018" lon="0.65389">
        <ele>204.6</ele>
        <time>2018-08-25T18:47:55Z</time>
      </trkpt>
      <trkpt lat="44.51018" lon="0.65383">
        <ele>204.6</ele>
        <time>2018-08-25T18:47:56Z</time>
      </trkpt>
      <trkpt lat="44.5102" lon="0.65374">
        <ele>203.6</ele>
        <time>2018-08-25T18:47:57Z</time>
      </trkpt>
      <trkpt lat="44.51021" lon="0.65365">
        <ele>203.5</ele>
        <time>2018-08-25T18:47:58Z</time>
      </trkpt>
      <trkpt lat="44.51022" lon="0.65358">
        <ele>202.4</ele>
        <time>2018-08-25T18:47:59Z</time>
      </trkpt>
      <trkpt lat="44.51022" lon="0.65352">
        <ele>202.3</ele>
        <time>2018-08-25T18:48:00Z</time>
      </trkpt>
      <trkpt lat="44.51023" lon="0.65347">
        <ele>202.1</ele>
        <time>2018-08-25T18:48:01Z</time>
      </trkpt>
      <trkpt lat="44.51023" lon="0.65342">
        <ele>202</ele>
        <time>2018-08-25T18:48:02Z</time>
      </trkpt>
      <trkpt lat="44.5102" lon="0.65338">
        <ele>202.8</ele>
        <time>2018-08-25T18:48:03Z</time>
      </trkpt>
      <trkpt lat="44.51019" lon="0.65332">
        <ele>202.7</ele>
        <time>2018-08-25T18:48:04Z</time>
      </trkpt>
      <trkpt lat="44.51018" lon="0.65327">
        <ele>203.6</ele>
        <time>2018-08-25T18:48:05Z</time>
      </trkpt>
      <trkpt lat="44.51016" lon="0.65321">
        <ele>203.4</ele>
        <time>2018-08-25T18:48:06Z</time>
      </trkpt>
      <trkpt lat="44.51016" lon="0.65314">
        <ele>203.4</ele>
        <time>2018-08-25T18:48:07Z</time>
      </trkpt>
      <trkpt lat="44.51013" lon="0.65311">
        <ele>204.2</ele>
        <time>2018-08-25T18:48:08Z</time>
      </trkpt>
      <trkpt lat="44.51012" lon="0.65307">
        <ele>205</ele>
        <time>2018-08-25T18:48:09Z</time>
      </trkpt>
      <trkpt lat="44.5101" lon="0.65304">
        <ele>205</ele>
        <time>2018-08-25T18:48:11Z</time>
      </trkpt>
      <trkpt lat="44.51008" lon="0.65307">
        <ele>205.9</ele>
        <time>2018-08-25T18:48:17Z</time>
      </trkpt>
      <trkpt lat="44.51023" lon="0.6531">
        <ele>201.5</ele>
        <time>2018-08-25T18:54:32Z</time>
      </trkpt>
      <trkpt lat="44.51024" lon="0.65306">
        <ele>201.4</ele>
        <time>2018-08-25T18:54:34Z</time>
      </trkpt>
      <trkpt lat="44.51025" lon="0.65301">
        <ele>200.4</ele>
        <time>2018-08-25T18:54:36Z</time>
      </trkpt>
      <trkpt lat="44.51025" lon="0.65297">
        <ele>200.3</ele>
        <time>2018-08-25T18:54:37Z</time>
      </trkpt>
      <trkpt lat="44.51025" lon="0.6529">
        <ele>201.2</ele>
        <time>2018-08-25T18:54:38Z</time>
      </trkpt>
      <trkpt lat="44.51024" lon="0.65281">
        <ele>201</ele>
        <time>2018-08-25T18:54:39Z</time>
      </trkpt>
      <trkpt lat="44.51024" lon="0.65271">
        <ele>200.8</ele>
        <time>2018-08-25T18:54:40Z</time>
      </trkpt>
      <trkpt lat="44.51024" lon="0.6526">
        <ele>200.7</ele>
        <time>2018-08-25T18:54:41Z</time>
      </trkpt>
      <trkpt lat="44.51024" lon="0.65251">
        <ele>200.8</ele>
        <time>2018-08-25T18:54:42Z</time>
      </trkpt>
      <trkpt lat="44.51026" lon="0.65243">
        <ele>199.9</ele>
        <time>2018-08-25T18:54:43Z</time>
      </trkpt>
      <trkpt lat="44.51027" lon="0.65236">
        <ele>200.1</ele>
        <time>2018-08-25T18:54:44Z</time>
      </trkpt>
      <trkpt lat="44.51028" lon="0.65232">
        <ele>199.1</ele>
        <time>2018-08-25T18:54:45Z</time>
      </trkpt>
      <trkpt lat="44.51032" lon="0.65222">
        <ele>198.3</ele>
        <time>2018-08-25T18:54:48Z</time>
      </trkpt>
      <trkpt lat="44.51035" lon="0.65214">
        <ele>197.3</ele>
        <time>2018-08-25T18:55:11Z</time>
      </trkpt>
      <trkpt lat="44.51037" lon="0.65207">
        <ele>196.5</ele>
        <time>2018-08-25T18:55:12Z</time>
      </trkpt>
      <trkpt lat="44.51039" lon="0.65198">
        <ele>196.8</ele>
        <time>2018-08-25T18:55:13Z</time>
      </trkpt>
      <trkpt lat="44.51039" lon="0.65187">
        <ele>197.4</ele>
        <time>2018-08-25T18:55:14Z</time>
      </trkpt>
      <trkpt lat="44.51039" lon="0.65162">
        <ele>198.5</ele>
        <time>2018-08-25T18:55:15Z</time>
      </trkpt>
      <trkpt lat="44.5104" lon="0.6515">
        <ele>198.9</ele>
        <time>2018-08-25T18:55:16Z</time>
      </trkpt>
      <trkpt lat="44.51041" lon="0.65134">
        <ele>198.7</ele>
        <time>2018-08-25T18:55:17Z</time>
      </trkpt>
      <trkpt lat="44.51042" lon="0.65121">
        <ele>199.2</ele>
        <time>2018-08-25T18:55:18Z</time>
      </trkpt>
      <trkpt lat="44.51042" lon="0.65107">
        <ele>199.7</ele>
        <time>2018-08-25T18:55:19Z</time>
      </trkpt>
      <trkpt lat="44.51042" lon="0.65095">
        <ele>200.1</ele>
        <time>2018-08-25T18:55:20Z</time>
      </trkpt>
      <trkpt lat="44.51041" lon="0.65082">
        <ele>200.2</ele>
        <time>2018-08-25T18:55:21Z</time>
      </trkpt>
      <trkpt lat="44.5104" lon="0.65069">
        <ele>200.3</ele>
        <time>2018-08-25T18:55:22Z</time>
      </trkpt>
      <trkpt lat="44.5104" lon="0.65058">
        <ele>201.3</ele>
        <time>2018-08-25T18:55:23Z</time>
      </trkpt>
      <trkpt lat="44.5104" lon="0.65046">
        <ele>201.6</ele>
        <time>2018-08-25T18:55:24Z</time>
      </trkpt>
      <trkpt lat="44.51039" lon="0.65035">
        <ele>201.9</ele>
        <time>2018-08-25T18:55:25Z</time>
      </trkpt>
      <trkpt lat="44.51038" lon="0.65022">
        <ele>202.5</ele>
        <time>2018-08-25T18:55:26Z</time>
      </trkpt>
      <trkpt lat="44.51037" lon="0.6501">
        <ele>203.6</ele>
        <time>2018-08-25T18:55:27Z</time>
      </trkpt>
      <trkpt lat="44.51037" lon="0.64999">
        <ele>203.4</ele>
        <time>2018-08-25T18:55:28Z</time>
      </trkpt>
      <trkpt lat="44.51037" lon="0.64988">
        <ele>204.1</ele>
        <time>2018-08-25T18:55:29Z</time>
      </trkpt>
      <trkpt lat="44.51037" lon="0.64977">
        <ele>203.8</ele>
        <time>2018-08-25T18:55:30Z</time>
      </trkpt>
      <trkpt lat="44.51038" lon="0.64967">
        <ele>204</ele>
        <time>2018-08-25T18:55:31Z</time>
      </trkpt>
      <trkpt lat="44.5104" lon="0.64957">
        <ele>204.2</ele>
        <time>2018-08-25T18:55:32Z</time>
      </trkpt>
      <trkpt lat="44.51045" lon="0.64946">
        <ele>203.8</ele>
        <time>2018-08-25T18:55:33Z</time>
      </trkpt>
      <trkpt lat="44.51049" lon="0.64936">
        <ele>204</ele>
        <time>2018-08-25T18:55:34Z</time>
      </trkpt>
      <trkpt lat="44.51052" lon="0.64926">
        <ele>204.6</ele>
        <time>2018-08-25T18:55:35Z</time>
      </trkpt>
      <trkpt lat="44.51055" lon="0.64916">
        <ele>204.9</ele>
        <time>2018-08-25T18:55:36Z</time>
      </trkpt>
      <trkpt lat="44.51057" lon="0.64904">
        <ele>205.7</ele>
        <time>2018-08-25T18:55:37Z</time>
      </trkpt>
      <trkpt lat="44.5106" lon="0.64892">
        <ele>206.7</ele>
        <time>2018-08-25T18:55:38Z</time>
      </trkpt>
      <trkpt lat="44.51065" lon="0.6488">
        <ele>206.8</ele>
        <time>2018-08-25T18:55:39Z</time>
      </trkpt>
      <trkpt lat="44.5107" lon="0.64867">
        <ele>207.9</ele>
        <time>2018-08-25T18:55:40Z</time>
      </trkpt>
      <trkpt lat="44.51077" lon="0.64857">
        <ele>208.4</ele>
        <time>2018-08-25T18:55:41Z</time>
      </trkpt>
      <trkpt lat="44.51081" lon="0.64848">
        <ele>208.2</ele>
        <time>2018-08-25T18:55:42Z</time>
      </trkpt>
      <trkpt lat="44.51083" lon="0.64841">
        <ele>208</ele>
        <time>2018-08-25T18:55:43Z</time>
      </trkpt>
      <trkpt lat="44.51087" lon="0.64836">
        <ele>208</ele>
        <time>2018-08-25T18:55:44Z</time>
      </trkpt>
      <trkpt lat="44.51089" lon="0.64831">
        <ele>207.7</ele>
        <time>2018-08-25T18:55:45Z</time>
      </trkpt>
      <trkpt lat="44.51095" lon="0.64827">
        <ele>207.4</ele>
        <time>2018-08-25T18:55:46Z</time>
      </trkpt>
      <trkpt lat="44.51098" lon="0.64822">
        <ele>206.6</ele>
        <time>2018-08-25T18:55:47Z</time>
      </trkpt>
      <trkpt lat="44.51102" lon="0.64819">
        <ele>206.5</ele>
        <time>2018-08-25T18:55:48Z</time>
      </trkpt>
      <trkpt lat="44.51104" lon="0.64814">
        <ele>206.8</ele>
        <time>2018-08-25T18:55:49Z</time>
      </trkpt>
      <trkpt lat="44.5111" lon="0.64806">
        <ele>206.4</ele>
        <time>2018-08-25T18:55:50Z</time>
      </trkpt>
      <trkpt lat="44.51115" lon="0.64798">
        <ele>206</ele>
        <time>2018-08-25T18:55:51Z</time>
      </trkpt>
      <trkpt lat="44.51118" lon="0.6479">
        <ele>205.7</ele>
        <time>2018-08-25T18:55:52Z</time>
      </trkpt>
      <trkpt lat="44.51122" lon="0.64781">
        <ele>206</ele>
        <time>2018-08-25T18:55:53Z</time>
      </trkpt>
      <trkpt lat="44.51126" lon="0.64769">
        <ele>205.4</ele>
        <time>2018-08-25T18:55:54Z</time>
      </trkpt>
      <trkpt lat="44.5113" lon="0.6476">
        <ele>205.3</ele>
        <time>2018-08-25T18:55:55Z</time>
      </trkpt>
      <trkpt lat="44.51133" lon="0.64751">
        <ele>205.4</ele>
        <time>2018-08-25T18:55:56Z</time>
      </trkpt>
      <trkpt lat="44.51135" lon="0.64743">
        <ele>206</ele>
        <time>2018-08-25T18:55:57Z</time>
      </trkpt>
      <trkpt lat="44.51138" lon="0.64734">
        <ele>205.2</ele>
        <time>2018-08-25T18:55:58Z</time>
      </trkpt>
      <trkpt lat="44.51141" lon="0.64726">
        <ele>205.7</ele>
        <time>2018-08-25T18:55:59Z</time>
      </trkpt>
      <trkpt lat="44.51143" lon="0.6472">
        <ele>205.4</ele>
        <time>2018-08-25T18:56:00Z</time>
      </trkpt>
      <trkpt lat="44.51143" lon="0.64714">
        <ele>205.6</ele>
        <time>2018-08-25T18:56:01Z</time>
      </trkpt>
      <trkpt lat="44.51147" lon="0.64708">
        <ele>205.1</ele>
        <time>2018-08-25T18:56:02Z</time>
      </trkpt>
      <trkpt lat="44.51149" lon="0.64702">
        <ele>204.7</ele>
        <time>2018-08-25T18:56:03Z</time>
      </trkpt>
      <trkpt lat="44.51151" lon="0.64696">
        <ele>204.1</ele>
        <time>2018-08-25T18:56:04Z</time>
      </trkpt>
      <trkpt lat="44.51154" lon="0.64691">
        <ele>203.6</ele>
        <time>2018-08-25T18:56:05Z</time>
      </trkpt>
      <trkpt lat="44.51156" lon="0.64686">
        <ele>203.8</ele>
        <time>2018-08-25T18:56:06Z</time>
      </trkpt>
      <trkpt lat="44.51158" lon="0.6468">
        <ele>203.3</ele>
        <time>2018-08-25T18:56:07Z</time>
      </trkpt>
      <trkpt lat="44.5116" lon="0.64674">
        <ele>202.8</ele>
        <time>2018-08-25T18:56:08Z</time>
      </trkpt>
      <trkpt lat="44.51162" lon="0.64667">
        <ele>202.9</ele>
        <time>2018-08-25T18:56:09Z</time>
      </trkpt>
      <trkpt lat="44.51161" lon="0.64659">
        <ele>203.1</ele>
        <time>2018-08-25T18:56:10Z</time>
      </trkpt>
      <trkpt lat="44.5116" lon="0.64654">
        <ele>203.1</ele>
        <time>2018-08-25T18:56:11Z</time>
      </trkpt>
      <trkpt lat="44.51162" lon="0.64649">
        <ele>203.1</ele>
        <time>2018-08-25T18:56:12Z</time>
      </trkpt>
      <trkpt lat="44.51163" lon="0.64643">
        <ele>202.4</ele>
        <time>2018-08-25T18:56:13Z</time>
      </trkpt>
      <trkpt lat="44.51163" lon="0.64635">
        <ele>202.3</ele>
        <time>2018-08-25T18:56:14Z</time>
      </trkpt>
      <trkpt lat="44.51163" lon="0.64627">
        <ele>202.2</ele>
        <time>2018-08-25T18:56:15Z</time>
      </trkpt>
      <trkpt lat="44.51166" lon="0.64618">
        <ele>201.2</ele>
        <time>2018-08-25T18:56:16Z</time>
      </trkpt>
      <trkpt lat="44.51168" lon="0.64611">
        <ele>201</ele>
        <time>2018-08-25T18:56:17Z</time>
      </trkpt>
      <trkpt lat="44.5117" lon="0.64603">
        <ele>199.8</ele>
        <time>2018-08-25T18:56:18Z</time>
      </trkpt>
      <trkpt lat="44.51172" lon="0.64598">
        <ele>199.7</ele>
        <time>2018-08-25T18:56:19Z</time>
      </trkpt>
      <trkpt lat="44.51173" lon="0.64592">
        <ele>198.7</ele>
        <time>2018-08-25T18:56:20Z</time>
      </trkpt>
      <trkpt lat="44.51174" lon="0.64587">
        <ele>198.3</ele>
        <time>2018-08-25T18:56:21Z</time>
      </trkpt>
      <trkpt lat="44.51176" lon="0.6458">
        <ele>197.4</ele>
        <time>2018-08-25T18:56:22Z</time>
      </trkpt>
      <trkpt lat="44.51177" lon="0.64574">
        <ele>197.1</ele>
        <time>2018-08-25T18:56:23Z</time>
      </trkpt>
      <trkpt lat="44.51179" lon="0.64568">
        <ele>196.2</ele>
        <time>2018-08-25T18:56:24Z</time>
      </trkpt>
      <trkpt lat="44.51178" lon="0.64561">
        <ele>195.9</ele>
        <time>2018-08-25T18:56:25Z</time>
      </trkpt>
      <trkpt lat="44.51177" lon="0.64552">
        <ele>196.3</ele>
        <time>2018-08-25T18:56:26Z</time>
      </trkpt>
      <trkpt lat="44.51176" lon="0.64543">
        <ele>196</ele>
        <time>2018-08-25T18:56:27Z</time>
      </trkpt>
      <trkpt lat="44.51174" lon="0.64535">
        <ele>196.5</ele>
        <time>2018-08-25T18:56:28Z</time>
      </trkpt>
      <trkpt lat="44.51169" lon="0.64529">
        <ele>197.2</ele>
        <time>2018-08-25T18:56:29Z</time>
      </trkpt>
      <trkpt lat="44.51164" lon="0.64522">
        <ele>198.7</ele>
        <time>2018-08-25T18:56:30Z</time>
      </trkpt>
      <trkpt lat="44.51157" lon="0.64516">
        <ele>200.1</ele>
        <time>2018-08-25T18:56:31Z</time>
      </trkpt>
      <trkpt lat="44.51148" lon="0.6451">
        <ele>202.4</ele>
        <time>2018-08-25T18:56:32Z</time>
      </trkpt>
      <trkpt lat="44.51142" lon="0.64505">
        <ele>203.9</ele>
        <time>2018-08-25T18:56:33Z</time>
      </trkpt>
      <trkpt lat="44.51135" lon="0.645">
        <ele>205.7</ele>
        <time>2018-08-25T18:56:34Z</time>
      </trkpt>
      <trkpt lat="44.51131" lon="0.64496">
        <ele>207.4</ele>
        <time>2018-08-25T18:56:35Z</time>
      </trkpt>
      <trkpt lat="44.51126" lon="0.64489">
        <ele>208</ele>
        <time>2018-08-25T18:56:37Z</time>
      </trkpt>
      <trkpt lat="44.51122" lon="0.64485">
        <ele>209.9</ele>
        <time>2018-08-25T18:56:38Z</time>
      </trkpt>
      <trkpt lat="44.51117" lon="0.64482">
        <ele>210.7</ele>
        <time>2018-08-25T18:56:39Z</time>
      </trkpt>
      <trkpt lat="44.51112" lon="0.64481">
        <ele>212.7</ele>
        <time>2018-08-25T18:56:40Z</time>
      </trkpt>
      <trkpt lat="44.51109" lon="0.64483">
        <ele>213.7</ele>
        <time>2018-08-25T18:56:41Z</time>
      </trkpt>
      <trkpt lat="44.51105" lon="0.64482">
        <ele>214.7</ele>
        <time>2018-08-25T18:56:42Z</time>
      </trkpt>
      <trkpt lat="44.51102" lon="0.64476">
        <ele>215.6</ele>
        <time>2018-08-25T18:56:43Z</time>
      </trkpt>
      <trkpt lat="44.51099" lon="0.64473">
        <ele>216.5</ele>
        <time>2018-08-25T18:56:44Z</time>
      </trkpt>
      <trkpt lat="44.511" lon="0.64469">
        <ele>216.5</ele>
        <time>2018-08-25T18:56:46Z</time>
      </trkpt>
      <trkpt lat="44.51098" lon="0.64462">
        <ele>216.4</ele>
        <time>2018-08-25T18:56:48Z</time>
      </trkpt>
      <trkpt lat="44.51096" lon="0.64459">
        <ele>217.2</ele>
        <time>2018-08-25T18:56:50Z</time>
      </trkpt>
      <trkpt lat="44.51096" lon="0.64455">
        <ele>217.1</ele>
        <time>2018-08-25T18:56:52Z</time>
      </trkpt>
      <trkpt lat="44.51098" lon="0.64449">
        <ele>216.1</ele>
        <time>2018-08-25T18:56:54Z</time>
      </trkpt>
      <trkpt lat="44.51101" lon="0.64444">
        <ele>216</ele>
        <time>2018-08-25T18:56:56Z</time>
      </trkpt>
      <trkpt lat="44.51099" lon="0.64439">
        <ele>215.9</ele>
        <time>2018-08-25T18:57:02Z</time>
      </trkpt>
      <trkpt lat="44.51102" lon="0.64436">
        <ele>215.1</ele>
        <time>2018-08-25T18:57:04Z</time>
      </trkpt>
      <trkpt lat="44.51103" lon="0.64432">
        <ele>215.1</ele>
        <time>2018-08-25T18:57:06Z</time>
      </trkpt>
      <trkpt lat="44.51105" lon="0.64427">
        <ele>214.3</ele>
        <time>2018-08-25T18:57:08Z</time>
      </trkpt>
      <trkpt lat="44.51106" lon="0.64422">
        <ele>214.4</ele>
        <time>2018-08-25T18:57:10Z</time>
      </trkpt>
      <trkpt lat="44.51107" lon="0.64417">
        <ele>214.5</ele>
        <time>2018-08-25T18:57:12Z</time>
      </trkpt>
      <trkpt lat="44.51108" lon="0.64413">
        <ele>213.8</ele>
        <time>2018-08-25T18:57:13Z</time>
      </trkpt>
      <trkpt lat="44.51109" lon="0.64408">
        <ele>213.9</ele>
        <time>2018-08-25T18:57:14Z</time>
      </trkpt>
      <trkpt lat="44.5111" lon="0.64403">
        <ele>214</ele>
        <time>2018-08-25T18:57:15Z</time>
      </trkpt>
      <trkpt lat="44.51111" lon="0.64397">
        <ele>213.5</ele>
        <time>2018-08-25T18:57:16Z</time>
      </trkpt>
      <trkpt lat="44.51113" lon="0.64385">
        <ele>214</ele>
        <time>2018-08-25T18:57:17Z</time>
      </trkpt>
      <trkpt lat="44.51112" lon="0.64376">
        <ele>214.3</ele>
        <time>2018-08-25T18:57:18Z</time>
      </trkpt>
      <trkpt lat="44.51116" lon="0.64368">
        <ele>213.8</ele>
        <time>2018-08-25T18:57:19Z</time>
      </trkpt>
      <trkpt lat="44.51117" lon="0.64361">
        <ele>213.2</ele>
        <time>2018-08-25T18:57:20Z</time>
      </trkpt>
      <trkpt lat="44.51116" lon="0.64358">
        <ele>214.1</ele>
        <time>2018-08-25T18:57:21Z</time>
      </trkpt>
      <trkpt lat="44.51117" lon="0.6435">
        <ele>213.8</ele>
        <time>2018-08-25T18:57:22Z</time>
      </trkpt>
      <trkpt lat="44.51118" lon="0.64343">
        <ele>214.4</ele>
        <time>2018-08-25T18:57:23Z</time>
      </trkpt>
      <trkpt lat="44.51116" lon="0.64333">
        <ele>215.6</ele>
        <time>2018-08-25T18:57:24Z</time>
      </trkpt>
      <trkpt lat="44.51117" lon="0.64327">
        <ele>215.9</ele>
        <time>2018-08-25T18:57:25Z</time>
      </trkpt>
      <trkpt lat="44.51121" lon="0.64321">
        <ele>215.6</ele>
        <time>2018-08-25T18:57:26Z</time>
      </trkpt>
      <trkpt lat="44.51124" lon="0.64316">
        <ele>215.5</ele>
        <time>2018-08-25T18:57:27Z</time>
      </trkpt>
      <trkpt lat="44.51127" lon="0.64311">
        <ele>215.4</ele>
        <time>2018-08-25T18:57:28Z</time>
      </trkpt>
      <trkpt lat="44.51129" lon="0.64305">
        <ele>215.4</ele>
        <time>2018-08-25T18:57:29Z</time>
      </trkpt>
      <trkpt lat="44.51131" lon="0.643">
        <ele>216.3</ele>
        <time>2018-08-25T18:57:30Z</time>
      </trkpt>
      <trkpt lat="44.51131" lon="0.64295">
        <ele>216.7</ele>
        <time>2018-08-25T18:57:31Z</time>
      </trkpt>
      <trkpt lat="44.51133" lon="0.64293">
        <ele>216.1</ele>
        <time>2018-08-25T18:57:32Z</time>
      </trkpt>
      <trkpt lat="44.51139" lon="0.64287">
        <ele>215.7</ele>
        <time>2018-08-25T18:57:34Z</time>
      </trkpt>
      <trkpt lat="44.51144" lon="0.64283">
        <ele>214.8</ele>
        <time>2018-08-25T18:57:35Z</time>
      </trkpt>
      <trkpt lat="44.51148" lon="0.64279">
        <ele>214.2</ele>
        <time>2018-08-25T18:57:36Z</time>
      </trkpt>
      <trkpt lat="44.51152" lon="0.64275">
        <ele>213.9</ele>
        <time>2018-08-25T18:57:37Z</time>
      </trkpt>
      <trkpt lat="44.51158" lon="0.64274">
        <ele>213.1</ele>
        <time>2018-08-25T18:57:38Z</time>
      </trkpt>
      <trkpt lat="44.51162" lon="0.64269">
        <ele>212.9</ele>
        <time>2018-08-25T18:57:40Z</time>
      </trkpt>
      <trkpt lat="44.51168" lon="0.64264">
        <ele>212.1</ele>
        <time>2018-08-25T18:57:42Z</time>
      </trkpt>
      <trkpt lat="44.51173" lon="0.6426">
        <ele>211.5</ele>
        <time>2018-08-25T18:57:43Z</time>
      </trkpt>
      <trkpt lat="44.51175" lon="0.64256">
        <ele>211.5</ele>
        <time>2018-08-25T18:57:44Z</time>
      </trkpt>
      <trkpt lat="44.51179" lon="0.64252">
        <ele>211.6</ele>
        <time>2018-08-25T18:57:45Z</time>
      </trkpt>
      <trkpt lat="44.51185" lon="0.64246">
        <ele>211.3</ele>
        <time>2018-08-25T18:57:46Z</time>
      </trkpt>
      <trkpt lat="44.51188" lon="0.64242">
        <ele>211.3</ele>
        <time>2018-08-25T18:57:47Z</time>
      </trkpt>
      <trkpt lat="44.51192" lon="0.64235">
        <ele>211.6</ele>
        <time>2018-08-25T18:57:48Z</time>
      </trkpt>
      <trkpt lat="44.51196" lon="0.6423">
        <ele>211.4</ele>
        <time>2018-08-25T18:57:49Z</time>
      </trkpt>
      <trkpt lat="44.51199" lon="0.64223">
        <ele>210.8</ele>
        <time>2018-08-25T18:57:50Z</time>
      </trkpt>
      <trkpt lat="44.51202" lon="0.64218">
        <ele>211.7</ele>
        <time>2018-08-25T18:57:51Z</time>
      </trkpt>
      <trkpt lat="44.51205" lon="0.6421">
        <ele>212.2</ele>
        <time>2018-08-25T18:57:52Z</time>
      </trkpt>
      <trkpt lat="44.51206" lon="0.64205">
        <ele>212.1</ele>
        <time>2018-08-25T18:57:53Z</time>
      </trkpt>
      <trkpt lat="44.51206" lon="0.64198">
        <ele>212.5</ele>
        <time>2018-08-25T18:57:54Z</time>
      </trkpt>
      <trkpt lat="44.51208" lon="0.6419">
        <ele>213.2</ele>
        <time>2018-08-25T18:57:55Z</time>
      </trkpt>
      <trkpt lat="44.51207" lon="0.6418">
        <ele>213.9</ele>
        <time>2018-08-25T18:57:56Z</time>
      </trkpt>
      <trkpt lat="44.51208" lon="0.64171">
        <ele>215.1</ele>
        <time>2018-08-25T18:57:57Z</time>
      </trkpt>
      <trkpt lat="44.51209" lon="0.64163">
        <ele>215</ele>
        <time>2018-08-25T18:57:58Z</time>
      </trkpt>
      <trkpt lat="44.51212" lon="0.64159">
        <ele>214.9</ele>
        <time>2018-08-25T18:57:59Z</time>
      </trkpt>
      <trkpt lat="44.51216" lon="0.64151">
        <ele>215.1</ele>
        <time>2018-08-25T18:58:00Z</time>
      </trkpt>
      <trkpt lat="44.51219" lon="0.6415">
        <ele>214.3</ele>
        <time>2018-08-25T18:58:01Z</time>
      </trkpt>
      <trkpt lat="44.51226" lon="0.64149">
        <ele>213.5</ele>
        <time>2018-08-25T18:58:03Z</time>
      </trkpt>
      <trkpt lat="44.5123" lon="0.64149">
        <ele>213</ele>
        <time>2018-08-25T18:58:04Z</time>
      </trkpt>
      <trkpt lat="44.51236" lon="0.64147">
        <ele>212.1</ele>
        <time>2018-08-25T18:58:05Z</time>
      </trkpt>
      <trkpt lat="44.51239" lon="0.64148">
        <ele>211.6</ele>
        <time>2018-08-25T18:58:06Z</time>
      </trkpt>
      <trkpt lat="44.51242" lon="0.64148">
        <ele>211.1</ele>
        <time>2018-08-25T18:58:07Z</time>
      </trkpt>
      <trkpt lat="44.51247" lon="0.64147">
        <ele>210.2</ele>
        <time>2018-08-25T18:58:08Z</time>
      </trkpt>
      <trkpt lat="44.5125" lon="0.64148">
        <ele>209.7</ele>
        <time>2018-08-25T18:58:09Z</time>
      </trkpt>
      <trkpt lat="44.51253" lon="0.64148">
        <ele>209.2</ele>
        <time>2018-08-25T18:58:10Z</time>
      </trkpt>
      <trkpt lat="44.51257" lon="0.64148">
        <ele>208.7</ele>
        <time>2018-08-25T18:58:11Z</time>
      </trkpt>
      <trkpt lat="44.51262" lon="0.64147">
        <ele>207.8</ele>
        <time>2018-08-25T18:58:12Z</time>
      </trkpt>
      <trkpt lat="44.51266" lon="0.64147">
        <ele>207.5</ele>
        <time>2018-08-25T18:58:13Z</time>
      </trkpt>
      <trkpt lat="44.51271" lon="0.64147">
        <ele>206.7</ele>
        <time>2018-08-25T18:58:14Z</time>
      </trkpt>
      <trkpt lat="44.51276" lon="0.64147">
        <ele>206.2</ele>
        <time>2018-08-25T18:58:15Z</time>
      </trkpt>
      <trkpt lat="44.51287" lon="0.64147">
        <ele>204.2</ele>
        <time>2018-08-25T18:58:16Z</time>
      </trkpt>
      <trkpt lat="44.51291" lon="0.64146">
        <ele>203.3</ele>
        <time>2018-08-25T18:58:17Z</time>
      </trkpt>
      <trkpt lat="44.51294" lon="0.64143">
        <ele>203.2</ele>
        <time>2018-08-25T18:58:18Z</time>
      </trkpt>
      <trkpt lat="44.51301" lon="0.64141">
        <ele>202.4</ele>
        <time>2018-08-25T18:58:19Z</time>
      </trkpt>
      <trkpt lat="44.51309" lon="0.64144">
        <ele>200.7</ele>
        <time>2018-08-25T18:58:20Z</time>
      </trkpt>
      <trkpt lat="44.51318" lon="0.64141">
        <ele>199.6</ele>
        <time>2018-08-25T18:58:21Z</time>
      </trkpt>
      <trkpt lat="44.51323" lon="0.64143">
        <ele>198.2</ele>
        <time>2018-08-25T18:58:22Z</time>
      </trkpt>
      <trkpt lat="44.51327" lon="0.64146">
        <ele>197.7</ele>
        <time>2018-08-25T18:58:23Z</time>
      </trkpt>
      <trkpt lat="44.51334" lon="0.64149">
        <ele>196.3</ele>
        <time>2018-08-25T18:58:24Z</time>
      </trkpt>
      <trkpt lat="44.51337" lon="0.6415">
        <ele>195</ele>
        <time>2018-08-25T18:58:25Z</time>
      </trkpt>
      <trkpt lat="44.51341" lon="0.64151">
        <ele>194.5</ele>
        <time>2018-08-25T18:58:26Z</time>
      </trkpt>
      <trkpt lat="44.51344" lon="0.64153">
        <ele>194</ele>
        <time>2018-08-25T18:58:27Z</time>
      </trkpt>
      <trkpt lat="44.51347" lon="0.64156">
        <ele>193.1</ele>
        <time>2018-08-25T18:58:28Z</time>
      </trkpt>
      <trkpt lat="44.51351" lon="0.64159">
        <ele>192.1</ele>
        <time>2018-08-25T18:58:29Z</time>
      </trkpt>
      <trkpt lat="44.51353" lon="0.64161">
        <ele>191.6</ele>
        <time>2018-08-25T18:58:30Z</time>
      </trkpt>
      <trkpt lat="44.51356" lon="0.64163">
        <ele>191</ele>
        <time>2018-08-25T18:58:31Z</time>
      </trkpt>
      <trkpt lat="44.51359" lon="0.64164">
        <ele>189.9</ele>
        <time>2018-08-25T18:58:32Z</time>
      </trkpt>
      <trkpt lat="44.51362" lon="0.64165">
        <ele>189.3</ele>
        <time>2018-08-25T18:58:33Z</time>
      </trkpt>
      <trkpt lat="44.51365" lon="0.64165">
        <ele>188.7</ele>
        <time>2018-08-25T18:58:34Z</time>
      </trkpt>
      <trkpt lat="44.51369" lon="0.64165">
        <ele>188.1</ele>
        <time>2018-08-25T18:58:35Z</time>
      </trkpt>
      <trkpt lat="44.51371" lon="0.64164">
        <ele>187.6</ele>
        <time>2018-08-25T18:58:36Z</time>
      </trkpt>
      <trkpt lat="44.51373" lon="0.64159">
        <ele>188.1</ele>
        <time>2018-08-25T18:58:50Z</time>
      </trkpt>
      <trkpt lat="44.51373" lon="0.64155">
        <ele>188.5</ele>
        <time>2018-08-25T18:58:51Z</time>
      </trkpt>
      <trkpt lat="44.51374" lon="0.64148">
        <ele>188.8</ele>
        <time>2018-08-25T18:58:52Z</time>
      </trkpt>
      <trkpt lat="44.51378" lon="0.64132">
        <ele>189.9</ele>
        <time>2018-08-25T18:58:53Z</time>
      </trkpt>
      <trkpt lat="44.51378" lon="0.64126">
        <ele>190.3</ele>
        <time>2018-08-25T18:58:54Z</time>
      </trkpt>
      <trkpt lat="44.51377" lon="0.64117">
        <ele>190.9</ele>
        <time>2018-08-25T18:58:55Z</time>
      </trkpt>
      <trkpt lat="44.51374" lon="0.64108">
        <ele>191.9</ele>
        <time>2018-08-25T18:58:56Z</time>
      </trkpt>
      <trkpt lat="44.51372" lon="0.64103">
        <ele>192.5</ele>
        <time>2018-08-25T18:58:57Z</time>
      </trkpt>
      <trkpt lat="44.5137" lon="0.64097">
        <ele>193.4</ele>
        <time>2018-08-25T18:58:58Z</time>
      </trkpt>
      <trkpt lat="44.5137" lon="0.64092">
        <ele>193.6</ele>
        <time>2018-08-25T18:58:59Z</time>
      </trkpt>
      <trkpt lat="44.51368" lon="0.64087">
        <ele>193.7</ele>
        <time>2018-08-25T18:59:00Z</time>
      </trkpt>
      <trkpt lat="44.51366" lon="0.64082">
        <ele>194.4</ele>
        <time>2018-08-25T18:59:01Z</time>
      </trkpt>
      <trkpt lat="44.51365" lon="0.64078">
        <ele>194.6</ele>
        <time>2018-08-25T18:59:02Z</time>
      </trkpt>
      <trkpt lat="44.51361" lon="0.64077">
        <ele>196</ele>
        <time>2018-08-25T18:59:03Z</time>
      </trkpt>
      <trkpt lat="44.51358" lon="0.64077">
        <ele>196.6</ele>
        <time>2018-08-25T18:59:04Z</time>
      </trkpt>
      <trkpt lat="44.51354" lon="0.64073">
        <ele>197.2</ele>
        <time>2018-08-25T18:59:06Z</time>
      </trkpt>
      <trkpt lat="44.51353" lon="0.64066">
        <ele>197.5</ele>
        <time>2018-08-25T18:59:07Z</time>
      </trkpt>
      <trkpt lat="44.51352" lon="0.64061">
        <ele>198.2</ele>
        <time>2018-08-25T18:59:08Z</time>
      </trkpt>
      <trkpt lat="44.5135" lon="0.64056">
        <ele>198.4</ele>
        <time>2018-08-25T18:59:09Z</time>
      </trkpt>
      <trkpt lat="44.51349" lon="0.64051">
        <ele>199.1</ele>
        <time>2018-08-25T18:59:10Z</time>
      </trkpt>
      <trkpt lat="44.51347" lon="0.64045">
        <ele>199.4</ele>
        <time>2018-08-25T18:59:11Z</time>
      </trkpt>
      <trkpt lat="44.51345" lon="0.64039">
        <ele>200.2</ele>
        <time>2018-08-25T18:59:12Z</time>
      </trkpt>
      <trkpt lat="44.51343" lon="0.64035">
        <ele>201</ele>
        <time>2018-08-25T18:59:13Z</time>
      </trkpt>
      <trkpt lat="44.51341" lon="0.64031">
        <ele>201.1</ele>
        <time>2018-08-25T18:59:14Z</time>
      </trkpt>
      <trkpt lat="44.51338" lon="0.64028">
        <ele>202</ele>
        <time>2018-08-25T18:59:15Z</time>
      </trkpt>
      <trkpt lat="44.51336" lon="0.64025">
        <ele>202.8</ele>
        <time>2018-08-25T18:59:16Z</time>
      </trkpt>
      <trkpt lat="44.51334" lon="0.64021">
        <ele>202.8</ele>
        <time>2018-08-25T18:59:17Z</time>
      </trkpt>
      <trkpt lat="44.51333" lon="0.64017">
        <ele>203.6</ele>
        <time>2018-08-25T18:59:18Z</time>
      </trkpt>
      <trkpt lat="44.51335" lon="0.64012">
        <ele>202.9</ele>
        <time>2018-08-25T18:59:21Z</time>
      </trkpt>
      <trkpt lat="44.51337" lon="0.64006">
        <ele>202.2</ele>
        <time>2018-08-25T18:59:23Z</time>
      </trkpt>
      <trkpt lat="44.51337" lon="0.64">
        <ele>202.2</ele>
        <time>2018-08-25T18:59:25Z</time>
      </trkpt>
      <trkpt lat="44.51337" lon="0.63996">
        <ele>202.2</ele>
        <time>2018-08-25T18:59:26Z</time>
      </trkpt>
      <trkpt lat="44.51337" lon="0.63991">
        <ele>202.2</ele>
        <time>2018-08-25T18:59:27Z</time>
      </trkpt>
      <trkpt lat="44.51337" lon="0.63986">
        <ele>202.3</ele>
        <time>2018-08-25T18:59:28Z</time>
      </trkpt>
      <trkpt lat="44.51337" lon="0.63981">
        <ele>202.4</ele>
        <time>2018-08-25T18:59:29Z</time>
      </trkpt>
      <trkpt lat="44.51337" lon="0.63977">
        <ele>203.2</ele>
        <time>2018-08-25T18:59:30Z</time>
      </trkpt>
      <trkpt lat="44.51336" lon="0.63972">
        <ele>203.3</ele>
        <time>2018-08-25T18:59:31Z</time>
      </trkpt>
      <trkpt lat="44.51336" lon="0.63968">
        <ele>203.4</ele>
        <time>2018-08-25T18:59:32Z</time>
      </trkpt>
      <trkpt lat="44.51336" lon="0.63964">
        <ele>203.6</ele>
        <time>2018-08-25T18:59:33Z</time>
      </trkpt>
      <trkpt lat="44.51335" lon="0.6396">
        <ele>203.7</ele>
        <time>2018-08-25T18:59:34Z</time>
      </trkpt>
      <trkpt lat="44.51335" lon="0.63955">
        <ele>203.9</ele>
        <time>2018-08-25T18:59:35Z</time>
      </trkpt>
      <trkpt lat="44.51334" lon="0.6395">
        <ele>204</ele>
        <time>2018-08-25T18:59:36Z</time>
      </trkpt>
      <trkpt lat="44.51334" lon="0.63945">
        <ele>205</ele>
        <time>2018-08-25T18:59:37Z</time>
      </trkpt>
      <trkpt lat="44.51334" lon="0.63941">
        <ele>204.4</ele>
        <time>2018-08-25T18:59:38Z</time>
      </trkpt>
      <trkpt lat="44.51335" lon="0.63937">
        <ele>204.6</ele>
        <time>2018-08-25T18:59:39Z</time>
      </trkpt>
      <trkpt lat="44.51335" lon="0.63933">
        <ele>204.8</ele>
        <time>2018-08-25T18:59:40Z</time>
      </trkpt>
      <trkpt lat="44.51334" lon="0.63928">
        <ele>204.9</ele>
        <time>2018-08-25T18:59:41Z</time>
      </trkpt>
      <trkpt lat="44.51334" lon="0.63924">
        <ele>205.9</ele>
        <time>2018-08-25T18:59:42Z</time>
      </trkpt>
      <trkpt lat="44.51333" lon="0.63919">
        <ele>206.1</ele>
        <time>2018-08-25T18:59:43Z</time>
      </trkpt>
      <trkpt lat="44.51331" lon="0.63914">
        <ele>206.2</ele>
        <time>2018-08-25T18:59:44Z</time>
      </trkpt>
      <trkpt lat="44.5133" lon="0.63909">
        <ele>207.4</ele>
        <time>2018-08-25T18:59:45Z</time>
      </trkpt>
      <trkpt lat="44.51329" lon="0.63903">
        <ele>207.6</ele>
        <time>2018-08-25T18:59:46Z</time>
      </trkpt>
      <trkpt lat="44.51327" lon="0.63897">
        <ele>208.6</ele>
        <time>2018-08-25T18:59:47Z</time>
      </trkpt>
      <trkpt lat="44.51326" lon="0.63891">
        <ele>209</ele>
        <time>2018-08-25T18:59:48Z</time>
      </trkpt>
      <trkpt lat="44.51326" lon="0.63887">
        <ele>209.2</ele>
        <time>2018-08-25T18:59:49Z</time>
      </trkpt>
      <trkpt lat="44.51326" lon="0.63883">
        <ele>209.4</ele>
        <time>2018-08-25T18:59:50Z</time>
      </trkpt>
      <trkpt lat="44.51326" lon="0.63878">
        <ele>209.6</ele>
        <time>2018-08-25T18:59:51Z</time>
      </trkpt>
      <trkpt lat="44.51325" lon="0.63873">
        <ele>210.5</ele>
        <time>2018-08-25T18:59:53Z</time>
      </trkpt>
      <trkpt lat="44.51324" lon="0.63868">
        <ele>210.7</ele>
        <time>2018-08-25T18:59:56Z</time>
      </trkpt>
      <trkpt lat="44.51325" lon="0.63863">
        <ele>210</ele>
        <time>2018-08-25T18:59:59Z</time>
      </trkpt>
      <trkpt lat="44.51326" lon="0.63859">
        <ele>210.2</ele>
        <time>2018-08-25T19:00:02Z</time>
      </trkpt>
      <trkpt lat="44.51328" lon="0.63856">
        <ele>210.3</ele>
        <time>2018-08-25T19:00:06Z</time>
      </trkpt>
      <trkpt lat="44.5133" lon="0.63854">
        <ele>209.5</ele>
        <time>2018-08-25T19:00:08Z</time>
      </trkpt>
      <trkpt lat="44.51333" lon="0.63852">
        <ele>208.9</ele>
        <time>2018-08-25T19:00:12Z</time>
      </trkpt>
      <trkpt lat="44.51337" lon="0.63846">
        <ele>207.5</ele>
        <time>2018-08-25T19:00:19Z</time>
      </trkpt>
      <trkpt lat="44.51339" lon="0.63842">
        <ele>207.6</ele>
        <time>2018-08-25T19:00:20Z</time>
      </trkpt>
      <trkpt lat="44.51339" lon="0.63837">
        <ele>207.8</ele>
        <time>2018-08-25T19:00:21Z</time>
      </trkpt>
      <trkpt lat="44.51341" lon="0.63831">
        <ele>207.4</ele>
        <time>2018-08-25T19:00:22Z</time>
      </trkpt>
      <trkpt lat="44.51342" lon="0.63824">
        <ele>207.7</ele>
        <time>2018-08-25T19:00:23Z</time>
      </trkpt>
      <trkpt lat="44.51343" lon="0.63818">
        <ele>207.5</ele>
        <time>2018-08-25T19:00:24Z</time>
      </trkpt>
      <trkpt lat="44.51345" lon="0.63812">
        <ele>207.9</ele>
        <time>2018-08-25T19:00:25Z</time>
      </trkpt>
      <trkpt lat="44.51348" lon="0.63808">
        <ele>207.7</ele>
        <time>2018-08-25T19:00:26Z</time>
      </trkpt>
      <trkpt lat="44.51351" lon="0.63804">
        <ele>207.5</ele>
        <time>2018-08-25T19:00:27Z</time>
      </trkpt>
      <trkpt lat="44.51354" lon="0.63802">
        <ele>207.1</ele>
        <time>2018-08-25T19:00:28Z</time>
      </trkpt>
      <trkpt lat="44.51357" lon="0.63802">
        <ele>207</ele>
        <time>2018-08-25T19:00:29Z</time>
      </trkpt>
      <trkpt lat="44.51362" lon="0.63803">
        <ele>205.6</ele>
        <time>2018-08-25T19:00:30Z</time>
      </trkpt>
      <trkpt lat="44.51367" lon="0.63804">
        <ele>205.1</ele>
        <time>2018-08-25T19:00:31Z</time>
      </trkpt>
      <trkpt lat="44.51372" lon="0.63807">
        <ele>203.7</ele>
        <time>2018-08-25T19:00:32Z</time>
      </trkpt>
      <trkpt lat="44.51376" lon="0.63809">
        <ele>203.3</ele>
        <time>2018-08-25T19:00:33Z</time>
      </trkpt>
      <trkpt lat="44.51382" lon="0.63811">
        <ele>202.5</ele>
        <time>2018-08-25T19:00:34Z</time>
      </trkpt>
      <trkpt lat="44.5139" lon="0.63809">
        <ele>201.1</ele>
        <time>2018-08-25T19:00:35Z</time>
      </trkpt>
      <trkpt lat="44.51397" lon="0.63809">
        <ele>200.2</ele>
        <time>2018-08-25T19:00:36Z</time>
      </trkpt>
      <trkpt lat="44.51401" lon="0.63811">
        <ele>199.5</ele>
        <time>2018-08-25T19:00:37Z</time>
      </trkpt>
      <trkpt lat="44.51408" lon="0.6381">
        <ele>198.9</ele>
        <time>2018-08-25T19:00:38Z</time>
      </trkpt>
      <trkpt lat="44.51413" lon="0.63809">
        <ele>198.5</ele>
        <time>2018-08-25T19:00:39Z</time>
      </trkpt>
      <trkpt lat="44.51419" lon="0.6381">
        <ele>197.8</ele>
        <time>2018-08-25T19:00:40Z</time>
      </trkpt>
      <trkpt lat="44.51425" lon="0.63809">
        <ele>197.1</ele>
        <time>2018-08-25T19:00:41Z</time>
      </trkpt>
      <trkpt lat="44.51431" lon="0.63803">
        <ele>196.8</ele>
        <time>2018-08-25T19:00:42Z</time>
      </trkpt>
      <trkpt lat="44.51437" lon="0.63797">
        <ele>196.9</ele>
        <time>2018-08-25T19:00:43Z</time>
      </trkpt>
      <trkpt lat="44.51443" lon="0.63794">
        <ele>196.2</ele>
        <time>2018-08-25T19:00:44Z</time>
      </trkpt>
      <trkpt lat="44.51449" lon="0.63789">
        <ele>196.1</ele>
        <time>2018-08-25T19:00:45Z</time>
      </trkpt>
      <trkpt lat="44.51453" lon="0.63785">
        <ele>195.8</ele>
        <time>2018-08-25T19:00:46Z</time>
      </trkpt>
      <trkpt lat="44.51459" lon="0.63779">
        <ele>195.8</ele>
        <time>2018-08-25T19:00:47Z</time>
      </trkpt>
      <trkpt lat="44.51466" lon="0.63771">
        <ele>195.6</ele>
        <time>2018-08-25T19:00:48Z</time>
      </trkpt>
      <trkpt lat="44.51473" lon="0.63763">
        <ele>195.8</ele>
        <time>2018-08-25T19:00:49Z</time>
      </trkpt>
      <trkpt lat="44.51481" lon="0.63755">
        <ele>195.6</ele>
        <time>2018-08-25T19:00:50Z</time>
      </trkpt>
      <trkpt lat="44.5149" lon="0.63748">
        <ele>195.3</ele>
        <time>2018-08-25T19:00:51Z</time>
      </trkpt>
      <trkpt lat="44.51497" lon="0.63744">
        <ele>194.4</ele>
        <time>2018-08-25T19:00:52Z</time>
      </trkpt>
      <trkpt lat="44.51502" lon="0.63742">
        <ele>193.7</ele>
        <time>2018-08-25T19:00:53Z</time>
      </trkpt>
      <trkpt lat="44.51506" lon="0.63741">
        <ele>193.2</ele>
        <time>2018-08-25T19:00:54Z</time>
      </trkpt>
      <trkpt lat="44.5151" lon="0.63741">
        <ele>192.7</ele>
        <time>2018-08-25T19:00:55Z</time>
      </trkpt>
      <trkpt lat="44.51515" lon="0.63741">
        <ele>192</ele>
        <time>2018-08-25T19:00:56Z</time>
      </trkpt>
      <trkpt lat="44.51524" lon="0.63745">
        <ele>190.8</ele>
        <time>2018-08-25T19:00:57Z</time>
      </trkpt>
      <trkpt lat="44.51533" lon="0.63751">
        <ele>189.5</ele>
        <time>2018-08-25T19:00:58Z</time>
      </trkpt>
      <trkpt lat="44.51544" lon="0.63756">
        <ele>187.9</ele>
        <time>2018-08-25T19:00:59Z</time>
      </trkpt>
      <trkpt lat="44.51557" lon="0.63758">
        <ele>186.3</ele>
        <time>2018-08-25T19:01:00Z</time>
      </trkpt>
      <trkpt lat="44.5157" lon="0.63762">
        <ele>184.7</ele>
        <time>2018-08-25T19:01:01Z</time>
      </trkpt>
      <trkpt lat="44.51587" lon="0.63767">
        <ele>182.8</ele>
        <time>2018-08-25T19:01:02Z</time>
      </trkpt>
      <trkpt lat="44.51601" lon="0.63772">
        <ele>181.1</ele>
        <time>2018-08-25T19:01:03Z</time>
      </trkpt>
      <trkpt lat="44.51615" lon="0.63777">
        <ele>179.5</ele>
        <time>2018-08-25T19:01:04Z</time>
      </trkpt>
      <trkpt lat="44.5163" lon="0.63783">
        <ele>177.9</ele>
        <time>2018-08-25T19:01:05Z</time>
      </trkpt>
      <trkpt lat="44.51644" lon="0.6379">
        <ele>176.3</ele>
        <time>2018-08-25T19:01:06Z</time>
      </trkpt>
      <trkpt lat="44.51658" lon="0.63797">
        <ele>174.6</ele>
        <time>2018-08-25T19:01:07Z</time>
      </trkpt>
      <trkpt lat="44.5167" lon="0.63806">
        <ele>173</ele>
        <time>2018-08-25T19:01:08Z</time>
      </trkpt>
      <trkpt lat="44.51682" lon="0.63816">
        <ele>171.5</ele>
        <time>2018-08-25T19:01:09Z</time>
      </trkpt>
      <trkpt lat="44.51693" lon="0.63827">
        <ele>169.9</ele>
        <time>2018-08-25T19:01:10Z</time>
      </trkpt>
      <trkpt lat="44.51704" lon="0.63838">
        <ele>168.3</ele>
        <time>2018-08-25T19:01:11Z</time>
      </trkpt>
      <trkpt lat="44.51715" lon="0.63849">
        <ele>166.7</ele>
        <time>2018-08-25T19:01:12Z</time>
      </trkpt>
      <trkpt lat="44.51726" lon="0.63859">
        <ele>165.1</ele>
        <time>2018-08-25T19:01:13Z</time>
      </trkpt>
      <trkpt lat="44.51738" lon="0.63869">
        <ele>163.8</ele>
        <time>2018-08-25T19:01:14Z</time>
      </trkpt>
      <trkpt lat="44.51749" lon="0.6388">
        <ele>162.7</ele>
        <time>2018-08-25T19:01:15Z</time>
      </trkpt>
      <trkpt lat="44.51762" lon="0.63889">
        <ele>161.9</ele>
        <time>2018-08-25T19:01:16Z</time>
      </trkpt>
      <trkpt lat="44.51775" lon="0.63898">
        <ele>161.2</ele>
        <time>2018-08-25T19:01:17Z</time>
      </trkpt>
      <trkpt lat="44.51788" lon="0.63906">
        <ele>160.4</ele>
        <time>2018-08-25T19:01:18Z</time>
      </trkpt>
      <trkpt lat="44.518" lon="0.63914">
        <ele>159.8</ele>
        <time>2018-08-25T19:01:19Z</time>
      </trkpt>
      <trkpt lat="44.51814" lon="0.63923">
        <ele>159</ele>
        <time>2018-08-25T19:01:20Z</time>
      </trkpt>
      <trkpt lat="44.51827" lon="0.63931">
        <ele>158.1</ele>
        <time>2018-08-25T19:01:21Z</time>
      </trkpt>
      <trkpt lat="44.51839" lon="0.6394">
        <ele>157.3</ele>
        <time>2018-08-25T19:01:22Z</time>
      </trkpt>
      <trkpt lat="44.5185" lon="0.63948">
        <ele>156.4</ele>
        <time>2018-08-25T19:01:23Z</time>
      </trkpt>
      <trkpt lat="44.51861" lon="0.63954">
        <ele>155.6</ele>
        <time>2018-08-25T19:01:24Z</time>
      </trkpt>
      <trkpt lat="44.5187" lon="0.63959">
        <ele>154.9</ele>
        <time>2018-08-25T19:01:25Z</time>
      </trkpt>
      <trkpt lat="44.51877" lon="0.63964">
        <ele>154.3</ele>
        <time>2018-08-25T19:01:26Z</time>
      </trkpt>
      <trkpt lat="44.51883" lon="0.63968">
        <ele>153.9</ele>
        <time>2018-08-25T19:01:27Z</time>
      </trkpt>
      <trkpt lat="44.51888" lon="0.63969">
        <ele>153.5</ele>
        <time>2018-08-25T19:01:28Z</time>
      </trkpt>
      <trkpt lat="44.51893" lon="0.6397">
        <ele>153.2</ele>
        <time>2018-08-25T19:01:29Z</time>
      </trkpt>
      <trkpt lat="44.51897" lon="0.63968">
        <ele>152.9</ele>
        <time>2018-08-25T19:01:30Z</time>
      </trkpt>
      <trkpt lat="44.51901" lon="0.63966">
        <ele>152.6</ele>
        <time>2018-08-25T19:01:31Z</time>
      </trkpt>
      <trkpt lat="44.51903" lon="0.63962">
        <ele>152.4</ele>
        <time>2018-08-25T19:01:32Z</time>
      </trkpt>
      <trkpt lat="44.51905" lon="0.63951">
        <ele>152.7</ele>
        <time>2018-08-25T19:01:33Z</time>
      </trkpt>
      <trkpt lat="44.51907" lon="0.63941">
        <ele>152.8</ele>
        <time>2018-08-25T19:01:34Z</time>
      </trkpt>
      <trkpt lat="44.51909" lon="0.63926">
        <ele>153</ele>
        <time>2018-08-25T19:01:35Z</time>
      </trkpt>
      <trkpt lat="44.5191" lon="0.63911">
        <ele>152.8</ele>
        <time>2018-08-25T19:01:36Z</time>
      </trkpt>
      <trkpt lat="44.51911" lon="0.63899">
        <ele>152.5</ele>
        <time>2018-08-25T19:01:37Z</time>
      </trkpt>
      <trkpt lat="44.51914" lon="0.63887">
        <ele>152</ele>
        <time>2018-08-25T19:01:38Z</time>
      </trkpt>
      <trkpt lat="44.51915" lon="0.63876">
        <ele>151.8</ele>
        <time>2018-08-25T19:01:39Z</time>
      </trkpt>
      <trkpt lat="44.51917" lon="0.63864">
        <ele>151.2</ele>
        <time>2018-08-25T19:01:40Z</time>
      </trkpt>
      <trkpt lat="44.51919" lon="0.63853">
        <ele>150.7</ele>
        <time>2018-08-25T19:01:41Z</time>
      </trkpt>
      <trkpt lat="44.51921" lon="0.63841">
        <ele>150.4</ele>
        <time>2018-08-25T19:01:42Z</time>
      </trkpt>
      <trkpt lat="44.51924" lon="0.63829">
        <ele>150.1</ele>
        <time>2018-08-25T19:01:43Z</time>
      </trkpt>
      <trkpt lat="44.51926" lon="0.63817">
        <ele>149.6</ele>
        <time>2018-08-25T19:01:44Z</time>
      </trkpt>
      <trkpt lat="44.51929" lon="0.63805">
        <ele>148.9</ele>
        <time>2018-08-25T19:01:45Z</time>
      </trkpt>
      <trkpt lat="44.51931" lon="0.63793">
        <ele>148.2</ele>
        <time>2018-08-25T19:01:46Z</time>
      </trkpt>
      <trkpt lat="44.51934" lon="0.63782">
        <ele>147.9</ele>
        <time>2018-08-25T19:01:47Z</time>
      </trkpt>
      <trkpt lat="44.51934" lon="0.63772">
        <ele>147.1</ele>
        <time>2018-08-25T19:01:48Z</time>
      </trkpt>
      <trkpt lat="44.51937" lon="0.63762">
        <ele>146.6</ele>
        <time>2018-08-25T19:01:49Z</time>
      </trkpt>
      <trkpt lat="44.51938" lon="0.63751">
        <ele>146</ele>
        <time>2018-08-25T19:01:50Z</time>
      </trkpt>
      <trkpt lat="44.5194" lon="0.63739">
        <ele>145.3</ele>
        <time>2018-08-25T19:01:51Z</time>
      </trkpt>
      <trkpt lat="44.51942" lon="0.63727">
        <ele>144.4</ele>
        <time>2018-08-25T19:01:52Z</time>
      </trkpt>
      <trkpt lat="44.51944" lon="0.63714">
        <ele>143.2</ele>
        <time>2018-08-25T19:01:53Z</time>
      </trkpt>
      <trkpt lat="44.51947" lon="0.63701">
        <ele>142.4</ele>
        <time>2018-08-25T19:01:54Z</time>
      </trkpt>
      <trkpt lat="44.51949" lon="0.63689">
        <ele>141.8</ele>
        <time>2018-08-25T19:01:55Z</time>
      </trkpt>
      <trkpt lat="44.51952" lon="0.63677">
        <ele>141.4</ele>
        <time>2018-08-25T19:01:56Z</time>
      </trkpt>
      <trkpt lat="44.51954" lon="0.63666">
        <ele>141.1</ele>
        <time>2018-08-25T19:01:57Z</time>
      </trkpt>
      <trkpt lat="44.51956" lon="0.63656">
        <ele>140.8</ele>
        <time>2018-08-25T19:01:58Z</time>
      </trkpt>
      <trkpt lat="44.51957" lon="0.63647">
        <ele>140.6</ele>
        <time>2018-08-25T19:01:59Z</time>
      </trkpt>
      <trkpt lat="44.5196" lon="0.63639">
        <ele>140.4</ele>
        <time>2018-08-25T19:02:00Z</time>
      </trkpt>
      <trkpt lat="44.51963" lon="0.63632">
        <ele>140.3</ele>
        <time>2018-08-25T19:02:01Z</time>
      </trkpt>
      <trkpt lat="44.51967" lon="0.63627">
        <ele>140.1</ele>
        <time>2018-08-25T19:02:02Z</time>
      </trkpt>
      <trkpt lat="44.51972" lon="0.63623">
        <ele>139.9</ele>
        <time>2018-08-25T19:02:03Z</time>
      </trkpt>
      <trkpt lat="44.51976" lon="0.63619">
        <ele>139.8</ele>
        <time>2018-08-25T19:02:04Z</time>
      </trkpt>
      <trkpt lat="44.51981" lon="0.63618">
        <ele>139.7</ele>
        <time>2018-08-25T19:02:05Z</time>
      </trkpt>
      <trkpt lat="44.51988" lon="0.63621">
        <ele>139.6</ele>
        <time>2018-08-25T19:02:06Z</time>
      </trkpt>
      <trkpt lat="44.51996" lon="0.63621">
        <ele>139.5</ele>
        <time>2018-08-25T19:02:07Z</time>
      </trkpt>
      <trkpt lat="44.52006" lon="0.63623">
        <ele>139.5</ele>
        <time>2018-08-25T19:02:08Z</time>
      </trkpt>
      <trkpt lat="44.52015" lon="0.63625">
        <ele>139.6</ele>
        <time>2018-08-25T19:02:09Z</time>
      </trkpt>
      <trkpt lat="44.52023" lon="0.63627">
        <ele>139.7</ele>
        <time>2018-08-25T19:02:10Z</time>
      </trkpt>
      <trkpt lat="44.5203" lon="0.6363">
        <ele>139.8</ele>
        <time>2018-08-25T19:02:11Z</time>
      </trkpt>
      <trkpt lat="44.52038" lon="0.63634">
        <ele>139.9</ele>
        <time>2018-08-25T19:02:12Z</time>
      </trkpt>
      <trkpt lat="44.52043" lon="0.6364">
        <ele>139.8</ele>
        <time>2018-08-25T19:02:13Z</time>
      </trkpt>
      <trkpt lat="44.52048" lon="0.63646">
        <ele>139.8</ele>
        <time>2018-08-25T19:02:14Z</time>
      </trkpt>
      <trkpt lat="44.52053" lon="0.63653">
        <ele>139.6</ele>
        <time>2018-08-25T19:02:15Z</time>
      </trkpt>
      <trkpt lat="44.52059" lon="0.63661">
        <ele>139.5</ele>
        <time>2018-08-25T19:02:16Z</time>
      </trkpt>
      <trkpt lat="44.52065" lon="0.63668">
        <ele>139.1</ele>
        <time>2018-08-25T19:02:17Z</time>
      </trkpt>
      <trkpt lat="44.5207" lon="0.63676">
        <ele>138.6</ele>
        <time>2018-08-25T19:02:18Z</time>
      </trkpt>
      <trkpt lat="44.52075" lon="0.63685">
        <ele>138</ele>
        <time>2018-08-25T19:02:19Z</time>
      </trkpt>
      <trkpt lat="44.52082" lon="0.63694">
        <ele>137.4</ele>
        <time>2018-08-25T19:02:20Z</time>
      </trkpt>
      <trkpt lat="44.52088" lon="0.63701">
        <ele>136.8</ele>
        <time>2018-08-25T19:02:21Z</time>
      </trkpt>
      <trkpt lat="44.52096" lon="0.63708">
        <ele>136.2</ele>
        <time>2018-08-25T19:02:22Z</time>
      </trkpt>
      <trkpt lat="44.52106" lon="0.63715">
        <ele>136</ele>
        <time>2018-08-25T19:02:23Z</time>
      </trkpt>
      <trkpt lat="44.52116" lon="0.63723">
        <ele>135.4</ele>
        <time>2018-08-25T19:02:24Z</time>
      </trkpt>
      <trkpt lat="44.52126" lon="0.63731">
        <ele>135.1</ele>
        <time>2018-08-25T19:02:25Z</time>
      </trkpt>
      <trkpt lat="44.52137" lon="0.63737">
        <ele>134.8</ele>
        <time>2018-08-25T19:02:26Z</time>
      </trkpt>
      <trkpt lat="44.52146" lon="0.63742">
        <ele>134.1</ele>
        <time>2018-08-25T19:02:27Z</time>
      </trkpt>
      <trkpt lat="44.52155" lon="0.63749">
        <ele>133.6</ele>
        <time>2018-08-25T19:02:28Z</time>
      </trkpt>
      <trkpt lat="44.52163" lon="0.63756">
        <ele>132.6</ele>
        <time>2018-08-25T19:02:29Z</time>
      </trkpt>
      <trkpt lat="44.52171" lon="0.63762">
        <ele>132</ele>
        <time>2018-08-25T19:02:30Z</time>
      </trkpt>
      <trkpt lat="44.52177" lon="0.63767">
        <ele>131.6</ele>
        <time>2018-08-25T19:02:31Z</time>
      </trkpt>
      <trkpt lat="44.52184" lon="0.6377">
        <ele>131.2</ele>
        <time>2018-08-25T19:02:32Z</time>
      </trkpt>
      <trkpt lat="44.52192" lon="0.63772">
        <ele>130.9</ele>
        <time>2018-08-25T19:02:33Z</time>
      </trkpt>
      <trkpt lat="44.52199" lon="0.63774">
        <ele>130.6</ele>
        <time>2018-08-25T19:02:34Z</time>
      </trkpt>
      <trkpt lat="44.52208" lon="0.63778">
        <ele>130.3</ele>
        <time>2018-08-25T19:02:35Z</time>
      </trkpt>
      <trkpt lat="44.52216" lon="0.6378">
        <ele>130</ele>
        <time>2018-08-25T19:02:36Z</time>
      </trkpt>
      <trkpt lat="44.52224" lon="0.63781">
        <ele>129.8</ele>
        <time>2018-08-25T19:02:37Z</time>
      </trkpt>
      <trkpt lat="44.52233" lon="0.6378">
        <ele>129.6</ele>
        <time>2018-08-25T19:02:38Z</time>
      </trkpt>
      <trkpt lat="44.52243" lon="0.63777">
        <ele>129.5</ele>
        <time>2018-08-25T19:02:39Z</time>
      </trkpt>
      <trkpt lat="44.52256" lon="0.6377">
        <ele>129.4</ele>
        <time>2018-08-25T19:02:40Z</time>
      </trkpt>
      <trkpt lat="44.52267" lon="0.63765">
        <ele>129.3</ele>
        <time>2018-08-25T19:02:41Z</time>
      </trkpt>
      <trkpt lat="44.52277" lon="0.63761">
        <ele>129.2</ele>
        <time>2018-08-25T19:02:42Z</time>
      </trkpt>
      <trkpt lat="44.52286" lon="0.63758">
        <ele>129.2</ele>
        <time>2018-08-25T19:02:43Z</time>
      </trkpt>
      <trkpt lat="44.52295" lon="0.63753">
        <ele>129.1</ele>
        <time>2018-08-25T19:02:44Z</time>
      </trkpt>
      <trkpt lat="44.52303" lon="0.6375">
        <ele>129.1</ele>
        <time>2018-08-25T19:02:45Z</time>
      </trkpt>
      <trkpt lat="44.5231" lon="0.63748">
        <ele>128.9</ele>
        <time>2018-08-25T19:02:46Z</time>
      </trkpt>
      <trkpt lat="44.52316" lon="0.63746">
        <ele>129</ele>
        <time>2018-08-25T19:02:47Z</time>
      </trkpt>
      <trkpt lat="44.5232" lon="0.63744">
        <ele>129</ele>
        <time>2018-08-25T19:02:48Z</time>
      </trkpt>
      <trkpt lat="44.52324" lon="0.63743">
        <ele>129</ele>
        <time>2018-08-25T19:02:49Z</time>
      </trkpt>
      <trkpt lat="44.52328" lon="0.63742">
        <ele>129.1</ele>
        <time>2018-08-25T19:02:50Z</time>
      </trkpt>
      <trkpt lat="44.5233" lon="0.63742">
        <ele>129.2</ele>
        <time>2018-08-25T19:02:51Z</time>
      </trkpt>
      <trkpt lat="44.52334" lon="0.63742">
        <ele>129.3</ele>
        <time>2018-08-25T19:02:53Z</time>
      </trkpt>
      <trkpt lat="44.52332" lon="0.63728">
        <ele>129.3</ele>
        <time>2018-08-25T19:04:34Z</time>
      </trkpt>
      <trkpt lat="44.52332" lon="0.63724">
        <ele>129.2</ele>
        <time>2018-08-25T19:04:35Z</time>
      </trkpt>
      <trkpt lat="44.52331" lon="0.63713">
        <ele>129</ele>
        <time>2018-08-25T19:04:36Z</time>
      </trkpt>
      <trkpt lat="44.52331" lon="0.637">
        <ele>129.3</ele>
        <time>2018-08-25T19:04:37Z</time>
      </trkpt>
      <trkpt lat="44.52331" lon="0.63689">
        <ele>129.8</ele>
        <time>2018-08-25T19:04:38Z</time>
      </trkpt>
      <trkpt lat="44.5233" lon="0.6368">
        <ele>130.3</ele>
        <time>2018-08-25T19:04:39Z</time>
      </trkpt>
      <trkpt lat="44.52326" lon="0.63669">
        <ele>131</ele>
        <time>2018-08-25T19:04:40Z</time>
      </trkpt>
      <trkpt lat="44.52321" lon="0.63663">
        <ele>131.1</ele>
        <time>2018-08-25T19:04:41Z</time>
      </trkpt>
      <trkpt lat="44.52317" lon="0.63658">
        <ele>131.1</ele>
        <time>2018-08-25T19:04:42Z</time>
      </trkpt>
      <trkpt lat="44.52311" lon="0.63653">
        <ele>131</ele>
        <time>2018-08-25T19:04:43Z</time>
      </trkpt>
      <trkpt lat="44.52304" lon="0.63648">
        <ele>130.8</ele>
        <time>2018-08-25T19:04:44Z</time>
      </trkpt>
      <trkpt lat="44.52296" lon="0.6364">
        <ele>130.8</ele>
        <time>2018-08-25T19:04:45Z</time>
      </trkpt>
      <trkpt lat="44.5229" lon="0.63632">
        <ele>131</ele>
        <time>2018-08-25T19:04:46Z</time>
      </trkpt>
      <trkpt lat="44.52285" lon="0.63626">
        <ele>131.4</ele>
        <time>2018-08-25T19:04:47Z</time>
      </trkpt>
      <trkpt lat="44.52279" lon="0.63617">
        <ele>132.1</ele>
        <time>2018-08-25T19:04:48Z</time>
      </trkpt>
      <trkpt lat="44.5227" lon="0.63602">
        <ele>133.8</ele>
        <time>2018-08-25T19:04:49Z</time>
      </trkpt>
      <trkpt lat="44.52262" lon="0.63592">
        <ele>135.3</ele>
        <time>2018-08-25T19:04:50Z</time>
      </trkpt>
      <trkpt lat="44.52256" lon="0.63583">
        <ele>137.2</ele>
        <time>2018-08-25T19:04:51Z</time>
      </trkpt>
      <trkpt lat="44.52252" lon="0.63573">
        <ele>139</ele>
        <time>2018-08-25T19:04:52Z</time>
      </trkpt>
      <trkpt lat="44.52245" lon="0.63563">
        <ele>140.7</ele>
        <time>2018-08-25T19:04:53Z</time>
      </trkpt>
      <trkpt lat="44.52238" lon="0.63554">
        <ele>142.1</ele>
        <time>2018-08-25T19:04:54Z</time>
      </trkpt>
      <trkpt lat="44.52231" lon="0.63546">
        <ele>143.2</ele>
        <time>2018-08-25T19:04:55Z</time>
      </trkpt>
      <trkpt lat="44.52225" lon="0.63541">
        <ele>144.1</ele>
        <time>2018-08-25T19:04:56Z</time>
      </trkpt>
      <trkpt lat="44.52225" lon="0.63536">
        <ele>143.9</ele>
        <time>2018-08-25T19:04:57Z</time>
      </trkpt>
      <trkpt lat="44.52224" lon="0.63532">
        <ele>143.8</ele>
        <time>2018-08-25T19:04:58Z</time>
      </trkpt>
      <trkpt lat="44.52226" lon="0.63528">
        <ele>143.6</ele>
        <time>2018-08-25T19:04:59Z</time>
      </trkpt>
      <trkpt lat="44.52231" lon="0.63522">
        <ele>142</ele>
        <time>2018-08-25T19:05:00Z</time>
      </trkpt>
      <trkpt lat="44.52236" lon="0.63514">
        <ele>140.8</ele>
        <time>2018-08-25T19:05:01Z</time>
      </trkpt>
      <trkpt lat="44.52243" lon="0.63503">
        <ele>138.9</ele>
        <time>2018-08-25T19:05:02Z</time>
      </trkpt>
      <trkpt lat="44.52249" lon="0.63492">
        <ele>137.2</ele>
        <time>2018-08-25T19:05:03Z</time>
      </trkpt>
      <trkpt lat="44.52254" lon="0.63482">
        <ele>136.3</ele>
        <time>2018-08-25T19:05:04Z</time>
      </trkpt>
      <trkpt lat="44.52257" lon="0.63471">
        <ele>136.1</ele>
        <time>2018-08-25T19:05:05Z</time>
      </trkpt>
      <trkpt lat="44.52255" lon="0.63453">
        <ele>136</ele>
        <time>2018-08-25T19:05:06Z</time>
      </trkpt>
      <trkpt lat="44.52255" lon="0.63435">
        <ele>135.9</ele>
        <time>2018-08-25T19:05:07Z</time>
      </trkpt>
      <trkpt lat="44.52254" lon="0.63422">
        <ele>135.4</ele>
        <time>2018-08-25T19:05:08Z</time>
      </trkpt>
      <trkpt lat="44.52254" lon="0.63408">
        <ele>134.8</ele>
        <time>2018-08-25T19:05:09Z</time>
      </trkpt>
      <trkpt lat="44.52254" lon="0.63396">
        <ele>134.2</ele>
        <time>2018-08-25T19:05:10Z</time>
      </trkpt>
      <trkpt lat="44.52254" lon="0.63383">
        <ele>133.9</ele>
        <time>2018-08-25T19:05:11Z</time>
      </trkpt>
      <trkpt lat="44.52253" lon="0.63371">
        <ele>133.7</ele>
        <time>2018-08-25T19:05:12Z</time>
      </trkpt>
      <trkpt lat="44.52253" lon="0.63358">
        <ele>133.7</ele>
        <time>2018-08-25T19:05:13Z</time>
      </trkpt>
      <trkpt lat="44.52252" lon="0.63346">
        <ele>133.6</ele>
        <time>2018-08-25T19:05:14Z</time>
      </trkpt>
      <trkpt lat="44.52252" lon="0.63334">
        <ele>133.6</ele>
        <time>2018-08-25T19:05:15Z</time>
      </trkpt>
      <trkpt lat="44.52252" lon="0.63326">
        <ele>133.4</ele>
        <time>2018-08-25T19:05:16Z</time>
      </trkpt>
      <trkpt lat="44.52252" lon="0.63318">
        <ele>133.3</ele>
        <time>2018-08-25T19:05:17Z</time>
      </trkpt>
      <trkpt lat="44.52254" lon="0.63309">
        <ele>133.2</ele>
        <time>2018-08-25T19:05:18Z</time>
      </trkpt>
      <trkpt lat="44.52256" lon="0.63303">
        <ele>133.1</ele>
        <time>2018-08-25T19:05:19Z</time>
      </trkpt>
      <trkpt lat="44.52259" lon="0.63299">
        <ele>133</ele>
        <time>2018-08-25T19:05:20Z</time>
      </trkpt>
      <trkpt lat="44.52273" lon="0.63297">
        <ele>133</ele>
        <time>2018-08-25T19:05:21Z</time>
      </trkpt>
      <trkpt lat="44.52282" lon="0.63295">
        <ele>132.9</ele>
        <time>2018-08-25T19:05:22Z</time>
      </trkpt>
      <trkpt lat="44.52292" lon="0.63294">
        <ele>132.8</ele>
        <time>2018-08-25T19:05:23Z</time>
      </trkpt>
      <trkpt lat="44.52299" lon="0.63294">
        <ele>132.5</ele>
        <time>2018-08-25T19:05:24Z</time>
      </trkpt>
      <trkpt lat="44.52306" lon="0.63294">
        <ele>132.3</ele>
        <time>2018-08-25T19:05:25Z</time>
      </trkpt>
      <trkpt lat="44.52312" lon="0.63292">
        <ele>132.2</ele>
        <time>2018-08-25T19:05:26Z</time>
      </trkpt>
      <trkpt lat="44.52319" lon="0.63287">
        <ele>132.3</ele>
        <time>2018-08-25T19:05:27Z</time>
      </trkpt>
      <trkpt lat="44.52325" lon="0.63283">
        <ele>132.9</ele>
        <time>2018-08-25T19:05:28Z</time>
      </trkpt>
      <trkpt lat="44.52332" lon="0.63277">
        <ele>133.6</ele>
        <time>2018-08-25T19:05:29Z</time>
      </trkpt>
      <trkpt lat="44.52338" lon="0.63271">
        <ele>134.4</ele>
        <time>2018-08-25T19:05:30Z</time>
      </trkpt>
      <trkpt lat="44.52344" lon="0.63264">
        <ele>135.2</ele>
        <time>2018-08-25T19:05:31Z</time>
      </trkpt>
      <trkpt lat="44.52351" lon="0.63257">
        <ele>136</ele>
        <time>2018-08-25T19:05:32Z</time>
      </trkpt>
      <trkpt lat="44.52359" lon="0.63249">
        <ele>136.7</ele>
        <time>2018-08-25T19:05:33Z</time>
      </trkpt>
      <trkpt lat="44.52366" lon="0.63242">
        <ele>137.9</ele>
        <time>2018-08-25T19:05:34Z</time>
      </trkpt>
      <trkpt lat="44.52376" lon="0.63235">
        <ele>139.4</ele>
        <time>2018-08-25T19:05:35Z</time>
      </trkpt>
      <trkpt lat="44.52384" lon="0.63226">
        <ele>141.2</ele>
        <time>2018-08-25T19:05:36Z</time>
      </trkpt>
      <trkpt lat="44.52392" lon="0.63218">
        <ele>142.7</ele>
        <time>2018-08-25T19:05:37Z</time>
      </trkpt>
      <trkpt lat="44.52401" lon="0.63209">
        <ele>144.7</ele>
        <time>2018-08-25T19:05:38Z</time>
      </trkpt>
      <trkpt lat="44.52409" lon="0.63202">
        <ele>146.4</ele>
        <time>2018-08-25T19:05:39Z</time>
      </trkpt>
      <trkpt lat="44.52417" lon="0.63194">
        <ele>147.8</ele>
        <time>2018-08-25T19:05:40Z</time>
      </trkpt>
      <trkpt lat="44.52422" lon="0.6319">
        <ele>149.2</ele>
        <time>2018-08-25T19:05:41Z</time>
      </trkpt>
      <trkpt lat="44.52428" lon="0.63181">
        <ele>150.5</ele>
        <time>2018-08-25T19:05:42Z</time>
      </trkpt>
      <trkpt lat="44.52434" lon="0.63174">
        <ele>151.6</ele>
        <time>2018-08-25T19:05:43Z</time>
      </trkpt>
      <trkpt lat="44.5244" lon="0.63166">
        <ele>152.8</ele>
        <time>2018-08-25T19:05:44Z</time>
      </trkpt>
      <trkpt lat="44.52446" lon="0.63158">
        <ele>154.2</ele>
        <time>2018-08-25T19:05:45Z</time>
      </trkpt>
      <trkpt lat="44.52453" lon="0.63151">
        <ele>155.4</ele>
        <time>2018-08-25T19:05:46Z</time>
      </trkpt>
      <trkpt lat="44.52461" lon="0.63145">
        <ele>157.3</ele>
        <time>2018-08-25T19:05:47Z</time>
      </trkpt>
      <trkpt lat="44.52469" lon="0.63138">
        <ele>158.6</ele>
        <time>2018-08-25T19:05:48Z</time>
      </trkpt>
      <trkpt lat="44.52478" lon="0.6313">
        <ele>160.6</ele>
        <time>2018-08-25T19:05:49Z</time>
      </trkpt>
      <trkpt lat="44.52488" lon="0.63123">
        <ele>162.8</ele>
        <time>2018-08-25T19:05:50Z</time>
      </trkpt>
      <trkpt lat="44.52497" lon="0.6312">
        <ele>163.8</ele>
        <time>2018-08-25T19:05:51Z</time>
      </trkpt>
      <trkpt lat="44.52505" lon="0.63119">
        <ele>165</ele>
        <time>2018-08-25T19:05:52Z</time>
      </trkpt>
      <trkpt lat="44.52513" lon="0.63118">
        <ele>166</ele>
        <time>2018-08-25T19:05:53Z</time>
      </trkpt>
      <trkpt lat="44.52523" lon="0.63119">
        <ele>166.9</ele>
        <time>2018-08-25T19:05:54Z</time>
      </trkpt>
      <trkpt lat="44.52535" lon="0.63121">
        <ele>168.1</ele>
        <time>2018-08-25T19:05:55Z</time>
      </trkpt>
      <trkpt lat="44.52545" lon="0.63121">
        <ele>168.7</ele>
        <time>2018-08-25T19:05:56Z</time>
      </trkpt>
      <trkpt lat="44.52555" lon="0.63122">
        <ele>169.4</ele>
        <time>2018-08-25T19:05:57Z</time>
      </trkpt>
      <trkpt lat="44.52564" lon="0.63121">
        <ele>170</ele>
        <time>2018-08-25T19:05:58Z</time>
      </trkpt>
      <trkpt lat="44.52575" lon="0.63122">
        <ele>170.2</ele>
        <time>2018-08-25T19:05:59Z</time>
      </trkpt>
      <trkpt lat="44.52586" lon="0.63121">
        <ele>170.2</ele>
        <time>2018-08-25T19:06:00Z</time>
      </trkpt>
      <trkpt lat="44.52594" lon="0.63118">
        <ele>171</ele>
        <time>2018-08-25T19:06:01Z</time>
      </trkpt>
      <trkpt lat="44.52601" lon="0.63111">
        <ele>171.8</ele>
        <time>2018-08-25T19:06:02Z</time>
      </trkpt>
      <trkpt lat="44.52606" lon="0.63106">
        <ele>172.4</ele>
        <time>2018-08-25T19:06:03Z</time>
      </trkpt>
      <trkpt lat="44.52607" lon="0.63103">
        <ele>172.8</ele>
        <time>2018-08-25T19:06:04Z</time>
      </trkpt>
      <trkpt lat="44.5261" lon="0.63098">
        <ele>173.4</ele>
        <time>2018-08-25T19:06:05Z</time>
      </trkpt>
      <trkpt lat="44.52613" lon="0.63092">
        <ele>173.8</ele>
        <time>2018-08-25T19:06:06Z</time>
      </trkpt>
      <trkpt lat="44.52615" lon="0.63085">
        <ele>174.4</ele>
        <time>2018-08-25T19:06:07Z</time>
      </trkpt>
      <trkpt lat="44.52618" lon="0.63076">
        <ele>175.2</ele>
        <time>2018-08-25T19:06:08Z</time>
      </trkpt>
      <trkpt lat="44.5262" lon="0.63066">
        <ele>176</ele>
        <time>2018-08-25T19:06:09Z</time>
      </trkpt>
      <trkpt lat="44.52623" lon="0.6305">
        <ele>177.1</ele>
        <time>2018-08-25T19:06:10Z</time>
      </trkpt>
      <trkpt lat="44.52627" lon="0.63035">
        <ele>178.3</ele>
        <time>2018-08-25T19:06:11Z</time>
      </trkpt>
      <trkpt lat="44.52632" lon="0.63021">
        <ele>179.6</ele>
        <time>2018-08-25T19:06:12Z</time>
      </trkpt>
      <trkpt lat="44.52638" lon="0.63006">
        <ele>181.1</ele>
        <time>2018-08-25T19:06:13Z</time>
      </trkpt>
      <trkpt lat="44.52643" lon="0.6299">
        <ele>182.9</ele>
        <time>2018-08-25T19:06:14Z</time>
      </trkpt>
      <trkpt lat="44.52649" lon="0.62974">
        <ele>185</ele>
        <time>2018-08-25T19:06:15Z</time>
      </trkpt>
      <trkpt lat="44.52654" lon="0.62959">
        <ele>186.3</ele>
        <time>2018-08-25T19:06:16Z</time>
      </trkpt>
      <trkpt lat="44.5266" lon="0.62945">
        <ele>187.5</ele>
        <time>2018-08-25T19:06:17Z</time>
      </trkpt>
      <trkpt lat="44.52665" lon="0.62933">
        <ele>187.6</ele>
        <time>2018-08-25T19:06:18Z</time>
      </trkpt>
      <trkpt lat="44.52669" lon="0.62922">
        <ele>188.7</ele>
        <time>2018-08-25T19:06:19Z</time>
      </trkpt>
      <trkpt lat="44.52674" lon="0.6291">
        <ele>189.6</ele>
        <time>2018-08-25T19:06:20Z</time>
      </trkpt>
      <trkpt lat="44.52677" lon="0.62899">
        <ele>190.3</ele>
        <time>2018-08-25T19:06:21Z</time>
      </trkpt>
      <trkpt lat="44.52681" lon="0.62888">
        <ele>191.1</ele>
        <time>2018-08-25T19:06:22Z</time>
      </trkpt>
      <trkpt lat="44.52684" lon="0.62878">
        <ele>192.1</ele>
        <time>2018-08-25T19:06:23Z</time>
      </trkpt>
      <trkpt lat="44.52688" lon="0.62868">
        <ele>192.6</ele>
        <time>2018-08-25T19:06:24Z</time>
      </trkpt>
      <trkpt lat="44.5269" lon="0.62858">
        <ele>193.6</ele>
        <time>2018-08-25T19:06:25Z</time>
      </trkpt>
      <trkpt lat="44.52693" lon="0.6285">
        <ele>194.5</ele>
        <time>2018-08-25T19:06:26Z</time>
      </trkpt>
      <trkpt lat="44.52694" lon="0.62843">
        <ele>194.8</ele>
        <time>2018-08-25T19:06:27Z</time>
      </trkpt>
      <trkpt lat="44.52697" lon="0.62838">
        <ele>195.2</ele>
        <time>2018-08-25T19:06:28Z</time>
      </trkpt>
      <trkpt lat="44.52698" lon="0.62832">
        <ele>195.5</ele>
        <time>2018-08-25T19:06:29Z</time>
      </trkpt>
      <trkpt lat="44.52701" lon="0.62837">
        <ele>194.1</ele>
        <time>2018-08-25T19:06:31Z</time>
      </trkpt>
      <trkpt lat="44.52703" lon="0.62842">
        <ele>193.1</ele>
        <time>2018-08-25T19:06:32Z</time>
      </trkpt>
      <trkpt lat="44.52709" lon="0.62846">
        <ele>191.7</ele>
        <time>2018-08-25T19:06:33Z</time>
      </trkpt>
      <trkpt lat="44.52714" lon="0.62851">
        <ele>190.4</ele>
        <time>2018-08-25T19:06:34Z</time>
      </trkpt>
      <trkpt lat="44.52717" lon="0.62856">
        <ele>189.5</ele>
        <time>2018-08-25T19:06:35Z</time>
      </trkpt>
      <trkpt lat="44.52722" lon="0.62861">
        <ele>188.6</ele>
        <time>2018-08-25T19:06:36Z</time>
      </trkpt>
      <trkpt lat="44.52727" lon="0.62866">
        <ele>187</ele>
        <time>2018-08-25T19:06:37Z</time>
      </trkpt>
      <trkpt lat="44.52732" lon="0.62872">
        <ele>185.6</ele>
        <time>2018-08-25T19:06:38Z</time>
      </trkpt>
      <trkpt lat="44.52737" lon="0.62876">
        <ele>184.1</ele>
        <time>2018-08-25T19:06:39Z</time>
      </trkpt>
      <trkpt lat="44.52742" lon="0.62881">
        <ele>182.7</ele>
        <time>2018-08-25T19:06:40Z</time>
      </trkpt>
      <trkpt lat="44.52747" lon="0.62885">
        <ele>181.7</ele>
        <time>2018-08-25T19:06:41Z</time>
      </trkpt>
      <trkpt lat="44.52752" lon="0.6289">
        <ele>180</ele>
        <time>2018-08-25T19:06:42Z</time>
      </trkpt>
      <trkpt lat="44.52757" lon="0.62895">
        <ele>178.9</ele>
        <time>2018-08-25T19:06:43Z</time>
      </trkpt>
      <trkpt lat="44.52761" lon="0.62901">
        <ele>177.4</ele>
        <time>2018-08-25T19:06:44Z</time>
      </trkpt>
      <trkpt lat="44.52767" lon="0.62907">
        <ele>175.5</ele>
        <time>2018-08-25T19:06:45Z</time>
      </trkpt>
      <trkpt lat="44.52773" lon="0.62913">
        <ele>174.1</ele>
        <time>2018-08-25T19:06:46Z</time>
      </trkpt>
      <trkpt lat="44.5278" lon="0.62919">
        <ele>172.4</ele>
        <time>2018-08-25T19:06:47Z</time>
      </trkpt>
      <trkpt lat="44.52787" lon="0.62926">
        <ele>170.8</ele>
        <time>2018-08-25T19:06:48Z</time>
      </trkpt>
      <trkpt lat="44.52793" lon="0.62933">
        <ele>169.2</ele>
        <time>2018-08-25T19:06:49Z</time>
      </trkpt>
      <trkpt lat="44.52798" lon="0.62939">
        <ele>167.7</ele>
        <time>2018-08-25T19:06:50Z</time>
      </trkpt>
      <trkpt lat="44.52804" lon="0.62946">
        <ele>165.7</ele>
        <time>2018-08-25T19:06:51Z</time>
      </trkpt>
      <trkpt lat="44.52809" lon="0.62953">
        <ele>164.6</ele>
        <time>2018-08-25T19:06:52Z</time>
      </trkpt>
      <trkpt lat="44.52813" lon="0.62957">
        <ele>162.8</ele>
        <time>2018-08-25T19:06:53Z</time>
      </trkpt>
      <trkpt lat="44.52817" lon="0.6296">
        <ele>162.3</ele>
        <time>2018-08-25T19:06:54Z</time>
      </trkpt>
      <trkpt lat="44.52823" lon="0.6296">
        <ele>161.4</ele>
        <time>2018-08-25T19:06:55Z</time>
      </trkpt>
      <trkpt lat="44.52829" lon="0.62958">
        <ele>160.6</ele>
        <time>2018-08-25T19:06:56Z</time>
      </trkpt>
      <trkpt lat="44.52835" lon="0.62954">
        <ele>160</ele>
        <time>2018-08-25T19:06:57Z</time>
      </trkpt>
      <trkpt lat="44.52842" lon="0.62951">
        <ele>159.4</ele>
        <time>2018-08-25T19:06:58Z</time>
      </trkpt>
      <trkpt lat="44.52849" lon="0.62948">
        <ele>158.8</ele>
        <time>2018-08-25T19:06:59Z</time>
      </trkpt>
      <trkpt lat="44.52857" lon="0.62945">
        <ele>158.1</ele>
        <time>2018-08-25T19:07:00Z</time>
      </trkpt>
      <trkpt lat="44.52863" lon="0.62944">
        <ele>157.8</ele>
        <time>2018-08-25T19:07:01Z</time>
      </trkpt>
      <trkpt lat="44.5287" lon="0.62941">
        <ele>157.3</ele>
        <time>2018-08-25T19:07:02Z</time>
      </trkpt>
      <trkpt lat="44.52874" lon="0.62942">
        <ele>156.9</ele>
        <time>2018-08-25T19:07:03Z</time>
      </trkpt>
      <trkpt lat="44.52879" lon="0.62945">
        <ele>156.3</ele>
        <time>2018-08-25T19:07:04Z</time>
      </trkpt>
      <trkpt lat="44.52883" lon="0.62952">
        <ele>155.6</ele>
        <time>2018-08-25T19:07:05Z</time>
      </trkpt>
      <trkpt lat="44.52889" lon="0.6296">
        <ele>154.7</ele>
        <time>2018-08-25T19:07:06Z</time>
      </trkpt>
      <trkpt lat="44.52896" lon="0.62968">
        <ele>154</ele>
        <time>2018-08-25T19:07:07Z</time>
      </trkpt>
      <trkpt lat="44.52904" lon="0.62977">
        <ele>153.3</ele>
        <time>2018-08-25T19:07:08Z</time>
      </trkpt>
      <trkpt lat="44.52911" lon="0.62984">
        <ele>152.8</ele>
        <time>2018-08-25T19:07:09Z</time>
      </trkpt>
      <trkpt lat="44.52917" lon="0.62991">
        <ele>152.4</ele>
        <time>2018-08-25T19:07:10Z</time>
      </trkpt>
      <trkpt lat="44.52923" lon="0.62998">
        <ele>152.2</ele>
        <time>2018-08-25T19:07:11Z</time>
      </trkpt>
      <trkpt lat="44.52927" lon="0.63003">
        <ele>152</ele>
        <time>2018-08-25T19:07:12Z</time>
      </trkpt>
      <trkpt lat="44.5293" lon="0.63007">
        <ele>151.9</ele>
        <time>2018-08-25T19:07:13Z</time>
      </trkpt>
      <trkpt lat="44.52933" lon="0.63011">
        <ele>151.8</ele>
        <time>2018-08-25T19:07:14Z</time>
      </trkpt>
      <trkpt lat="44.52938" lon="0.63012">
        <ele>151.7</ele>
        <time>2018-08-25T19:07:15Z</time>
      </trkpt>
      <trkpt lat="44.52944" lon="0.63009">
        <ele>151.5</ele>
        <time>2018-08-25T19:07:16Z</time>
      </trkpt>
      <trkpt lat="44.52951" lon="0.63006">
        <ele>151.4</ele>
        <time>2018-08-25T19:07:17Z</time>
      </trkpt>
      <trkpt lat="44.52959" lon="0.62999">
        <ele>151.5</ele>
        <time>2018-08-25T19:07:18Z</time>
      </trkpt>
      <trkpt lat="44.52968" lon="0.62991">
        <ele>151.5</ele>
        <time>2018-08-25T19:07:19Z</time>
      </trkpt>
      <trkpt lat="44.52977" lon="0.62982">
        <ele>151.7</ele>
        <time>2018-08-25T19:07:20Z</time>
      </trkpt>
      <trkpt lat="44.52989" lon="0.62971">
        <ele>152.1</ele>
        <time>2018-08-25T19:07:21Z</time>
      </trkpt>
      <trkpt lat="44.53" lon="0.62961">
        <ele>152.7</ele>
        <time>2018-08-25T19:07:22Z</time>
      </trkpt>
      <trkpt lat="44.53011" lon="0.6295">
        <ele>153.9</ele>
        <time>2018-08-25T19:07:23Z</time>
      </trkpt>
      <trkpt lat="44.53022" lon="0.62937">
        <ele>155.4</ele>
        <time>2018-08-25T19:07:24Z</time>
      </trkpt>
      <trkpt lat="44.53034" lon="0.62922">
        <ele>157</ele>
        <time>2018-08-25T19:07:25Z</time>
      </trkpt>
      <trkpt lat="44.53044" lon="0.62907">
        <ele>158.1</ele>
        <time>2018-08-25T19:07:26Z</time>
      </trkpt>
      <trkpt lat="44.53054" lon="0.62888">
        <ele>159.6</ele>
        <time>2018-08-25T19:07:27Z</time>
      </trkpt>
      <trkpt lat="44.53064" lon="0.6287">
        <ele>161.1</ele>
        <time>2018-08-25T19:07:28Z</time>
      </trkpt>
      <trkpt lat="44.53075" lon="0.62852">
        <ele>162.1</ele>
        <time>2018-08-25T19:07:29Z</time>
      </trkpt>
      <trkpt lat="44.53085" lon="0.62834">
        <ele>163.6</ele>
        <time>2018-08-25T19:07:30Z</time>
      </trkpt>
      <trkpt lat="44.53096" lon="0.62817">
        <ele>164.2</ele>
        <time>2018-08-25T19:07:31Z</time>
      </trkpt>
      <trkpt lat="44.53108" lon="0.62796">
        <ele>164.6</ele>
        <time>2018-08-25T19:07:32Z</time>
      </trkpt>
      <trkpt lat="44.5312" lon="0.62779">
        <ele>164.8</ele>
        <time>2018-08-25T19:07:33Z</time>
      </trkpt>
      <trkpt lat="44.53132" lon="0.62763">
        <ele>165</ele>
        <time>2018-08-25T19:07:34Z</time>
      </trkpt>
      <trkpt lat="44.53145" lon="0.62745">
        <ele>165.2</ele>
        <time>2018-08-25T19:07:35Z</time>
      </trkpt>
      <trkpt lat="44.53156" lon="0.62731">
        <ele>165.5</ele>
        <time>2018-08-25T19:07:36Z</time>
      </trkpt>
      <trkpt lat="44.53166" lon="0.62716">
        <ele>165.8</ele>
        <time>2018-08-25T19:07:37Z</time>
      </trkpt>
      <trkpt lat="44.53178" lon="0.62701">
        <ele>166.1</ele>
        <time>2018-08-25T19:07:38Z</time>
      </trkpt>
      <trkpt lat="44.53188" lon="0.62687">
        <ele>166.3</ele>
        <time>2018-08-25T19:07:39Z</time>
      </trkpt>
      <trkpt lat="44.53198" lon="0.62675">
        <ele>166.6</ele>
        <time>2018-08-25T19:07:40Z</time>
      </trkpt>
      <trkpt lat="44.53207" lon="0.62663">
        <ele>166.9</ele>
        <time>2018-08-25T19:07:41Z</time>
      </trkpt>
      <trkpt lat="44.53216" lon="0.6265">
        <ele>167.5</ele>
        <time>2018-08-25T19:07:42Z</time>
      </trkpt>
      <trkpt lat="44.53226" lon="0.62637">
        <ele>168.1</ele>
        <time>2018-08-25T19:07:43Z</time>
      </trkpt>
      <trkpt lat="44.53234" lon="0.62625">
        <ele>168.2</ele>
        <time>2018-08-25T19:07:44Z</time>
      </trkpt>
      <trkpt lat="44.53243" lon="0.62613">
        <ele>168.3</ele>
        <time>2018-08-25T19:07:45Z</time>
      </trkpt>
      <trkpt lat="44.53251" lon="0.62601">
        <ele>168.6</ele>
        <time>2018-08-25T19:07:46Z</time>
      </trkpt>
      <trkpt lat="44.53259" lon="0.6259">
        <ele>168.9</ele>
        <time>2018-08-25T19:07:47Z</time>
      </trkpt>
      <trkpt lat="44.53267" lon="0.6258">
        <ele>169</ele>
        <time>2018-08-25T19:07:48Z</time>
      </trkpt>
      <trkpt lat="44.53272" lon="0.62573">
        <ele>169</ele>
        <time>2018-08-25T19:07:49Z</time>
      </trkpt>
      <trkpt lat="44.53276" lon="0.62569">
        <ele>169</ele>
        <time>2018-08-25T19:07:50Z</time>
      </trkpt>
      <trkpt lat="44.5328" lon="0.62573">
        <ele>169</ele>
        <time>2018-08-25T19:07:51Z</time>
      </trkpt>
      <trkpt lat="44.53285" lon="0.62573">
        <ele>168.9</ele>
        <time>2018-08-25T19:07:52Z</time>
      </trkpt>
      <trkpt lat="44.5329" lon="0.62581">
        <ele>168.6</ele>
        <time>2018-08-25T19:07:53Z</time>
      </trkpt>
      <trkpt lat="44.53295" lon="0.62589">
        <ele>168.4</ele>
        <time>2018-08-25T19:07:54Z</time>
      </trkpt>
      <trkpt lat="44.53303" lon="0.62606">
        <ele>168</ele>
        <time>2018-08-25T19:07:55Z</time>
      </trkpt>
      <trkpt lat="44.5331" lon="0.62621">
        <ele>167.6</ele>
        <time>2018-08-25T19:07:56Z</time>
      </trkpt>
      <trkpt lat="44.53319" lon="0.62631">
        <ele>167.3</ele>
        <time>2018-08-25T19:07:57Z</time>
      </trkpt>
      <trkpt lat="44.5333" lon="0.6264">
        <ele>167</ele>
        <time>2018-08-25T19:07:58Z</time>
      </trkpt>
      <trkpt lat="44.53341" lon="0.62647">
        <ele>167.1</ele>
        <time>2018-08-25T19:07:59Z</time>
      </trkpt>
      <trkpt lat="44.53353" lon="0.62652">
        <ele>167.7</ele>
        <time>2018-08-25T19:08:00Z</time>
      </trkpt>
      <trkpt lat="44.53366" lon="0.62657">
        <ele>167.8</ele>
        <time>2018-08-25T19:08:01Z</time>
      </trkpt>
      <trkpt lat="44.53379" lon="0.62665">
        <ele>166.6</ele>
        <time>2018-08-25T19:08:02Z</time>
      </trkpt>
      <trkpt lat="44.53392" lon="0.62673">
        <ele>165.3</ele>
        <time>2018-08-25T19:08:03Z</time>
      </trkpt>
      <trkpt lat="44.53403" lon="0.6268">
        <ele>163.7</ele>
        <time>2018-08-25T19:08:04Z</time>
      </trkpt>
      <trkpt lat="44.53414" lon="0.62684">
        <ele>161.6</ele>
        <time>2018-08-25T19:08:05Z</time>
      </trkpt>
      <trkpt lat="44.53426" lon="0.62684">
        <ele>159.7</ele>
        <time>2018-08-25T19:08:06Z</time>
      </trkpt>
      <trkpt lat="44.53436" lon="0.62683">
        <ele>158.4</ele>
        <time>2018-08-25T19:08:07Z</time>
      </trkpt>
      <trkpt lat="44.53447" lon="0.62678">
        <ele>159</ele>
        <time>2018-08-25T19:08:08Z</time>
      </trkpt>
      <trkpt lat="44.53458" lon="0.62672">
        <ele>160.4</ele>
        <time>2018-08-25T19:08:09Z</time>
      </trkpt>
      <trkpt lat="44.53469" lon="0.62663">
        <ele>161.9</ele>
        <time>2018-08-25T19:08:10Z</time>
      </trkpt>
      <trkpt lat="44.53479" lon="0.62656">
        <ele>162.9</ele>
        <time>2018-08-25T19:08:11Z</time>
      </trkpt>
      <trkpt lat="44.53488" lon="0.62648">
        <ele>163.8</ele>
        <time>2018-08-25T19:08:12Z</time>
      </trkpt>
      <trkpt lat="44.53496" lon="0.62641">
        <ele>164.4</ele>
        <time>2018-08-25T19:08:13Z</time>
      </trkpt>
      <trkpt lat="44.53503" lon="0.62635">
        <ele>164.9</ele>
        <time>2018-08-25T19:08:14Z</time>
      </trkpt>
      <trkpt lat="44.53509" lon="0.62626">
        <ele>165.8</ele>
        <time>2018-08-25T19:08:15Z</time>
      </trkpt>
      <trkpt lat="44.53514" lon="0.62617">
        <ele>166.5</ele>
        <time>2018-08-25T19:08:16Z</time>
      </trkpt>
      <trkpt lat="44.5352" lon="0.62606">
        <ele>167.3</ele>
        <time>2018-08-25T19:08:17Z</time>
      </trkpt>
      <trkpt lat="44.53524" lon="0.62592">
        <ele>168.1</ele>
        <time>2018-08-25T19:08:18Z</time>
      </trkpt>
      <trkpt lat="44.53529" lon="0.6258">
        <ele>168.7</ele>
        <time>2018-08-25T19:08:19Z</time>
      </trkpt>
      <trkpt lat="44.53533" lon="0.6257">
        <ele>169.3</ele>
        <time>2018-08-25T19:08:20Z</time>
      </trkpt>
      <trkpt lat="44.53538" lon="0.62561">
        <ele>169.9</ele>
        <time>2018-08-25T19:08:21Z</time>
      </trkpt>
      <trkpt lat="44.53541" lon="0.62556">
        <ele>170.3</ele>
        <time>2018-08-25T19:08:22Z</time>
      </trkpt>
      <trkpt lat="44.53544" lon="0.62552">
        <ele>170.5</ele>
        <time>2018-08-25T19:08:23Z</time>
      </trkpt>
      <trkpt lat="44.53547" lon="0.62549">
        <ele>170.8</ele>
        <time>2018-08-25T19:08:24Z</time>
      </trkpt>
      <trkpt lat="44.5355" lon="0.62546">
        <ele>171.1</ele>
        <time>2018-08-25T19:08:25Z</time>
      </trkpt>
      <trkpt lat="44.53554" lon="0.62542">
        <ele>171.4</ele>
        <time>2018-08-25T19:08:26Z</time>
      </trkpt>
      <trkpt lat="44.53556" lon="0.6254">
        <ele>171.7</ele>
        <time>2018-08-25T19:08:27Z</time>
      </trkpt>
      <trkpt lat="44.5356" lon="0.62535">
        <ele>172.2</ele>
        <time>2018-08-25T19:08:29Z</time>
      </trkpt>
      <trkpt lat="44.53563" lon="0.62531">
        <ele>172.5</ele>
        <time>2018-08-25T19:08:30Z</time>
      </trkpt>
      <trkpt lat="44.53567" lon="0.62526">
        <ele>173</ele>
        <time>2018-08-25T19:08:31Z</time>
      </trkpt>
      <trkpt lat="44.53571" lon="0.62521">
        <ele>172.4</ele>
        <time>2018-08-25T19:08:32Z</time>
      </trkpt>
      <trkpt lat="44.53575" lon="0.62517">
        <ele>172.2</ele>
        <time>2018-08-25T19:08:33Z</time>
      </trkpt>
      <trkpt lat="44.53581" lon="0.62516">
        <ele>171.2</ele>
        <time>2018-08-25T19:08:34Z</time>
      </trkpt>
      <trkpt lat="44.53585" lon="0.62514">
        <ele>170.8</ele>
        <time>2018-08-25T19:08:36Z</time>
      </trkpt>
      <trkpt lat="44.53591" lon="0.62521">
        <ele>169.2</ele>
        <time>2018-08-25T19:08:37Z</time>
      </trkpt>
      <trkpt lat="44.53595" lon="0.62522">
        <ele>168.2</ele>
        <time>2018-08-25T19:08:38Z</time>
      </trkpt>
      <trkpt lat="44.53599" lon="0.62518">
        <ele>168.5</ele>
        <time>2018-08-25T19:08:39Z</time>
      </trkpt>
      <trkpt lat="44.53601" lon="0.62513">
        <ele>168.7</ele>
        <time>2018-08-25T19:08:40Z</time>
      </trkpt>
      <trkpt lat="44.53603" lon="0.62506">
        <ele>168.9</ele>
        <time>2018-08-25T19:08:41Z</time>
      </trkpt>
      <trkpt lat="44.53607" lon="0.625">
        <ele>169.2</ele>
        <time>2018-08-25T19:08:42Z</time>
      </trkpt>
      <trkpt lat="44.53611" lon="0.62494">
        <ele>169.5</ele>
        <time>2018-08-25T19:08:43Z</time>
      </trkpt>
      <trkpt lat="44.53616" lon="0.62492">
        <ele>169.8</ele>
        <time>2018-08-25T19:08:44Z</time>
      </trkpt>
      <trkpt lat="44.53622" lon="0.62493">
        <ele>170.9</ele>
        <time>2018-08-25T19:08:45Z</time>
      </trkpt>
      <trkpt lat="44.53628" lon="0.62496">
        <ele>170.8</ele>
        <time>2018-08-25T19:08:46Z</time>
      </trkpt>
      <trkpt lat="44.53632" lon="0.62497">
        <ele>170.8</ele>
        <time>2018-08-25T19:08:47Z</time>
      </trkpt>
      <trkpt lat="44.53635" lon="0.62497">
        <ele>170.8</ele>
        <time>2018-08-25T19:08:48Z</time>
      </trkpt>
      <trkpt lat="44.53638" lon="0.62498">
        <ele>170.8</ele>
        <time>2018-08-25T19:08:49Z</time>
      </trkpt>
      <trkpt lat="44.53641" lon="0.62502">
        <ele>170.7</ele>
        <time>2018-08-25T19:08:51Z</time>
      </trkpt>
      <trkpt lat="44.53642" lon="0.62508">
        <ele>170.6</ele>
        <time>2018-08-25T19:08:53Z</time>
      </trkpt>
    </trkseg>
  </trk>
</gpx>